<?xml version="1.0" encoding="UTF-8" standalone="no" ?>
<gpx xmlns="http://www.topografix.com/GPX/1/1" creator="MapSource 6.16.3" version="1.1" xmlns:xsi="http://www.w3.org/2001/XMLSchema-instance" xsi:schemaLocation="http://www.topografix.com/GPX/1/1 http://www.topografix.com/GPX/1/1/gpx.xsd">

  <metadata>
    <link href="http://www.garmin.com">
      <text>Garmin International</text>
    </link>
    <time>2013-04-11T12:33:01Z</time>
    <bounds maxlat="46.102629974484444" maxlon="8.490032991394401" minlat="45.929559012874961" minlon="8.260254012420774"/>
  </metadata>

  <trk>
    <name>2013-04-07T07_4</name>
    <extensions>
      <gpxx:TrackExtension xmlns:gpxx="http://www.garmin.com/xmlschemas/GpxExtensions/v3">
        <gpxx:DisplayColor>Magenta</gpxx:DisplayColor>
      </gpxx:TrackExtension>
    </extensions>
    <trkseg>
      <trkpt lat="45.929784988984466" lon="8.479641024023294">
        <ele>207.21299999999999</ele>
        <time>2013-04-07T07:48:25Z</time>
      </trkpt>
      <trkpt lat="45.929779037833214" lon="8.479600958526135">
        <ele>206.815</ele>
        <time>2013-04-07T07:48:29Z</time>
      </trkpt>
      <trkpt lat="45.92975297011435" lon="8.479581009596586">
        <ele>206.727</ele>
        <time>2013-04-07T07:48:38Z</time>
      </trkpt>
      <trkpt lat="45.929710976779461" lon="8.479455029591918">
        <ele>206.51599999999999</ele>
        <time>2013-04-07T07:48:43Z</time>
      </trkpt>
      <trkpt lat="45.929659008979797" lon="8.479276997968555">
        <ele>206.173</ele>
        <time>2013-04-07T07:48:47Z</time>
      </trkpt>
      <trkpt lat="45.929744001477957" lon="8.479155041277409">
        <ele>205.578</ele>
        <time>2013-04-07T07:48:51Z</time>
      </trkpt>
      <trkpt lat="45.929783983156085" lon="8.479145988821983">
        <ele>205.55500000000001</ele>
        <time>2013-04-07T07:48:52Z</time>
      </trkpt>
      <trkpt lat="45.930099980905652" lon="8.479173984378576">
        <ele>205.78700000000001</ele>
        <time>2013-04-07T07:49:00Z</time>
      </trkpt>
      <trkpt lat="45.930377002805471" lon="8.479237016290426">
        <ele>205.07499999999999</ele>
        <time>2013-04-07T07:49:06Z</time>
      </trkpt>
      <trkpt lat="45.930715966969728" lon="8.479387974366546">
        <ele>204.02500000000001</ele>
        <time>2013-04-07T07:49:13Z</time>
      </trkpt>
      <trkpt lat="45.930921994149685" lon="8.479500962421298">
        <ele>203.37</ele>
        <time>2013-04-07T07:49:17Z</time>
      </trkpt>
      <trkpt lat="45.931326001882553" lon="8.479731967672706">
        <ele>201.971</ele>
        <time>2013-04-07T07:49:25Z</time>
      </trkpt>
      <trkpt lat="45.931505039334297" lon="8.479855014011264">
        <ele>201.14699999999999</ele>
        <time>2013-04-07T07:49:30Z</time>
      </trkpt>
      <trkpt lat="45.931530017405748" lon="8.479859959334135">
        <ele>200.44200000000001</ele>
        <time>2013-04-07T07:49:33Z</time>
      </trkpt>
      <trkpt lat="45.931585002690554" lon="8.479863982647657">
        <ele>200.18899999999999</ele>
        <time>2013-04-07T07:49:52Z</time>
      </trkpt>
      <trkpt lat="45.93172699213028" lon="8.479946963489056">
        <ele>199.816</ele>
        <time>2013-04-07T07:49:57Z</time>
      </trkpt>
      <trkpt lat="45.931806033477187" lon="8.479867000132799">
        <ele>199.53200000000001</ele>
        <time>2013-04-07T07:50:01Z</time>
      </trkpt>
      <trkpt lat="45.931798992678523" lon="8.479789970442653">
        <ele>198.93100000000001</ele>
        <time>2013-04-07T07:50:06Z</time>
      </trkpt>
      <trkpt lat="45.931795975193381" lon="8.47976197488606">
        <ele>198.78700000000001</ele>
        <time>2013-04-07T07:50:10Z</time>
      </trkpt>
      <trkpt lat="45.931743001565337" lon="8.479687962681055">
        <ele>198.749</ele>
        <time>2013-04-07T07:51:05Z</time>
      </trkpt>
      <trkpt lat="45.931678963825107" lon="8.479450000450015">
        <ele>198.804</ele>
        <time>2013-04-07T07:51:09Z</time>
      </trkpt>
      <trkpt lat="45.931542003527284" lon="8.478972986340523">
        <ele>197.59899999999999</ele>
        <time>2013-04-07T07:51:15Z</time>
      </trkpt>
      <trkpt lat="45.931481989100575" lon="8.478810964152217">
        <ele>196.63999999999999</ele>
        <time>2013-04-07T07:51:17Z</time>
      </trkpt>
      <trkpt lat="45.931390961632133" lon="8.478569984436035">
        <ele>198.10499999999999</ele>
        <time>2013-04-07T07:51:20Z</time>
      </trkpt>
      <trkpt lat="45.931237991899252" lon="8.478152984753251">
        <ele>198.28899999999999</ele>
        <time>2013-04-07T07:51:26Z</time>
      </trkpt>
      <trkpt lat="45.93112600967288" lon="8.477819971740246">
        <ele>198.15100000000001</ele>
        <time>2013-04-07T07:51:32Z</time>
      </trkpt>
      <trkpt lat="45.931174037978053" lon="8.477583015337586">
        <ele>197.41999999999999</ele>
        <time>2013-04-07T07:51:36Z</time>
      </trkpt>
      <trkpt lat="45.931309992447495" lon="8.477445971220732">
        <ele>196.63399999999999</ele>
        <time>2013-04-07T07:51:39Z</time>
      </trkpt>
      <trkpt lat="45.931431027129292" lon="8.477345975115895">
        <ele>195.833</ele>
        <time>2013-04-07T07:51:42Z</time>
      </trkpt>
      <trkpt lat="45.931434966623783" lon="8.477167021483183">
        <ele>195.25399999999999</ele>
        <time>2013-04-07T07:51:46Z</time>
      </trkpt>
      <trkpt lat="45.931390039622784" lon="8.477074988186359">
        <ele>195.21700000000001</ele>
        <time>2013-04-07T07:51:48Z</time>
      </trkpt>
      <trkpt lat="45.931300017982721" lon="8.47681799903512">
        <ele>194.85499999999999</ele>
        <time>2013-04-07T07:51:54Z</time>
      </trkpt>
      <trkpt lat="45.931313009932637" lon="8.476828979328275">
        <ele>194.53399999999999</ele>
        <time>2013-04-07T07:52:12Z</time>
      </trkpt>
      <trkpt lat="45.931307980790734" lon="8.47675396129489">
        <ele>194.52099999999999</ele>
        <time>2013-04-07T07:52:15Z</time>
      </trkpt>
      <trkpt lat="45.931257018819451" lon="8.47647400572896">
        <ele>194.48699999999999</ele>
        <time>2013-04-07T07:52:19Z</time>
      </trkpt>
      <trkpt lat="45.931182000786066" lon="8.476021969690919">
        <ele>194.929</ele>
        <time>2013-04-07T07:52:24Z</time>
      </trkpt>
      <trkpt lat="45.931059960275888" lon="8.475616034120321">
        <ele>194.732</ele>
        <time>2013-04-07T07:52:28Z</time>
      </trkpt>
      <trkpt lat="45.930948983877897" lon="8.475337000563741">
        <ele>194.56100000000001</ele>
        <time>2013-04-07T07:52:31Z</time>
      </trkpt>
      <trkpt lat="45.930965999141335" lon="8.474988983944058">
        <ele>195.102</ele>
        <time>2013-04-07T07:52:35Z</time>
      </trkpt>
      <trkpt lat="45.93101897276938" lon="8.474730988964438">
        <ele>195.41499999999999</ele>
        <time>2013-04-07T07:52:38Z</time>
      </trkpt>
      <trkpt lat="45.931016961112618" lon="8.474640967324376">
        <ele>195.536</ele>
        <time>2013-04-07T07:52:39Z</time>
      </trkpt>
      <trkpt lat="45.930958958342671" lon="8.473914004862309">
        <ele>195.523</ele>
        <time>2013-04-07T07:52:47Z</time>
      </trkpt>
      <trkpt lat="45.930945966392756" lon="8.473648969084024">
        <ele>194.994</ele>
        <time>2013-04-07T07:52:50Z</time>
      </trkpt>
      <trkpt lat="45.930944960564375" lon="8.473497005179524">
        <ele>194.68199999999999</ele>
        <time>2013-04-07T07:52:53Z</time>
      </trkpt>
      <trkpt lat="45.930946972221136" lon="8.473427016288042">
        <ele>194.822</ele>
        <time>2013-04-07T07:52:57Z</time>
      </trkpt>
      <trkpt lat="45.93093398027122" lon="8.473387034609914">
        <ele>195.00299999999999</ele>
        <time>2013-04-07T07:53:05Z</time>
      </trkpt>
      <trkpt lat="45.930914031341672" lon="8.473346969112754">
        <ele>194.816</ele>
        <time>2013-04-07T07:53:24Z</time>
      </trkpt>
      <trkpt lat="45.931015033274889" lon="8.473342023789883">
        <ele>195.315</ele>
        <time>2013-04-07T07:53:29Z</time>
      </trkpt>
      <trkpt lat="45.931270010769367" lon="8.473329031839967">
        <ele>195.87299999999999</ele>
        <time>2013-04-07T07:53:34Z</time>
      </trkpt>
      <trkpt lat="45.931824976578355" lon="8.473288966342807">
        <ele>196.23099999999999</ele>
        <time>2013-04-07T07:53:43Z</time>
      </trkpt>
      <trkpt lat="45.93205195851624" lon="8.47327102907002">
        <ele>195.99000000000001</ele>
        <time>2013-04-07T07:53:47Z</time>
      </trkpt>
      <trkpt lat="45.932124964892864" lon="8.473205985501409">
        <ele>195.38</ele>
        <time>2013-04-07T07:53:51Z</time>
      </trkpt>
      <trkpt lat="45.93219998292625" lon="8.473071958869696">
        <ele>195.476</ele>
        <time>2013-04-07T07:53:54Z</time>
      </trkpt>
      <trkpt lat="45.932281035929918" lon="8.47299300134182">
        <ele>195.749</ele>
        <time>2013-04-07T07:53:56Z</time>
      </trkpt>
      <trkpt lat="45.932668028399348" lon="8.472643978893757">
        <ele>196.32499999999999</ele>
        <time>2013-04-07T07:54:04Z</time>
      </trkpt>
      <trkpt lat="45.932927029207349" lon="8.472367040812969">
        <ele>196.50999999999999</ele>
        <time>2013-04-07T07:54:09Z</time>
      </trkpt>
      <trkpt lat="45.933090979233384" lon="8.472060011699796">
        <ele>196.423</ele>
        <time>2013-04-07T07:54:13Z</time>
      </trkpt>
      <trkpt lat="45.933113023638725" lon="8.471965966746211">
        <ele>196.363</ele>
        <time>2013-04-07T07:54:14Z</time>
      </trkpt>
      <trkpt lat="45.933302035555243" lon="8.470975980162621">
        <ele>196.51900000000001</ele>
        <time>2013-04-07T07:54:24Z</time>
      </trkpt>
      <trkpt lat="45.933475960046053" lon="8.470304002985358">
        <ele>196.49000000000001</ele>
        <time>2013-04-07T07:54:31Z</time>
      </trkpt>
      <trkpt lat="45.933666983619332" lon="8.469630014151335">
        <ele>196.405</ele>
        <time>2013-04-07T07:54:39Z</time>
      </trkpt>
      <trkpt lat="45.933793969452381" lon="8.469172026962042">
        <ele>196.63499999999999</ele>
        <time>2013-04-07T07:54:46Z</time>
      </trkpt>
      <trkpt lat="45.933979041874409" lon="8.4684800170362">
        <ele>196.66300000000001</ele>
        <time>2013-04-07T07:54:57Z</time>
      </trkpt>
      <trkpt lat="45.934095969423652" lon="8.468054970726371">
        <ele>196.566</ele>
        <time>2013-04-07T07:55:04Z</time>
      </trkpt>
      <trkpt lat="45.934209963306785" lon="8.467932008206844">
        <ele>196.565</ele>
        <time>2013-04-07T07:55:08Z</time>
      </trkpt>
      <trkpt lat="45.934298979118466" lon="8.468047007918358">
        <ele>196.75999999999999</ele>
        <time>2013-04-07T07:55:11Z</time>
      </trkpt>
      <trkpt lat="45.934504000470042" lon="8.468513963744044">
        <ele>196.59299999999999</ele>
        <time>2013-04-07T07:55:20Z</time>
      </trkpt>
      <trkpt lat="45.934636015444994" lon="8.468540031462908">
        <ele>196.00200000000001</ele>
        <time>2013-04-07T07:55:24Z</time>
      </trkpt>
      <trkpt lat="45.935049997642636" lon="8.468565009534359">
        <ele>196.02199999999999</ele>
        <time>2013-04-07T07:55:35Z</time>
      </trkpt>
      <trkpt lat="45.93520799651742" lon="8.46854598261416">
        <ele>196.13999999999999</ele>
        <time>2013-04-07T07:55:39Z</time>
      </trkpt>
      <trkpt lat="45.935367001220584" lon="8.468387983739376">
        <ele>195.85400000000001</ele>
        <time>2013-04-07T07:55:44Z</time>
      </trkpt>
      <trkpt lat="45.935385022312403" lon="8.468269966542721">
        <ele>195.654</ele>
        <time>2013-04-07T07:55:46Z</time>
      </trkpt>
      <trkpt lat="45.935373036190867" lon="8.468013983219862">
        <ele>195.547</ele>
        <time>2013-04-07T07:55:51Z</time>
      </trkpt>
      <trkpt lat="45.935267005115747" lon="8.46766697242856">
        <ele>195.78399999999999</ele>
        <time>2013-04-07T07:55:57Z</time>
      </trkpt>
      <trkpt lat="45.935071036219597" lon="8.467239998281002">
        <ele>196.14699999999999</ele>
        <time>2013-04-07T07:56:04Z</time>
      </trkpt>
      <trkpt lat="45.934980008751154" lon="8.467030031606555">
        <ele>196.13399999999999</ele>
        <time>2013-04-07T07:56:08Z</time>
      </trkpt>
      <trkpt lat="45.934931980445981" lon="8.466820986941457">
        <ele>195.93799999999999</ele>
        <time>2013-04-07T07:56:14Z</time>
      </trkpt>
      <trkpt lat="45.934875989332795" lon="8.466529967263341">
        <ele>195.88999999999999</ele>
        <time>2013-04-07T07:56:21Z</time>
      </trkpt>
      <trkpt lat="45.934830978512764" lon="8.466293010860682">
        <ele>196.077</ele>
        <time>2013-04-07T07:56:25Z</time>
      </trkpt>
      <trkpt lat="45.934828966856003" lon="8.465938959270716">
        <ele>196.27600000000001</ele>
        <time>2013-04-07T07:56:31Z</time>
      </trkpt>
      <trkpt lat="45.93484397046268" lon="8.465828988701105">
        <ele>196.21799999999999</ele>
        <time>2013-04-07T07:56:33Z</time>
      </trkpt>
      <trkpt lat="45.93475503847003" lon="8.465315010398626">
        <ele>196.279</ele>
        <time>2013-04-07T07:56:41Z</time>
      </trkpt>
      <trkpt lat="45.934643978253007" lon="8.464831961318851">
        <ele>196.083</ele>
        <time>2013-04-07T07:56:48Z</time>
      </trkpt>
      <trkpt lat="45.934565020725131" lon="8.464430971071124">
        <ele>196.126</ele>
        <time>2013-04-07T07:56:54Z</time>
      </trkpt>
      <trkpt lat="45.934487991034985" lon="8.464091001078486">
        <ele>196.364</ele>
        <time>2013-04-07T07:56:59Z</time>
      </trkpt>
      <trkpt lat="45.934451026841998" lon="8.463711971417069">
        <ele>196.87799999999999</ele>
        <time>2013-04-07T07:57:05Z</time>
      </trkpt>
      <trkpt lat="45.934404004365206" lon="8.463479038327932">
        <ele>198.21299999999999</ele>
        <time>2013-04-07T07:57:10Z</time>
      </trkpt>
      <trkpt lat="45.934281041845679" lon="8.463224982842803">
        <ele>197.22900000000001</ele>
        <time>2013-04-07T07:57:14Z</time>
      </trkpt>
      <trkpt lat="45.934165958315134" lon="8.463036976754665">
        <ele>195.494</ele>
        <time>2013-04-07T07:57:17Z</time>
      </trkpt>
      <trkpt lat="45.934131005778909" lon="8.462793985381723">
        <ele>194.84299999999999</ele>
        <time>2013-04-07T07:57:21Z</time>
      </trkpt>
      <trkpt lat="45.934163024649024" lon="8.462641015648842">
        <ele>194.58199999999999</ele>
        <time>2013-04-07T07:57:23Z</time>
      </trkpt>
      <trkpt lat="45.934211974963546" lon="8.462175987660885">
        <ele>194.23599999999999</ele>
        <time>2013-04-07T07:57:29Z</time>
      </trkpt>
      <trkpt lat="45.934166964143515" lon="8.461880022659898">
        <ele>194.50299999999999</ele>
        <time>2013-04-07T07:57:33Z</time>
      </trkpt>
      <trkpt lat="45.934108039364219" lon="8.461503004655242">
        <ele>194.624</ele>
        <time>2013-04-07T07:57:38Z</time>
      </trkpt>
      <trkpt lat="45.934118013828993" lon="8.461431004106998">
        <ele>194.65100000000001</ele>
        <time>2013-04-07T07:57:39Z</time>
      </trkpt>
      <trkpt lat="45.934191020205617" lon="8.460846031084657">
        <ele>194.619</ele>
        <time>2013-04-07T07:57:47Z</time>
      </trkpt>
      <trkpt lat="45.9342419821769" lon="8.460501031950116">
        <ele>194.96199999999999</ele>
        <time>2013-04-07T07:57:52Z</time>
      </trkpt>
      <trkpt lat="45.934277018532157" lon="8.460051007568836">
        <ele>195.017</ele>
        <time>2013-04-07T07:57:58Z</time>
      </trkpt>
      <trkpt lat="45.934286992996931" lon="8.459978001192212">
        <ele>195.00700000000001</ele>
        <time>2013-04-07T07:57:59Z</time>
      </trkpt>
      <trkpt lat="45.93430501408875" lon="8.459624033421278">
        <ele>195.03399999999999</ele>
        <time>2013-04-07T07:58:04Z</time>
      </trkpt>
      <trkpt lat="45.934304008260369" lon="8.459409037604928">
        <ele>195.024</ele>
        <time>2013-04-07T07:58:07Z</time>
      </trkpt>
      <trkpt lat="45.934387994930148" lon="8.459089016541839">
        <ele>195.09999999999999</ele>
        <time>2013-04-07T07:58:12Z</time>
      </trkpt>
      <trkpt lat="45.934436023235321" lon="8.458861028775573">
        <ele>195.06999999999999</ele>
        <time>2013-04-07T07:58:16Z</time>
      </trkpt>
      <trkpt lat="45.934424959123135" lon="8.45874996855855">
        <ele>195.22200000000001</ele>
        <time>2013-04-07T07:58:18Z</time>
      </trkpt>
      <trkpt lat="45.934407021850348" lon="8.458633041009307">
        <ele>195.24700000000001</ele>
        <time>2013-04-07T07:58:20Z</time>
      </trkpt>
      <trkpt lat="45.934438034892082" lon="8.458277983590961">
        <ele>195.34200000000001</ele>
        <time>2013-04-07T07:58:25Z</time>
      </trkpt>
      <trkpt lat="45.934468964114785" lon="8.458216963335872">
        <ele>195.464</ele>
        <time>2013-04-07T07:58:26Z</time>
      </trkpt>
      <trkpt lat="45.934531996026635" lon="8.458101041615009">
        <ele>195.80600000000001</ele>
        <time>2013-04-07T07:58:28Z</time>
      </trkpt>
      <trkpt lat="45.934613971039653" lon="8.457731986418366">
        <ele>195.916</ele>
        <time>2013-04-07T07:58:33Z</time>
      </trkpt>
      <trkpt lat="45.934670967981219" lon="8.456806037575007">
        <ele>196.00800000000001</ele>
        <time>2013-04-07T07:58:45Z</time>
      </trkpt>
      <trkpt lat="45.934689994901419" lon="8.456091983243823">
        <ele>195.71199999999999</ele>
        <time>2013-04-07T07:58:54Z</time>
      </trkpt>
      <trkpt lat="45.934685971587896" lon="8.455560989677906">
        <ele>195.88200000000001</ele>
        <time>2013-04-07T07:59:01Z</time>
      </trkpt>
      <trkpt lat="45.934698041528463" lon="8.455167962238193">
        <ele>195.86099999999999</ele>
        <time>2013-04-07T07:59:06Z</time>
      </trkpt>
      <trkpt lat="45.934601984918118" lon="8.454837966710329">
        <ele>196.12899999999999</ele>
        <time>2013-04-07T07:59:11Z</time>
      </trkpt>
      <trkpt lat="45.934492014348507" lon="8.4547099750489">
        <ele>196.172</ele>
        <time>2013-04-07T07:59:14Z</time>
      </trkpt>
      <trkpt lat="45.934485979378223" lon="8.454509982839227">
        <ele>196.126</ele>
        <time>2013-04-07T07:59:17Z</time>
      </trkpt>
      <trkpt lat="45.934525039047003" lon="8.453884022310376">
        <ele>196.74799999999999</ele>
        <time>2013-04-07T07:59:25Z</time>
      </trkpt>
      <trkpt lat="45.934571977704763" lon="8.453083969652653">
        <ele>196.446</ele>
        <time>2013-04-07T07:59:35Z</time>
      </trkpt>
      <trkpt lat="45.934623023495078" lon="8.452362036332488">
        <ele>196.00200000000001</ele>
        <time>2013-04-07T07:59:44Z</time>
      </trkpt>
      <trkpt lat="45.93464900739491" lon="8.45196096226573">
        <ele>196.10400000000001</ele>
        <time>2013-04-07T07:59:49Z</time>
      </trkpt>
      <trkpt lat="45.934654036536813" lon="8.451317986473441">
        <ele>195.71899999999999</ele>
        <time>2013-04-07T07:59:57Z</time>
      </trkpt>
      <trkpt lat="45.934701981022954" lon="8.450770983472467">
        <ele>195.25399999999999</ele>
        <time>2013-04-07T08:00:04Z</time>
      </trkpt>
      <trkpt lat="45.934733999893069" lon="8.450346020981669">
        <ele>195.47900000000001</ele>
        <time>2013-04-07T08:00:10Z</time>
      </trkpt>
      <trkpt lat="45.934839025139809" lon="8.450062964111567">
        <ele>195.80099999999999</ele>
        <time>2013-04-07T08:00:15Z</time>
      </trkpt>
      <trkpt lat="45.934890992939472" lon="8.449791977182031">
        <ele>195.95400000000001</ele>
        <time>2013-04-07T08:00:19Z</time>
      </trkpt>
      <trkpt lat="45.934850005432963" lon="8.448912966996431">
        <ele>196.03399999999999</ele>
        <time>2013-04-07T08:00:30Z</time>
      </trkpt>
      <trkpt lat="45.934804994612932" lon="8.448037980124354">
        <ele>196.06999999999999</ele>
        <time>2013-04-07T08:00:41Z</time>
      </trkpt>
      <trkpt lat="45.934783034026623" lon="8.447444960474968">
        <ele>196.21100000000001</ele>
        <time>2013-04-07T08:00:49Z</time>
      </trkpt>
      <trkpt lat="45.934725031256676" lon="8.447016980499029">
        <ele>197.351</ele>
        <time>2013-04-07T08:00:56Z</time>
      </trkpt>
      <trkpt lat="45.934682032093406" lon="8.446575002744794">
        <ele>197.19900000000001</ele>
        <time>2013-04-07T08:01:02Z</time>
      </trkpt>
      <trkpt lat="45.934653030708432" lon="8.446062030270696">
        <ele>196.60599999999999</ele>
        <time>2013-04-07T08:01:08Z</time>
      </trkpt>
      <trkpt lat="45.934642972424626" lon="8.445979971438646">
        <ele>196.60900000000001</ele>
        <time>2013-04-07T08:01:09Z</time>
      </trkpt>
      <trkpt lat="45.934535013511777" lon="8.445687023922801">
        <ele>196.59899999999999</ele>
        <time>2013-04-07T08:01:13Z</time>
      </trkpt>
      <trkpt lat="45.93437097966671" lon="8.44544998370111">
        <ele>196.64500000000001</ele>
        <time>2013-04-07T08:01:17Z</time>
      </trkpt>
      <trkpt lat="45.934138968586922" lon="8.445034995675087">
        <ele>197.08699999999999</ele>
        <time>2013-04-07T08:01:24Z</time>
      </trkpt>
      <trkpt lat="45.933993039652705" lon="8.444855036213994">
        <ele>197.59100000000001</ele>
        <time>2013-04-07T08:01:28Z</time>
      </trkpt>
      <trkpt lat="45.933873010799289" lon="8.444768032059073">
        <ele>198.416</ele>
        <time>2013-04-07T08:01:31Z</time>
      </trkpt>
      <trkpt lat="45.933779971674085" lon="8.444580025970936">
        <ele>199.417</ele>
        <time>2013-04-07T08:01:35Z</time>
      </trkpt>
      <trkpt lat="45.933807967230678" lon="8.444456979632378">
        <ele>200.066</ele>
        <time>2013-04-07T08:01:37Z</time>
      </trkpt>
      <trkpt lat="45.933947023004293" lon="8.443956999108195">
        <ele>201.71100000000001</ele>
        <time>2013-04-07T08:01:45Z</time>
      </trkpt>
      <trkpt lat="45.934104016050696" lon="8.443388035520911">
        <ele>202.16499999999999</ele>
        <time>2013-04-07T08:01:54Z</time>
      </trkpt>
      <trkpt lat="45.934215998277068" lon="8.442966006696224">
        <ele>200.815</ele>
        <time>2013-04-07T08:02:00Z</time>
      </trkpt>
      <trkpt lat="45.934357987716794" lon="8.442808007821441">
        <ele>199.75800000000001</ele>
        <time>2013-04-07T08:02:04Z</time>
      </trkpt>
      <trkpt lat="45.934507017955184" lon="8.442832985892892">
        <ele>198.53200000000001</ele>
        <time>2013-04-07T08:02:08Z</time>
      </trkpt>
      <trkpt lat="45.93454398214817" lon="8.442769031971693">
        <ele>197.58099999999999</ele>
        <time>2013-04-07T08:02:11Z</time>
      </trkpt>
      <trkpt lat="45.934454966336489" lon="8.442707005888224">
        <ele>197.16900000000001</ele>
        <time>2013-04-07T08:02:14Z</time>
      </trkpt>
      <trkpt lat="45.934243993833661" lon="8.442706000059843">
        <ele>197.27099999999999</ele>
        <time>2013-04-07T08:02:19Z</time>
      </trkpt>
      <trkpt lat="45.933984993025661" lon="8.442859975621104">
        <ele>197.363</ele>
        <time>2013-04-07T08:02:25Z</time>
      </trkpt>
      <trkpt lat="45.933739989995956" lon="8.443000037223101">
        <ele>197.495</ele>
        <time>2013-04-07T08:02:30Z</time>
      </trkpt>
      <trkpt lat="45.93353102914989" lon="8.443102966994047">
        <ele>197.47800000000001</ele>
        <time>2013-04-07T08:02:35Z</time>
      </trkpt>
      <trkpt lat="45.933427009731531" lon="8.443141020834446">
        <ele>197.46600000000001</ele>
        <time>2013-04-07T08:02:37Z</time>
      </trkpt>
      <trkpt lat="45.933216959238052" lon="8.443168010562658">
        <ele>197.518</ele>
        <time>2013-04-07T08:02:40Z</time>
      </trkpt>
      <trkpt lat="45.933045968413353" lon="8.442992996424437">
        <ele>197.72499999999999</ele>
        <time>2013-04-07T08:02:44Z</time>
      </trkpt>
      <trkpt lat="45.933027025312185" lon="8.442917978391051">
        <ele>197.774</ele>
        <time>2013-04-07T08:02:45Z</time>
      </trkpt>
      <trkpt lat="45.932924011722207" lon="8.44233401119709">
        <ele>197.88200000000001</ele>
        <time>2013-04-07T08:02:53Z</time>
      </trkpt>
      <trkpt lat="45.932794008404016" lon="8.441927991807461">
        <ele>198.11199999999999</ele>
        <time>2013-04-07T08:02:59Z</time>
      </trkpt>
      <trkpt lat="45.932705998420715" lon="8.441741997376084">
        <ele>198.38800000000001</ele>
        <time>2013-04-07T08:03:02Z</time>
      </trkpt>
      <trkpt lat="45.932543976232409" lon="8.44158299267292">
        <ele>198.643</ele>
        <time>2013-04-07T08:03:06Z</time>
      </trkpt>
      <trkpt lat="45.932497037574649" lon="8.441578969359398">
        <ele>198.75</ele>
        <time>2013-04-07T08:03:07Z</time>
      </trkpt>
      <trkpt lat="45.932120019569993" lon="8.441570000723004">
        <ele>199.15700000000001</ele>
        <time>2013-04-07T08:03:15Z</time>
      </trkpt>
      <trkpt lat="45.931890020146966" lon="8.441418036818504">
        <ele>199.393</ele>
        <time>2013-04-07T08:03:20Z</time>
      </trkpt>
      <trkpt lat="45.931624984368682" lon="8.441091980785132">
        <ele>200.148</ele>
        <time>2013-04-07T08:03:27Z</time>
      </trkpt>
      <trkpt lat="45.931272022426128" lon="8.44057297334075">
        <ele>201.38900000000001</ele>
        <time>2013-04-07T08:03:37Z</time>
      </trkpt>
      <trkpt lat="45.931144030764699" lon="8.440440036356449">
        <ele>201.464</ele>
        <time>2013-04-07T08:03:40Z</time>
      </trkpt>
      <trkpt lat="45.930979996919632" lon="8.440270973369479">
        <ele>201.685</ele>
        <time>2013-04-07T08:03:44Z</time>
      </trkpt>
      <trkpt lat="45.930786039680243" lon="8.440048014745116">
        <ele>201.98500000000001</ele>
        <time>2013-04-07T08:03:49Z</time>
      </trkpt>
      <trkpt lat="45.930743040516973" lon="8.440017001703382">
        <ele>202.07599999999999</ele>
        <time>2013-04-07T08:03:50Z</time>
      </trkpt>
      <trkpt lat="45.930355964228511" lon="8.439612993970513">
        <ele>202.82400000000001</ele>
        <time>2013-04-07T08:04:00Z</time>
      </trkpt>
      <trkpt lat="45.930283963680267" lon="8.439532024785876">
        <ele>202.821</ele>
        <time>2013-04-07T08:04:02Z</time>
      </trkpt>
      <trkpt lat="45.93017902225256" lon="8.439339995384216">
        <ele>203.126</ele>
        <time>2013-04-07T08:04:06Z</time>
      </trkpt>
      <trkpt lat="45.930121019482613" lon="8.43919800594449">
        <ele>203.999</ele>
        <time>2013-04-07T08:04:10Z</time>
      </trkpt>
      <trkpt lat="45.930161001160741" lon="8.439055010676384">
        <ele>204.12100000000001</ele>
        <time>2013-04-07T08:04:14Z</time>
      </trkpt>
      <trkpt lat="45.930341966450214" lon="8.438916960731149">
        <ele>203.88900000000001</ele>
        <time>2013-04-07T08:04:19Z</time>
      </trkpt>
      <trkpt lat="45.93048001639545" lon="8.438750999048352">
        <ele>203.50800000000001</ele>
        <time>2013-04-07T08:04:23Z</time>
      </trkpt>
      <trkpt lat="45.93050398863852" lon="8.438688972964883">
        <ele>203.30600000000001</ele>
        <time>2013-04-07T08:04:24Z</time>
      </trkpt>
      <trkpt lat="45.93054598197341" lon="8.438561987131834">
        <ele>203.04900000000001</ele>
        <time>2013-04-07T08:04:26Z</time>
      </trkpt>
      <trkpt lat="45.930731976404786" lon="8.438269961625338">
        <ele>202.78399999999999</ele>
        <time>2013-04-07T08:04:32Z</time>
      </trkpt>
      <trkpt lat="45.930952001363039" lon="8.437973996624351">
        <ele>202.874</ele>
        <time>2013-04-07T08:04:39Z</time>
      </trkpt>
      <trkpt lat="45.931262969970703" lon="8.437556996941567">
        <ele>203.06200000000001</ele>
        <time>2013-04-07T08:04:49Z</time>
      </trkpt>
      <trkpt lat="45.931334970518947" lon="8.437306964769959">
        <ele>202.95699999999999</ele>
        <time>2013-04-07T08:04:54Z</time>
      </trkpt>
      <trkpt lat="45.931349974125624" lon="8.437083000317216">
        <ele>202.65000000000001</ele>
        <time>2013-04-07T08:04:59Z</time>
      </trkpt>
      <trkpt lat="45.931428009644151" lon="8.436949979513884">
        <ele>202.87</ele>
        <time>2013-04-07T08:05:03Z</time>
      </trkpt>
      <trkpt lat="45.931558012962341" lon="8.436980992555618">
        <ele>203.077</ele>
        <time>2013-04-07T08:05:07Z</time>
      </trkpt>
      <trkpt lat="45.931591959670186" lon="8.437021980062127">
        <ele>203.114</ele>
        <time>2013-04-07T08:05:08Z</time>
      </trkpt>
      <trkpt lat="45.93196202069521" lon="8.43752003274858">
        <ele>202.595</ele>
        <time>2013-04-07T08:05:19Z</time>
      </trkpt>
      <trkpt lat="45.932347001507878" lon="8.438078016042709">
        <ele>202.32499999999999</ele>
        <time>2013-04-07T08:05:31Z</time>
      </trkpt>
      <trkpt lat="45.932703986763954" lon="8.438542960211635">
        <ele>201.946</ele>
        <time>2013-04-07T08:05:41Z</time>
      </trkpt>
      <trkpt lat="45.932980002835393" lon="8.438901035115123">
        <ele>201.66800000000001</ele>
        <time>2013-04-07T08:05:49Z</time>
      </trkpt>
      <trkpt lat="45.933247972279787" lon="8.439310993999243">
        <ele>201.48099999999999</ele>
        <time>2013-04-07T08:05:57Z</time>
      </trkpt>
      <trkpt lat="45.93363999389112" lon="8.43990602530539">
        <ele>201.47800000000001</ele>
        <time>2013-04-07T08:06:09Z</time>
      </trkpt>
      <trkpt lat="45.933699002489448" lon="8.440000992268324">
        <ele>201.61000000000001</ele>
        <time>2013-04-07T08:06:11Z</time>
      </trkpt>
      <trkpt lat="45.933849038556218" lon="8.440182963386178">
        <ele>201.971</ele>
        <time>2013-04-07T08:06:15Z</time>
      </trkpt>
      <trkpt lat="45.93421901576221" lon="8.440728038549423">
        <ele>201.80000000000001</ele>
        <time>2013-04-07T08:06:26Z</time>
      </trkpt>
      <trkpt lat="45.934556974098086" lon="8.44123799353838">
        <ele>201.95500000000001</ele>
        <time>2013-04-07T08:06:36Z</time>
      </trkpt>
      <trkpt lat="45.934876995161176" lon="8.441722970455885">
        <ele>202.435</ele>
        <time>2013-04-07T08:06:46Z</time>
      </trkpt>
      <trkpt lat="45.935215037316084" lon="8.442276008427143">
        <ele>202.506</ele>
        <time>2013-04-07T08:06:57Z</time>
      </trkpt>
      <trkpt lat="45.935433972626925" lon="8.442690996453166">
        <ele>202.59999999999999</ele>
        <time>2013-04-07T08:07:05Z</time>
      </trkpt>
      <trkpt lat="45.935691967606544" lon="8.44321696087718">
        <ele>203.06</ele>
        <time>2013-04-07T08:07:14Z</time>
      </trkpt>
      <trkpt lat="45.935964966192842" lon="8.443876029923558">
        <ele>202.54499999999999</ele>
        <time>2013-04-07T08:07:25Z</time>
      </trkpt>
      <trkpt lat="45.936179962009192" lon="8.44448103569448">
        <ele>202.46899999999999</ele>
        <time>2013-04-07T08:07:35Z</time>
      </trkpt>
      <trkpt lat="45.936388000845909" lon="8.445181008428335">
        <ele>202.072</ele>
        <time>2013-04-07T08:07:46Z</time>
      </trkpt>
      <trkpt lat="45.936524039134383" lon="8.445606976747513">
        <ele>201.97300000000001</ele>
        <time>2013-04-07T08:07:53Z</time>
      </trkpt>
      <trkpt lat="45.93664700165391" lon="8.44603001140058">
        <ele>202.41999999999999</ele>
        <time>2013-04-07T08:07:59Z</time>
      </trkpt>
      <trkpt lat="45.936707016080618" lon="8.44631097279489">
        <ele>201.91999999999999</ele>
        <time>2013-04-07T08:08:03Z</time>
      </trkpt>
      <trkpt lat="45.93684196472168" lon="8.446483975276351">
        <ele>201.39099999999999</ele>
        <time>2013-04-07T08:08:07Z</time>
      </trkpt>
      <trkpt lat="45.936942966654897" lon="8.44635296612978">
        <ele>201.191</ele>
        <time>2013-04-07T08:08:10Z</time>
      </trkpt>
      <trkpt lat="45.936958976089954" lon="8.446290018036962">
        <ele>201.20099999999999</ele>
        <time>2013-04-07T08:08:11Z</time>
      </trkpt>
      <trkpt lat="45.937044974416494" lon="8.445755001157522">
        <ele>200.38200000000001</ele>
        <time>2013-04-07T08:08:19Z</time>
      </trkpt>
      <trkpt lat="45.937188975512981" lon="8.445274969562888">
        <ele>199.16399999999999</ele>
        <time>2013-04-07T08:08:25Z</time>
      </trkpt>
      <trkpt lat="45.937284026294947" lon="8.444931982085109">
        <ele>199.441</ele>
        <time>2013-04-07T08:08:30Z</time>
      </trkpt>
      <trkpt lat="45.937339011579752" lon="8.444463014602661">
        <ele>200.21100000000001</ele>
        <time>2013-04-07T08:08:37Z</time>
      </trkpt>
      <trkpt lat="45.937283020466566" lon="8.443986000493169">
        <ele>201.11699999999999</ele>
        <time>2013-04-07T08:08:44Z</time>
      </trkpt>
      <trkpt lat="45.937267011031508" lon="8.443919029086828">
        <ele>201.20500000000001</ele>
        <time>2013-04-07T08:08:45Z</time>
      </trkpt>
      <trkpt lat="45.937079004943371" lon="8.443441009148955">
        <ele>202.57599999999999</ele>
        <time>2013-04-07T08:08:53Z</time>
      </trkpt>
      <trkpt lat="45.937052015215158" lon="8.44338501803577">
        <ele>202.89599999999999</ele>
        <time>2013-04-07T08:08:54Z</time>
      </trkpt>
      <trkpt lat="45.93701102770865" lon="8.4430639911443">
        <ele>203.76300000000001</ele>
        <time>2013-04-07T08:08:59Z</time>
      </trkpt>
      <trkpt lat="45.937127033248544" lon="8.442790992558003">
        <ele>203.53100000000001</ele>
        <time>2013-04-07T08:09:03Z</time>
      </trkpt>
      <trkpt lat="45.937225017696619" lon="8.442698959261179">
        <ele>203.316</ele>
        <time>2013-04-07T08:09:05Z</time>
      </trkpt>
      <trkpt lat="45.937794987112284" lon="8.442266033962369">
        <ele>202.44999999999999</ele>
        <time>2013-04-07T08:09:15Z</time>
      </trkpt>
      <trkpt lat="45.938217015936971" lon="8.441885998472571">
        <ele>201.46100000000001</ele>
        <time>2013-04-07T08:09:23Z</time>
      </trkpt>
      <trkpt lat="45.938667040318251" lon="8.441399009898305">
        <ele>200.23099999999999</ele>
        <time>2013-04-07T08:09:32Z</time>
      </trkpt>
      <trkpt lat="45.939199039712548" lon="8.440848989412189">
        <ele>199.35400000000001</ele>
        <time>2013-04-07T08:09:42Z</time>
      </trkpt>
      <trkpt lat="45.939607992768288" lon="8.440567022189498">
        <ele>199.04400000000001</ele>
        <time>2013-04-07T08:09:49Z</time>
      </trkpt>
      <trkpt lat="45.940086012706161" lon="8.440331993624568">
        <ele>199.244</ele>
        <time>2013-04-07T08:09:57Z</time>
      </trkpt>
      <trkpt lat="45.940703004598618" lon="8.439980959519744">
        <ele>198.953</ele>
        <time>2013-04-07T08:10:08Z</time>
      </trkpt>
      <trkpt lat="45.940896961838007" lon="8.439813992008567">
        <ele>199.005</ele>
        <time>2013-04-07T08:10:12Z</time>
      </trkpt>
      <trkpt lat="45.941037023440003" lon="8.43956496566534">
        <ele>198.749</ele>
        <time>2013-04-07T08:10:16Z</time>
      </trkpt>
      <trkpt lat="45.941025959327817" lon="8.439385006204248">
        <ele>198.54400000000001</ele>
        <time>2013-04-07T08:10:18Z</time>
      </trkpt>
      <trkpt lat="45.940775005146861" lon="8.438540026545525">
        <ele>198.02799999999999</ele>
        <time>2013-04-07T08:10:28Z</time>
      </trkpt>
      <trkpt lat="45.940695041790605" lon="8.438302986323834">
        <ele>197.512</ele>
        <time>2013-04-07T08:10:32Z</time>
      </trkpt>
      <trkpt lat="45.940761007368565" lon="8.438194021582604">
        <ele>197.31399999999999</ele>
        <time>2013-04-07T08:10:36Z</time>
      </trkpt>
      <trkpt lat="45.941023025661707" lon="8.438035016879439">
        <ele>197.12700000000001</ele>
        <time>2013-04-07T08:10:42Z</time>
      </trkpt>
      <trkpt lat="45.941479001194239" lon="8.437737040221691">
        <ele>197.35499999999999</ele>
        <time>2013-04-07T08:10:51Z</time>
      </trkpt>
      <trkpt lat="45.941689973697066" lon="8.437597984448075">
        <ele>197.15899999999999</ele>
        <time>2013-04-07T08:10:55Z</time>
      </trkpt>
      <trkpt lat="45.941897006705403" lon="8.437541993334889">
        <ele>197.221</ele>
        <time>2013-04-07T08:10:59Z</time>
      </trkpt>
      <trkpt lat="45.942135974764824" lon="8.437468986958265">
        <ele>197.07300000000001</ele>
        <time>2013-04-07T08:11:03Z</time>
      </trkpt>
      <trkpt lat="45.942487008869648" lon="8.437343006953597">
        <ele>197.012</ele>
        <time>2013-04-07T08:11:09Z</time>
      </trkpt>
      <trkpt lat="45.94270602799952" lon="8.437417019158602">
        <ele>196.74299999999999</ele>
        <time>2013-04-07T08:11:13Z</time>
      </trkpt>
      <trkpt lat="45.942924963310361" lon="8.437467981129885">
        <ele>196.946</ele>
        <time>2013-04-07T08:11:17Z</time>
      </trkpt>
      <trkpt lat="45.942981038242579" lon="8.437452977523208">
        <ele>197.06399999999999</ele>
        <time>2013-04-07T08:11:18Z</time>
      </trkpt>
      <trkpt lat="45.943087991327047" lon="8.437420958653092">
        <ele>197.333</ele>
        <time>2013-04-07T08:11:20Z</time>
      </trkpt>
      <trkpt lat="45.943357972428203" lon="8.437449038028717">
        <ele>197.51300000000001</ele>
        <time>2013-04-07T08:11:25Z</time>
      </trkpt>
      <trkpt lat="45.943412035703659" lon="8.437463035807014">
        <ele>197.56100000000001</ele>
        <time>2013-04-07T08:11:26Z</time>
      </trkpt>
      <trkpt lat="45.94363197684288" lon="8.437430011108518">
        <ele>197.66499999999999</ele>
        <time>2013-04-07T08:11:30Z</time>
      </trkpt>
      <trkpt lat="45.944146038964391" lon="8.437139997258782">
        <ele>197.81200000000001</ele>
        <time>2013-04-07T08:11:40Z</time>
      </trkpt>
      <trkpt lat="45.944641996175051" lon="8.436891976743937">
        <ele>198.232</ele>
        <time>2013-04-07T08:11:50Z</time>
      </trkpt>
      <trkpt lat="45.945341968908906" lon="8.436500038951635">
        <ele>198.37200000000001</ele>
        <time>2013-04-07T08:12:04Z</time>
      </trkpt>
      <trkpt lat="45.945852007716894" lon="8.43621295876801">
        <ele>198.25700000000001</ele>
        <time>2013-04-07T08:12:14Z</time>
      </trkpt>
      <trkpt lat="45.946533959358931" lon="8.435847004875541">
        <ele>198.39599999999999</ele>
        <time>2013-04-07T08:12:27Z</time>
      </trkpt>
      <trkpt lat="45.947180958464742" lon="8.435492031276226">
        <ele>198.41499999999999</ele>
        <time>2013-04-07T08:12:39Z</time>
      </trkpt>
      <trkpt lat="45.947828041389585" lon="8.435139991343021">
        <ele>198.69499999999999</ele>
        <time>2013-04-07T08:12:51Z</time>
      </trkpt>
      <trkpt lat="45.948374960571527" lon="8.434820976108313">
        <ele>198.952</ele>
        <time>2013-04-07T08:13:01Z</time>
      </trkpt>
      <trkpt lat="45.948819033801556" lon="8.434581002220511">
        <ele>199.20400000000001</ele>
        <time>2013-04-07T08:13:09Z</time>
      </trkpt>
      <trkpt lat="45.949306022375822" lon="8.434309009462595">
        <ele>199.322</ele>
        <time>2013-04-07T08:13:18Z</time>
      </trkpt>
      <trkpt lat="45.949853025376797" lon="8.434032993391156">
        <ele>199.69499999999999</ele>
        <time>2013-04-07T08:13:28Z</time>
      </trkpt>
      <trkpt lat="45.950298020616174" lon="8.433809028938413">
        <ele>199.78899999999999</ele>
        <time>2013-04-07T08:13:36Z</time>
      </trkpt>
      <trkpt lat="45.950520979240537" lon="8.433834007009864">
        <ele>199.80199999999999</ele>
        <time>2013-04-07T08:13:40Z</time>
      </trkpt>
      <trkpt lat="45.950838988646865" lon="8.434068029746413">
        <ele>199.63999999999999</ele>
        <time>2013-04-07T08:13:46Z</time>
      </trkpt>
      <trkpt lat="45.951338969171047" lon="8.434246983379126">
        <ele>199.80199999999999</ele>
        <time>2013-04-07T08:13:55Z</time>
      </trkpt>
      <trkpt lat="45.951451035216451" lon="8.43427699059248">
        <ele>199.70099999999999</ele>
        <time>2013-04-07T08:13:57Z</time>
      </trkpt>
      <trkpt lat="45.95162495970726" lon="8.434355026111007">
        <ele>199.404</ele>
        <time>2013-04-07T08:14:00Z</time>
      </trkpt>
      <trkpt lat="45.951908016577363" lon="8.434381010010839">
        <ele>199.94200000000001</ele>
        <time>2013-04-07T08:14:05Z</time>
      </trkpt>
      <trkpt lat="45.952366003766656" lon="8.434400958940387">
        <ele>200.20400000000001</ele>
        <time>2013-04-07T08:14:13Z</time>
      </trkpt>
      <trkpt lat="45.952485026791692" lon="8.434399031102657">
        <ele>200.09299999999999</ele>
        <time>2013-04-07T08:14:15Z</time>
      </trkpt>
      <trkpt lat="45.952995987609029" lon="8.434540014714003">
        <ele>200.20500000000001</ele>
        <time>2013-04-07T08:14:24Z</time>
      </trkpt>
      <trkpt lat="45.953504014760256" lon="8.434637999162078">
        <ele>200.30699999999999</ele>
        <time>2013-04-07T08:14:33Z</time>
      </trkpt>
      <trkpt lat="45.954082030802965" lon="8.434680998325348">
        <ele>200.56200000000001</ele>
        <time>2013-04-07T08:14:43Z</time>
      </trkpt>
      <trkpt lat="45.95433097332716" lon="8.434713017195463">
        <ele>199.97300000000001</ele>
        <time>2013-04-07T08:14:47Z</time>
      </trkpt>
      <trkpt lat="45.954750990495086" lon="8.434605980291963">
        <ele>200.042</ele>
        <time>2013-04-07T08:14:54Z</time>
      </trkpt>
      <trkpt lat="45.954988030716777" lon="8.434690972790122">
        <ele>199.971</ele>
        <time>2013-04-07T08:14:58Z</time>
      </trkpt>
      <trkpt lat="45.955374017357826" lon="8.434904040768743">
        <ele>200.298</ele>
        <time>2013-04-07T08:15:05Z</time>
      </trkpt>
      <trkpt lat="45.955720022320747" lon="8.435024991631508">
        <ele>200.36000000000001</ele>
        <time>2013-04-07T08:15:11Z</time>
      </trkpt>
      <trkpt lat="45.955956978723407" lon="8.435076037421823">
        <ele>200.36799999999999</ele>
        <time>2013-04-07T08:15:15Z</time>
      </trkpt>
      <trkpt lat="45.956077007576823" lon="8.435067990794778">
        <ele>200.41300000000001</ele>
        <time>2013-04-07T08:15:17Z</time>
      </trkpt>
      <trkpt lat="45.9562630020082" lon="8.435075031593442">
        <ele>200.38399999999999</ele>
        <time>2013-04-07T08:15:20Z</time>
      </trkpt>
      <trkpt lat="45.956373978406191" lon="8.435103027150035">
        <ele>200.286</ele>
        <time>2013-04-07T08:15:22Z</time>
      </trkpt>
      <trkpt lat="45.956689976155758" lon="8.435343001037836">
        <ele>200.34700000000001</ele>
        <time>2013-04-07T08:15:28Z</time>
      </trkpt>
      <trkpt lat="45.956976972520351" lon="8.435379965230823">
        <ele>200.45099999999999</ele>
        <time>2013-04-07T08:15:33Z</time>
      </trkpt>
      <trkpt lat="45.95720898360014" lon="8.435293966904283">
        <ele>200.53</ele>
        <time>2013-04-07T08:15:37Z</time>
      </trkpt>
      <trkpt lat="45.957267992198467" lon="8.435313999652863">
        <ele>200.626</ele>
        <time>2013-04-07T08:15:38Z</time>
      </trkpt>
      <trkpt lat="45.957439988851547" lon="8.4353949688375">
        <ele>200.67599999999999</ele>
        <time>2013-04-07T08:15:41Z</time>
      </trkpt>
      <trkpt lat="45.957759004086256" lon="8.435638966038823">
        <ele>200.892</ele>
        <time>2013-04-07T08:15:47Z</time>
      </trkpt>
      <trkpt lat="45.958110960200429" lon="8.435783972963691">
        <ele>201.10499999999999</ele>
        <time>2013-04-07T08:15:53Z</time>
      </trkpt>
      <trkpt lat="45.958293015137315" lon="8.435855973511934">
        <ele>201.29400000000001</ele>
        <time>2013-04-07T08:15:56Z</time>
      </trkpt>
      <trkpt lat="45.958743039518595" lon="8.435883969068527">
        <ele>201.00700000000001</ele>
        <time>2013-04-07T08:16:03Z</time>
      </trkpt>
      <trkpt lat="45.959129026159644" lon="8.43582596629858">
        <ele>200.911</ele>
        <time>2013-04-07T08:16:09Z</time>
      </trkpt>
      <trkpt lat="45.959509983658791" lon="8.435791013762355">
        <ele>200.68199999999999</ele>
        <time>2013-04-07T08:16:15Z</time>
      </trkpt>
      <trkpt lat="45.959832016378641" lon="8.435848010703921">
        <ele>200.88499999999999</ele>
        <time>2013-04-07T08:16:20Z</time>
      </trkpt>
      <trkpt lat="45.960070984438062" lon="8.435733010992408">
        <ele>201.24299999999999</ele>
        <time>2013-04-07T08:16:24Z</time>
      </trkpt>
      <trkpt lat="45.960329985246062" lon="8.43560996465385">
        <ele>201.31100000000001</ele>
        <time>2013-04-07T08:16:28Z</time>
      </trkpt>
      <trkpt lat="45.960859972983599" lon="8.435598984360695">
        <ele>201.09100000000001</ele>
        <time>2013-04-07T08:16:36Z</time>
      </trkpt>
      <trkpt lat="45.961303040385246" lon="8.435598984360695">
        <ele>201.20599999999999</ele>
        <time>2013-04-07T08:16:43Z</time>
      </trkpt>
      <trkpt lat="45.961795980110765" lon="8.435536036267877">
        <ele>200.86600000000001</ele>
        <time>2013-04-07T08:16:51Z</time>
      </trkpt>
      <trkpt lat="45.961995972320437" lon="8.435495970770717">
        <ele>200.34100000000001</ele>
        <time>2013-04-07T08:16:54Z</time>
      </trkpt>
      <trkpt lat="45.962393023073673" lon="8.435225989669561">
        <ele>199.04400000000001</ele>
        <time>2013-04-07T08:17:00Z</time>
      </trkpt>
      <trkpt lat="45.962690999731421" lon="8.435017028823495">
        <ele>199.828</ele>
        <time>2013-04-07T08:17:05Z</time>
      </trkpt>
      <trkpt lat="45.962787978351116" lon="8.434934969991446">
        <ele>200.41399999999999</ele>
        <time>2013-04-07T08:17:07Z</time>
      </trkpt>
      <trkpt lat="45.963000962510705" lon="8.434929018840194">
        <ele>201.03800000000001</ele>
        <time>2013-04-07T08:17:11Z</time>
      </trkpt>
      <trkpt lat="45.963532961905003" lon="8.435312993824482">
        <ele>200.18700000000001</ele>
        <time>2013-04-07T08:17:21Z</time>
      </trkpt>
      <trkpt lat="45.963583001866937" lon="8.435344006866217">
        <ele>200.17599999999999</ele>
        <time>2013-04-07T08:17:22Z</time>
      </trkpt>
      <trkpt lat="45.963794980198145" lon="8.435277035459876">
        <ele>200.23099999999999</ele>
        <time>2013-04-07T08:17:26Z</time>
      </trkpt>
      <trkpt lat="45.963879972696304" lon="8.435142002999783">
        <ele>200.03</ele>
        <time>2013-04-07T08:17:28Z</time>
      </trkpt>
      <trkpt lat="45.964075019583106" lon="8.434787029400468">
        <ele>199.58799999999999</ele>
        <time>2013-04-07T08:17:33Z</time>
      </trkpt>
      <trkpt lat="45.964438039809465" lon="8.434167020022869">
        <ele>200.203</ele>
        <time>2013-04-07T08:17:42Z</time>
      </trkpt>
      <trkpt lat="45.96470600925386" lon="8.433798970654607">
        <ele>200.67500000000001</ele>
        <time>2013-04-07T08:17:48Z</time>
      </trkpt>
      <trkpt lat="45.965102976188064" lon="8.433326985687017">
        <ele>200.166</ele>
        <time>2013-04-07T08:17:56Z</time>
      </trkpt>
      <trkpt lat="45.965645033866167" lon="8.432701025158167">
        <ele>199.92500000000001</ele>
        <time>2013-04-07T08:18:06Z</time>
      </trkpt>
      <trkpt lat="45.966147026047111" lon="8.432230968028307">
        <ele>199.74299999999999</ele>
        <time>2013-04-07T08:18:15Z</time>
      </trkpt>
      <trkpt lat="45.966655975207686" lon="8.431831989437342">
        <ele>200.084</ele>
        <time>2013-04-07T08:18:24Z</time>
      </trkpt>
      <trkpt lat="45.967213958501816" lon="8.431390011683106">
        <ele>200.542</ele>
        <time>2013-04-07T08:18:34Z</time>
      </trkpt>
      <trkpt lat="45.967707987874746" lon="8.430960020050407">
        <ele>200.53899999999999</ele>
        <time>2013-04-07T08:18:43Z</time>
      </trkpt>
      <trkpt lat="45.968151977285743" lon="8.43062499538064">
        <ele>200.98500000000001</ele>
        <time>2013-04-07T08:18:51Z</time>
      </trkpt>
      <trkpt lat="45.968537963926792" lon="8.430327018722892">
        <ele>201.16900000000001</ele>
        <time>2013-04-07T08:18:58Z</time>
      </trkpt>
      <trkpt lat="45.969088990241289" lon="8.429876994341612">
        <ele>201.09700000000001</ele>
        <time>2013-04-07T08:19:08Z</time>
      </trkpt>
      <trkpt lat="45.969585031270981" lon="8.42946401797235">
        <ele>201.44999999999999</ele>
        <time>2013-04-07T08:19:17Z</time>
      </trkpt>
      <trkpt lat="45.96997001208365" lon="8.429128993302584">
        <ele>200.84100000000001</ele>
        <time>2013-04-07T08:19:24Z</time>
      </trkpt>
      <trkpt lat="45.970320040360093" lon="8.428843002766371">
        <ele>200.655</ele>
        <time>2013-04-07T08:19:30Z</time>
      </trkpt>
      <trkpt lat="45.970584992319345" lon="8.428522981703281">
        <ele>200.142</ele>
        <time>2013-04-07T08:19:35Z</time>
      </trkpt>
      <trkpt lat="45.970904007554054" lon="8.428186029195786">
        <ele>199.85499999999999</ele>
        <time>2013-04-07T08:19:41Z</time>
      </trkpt>
      <trkpt lat="45.971443969756365" lon="8.427716977894306">
        <ele>200.14699999999999</ele>
        <time>2013-04-07T08:19:51Z</time>
      </trkpt>
      <trkpt lat="45.971874967217445" lon="8.427329985424876">
        <ele>200.947</ele>
        <time>2013-04-07T08:19:59Z</time>
      </trkpt>
      <trkpt lat="45.972420964390039" lon="8.426834028214216">
        <ele>201.42599999999999</ele>
        <time>2013-04-07T08:20:09Z</time>
      </trkpt>
      <trkpt lat="45.972572006285191" lon="8.4265430085361">
        <ele>201.58699999999999</ele>
        <time>2013-04-07T08:20:13Z</time>
      </trkpt>
      <trkpt lat="45.972693040966988" lon="8.426102036610246">
        <ele>201.416</ele>
        <time>2013-04-07T08:20:18Z</time>
      </trkpt>
      <trkpt lat="45.972693040966988" lon="8.425695011392236">
        <ele>201.023</ele>
        <time>2013-04-07T08:20:22Z</time>
      </trkpt>
      <trkpt lat="45.972557002678514" lon="8.425336014479399">
        <ele>200.74100000000001</ele>
        <time>2013-04-07T08:20:26Z</time>
      </trkpt>
      <trkpt lat="45.972633026540279" lon="8.424891019240022">
        <ele>200.68100000000001</ele>
        <time>2013-04-07T08:20:31Z</time>
      </trkpt>
      <trkpt lat="45.972693962976336" lon="8.424837961792946">
        <ele>200.78999999999999</ele>
        <time>2013-04-07T08:20:32Z</time>
      </trkpt>
      <trkpt lat="45.973159996792674" lon="8.424461027607322">
        <ele>201.05000000000001</ele>
        <time>2013-04-07T08:20:40Z</time>
      </trkpt>
      <trkpt lat="45.973561992868781" lon="8.424097001552582">
        <ele>200.96000000000001</ele>
        <time>2013-04-07T08:20:48Z</time>
      </trkpt>
      <trkpt lat="45.973920989781618" lon="8.42370699159801">
        <ele>201.38999999999999</ele>
        <time>2013-04-07T08:20:56Z</time>
      </trkpt>
      <trkpt lat="45.97420597448945" lon="8.423347994685173">
        <ele>202.00800000000001</ele>
        <time>2013-04-07T08:21:03Z</time>
      </trkpt>
      <trkpt lat="45.974443014711142" lon="8.423030991107225">
        <ele>202.29300000000001</ele>
        <time>2013-04-07T08:21:09Z</time>
      </trkpt>
      <trkpt lat="45.974581986665726" lon="8.422900987789035">
        <ele>202.285</ele>
        <time>2013-04-07T08:21:13Z</time>
      </trkpt>
      <trkpt lat="45.974746020510793" lon="8.422747012227774">
        <ele>201.99799999999999</ele>
        <time>2013-04-07T08:21:18Z</time>
      </trkpt>
      <trkpt lat="45.974766975268722" lon="8.422692026942968">
        <ele>201.97999999999999</ele>
        <time>2013-04-07T08:21:19Z</time>
      </trkpt>
      <trkpt lat="45.974859008565545" lon="8.422521036118269">
        <ele>201.30000000000001</ele>
        <time>2013-04-07T08:21:24Z</time>
      </trkpt>
      <trkpt lat="45.974951963871717" lon="8.422420034185052">
        <ele>201.60499999999999</ele>
        <time>2013-04-07T08:21:30Z</time>
      </trkpt>
      <trkpt lat="45.974963027983904" lon="8.422405030578375">
        <ele>201.66300000000001</ele>
        <time>2013-04-07T08:21:31Z</time>
      </trkpt>
      <trkpt lat="45.975050032138824" lon="8.42241601087153">
        <ele>201.917</ele>
        <time>2013-04-07T08:21:39Z</time>
      </trkpt>
      <trkpt lat="45.975112980231643" lon="8.42248197644949">
        <ele>202.12200000000001</ele>
        <time>2013-04-07T08:21:43Z</time>
      </trkpt>
      <trkpt lat="45.975248012691736" lon="8.422571998089552">
        <ele>202.624</ele>
        <time>2013-04-07T08:21:49Z</time>
      </trkpt>
      <trkpt lat="45.97527701407671" lon="8.42256898060441">
        <ele>202.47399999999999</ele>
        <time>2013-04-07T08:21:50Z</time>
      </trkpt>
      <trkpt lat="45.975443981587887" lon="8.422691021114588">
        <ele>202.32499999999999</ele>
        <time>2013-04-07T08:21:57Z</time>
      </trkpt>
      <trkpt lat="45.975556969642639" lon="8.422790011391044">
        <ele>202.34200000000001</ele>
        <time>2013-04-07T08:22:01Z</time>
      </trkpt>
      <trkpt lat="45.975703988224268" lon="8.422796968370676">
        <ele>203.03899999999999</ele>
        <time>2013-04-07T08:22:06Z</time>
      </trkpt>
      <trkpt lat="45.975838014855981" lon="8.422630000859499">
        <ele>203.87799999999999</ele>
        <time>2013-04-07T08:22:11Z</time>
      </trkpt>
      <trkpt lat="45.975967012345791" lon="8.422515001147986">
        <ele>204.739</ele>
        <time>2013-04-07T08:22:16Z</time>
      </trkpt>
      <trkpt lat="45.976004982367158" lon="8.422521036118269">
        <ele>205.16499999999999</ele>
        <time>2013-04-07T08:22:18Z</time>
      </trkpt>
      <trkpt lat="45.976004982367158" lon="8.422623965889216">
        <ele>205.649</ele>
        <time>2013-04-07T08:22:24Z</time>
      </trkpt>
      <trkpt lat="45.975968018174171" lon="8.422679034993053">
        <ele>205.673</ele>
        <time>2013-04-07T08:22:26Z</time>
      </trkpt>
      <trkpt lat="45.975797027349472" lon="8.422945998609066">
        <ele>205.33199999999999</ele>
        <time>2013-04-07T08:22:33Z</time>
      </trkpt>
      <trkpt lat="45.975587982684374" lon="8.423300972208381">
        <ele>205.09999999999999</ele>
        <time>2013-04-07T08:22:42Z</time>
      </trkpt>
      <trkpt lat="45.975393019616604" lon="8.42364102602005">
        <ele>204.77600000000001</ele>
        <time>2013-04-07T08:22:50Z</time>
      </trkpt>
      <trkpt lat="45.975190009921789" lon="8.423972027376294">
        <ele>204.33199999999999</ele>
        <time>2013-04-07T08:22:58Z</time>
      </trkpt>
      <trkpt lat="45.974957998842001" lon="8.424360025674105">
        <ele>204.02000000000001</ele>
        <time>2013-04-07T08:23:06Z</time>
      </trkpt>
      <trkpt lat="45.974724981933832" lon="8.424742994830012">
        <ele>203.631</ele>
        <time>2013-04-07T08:23:14Z</time>
      </trkpt>
      <trkpt lat="45.974430022761226" lon="8.425228977575898">
        <ele>203.21199999999999</ele>
        <time>2013-04-07T08:23:24Z</time>
      </trkpt>
      <trkpt lat="45.97420496866107" lon="8.425590991973877">
        <ele>202.63999999999999</ele>
        <time>2013-04-07T08:23:32Z</time>
      </trkpt>
      <trkpt lat="45.974044036120176" lon="8.42579098418355">
        <ele>202.59299999999999</ele>
        <time>2013-04-07T08:23:38Z</time>
      </trkpt>
      <trkpt lat="45.973963988944888" lon="8.425890980288386">
        <ele>202.21799999999999</ele>
        <time>2013-04-07T08:23:43Z</time>
      </trkpt>
      <trkpt lat="45.973920989781618" lon="8.425955018028617">
        <ele>202.25</ele>
        <time>2013-04-07T08:23:49Z</time>
      </trkpt>
      <trkpt lat="45.973906992003322" lon="8.425991982221603">
        <ele>202.11799999999999</ele>
        <time>2013-04-07T08:23:55Z</time>
      </trkpt>
      <trkpt lat="45.97392400726676" lon="8.426053002476692">
        <ele>199.97900000000001</ele>
        <time>2013-04-07T08:34:09Z</time>
      </trkpt>
      <trkpt lat="45.973927024751902" lon="8.426021989434958">
        <ele>199.97200000000001</ele>
        <time>2013-04-07T08:34:15Z</time>
      </trkpt>
      <trkpt lat="45.973962983116508" lon="8.425967004150152">
        <ele>200.036</ele>
        <time>2013-04-07T08:35:22Z</time>
      </trkpt>
      <trkpt lat="45.97398997284472" lon="8.425892991945148">
        <ele>200.00999999999999</ele>
        <time>2013-04-07T08:35:28Z</time>
      </trkpt>
      <trkpt lat="45.974089968949556" lon="8.425731975585222">
        <ele>200.26900000000001</ele>
        <time>2013-04-07T08:35:35Z</time>
      </trkpt>
      <trkpt lat="45.974254002794623" lon="8.425540030002594">
        <ele>200.369</ele>
        <time>2013-04-07T08:35:43Z</time>
      </trkpt>
      <trkpt lat="45.974372019991279" lon="8.425407009199262">
        <ele>200.52500000000001</ele>
        <time>2013-04-07T08:35:48Z</time>
      </trkpt>
      <trkpt lat="45.974601013585925" lon="8.425034014508128">
        <ele>200.78899999999999</ele>
        <time>2013-04-07T08:35:58Z</time>
      </trkpt>
      <trkpt lat="45.974772004410625" lon="8.424764033406973">
        <ele>201.226</ele>
        <time>2013-04-07T08:36:04Z</time>
      </trkpt>
      <trkpt lat="45.975006027147174" lon="8.424366982653737">
        <ele>201.61500000000001</ele>
        <time>2013-04-07T08:36:13Z</time>
      </trkpt>
      <trkpt lat="45.975269973278046" lon="8.423925004899502">
        <ele>202.02500000000001</ele>
        <time>2013-04-07T08:36:22Z</time>
      </trkpt>
      <trkpt lat="45.975526040419936" lon="8.423499958589673">
        <ele>202.59999999999999</ele>
        <time>2013-04-07T08:36:31Z</time>
      </trkpt>
      <trkpt lat="45.975731983780861" lon="8.423151019960642">
        <ele>203.27500000000001</ele>
        <time>2013-04-07T08:36:38Z</time>
      </trkpt>
      <trkpt lat="45.975953014567494" lon="8.422757992520928">
        <ele>203.33000000000001</ele>
        <time>2013-04-07T08:36:46Z</time>
      </trkpt>
      <trkpt lat="45.975994002074003" lon="8.422662019729614">
        <ele>203.41999999999999</ele>
        <time>2013-04-07T08:36:48Z</time>
      </trkpt>
      <trkpt lat="45.975957037881017" lon="8.422533022239804">
        <ele>203.66900000000001</ele>
        <time>2013-04-07T08:36:51Z</time>
      </trkpt>
      <trkpt lat="45.975838014855981" lon="8.422617008909583">
        <ele>203.46100000000001</ele>
        <time>2013-04-07T08:36:54Z</time>
      </trkpt>
      <trkpt lat="45.97577003762126" lon="8.422713987529278">
        <ele>203.15299999999999</ele>
        <time>2013-04-07T08:36:56Z</time>
      </trkpt>
      <trkpt lat="45.975552024319768" lon="8.422850025817752">
        <ele>202.43299999999999</ele>
        <time>2013-04-07T08:37:01Z</time>
      </trkpt>
      <trkpt lat="45.975358989089727" lon="8.422637041658163">
        <ele>201.322</ele>
        <time>2013-04-07T08:37:05Z</time>
      </trkpt>
      <trkpt lat="45.975369969382882" lon="8.422465967014432">
        <ele>200.773</ele>
        <time>2013-04-07T08:37:08Z</time>
      </trkpt>
      <trkpt lat="45.975396037101746" lon="8.422406036406755">
        <ele>200.642</ele>
        <time>2013-04-07T08:37:09Z</time>
      </trkpt>
      <trkpt lat="45.975650008767843" lon="8.421971015632153">
        <ele>201.148</ele>
        <time>2013-04-07T08:37:18Z</time>
      </trkpt>
      <trkpt lat="45.97590004093945" lon="8.421609001234174">
        <ele>200.715</ele>
        <time>2013-04-07T08:37:25Z</time>
      </trkpt>
      <trkpt lat="45.976185025647283" lon="8.42123600654304">
        <ele>200.411</ele>
        <time>2013-04-07T08:37:32Z</time>
      </trkpt>
      <trkpt lat="45.976486019790173" lon="8.420842979103327">
        <ele>200.369</ele>
        <time>2013-04-07T08:37:40Z</time>
      </trkpt>
      <trkpt lat="45.976801011711359" lon="8.420391026884317">
        <ele>200.69900000000001</ele>
        <time>2013-04-07T08:37:49Z</time>
      </trkpt>
      <trkpt lat="45.977094965055585" lon="8.41996899805963">
        <ele>201.08799999999999</ele>
        <time>2013-04-07T08:37:57Z</time>
      </trkpt>
      <trkpt lat="45.97746997140348" lon="8.419440016150475">
        <ele>201.43100000000001</ele>
        <time>2013-04-07T08:38:07Z</time>
      </trkpt>
      <trkpt lat="45.97757700830698" lon="8.419275982305408">
        <ele>201.46000000000001</ele>
        <time>2013-04-07T08:38:10Z</time>
      </trkpt>
      <trkpt lat="45.977686978876591" lon="8.419055035337806">
        <ele>201.553</ele>
        <time>2013-04-07T08:38:14Z</time>
      </trkpt>
      <trkpt lat="45.977973975241184" lon="8.418754963204265">
        <ele>201.666</ele>
        <time>2013-04-07T08:38:21Z</time>
      </trkpt>
      <trkpt lat="45.978188971057534" lon="8.418451035395265">
        <ele>201.58799999999999</ele>
        <time>2013-04-07T08:38:27Z</time>
      </trkpt>
      <trkpt lat="45.978426011279225" lon="8.418092960491777">
        <ele>201.89699999999999</ele>
        <time>2013-04-07T08:38:34Z</time>
      </trkpt>
      <trkpt lat="45.978551991283894" lon="8.41790403239429">
        <ele>201.76900000000001</ele>
        <time>2013-04-07T08:38:39Z</time>
      </trkpt>
      <trkpt lat="45.978572024032474" lon="8.417879976332188">
        <ele>201.75899999999999</ele>
        <time>2013-04-07T08:38:41Z</time>
      </trkpt>
      <trkpt lat="45.978598007932305" lon="8.417888022959232">
        <ele>201.649</ele>
        <time>2013-04-07T08:38:44Z</time>
      </trkpt>
      <trkpt lat="45.978579986840487" lon="8.417937979102135">
        <ele>201.87100000000001</ele>
        <time>2013-04-07T08:38:48Z</time>
      </trkpt>
      <trkpt lat="45.978460963815451" lon="8.418061025440693">
        <ele>201.822</ele>
        <time>2013-04-07T08:38:54Z</time>
      </trkpt>
      <trkpt lat="45.978269018232822" lon="8.418349027633667">
        <ele>202.12799999999999</ele>
        <time>2013-04-07T08:39:00Z</time>
      </trkpt>
      <trkpt lat="45.978045975789428" lon="8.418681034818292">
        <ele>202.053</ele>
        <time>2013-04-07T08:39:06Z</time>
      </trkpt>
      <trkpt lat="45.977915972471237" lon="8.418845990672708">
        <ele>202.03299999999999</ele>
        <time>2013-04-07T08:39:09Z</time>
      </trkpt>
      <trkpt lat="45.977697037160397" lon="8.419021004810929">
        <ele>201.88499999999999</ele>
        <time>2013-04-07T08:39:15Z</time>
      </trkpt>
      <trkpt lat="45.977658983319998" lon="8.419096022844315">
        <ele>201.78100000000001</ele>
        <time>2013-04-07T08:39:17Z</time>
      </trkpt>
      <trkpt lat="45.977593017742038" lon="8.419096022844315">
        <ele>201.53999999999999</ele>
        <time>2013-04-07T08:39:21Z</time>
      </trkpt>
      <trkpt lat="45.977498972788453" lon="8.418911034241319">
        <ele>201.434</ele>
        <time>2013-04-07T08:39:25Z</time>
      </trkpt>
      <trkpt lat="45.97749000415206" lon="8.4186149854213">
        <ele>201.392</ele>
        <time>2013-04-07T08:39:29Z</time>
      </trkpt>
      <trkpt lat="45.977453961968422" lon="8.418298987671733">
        <ele>201.34800000000001</ele>
        <time>2013-04-07T08:39:33Z</time>
      </trkpt>
      <trkpt lat="45.977429989725351" lon="8.418222041800618">
        <ele>201.31800000000001</ele>
        <time>2013-04-07T08:39:34Z</time>
      </trkpt>
      <trkpt lat="45.977371986955404" lon="8.418065970763564">
        <ele>201.26400000000001</ele>
        <time>2013-04-07T08:39:36Z</time>
      </trkpt>
      <trkpt lat="45.977306021377444" lon="8.417647965252399">
        <ele>200.86199999999999</ele>
        <time>2013-04-07T08:39:41Z</time>
      </trkpt>
      <trkpt lat="45.977289006114006" lon="8.417491978034377">
        <ele>200.923</ele>
        <time>2013-04-07T08:39:43Z</time>
      </trkpt>
      <trkpt lat="45.977277019992471" lon="8.417199030518532">
        <ele>200.89599999999999</ele>
        <time>2013-04-07T08:39:47Z</time>
      </trkpt>
      <trkpt lat="45.977180963382125" lon="8.416958972811699">
        <ele>201.12</ele>
        <time>2013-04-07T08:39:51Z</time>
      </trkpt>
      <trkpt lat="45.977079039439559" lon="8.416603999212384">
        <ele>200.95500000000001</ele>
        <time>2013-04-07T08:39:57Z</time>
      </trkpt>
      <trkpt lat="45.977178029716015" lon="8.416448011994362">
        <ele>200.86500000000001</ele>
        <time>2013-04-07T08:40:00Z</time>
      </trkpt>
      <trkpt lat="45.977574996650219" lon="8.416180964559317">
        <ele>201.11500000000001</ele>
        <time>2013-04-07T08:40:08Z</time>
      </trkpt>
      <trkpt lat="45.977800972759724" lon="8.416111981496215">
        <ele>200.96899999999999</ele>
        <time>2013-04-07T08:40:13Z</time>
      </trkpt>
      <trkpt lat="45.977927036583424" lon="8.41612103395164">
        <ele>200.935</ele>
        <time>2013-04-07T08:40:16Z</time>
      </trkpt>
      <trkpt lat="45.978155024349689" lon="8.416128996759653">
        <ele>200.98699999999999</ele>
        <time>2013-04-07T08:40:21Z</time>
      </trkpt>
      <trkpt lat="45.978384017944336" lon="8.416279032826424">
        <ele>201.107</ele>
        <time>2013-04-07T08:40:26Z</time>
      </trkpt>
      <trkpt lat="45.978476973250508" lon="8.41631599701941">
        <ele>200.898</ele>
        <time>2013-04-07T08:40:28Z</time>
      </trkpt>
      <trkpt lat="45.978720970451832" lon="8.416318008676171">
        <ele>201.07300000000001</ele>
        <time>2013-04-07T08:40:33Z</time>
      </trkpt>
      <trkpt lat="45.978885004296899" lon="8.41616403311491">
        <ele>201.178</ele>
        <time>2013-04-07T08:40:37Z</time>
      </trkpt>
      <trkpt lat="45.978912999853492" lon="8.416051967069507">
        <ele>201.268</ele>
        <time>2013-04-07T08:40:39Z</time>
      </trkpt>
      <trkpt lat="45.9789730142802" lon="8.415849963203073">
        <ele>201.40000000000001</ele>
        <time>2013-04-07T08:40:43Z</time>
      </trkpt>
      <trkpt lat="45.979132018983364" lon="8.415619041770697">
        <ele>201.08799999999999</ele>
        <time>2013-04-07T08:40:48Z</time>
      </trkpt>
      <trkpt lat="45.979179963469505" lon="8.415576964616776">
        <ele>200.93899999999999</ele>
        <time>2013-04-07T08:40:49Z</time>
      </trkpt>
      <trkpt lat="45.979622025042772" lon="8.415303966030479">
        <ele>201.143</ele>
        <time>2013-04-07T08:40:57Z</time>
      </trkpt>
      <trkpt lat="45.979928970336914" lon="8.415215034037828">
        <ele>201.28100000000001</ele>
        <time>2013-04-07T08:41:02Z</time>
      </trkpt>
      <trkpt lat="45.980294002220035" lon="8.415161976590753">
        <ele>201.185</ele>
        <time>2013-04-07T08:41:08Z</time>
      </trkpt>
      <trkpt lat="45.980567000806332" lon="8.414985034614801">
        <ele>201.43000000000001</ele>
        <time>2013-04-07T08:41:13Z</time>
      </trkpt>
      <trkpt lat="45.981042003259063" lon="8.414522018283606">
        <ele>201.624</ele>
        <time>2013-04-07T08:41:23Z</time>
      </trkpt>
      <trkpt lat="45.981134958565235" lon="8.414414981380105">
        <ele>201.68799999999999</ele>
        <time>2013-04-07T08:41:25Z</time>
      </trkpt>
      <trkpt lat="45.981341991573572" lon="8.414006028324366">
        <ele>202.053</ele>
        <time>2013-04-07T08:41:31Z</time>
      </trkpt>
      <trkpt lat="45.981534020975232" lon="8.413466988131404">
        <ele>202.31899999999999</ele>
        <time>2013-04-07T08:41:38Z</time>
      </trkpt>
      <trkpt lat="45.981776006519794" lon="8.412971030920744">
        <ele>202.56999999999999</ele>
        <time>2013-04-07T08:41:45Z</time>
      </trkpt>
      <trkpt lat="45.981862004846334" lon="8.412846978753805">
        <ele>202.66900000000001</ele>
        <time>2013-04-07T08:41:47Z</time>
      </trkpt>
      <trkpt lat="45.982154030352831" lon="8.412550007924438">
        <ele>202.76400000000001</ele>
        <time>2013-04-07T08:41:53Z</time>
      </trkpt>
      <trkpt lat="45.982570024207234" lon="8.412348004058003">
        <ele>202.94</ele>
        <time>2013-04-07T08:42:00Z</time>
      </trkpt>
      <trkpt lat="45.982963973656297" lon="8.412296958267689">
        <ele>203.13399999999999</ele>
        <time>2013-04-07T08:42:06Z</time>
      </trkpt>
      <trkpt lat="45.983225991949439" lon="8.412334006279707">
        <ele>202.982</ele>
        <time>2013-04-07T08:42:10Z</time>
      </trkpt>
      <trkpt lat="45.983466971665621" lon="8.412264017388225">
        <ele>203.114</ele>
        <time>2013-04-07T08:42:14Z</time>
      </trkpt>
      <trkpt lat="45.983519023284316" lon="8.412208026275039">
        <ele>203.18000000000001</ele>
        <time>2013-04-07T08:42:15Z</time>
      </trkpt>
      <trkpt lat="45.984011041000485" lon="8.411730006337166">
        <ele>203.459</ele>
        <time>2013-04-07T08:42:24Z</time>
      </trkpt>
      <trkpt lat="45.98406502045691" lon="8.411679966375232">
        <ele>203.422</ele>
        <time>2013-04-07T08:42:25Z</time>
      </trkpt>
      <trkpt lat="45.984229976311326" lon="8.411666974425316">
        <ele>203.05799999999999</ele>
        <time>2013-04-07T08:42:28Z</time>
      </trkpt>
      <trkpt lat="45.984402978792787" lon="8.411835031583905">
        <ele>202.024</ele>
        <time>2013-04-07T08:42:32Z</time>
      </trkpt>
      <trkpt lat="45.984565000981092" lon="8.411943996325135">
        <ele>202.441</ele>
        <time>2013-04-07T08:42:35Z</time>
      </trkpt>
      <trkpt lat="45.984741020947695" lon="8.412183970212936">
        <ele>203.31800000000001</ele>
        <time>2013-04-07T08:42:39Z</time>
      </trkpt>
      <trkpt lat="45.984761975705624" lon="8.412510026246309">
        <ele>203.59700000000001</ele>
        <time>2013-04-07T08:42:43Z</time>
      </trkpt>
      <trkpt lat="45.984749989584088" lon="8.412669030949473">
        <ele>203.70400000000001</ele>
        <time>2013-04-07T08:42:45Z</time>
      </trkpt>
      <trkpt lat="45.984779996797442" lon="8.413054011762142">
        <ele>203.78200000000001</ele>
        <time>2013-04-07T08:42:50Z</time>
      </trkpt>
      <trkpt lat="45.984684024006128" lon="8.413270013406873">
        <ele>205.37299999999999</ele>
        <time>2013-04-07T08:42:54Z</time>
      </trkpt>
      <trkpt lat="45.984575981274247" lon="8.413309995085001">
        <ele>205.86199999999999</ele>
        <time>2013-04-07T08:42:56Z</time>
      </trkpt>
      <trkpt lat="45.984098967164755" lon="8.413428012281656">
        <ele>205.51300000000001</ele>
        <time>2013-04-07T08:43:05Z</time>
      </trkpt>
      <trkpt lat="45.983750028535724" lon="8.413514010608196">
        <ele>204.46199999999999</ele>
        <time>2013-04-07T08:43:11Z</time>
      </trkpt>
      <trkpt lat="45.983616001904011" lon="8.413622975349426">
        <ele>204.46700000000001</ele>
        <time>2013-04-07T08:43:14Z</time>
      </trkpt>
      <trkpt lat="45.983603009954095" lon="8.413690030574799">
        <ele>204.572</ele>
        <time>2013-04-07T08:43:15Z</time>
      </trkpt>
      <trkpt lat="45.983616001904011" lon="8.413850963115692">
        <ele>204.94900000000001</ele>
        <time>2013-04-07T08:43:18Z</time>
      </trkpt>
      <trkpt lat="45.983840972185135" lon="8.414287995547056">
        <ele>207.74199999999999</ele>
        <time>2013-04-07T08:43:26Z</time>
      </trkpt>
      <trkpt lat="45.983897969126701" lon="8.414356978610158">
        <ele>208.38900000000001</ele>
        <time>2013-04-07T08:43:29Z</time>
      </trkpt>
      <trkpt lat="45.984016992151737" lon="8.414362007752061">
        <ele>208.631</ele>
        <time>2013-04-07T08:43:33Z</time>
      </trkpt>
      <trkpt lat="45.984341036528349" lon="8.414209960028529">
        <ele>209.75</ele>
        <time>2013-04-07T08:43:40Z</time>
      </trkpt>
      <trkpt lat="45.984705984592438" lon="8.414072999730706">
        <ele>210.96299999999999</ele>
        <time>2013-04-07T08:43:48Z</time>
      </trkpt>
      <trkpt lat="45.985041009262204" lon="8.414056990295649">
        <ele>211.94800000000001</ele>
        <time>2013-04-07T08:43:56Z</time>
      </trkpt>
      <trkpt lat="45.985400006175041" lon="8.414055984467268">
        <ele>211.53800000000001</ele>
        <time>2013-04-07T08:44:04Z</time>
      </trkpt>
      <trkpt lat="45.985794961452484" lon="8.413982978090644">
        <ele>210.858</ele>
        <time>2013-04-07T08:44:11Z</time>
      </trkpt>
      <trkpt lat="45.986101990565658" lon="8.41380201280117">
        <ele>210.12799999999999</ele>
        <time>2013-04-07T08:44:16Z</time>
      </trkpt>
      <trkpt lat="45.98638404160738" lon="8.413489032536745">
        <ele>208.80600000000001</ele>
        <time>2013-04-07T08:44:21Z</time>
      </trkpt>
      <trkpt lat="45.986633989959955" lon="8.41296399012208">
        <ele>206.99299999999999</ele>
        <time>2013-04-07T08:44:27Z</time>
      </trkpt>
      <trkpt lat="45.986746978014708" lon="8.412645980715752">
        <ele>206.00399999999999</ele>
        <time>2013-04-07T08:44:30Z</time>
      </trkpt>
      <trkpt lat="45.986959962174296" lon="8.412290001288056">
        <ele>205.435</ele>
        <time>2013-04-07T08:44:34Z</time>
      </trkpt>
      <trkpt lat="45.987367993220687" lon="8.411842994391918">
        <ele>205.529</ele>
        <time>2013-04-07T08:44:41Z</time>
      </trkpt>
      <trkpt lat="45.987840984016657" lon="8.411360029131174">
        <ele>205.90600000000001</ele>
        <time>2013-04-07T08:44:50Z</time>
      </trkpt>
      <trkpt lat="45.988403996452689" lon="8.410766003653407">
        <ele>206.01300000000001</ele>
        <time>2013-04-07T08:45:01Z</time>
      </trkpt>
      <trkpt lat="45.988843962550163" lon="8.410249007865787">
        <ele>205.30099999999999</ele>
        <time>2013-04-07T08:45:10Z</time>
      </trkpt>
      <trkpt lat="45.989068010821939" lon="8.409825973212719">
        <ele>205.36099999999999</ele>
        <time>2013-04-07T08:45:16Z</time>
      </trkpt>
      <trkpt lat="45.98924595862627" lon="8.409262038767338">
        <ele>205.19499999999999</ele>
        <time>2013-04-07T08:45:23Z</time>
      </trkpt>
      <trkpt lat="45.989472018554807" lon="8.408510014414787">
        <ele>205.34899999999999</ele>
        <time>2013-04-07T08:45:32Z</time>
      </trkpt>
      <trkpt lat="45.989506971091032" lon="8.408437008038163">
        <ele>205.334</ele>
        <time>2013-04-07T08:45:33Z</time>
      </trkpt>
      <trkpt lat="45.98958701826632" lon="8.408309016376734">
        <ele>205.32900000000001</ele>
        <time>2013-04-07T08:45:35Z</time>
      </trkpt>
      <trkpt lat="45.989798996597528" lon="8.408123021945357">
        <ele>205.42400000000001</ele>
        <time>2013-04-07T08:45:39Z</time>
      </trkpt>
      <trkpt lat="45.98997401073575" lon="8.408024031668901">
        <ele>205.429</ele>
        <time>2013-04-07T08:45:42Z</time>
      </trkpt>
      <trkpt lat="45.990354968234897" lon="8.407941972836852">
        <ele>205.72999999999999</ele>
        <time>2013-04-07T08:45:48Z</time>
      </trkpt>
      <trkpt lat="45.990646993741393" lon="8.407943984493613">
        <ele>206.72300000000001</ele>
        <time>2013-04-07T08:45:53Z</time>
      </trkpt>
      <trkpt lat="45.990905994549394" lon="8.407810963690281">
        <ele>208.21799999999999</ele>
        <time>2013-04-07T08:45:58Z</time>
      </trkpt>
      <trkpt lat="45.991084026172757" lon="8.407517010346055">
        <ele>208.119</ele>
        <time>2013-04-07T08:46:03Z</time>
      </trkpt>
      <trkpt lat="45.991127025336027" lon="8.407370997592807">
        <ele>208.43199999999999</ele>
        <time>2013-04-07T08:46:05Z</time>
      </trkpt>
      <trkpt lat="45.991248982027173" lon="8.40666901320219">
        <ele>209.952</ele>
        <time>2013-04-07T08:46:15Z</time>
      </trkpt>
      <trkpt lat="45.991275971755385" lon="8.406550996005535">
        <ele>210.06100000000001</ele>
        <time>2013-04-07T08:46:18Z</time>
      </trkpt>
      <trkpt lat="45.99124101921916" lon="8.406510008499026">
        <ele>210.238</ele>
        <time>2013-04-07T08:46:22Z</time>
      </trkpt>
      <trkpt lat="45.991231966763735" lon="8.406542027369142">
        <ele>210.28399999999999</ele>
        <time>2013-04-07T08:46:23Z</time>
      </trkpt>
      <trkpt lat="45.991167007014155" lon="8.406843021512032">
        <ele>209.76300000000001</ele>
        <time>2013-04-07T08:46:30Z</time>
      </trkpt>
      <trkpt lat="45.99115502089262" lon="8.406879985705018">
        <ele>209.68799999999999</ele>
        <time>2013-04-07T08:46:31Z</time>
      </trkpt>
      <trkpt lat="45.991101041436195" lon="8.406869005411863">
        <ele>208.77500000000001</ele>
        <time>2013-04-07T08:46:35Z</time>
      </trkpt>
      <trkpt lat="45.991127025336027" lon="8.406825000420213">
        <ele>207.89099999999999</ele>
        <time>2013-04-07T08:46:39Z</time>
      </trkpt>
      <trkpt lat="45.991128031164408" lon="8.406830029562116">
        <ele>207.93700000000001</ele>
        <time>2013-04-07T08:46:50Z</time>
      </trkpt>
      <trkpt lat="45.99111202172935" lon="8.406955003738403">
        <ele>208.024</ele>
        <time>2013-04-07T08:46:56Z</time>
      </trkpt>
      <trkpt lat="45.99117798730731" lon="8.407105961814523">
        <ele>209.017</ele>
        <time>2013-04-07T08:47:01Z</time>
      </trkpt>
      <trkpt lat="45.991206988692284" lon="8.407171005383134">
        <ele>208.76300000000001</ele>
        <time>2013-04-07T08:47:05Z</time>
      </trkpt>
      <trkpt lat="45.991183016449213" lon="8.40716203674674">
        <ele>208.88900000000001</ele>
        <time>2013-04-07T08:47:23Z</time>
      </trkpt>
      <trkpt lat="45.991199025884271" lon="8.407104033976793">
        <ele>208.87</ele>
        <time>2013-04-07T08:47:27Z</time>
      </trkpt>
      <trkpt lat="45.991178993135691" lon="8.407081989571452">
        <ele>208.88200000000001</ele>
        <time>2013-04-07T08:47:28Z</time>
      </trkpt>
      <trkpt lat="45.991130964830518" lon="8.407043013721705">
        <ele>208.904</ele>
        <time>2013-04-07T08:47:30Z</time>
      </trkpt>
      <trkpt lat="45.991105986759067" lon="8.406829023733735">
        <ele>208.738</ele>
        <time>2013-04-07T08:47:34Z</time>
      </trkpt>
      <trkpt lat="45.991117972880602" lon="8.406761968508363">
        <ele>208.464</ele>
        <time>2013-04-07T08:47:35Z</time>
      </trkpt>
      <trkpt lat="45.991071034222841" lon="8.406511014327407">
        <ele>208.16999999999999</ele>
        <time>2013-04-07T08:47:39Z</time>
      </trkpt>
      <trkpt lat="45.990987969562411" lon="8.406450999900699">
        <ele>207.88399999999999</ele>
        <time>2013-04-07T08:47:41Z</time>
      </trkpt>
      <trkpt lat="45.990912029519677" lon="8.406417975202203">
        <ele>207.38300000000001</ele>
        <time>2013-04-07T08:47:43Z</time>
      </trkpt>
      <trkpt lat="45.990755036473274" lon="8.406232986599207">
        <ele>206.029</ele>
        <time>2013-04-07T08:47:48Z</time>
      </trkpt>
      <trkpt lat="45.990779008716345" lon="8.406139025464654">
        <ele>205.69999999999999</ele>
        <time>2013-04-07T08:47:50Z</time>
      </trkpt>
      <trkpt lat="45.990905994549394" lon="8.405776005238295">
        <ele>205.74799999999999</ele>
        <time>2013-04-07T08:47:56Z</time>
      </trkpt>
      <trkpt lat="45.991040021181107" lon="8.405483979731798">
        <ele>206.12799999999999</ele>
        <time>2013-04-07T08:48:02Z</time>
      </trkpt>
      <trkpt lat="45.991086959838867" lon="8.405330004170537">
        <ele>206.256</ele>
        <time>2013-04-07T08:48:05Z</time>
      </trkpt>
      <trkpt lat="45.991185028105974" lon="8.404867993667722">
        <ele>205.44900000000001</ele>
        <time>2013-04-07T08:48:12Z</time>
      </trkpt>
      <trkpt lat="45.991226015612483" lon="8.404617961496115">
        <ele>204.30699999999999</ele>
        <time>2013-04-07T08:48:17Z</time>
      </trkpt>
      <trkpt lat="45.99113398231566" lon="8.404577979817987">
        <ele>203.52000000000001</ele>
        <time>2013-04-07T08:48:20Z</time>
      </trkpt>
      <trkpt lat="45.991043038666248" lon="8.404461974278092">
        <ele>203.75999999999999</ele>
        <time>2013-04-07T08:48:24Z</time>
      </trkpt>
      <trkpt lat="45.991072962060571" lon="8.404392991214991">
        <ele>204.06700000000001</ele>
        <time>2013-04-07T08:48:26Z</time>
      </trkpt>
      <trkpt lat="45.991187039762735" lon="8.404147988185287">
        <ele>204.19200000000001</ele>
        <time>2013-04-07T08:48:34Z</time>
      </trkpt>
      <trkpt lat="45.991301033645868" lon="8.403840037062764">
        <ele>203.88200000000001</ele>
        <time>2013-04-07T08:48:41Z</time>
      </trkpt>
      <trkpt lat="45.991402035579085" lon="8.403568966314197">
        <ele>203.876</ele>
        <time>2013-04-07T08:48:48Z</time>
      </trkpt>
      <trkpt lat="45.991485016420484" lon="8.403327986598015">
        <ele>203.62700000000001</ele>
        <time>2013-04-07T08:48:53Z</time>
      </trkpt>
      <trkpt lat="45.991512006148696" lon="8.403248023241758">
        <ele>203.416</ele>
        <time>2013-04-07T08:48:57Z</time>
      </trkpt>
      <trkpt lat="45.991540001705289" lon="8.403113996610045">
        <ele>202.98099999999999</ele>
        <time>2013-04-07T08:49:00Z</time>
      </trkpt>
      <trkpt lat="45.991636980324984" lon="8.402872011065483">
        <ele>203.42500000000001</ele>
        <time>2013-04-07T08:49:06Z</time>
      </trkpt>
      <trkpt lat="45.991790033876896" lon="8.402488036081195">
        <ele>204.10599999999999</ele>
        <time>2013-04-07T08:49:14Z</time>
      </trkpt>
      <trkpt lat="45.991945015266538" lon="8.402074975892901">
        <ele>204.34800000000001</ele>
        <time>2013-04-07T08:49:21Z</time>
      </trkpt>
      <trkpt lat="45.992137966677547" lon="8.401539037004113">
        <ele>204.46299999999999</ele>
        <time>2013-04-07T08:49:29Z</time>
      </trkpt>
      <trkpt lat="45.992276016622782" lon="8.401102004572749">
        <ele>203.762</ele>
        <time>2013-04-07T08:49:35Z</time>
      </trkpt>
      <trkpt lat="45.992392022162676" lon="8.400791035965085">
        <ele>203.91499999999999</ele>
        <time>2013-04-07T08:49:40Z</time>
      </trkpt>
      <trkpt lat="45.992439966648817" lon="8.400457017123699">
        <ele>204.02699999999999</ele>
        <time>2013-04-07T08:49:45Z</time>
      </trkpt>
      <trkpt lat="45.992491012439132" lon="8.400171026587486">
        <ele>204.077</ele>
        <time>2013-04-07T08:49:49Z</time>
      </trkpt>
      <trkpt lat="45.992586985230446" lon="8.399690994992852">
        <ele>203.952</ele>
        <time>2013-04-07T08:49:57Z</time>
      </trkpt>
      <trkpt lat="45.992580028250813" lon="8.399623017758131">
        <ele>203.98599999999999</ele>
        <time>2013-04-07T08:49:58Z</time>
      </trkpt>
      <trkpt lat="45.992477014660835" lon="8.399400981143117">
        <ele>204.239</ele>
        <time>2013-04-07T08:50:02Z</time>
      </trkpt>
      <trkpt lat="45.992389004677534" lon="8.399325963109732">
        <ele>204.25800000000001</ele>
        <time>2013-04-07T08:50:04Z</time>
      </trkpt>
      <trkpt lat="45.992240980267525" lon="8.399206018075347">
        <ele>204.435</ele>
        <time>2013-04-07T08:50:07Z</time>
      </trkpt>
      <trkpt lat="45.992139978334308" lon="8.398967972025275">
        <ele>204.328</ele>
        <time>2013-04-07T08:50:11Z</time>
      </trkpt>
      <trkpt lat="45.992119023576379" lon="8.398811984807253">
        <ele>204.143</ele>
        <time>2013-04-07T08:50:13Z</time>
      </trkpt>
      <trkpt lat="45.992032019421458" lon="8.398388028144836">
        <ele>203.916</ele>
        <time>2013-04-07T08:50:19Z</time>
      </trkpt>
      <trkpt lat="45.992017015814781" lon="8.398318039253354">
        <ele>203.92099999999999</ele>
        <time>2013-04-07T08:50:20Z</time>
      </trkpt>
      <trkpt lat="45.992032019421458" lon="8.397932974621654">
        <ele>204.024</ele>
        <time>2013-04-07T08:50:25Z</time>
      </trkpt>
      <trkpt lat="45.992076024413109" lon="8.397801965475082">
        <ele>204.035</ele>
        <time>2013-04-07T08:50:27Z</time>
      </trkpt>
      <trkpt lat="45.992112988606095" lon="8.397504994645715">
        <ele>203.875</ele>
        <time>2013-04-07T08:50:31Z</time>
      </trkpt>
      <trkpt lat="45.992128998041153" lon="8.397109033539891">
        <ele>203.548</ele>
        <time>2013-04-07T08:50:36Z</time>
      </trkpt>
      <trkpt lat="45.992179960012436" lon="8.396803010255098">
        <ele>203.405</ele>
        <time>2013-04-07T08:50:40Z</time>
      </trkpt>
      <trkpt lat="45.992208961397409" lon="8.396413000300527">
        <ele>203.41</ele>
        <time>2013-04-07T08:50:45Z</time>
      </trkpt>
      <trkpt lat="45.992202004417777" lon="8.396264975890517">
        <ele>203.417</ele>
        <time>2013-04-07T08:50:47Z</time>
      </trkpt>
      <trkpt lat="45.9921870008111" lon="8.396031036973">
        <ele>203.34999999999999</ele>
        <time>2013-04-07T08:50:51Z</time>
      </trkpt>
      <trkpt lat="45.992094967514277" lon="8.395899021998048">
        <ele>203.34</ele>
        <time>2013-04-07T08:50:55Z</time>
      </trkpt>
      <trkpt lat="45.992067977786064" lon="8.395860968157649">
        <ele>203.285</ele>
        <time>2013-04-07T08:50:56Z</time>
      </trkpt>
      <trkpt lat="45.991911990568042" lon="8.395571960136294">
        <ele>203.55699999999999</ele>
        <time>2013-04-07T08:51:02Z</time>
      </trkpt>
      <trkpt lat="45.991805037483573" lon="8.395360987633467">
        <ele>203.98099999999999</ele>
        <time>2013-04-07T08:51:07Z</time>
      </trkpt>
      <trkpt lat="45.9917570091784" lon="8.395275995135307">
        <ele>203.65899999999999</ele>
        <time>2013-04-07T08:51:13Z</time>
      </trkpt>
      <trkpt lat="45.991727001965046" lon="8.39523802511394">
        <ele>203.822</ele>
        <time>2013-04-07T08:51:16Z</time>
      </trkpt>
      <trkpt lat="45.991623988375068" lon="8.395116990432143">
        <ele>203.69900000000001</ele>
        <time>2013-04-07T08:51:21Z</time>
      </trkpt>
      <trkpt lat="45.991551987826824" lon="8.394934013485909">
        <ele>203.83000000000001</ele>
        <time>2013-04-07T08:51:25Z</time>
      </trkpt>
      <trkpt lat="45.991596998646855" lon="8.394735027104616">
        <ele>203.74299999999999</ele>
        <time>2013-04-07T08:51:29Z</time>
      </trkpt>
      <trkpt lat="45.991612002253532" lon="8.39465900324285">
        <ele>203.65899999999999</ele>
        <time>2013-04-07T08:51:31Z</time>
      </trkpt>
      <trkpt lat="45.991672016680241" lon="8.394524976611137">
        <ele>203.46799999999999</ele>
        <time>2013-04-07T08:51:36Z</time>
      </trkpt>
      <trkpt lat="45.99171401001513" lon="8.394354991614819">
        <ele>203.53800000000001</ele>
        <time>2013-04-07T08:51:43Z</time>
      </trkpt>
      <trkpt lat="45.991753991693258" lon="8.394205961376429">
        <ele>203.57300000000001</ele>
        <time>2013-04-07T08:51:48Z</time>
      </trkpt>
      <trkpt lat="45.991743011400104" lon="8.394017033278942">
        <ele>203.95400000000001</ele>
        <time>2013-04-07T08:51:53Z</time>
      </trkpt>
      <trkpt lat="45.991730019450188" lon="8.393973028287292">
        <ele>203.90600000000001</ele>
        <time>2013-04-07T08:51:54Z</time>
      </trkpt>
      <trkpt lat="45.991786010563374" lon="8.393786028027535">
        <ele>203.82300000000001</ele>
        <time>2013-04-07T08:51:59Z</time>
      </trkpt>
      <trkpt lat="45.991900004446507" lon="8.393559968098998">
        <ele>203.75399999999999</ele>
        <time>2013-04-07T08:52:05Z</time>
      </trkpt>
      <trkpt lat="45.991903021931648" lon="8.393499031662941">
        <ele>203.72399999999999</ele>
        <time>2013-04-07T08:52:06Z</time>
      </trkpt>
      <trkpt lat="45.991892963647842" lon="8.393379002809525">
        <ele>203.74000000000001</ele>
        <time>2013-04-07T08:52:08Z</time>
      </trkpt>
      <trkpt lat="45.991928000003099" lon="8.393008019775152">
        <ele>203.874</ele>
        <time>2013-04-07T08:52:14Z</time>
      </trkpt>
      <trkpt lat="45.991966975852847" lon="8.392816996201873">
        <ele>203.81800000000001</ele>
        <time>2013-04-07T08:52:17Z</time>
      </trkpt>
      <trkpt lat="45.992063032463193" lon="8.392392033711076">
        <ele>203.916</ele>
        <time>2013-04-07T08:52:23Z</time>
      </trkpt>
      <trkpt lat="45.992111982777715" lon="8.392180977389216">
        <ele>203.886</ele>
        <time>2013-04-07T08:52:26Z</time>
      </trkpt>
      <trkpt lat="45.992180965840816" lon="8.391894986853004">
        <ele>203.98400000000001</ele>
        <time>2013-04-07T08:52:30Z</time>
      </trkpt>
      <trkpt lat="45.992268975824118" lon="8.391411015763879">
        <ele>204.107</ele>
        <time>2013-04-07T08:52:36Z</time>
      </trkpt>
      <trkpt lat="45.99231599830091" lon="8.391257962211967">
        <ele>204.14500000000001</ele>
        <time>2013-04-07T08:52:38Z</time>
      </trkpt>
      <trkpt lat="45.992369977757335" lon="8.391150003299117">
        <ele>204.13499999999999</ele>
        <time>2013-04-07T08:52:40Z</time>
      </trkpt>
      <trkpt lat="45.992453964427114" lon="8.390974989160895">
        <ele>204.166</ele>
        <time>2013-04-07T08:52:43Z</time>
      </trkpt>
      <trkpt lat="45.992567036300898" lon="8.390737026929855">
        <ele>204.304</ele>
        <time>2013-04-07T08:52:47Z</time>
      </trkpt>
      <trkpt lat="45.992640964686871" lon="8.390547009184957">
        <ele>204.24799999999999</ele>
        <time>2013-04-07T08:52:50Z</time>
      </trkpt>
      <trkpt lat="45.992743978276849" lon="8.390313992276788">
        <ele>204.28800000000001</ele>
        <time>2013-04-07T08:52:54Z</time>
      </trkpt>
      <trkpt lat="45.992854032665491" lon="8.390054991468787">
        <ele>204.203</ele>
        <time>2013-04-07T08:52:59Z</time>
      </trkpt>
      <trkpt lat="45.992915974929929" lon="8.389833038672805">
        <ele>204.26300000000001</ele>
        <time>2013-04-07T08:53:03Z</time>
      </trkpt>
      <trkpt lat="45.993079002946615" lon="8.389756008982658">
        <ele>204.43000000000001</ele>
        <time>2013-04-07T08:53:07Z</time>
      </trkpt>
      <trkpt lat="45.993119990453124" lon="8.389755003154278">
        <ele>204.50200000000001</ele>
        <time>2013-04-07T08:53:08Z</time>
      </trkpt>
      <trkpt lat="45.993296010419726" lon="8.389741005375981">
        <ele>204.565</ele>
        <time>2013-04-07T08:53:12Z</time>
      </trkpt>
      <trkpt lat="45.993536990135908" lon="8.389616031199694">
        <ele>204.93299999999999</ele>
        <time>2013-04-07T08:53:17Z</time>
      </trkpt>
      <trkpt lat="45.99358300678432" lon="8.389568002894521">
        <ele>204.982</ele>
        <time>2013-04-07T08:53:18Z</time>
      </trkpt>
      <trkpt lat="45.993772018700838" lon="8.389314031228423">
        <ele>205.423</ele>
        <time>2013-04-07T08:53:23Z</time>
      </trkpt>
      <trkpt lat="45.993939992040396" lon="8.38915997184813">
        <ele>205.37200000000001</ele>
        <time>2013-04-07T08:53:27Z</time>
      </trkpt>
      <trkpt lat="45.994082987308502" lon="8.38911596685648">
        <ele>205.47300000000001</ele>
        <time>2013-04-07T08:53:33Z</time>
      </trkpt>
      <trkpt lat="45.99418600089848" lon="8.389124013483524">
        <ele>205.25399999999999</ele>
        <time>2013-04-07T08:53:37Z</time>
      </trkpt>
      <trkpt lat="45.994252972304821" lon="8.389074979349971">
        <ele>205.089</ele>
        <time>2013-04-07T08:53:41Z</time>
      </trkpt>
      <trkpt lat="45.994342993944883" lon="8.388971965759993">
        <ele>205.09100000000001</ele>
        <time>2013-04-07T08:53:45Z</time>
      </trkpt>
      <trkpt lat="45.994428992271423" lon="8.388950005173683">
        <ele>205.53399999999999</ele>
        <time>2013-04-07T08:53:49Z</time>
      </trkpt>
      <trkpt lat="45.994536029174924" lon="8.388885967433453">
        <ele>205.959</ele>
        <time>2013-04-07T08:53:53Z</time>
      </trkpt>
      <trkpt lat="45.994603000581264" lon="8.388967020437121">
        <ele>205.87899999999999</ele>
        <time>2013-04-07T08:53:57Z</time>
      </trkpt>
      <trkpt lat="45.994625966995955" lon="8.389139017090201">
        <ele>206.13</ele>
        <time>2013-04-07T08:54:04Z</time>
      </trkpt>
      <trkpt lat="45.99465899169445" lon="8.389270026236773">
        <ele>206.53700000000001</ele>
        <time>2013-04-07T08:54:10Z</time>
      </trkpt>
      <trkpt lat="45.994692016392946" lon="8.389471024274826">
        <ele>207.18700000000001</ele>
        <time>2013-04-07T08:54:17Z</time>
      </trkpt>
      <trkpt lat="45.994725963100791" lon="8.389678979292512">
        <ele>207.95099999999999</ele>
        <time>2013-04-07T08:54:24Z</time>
      </trkpt>
      <trkpt lat="45.99476502276957" lon="8.389779981225729">
        <ele>208.572</ele>
        <time>2013-04-07T08:54:28Z</time>
      </trkpt>
      <trkpt lat="45.994825959205627" lon="8.389722984284163">
        <ele>208.96700000000001</ele>
        <time>2013-04-07T08:54:32Z</time>
      </trkpt>
      <trkpt lat="45.994824031367898" lon="8.389646038413048">
        <ele>208.93899999999999</ele>
        <time>2013-04-07T08:54:34Z</time>
      </trkpt>
      <trkpt lat="45.994797041639686" lon="8.389258962124586">
        <ele>208.685</ele>
        <time>2013-04-07T08:54:43Z</time>
      </trkpt>
      <trkpt lat="45.994769968092442" lon="8.389041032642126">
        <ele>208.47499999999999</ele>
        <time>2013-04-07T08:54:49Z</time>
      </trkpt>
      <trkpt lat="45.994751024991274" lon="8.388770967721939">
        <ele>208.37100000000001</ele>
        <time>2013-04-07T08:54:57Z</time>
      </trkpt>
      <trkpt lat="45.99474398419261" lon="8.388684969395399">
        <ele>208.245</ele>
        <time>2013-04-07T08:55:02Z</time>
      </trkpt>
      <trkpt lat="45.994731998071074" lon="8.388606011867523">
        <ele>208.56800000000001</ele>
        <time>2013-04-07T08:55:22Z</time>
      </trkpt>
      <trkpt lat="45.994715988636017" lon="8.388370983302593">
        <ele>208.72499999999999</ele>
        <time>2013-04-07T08:55:26Z</time>
      </trkpt>
      <trkpt lat="45.994659997522831" lon="8.387766983360052">
        <ele>208.935</ele>
        <time>2013-04-07T08:55:34Z</time>
      </trkpt>
      <trkpt lat="45.994643988087773" lon="8.387619964778423">
        <ele>208.94999999999999</ele>
        <time>2013-04-07T08:55:36Z</time>
      </trkpt>
      <trkpt lat="45.99461599253118" lon="8.387245964258909">
        <ele>208.685</ele>
        <time>2013-04-07T08:55:42Z</time>
      </trkpt>
      <trkpt lat="45.994581962004304" lon="8.386813038960099">
        <ele>208.38800000000001</ele>
        <time>2013-04-07T08:55:49Z</time>
      </trkpt>
      <trkpt lat="45.994534017518163" lon="8.386215995997191">
        <ele>208.00899999999999</ele>
        <time>2013-04-07T08:55:58Z</time>
      </trkpt>
      <trkpt lat="45.994480038061738" lon="8.38557000271976">
        <ele>207.96600000000001</ele>
        <time>2013-04-07T08:56:08Z</time>
      </trkpt>
      <trkpt lat="45.994437960907817" lon="8.385032974183559">
        <ele>208.12100000000001</ele>
        <time>2013-04-07T08:56:16Z</time>
      </trkpt>
      <trkpt lat="45.994381969794631" lon="8.384362002834678">
        <ele>208.53200000000001</ele>
        <time>2013-04-07T08:56:24Z</time>
      </trkpt>
      <trkpt lat="45.994331007823348" lon="8.383753979578614">
        <ele>208.17099999999999</ele>
        <time>2013-04-07T08:56:31Z</time>
      </trkpt>
      <trkpt lat="45.994264036417007" lon="8.38290698826313">
        <ele>208.30799999999999</ele>
        <time>2013-04-07T08:56:40Z</time>
      </trkpt>
      <trkpt lat="45.994189018383622" lon="8.382021021097899">
        <ele>208.22999999999999</ele>
        <time>2013-04-07T08:56:48Z</time>
      </trkpt>
      <trkpt lat="45.994115006178617" lon="8.381172018125653">
        <ele>208.13800000000001</ele>
        <time>2013-04-07T08:56:56Z</time>
      </trkpt>
      <trkpt lat="45.994052980095148" lon="8.380359979346395">
        <ele>208.45699999999999</ele>
        <time>2013-04-07T08:57:04Z</time>
      </trkpt>
      <trkpt lat="45.993972010910511" lon="8.379359012469649">
        <ele>208.334</ele>
        <time>2013-04-07T08:57:14Z</time>
      </trkpt>
      <trkpt lat="45.993890035897493" lon="8.37824204005301">
        <ele>208.84299999999999</ele>
        <time>2013-04-07T08:57:25Z</time>
      </trkpt>
      <trkpt lat="45.993877965956926" lon="8.377940040081739">
        <ele>208.79900000000001</ele>
        <time>2013-04-07T08:57:28Z</time>
      </trkpt>
      <trkpt lat="45.993980979546905" lon="8.377455985173583">
        <ele>208.137</ele>
        <time>2013-04-07T08:57:33Z</time>
      </trkpt>
      <trkpt lat="45.99407896399498" lon="8.377050971612334">
        <ele>207.786</ele>
        <time>2013-04-07T08:57:37Z</time>
      </trkpt>
      <trkpt lat="45.994024984538555" lon="8.376694992184639">
        <ele>207.65299999999999</ele>
        <time>2013-04-07T08:57:41Z</time>
      </trkpt>
      <trkpt lat="45.993899004533887" lon="8.376704966649413">
        <ele>208.06700000000001</ele>
        <time>2013-04-07T08:57:43Z</time>
      </trkpt>
      <trkpt lat="45.993843013420701" lon="8.37674000300467">
        <ele>208.20699999999999</ele>
        <time>2013-04-07T08:57:44Z</time>
      </trkpt>
      <trkpt lat="45.993741005659103" lon="8.376813009381294">
        <ele>207.96700000000001</ele>
        <time>2013-04-07T08:57:46Z</time>
      </trkpt>
      <trkpt lat="45.993574038147926" lon="8.376877969130874">
        <ele>207.54499999999999</ele>
        <time>2013-04-07T08:57:49Z</time>
      </trkpt>
      <trkpt lat="45.993441017344594" lon="8.376855002716184">
        <ele>207.45699999999999</ele>
        <time>2013-04-07T08:57:53Z</time>
      </trkpt>
      <trkpt lat="45.993429031223059" lon="8.376771016046405">
        <ele>208.15299999999999</ele>
        <time>2013-04-07T08:57:56Z</time>
      </trkpt>
      <trkpt lat="45.993430959060788" lon="8.376488965004683">
        <ele>209.65299999999999</ele>
        <time>2013-04-07T08:58:03Z</time>
      </trkpt>
      <trkpt lat="45.993484016507864" lon="8.376214960590005">
        <ele>209.75399999999999</ele>
        <time>2013-04-07T08:58:08Z</time>
      </trkpt>
      <trkpt lat="45.993527015671134" lon="8.375960988923907">
        <ele>209.988</ele>
        <time>2013-04-07T08:58:12Z</time>
      </trkpt>
      <trkpt lat="45.993534978479147" lon="8.375828973948956">
        <ele>210.14599999999999</ele>
        <time>2013-04-07T08:58:14Z</time>
      </trkpt>
      <trkpt lat="45.993490973487496" lon="8.375567039474845">
        <ele>210.46600000000001</ele>
        <time>2013-04-07T08:58:18Z</time>
      </trkpt>
      <trkpt lat="45.993346972391009" lon="8.37517099454999">
        <ele>210.54400000000001</ele>
        <time>2013-04-07T08:58:24Z</time>
      </trkpt>
      <trkpt lat="45.993258962407708" lon="8.374653998762369">
        <ele>210.23699999999999</ele>
        <time>2013-04-07T08:58:31Z</time>
      </trkpt>
      <trkpt lat="45.993272038176656" lon="8.374331966042519">
        <ele>210.29300000000001</ele>
        <time>2013-04-07T08:58:35Z</time>
      </trkpt>
      <trkpt lat="45.993298022076488" lon="8.374167010188103">
        <ele>210.285</ele>
        <time>2013-04-07T08:58:37Z</time>
      </trkpt>
      <trkpt lat="45.993296010419726" lon="8.373488998040557">
        <ele>210.554</ele>
        <time>2013-04-07T08:58:45Z</time>
      </trkpt>
      <trkpt lat="45.993317971006036" lon="8.372918022796512">
        <ele>209.565</ele>
        <time>2013-04-07T08:58:51Z</time>
      </trkpt>
      <trkpt lat="45.993373040109873" lon="8.372143032029271">
        <ele>208.33099999999999</ele>
        <time>2013-04-07T08:58:59Z</time>
      </trkpt>
      <trkpt lat="45.993292992934585" lon="8.371930969879031">
        <ele>207.64400000000001</ele>
        <time>2013-04-07T08:59:03Z</time>
      </trkpt>
      <trkpt lat="45.993146980181336" lon="8.371980004012585">
        <ele>207.47300000000001</ele>
        <time>2013-04-07T08:59:06Z</time>
      </trkpt>
      <trkpt lat="45.993032986298203" lon="8.372001964598894">
        <ele>207.483</ele>
        <time>2013-04-07T08:59:08Z</time>
      </trkpt>
      <trkpt lat="45.992904994636774" lon="8.372040018439293">
        <ele>207.245</ele>
        <time>2013-04-07T08:59:10Z</time>
      </trkpt>
      <trkpt lat="45.992541974410415" lon="8.372214026749134">
        <ele>207.53800000000001</ele>
        <time>2013-04-07T08:59:16Z</time>
      </trkpt>
      <trkpt lat="45.99229303188622" lon="8.372283009812236">
        <ele>207.202</ele>
        <time>2013-04-07T08:59:20Z</time>
      </trkpt>
      <trkpt lat="45.992053980007768" lon="8.372246967628598">
        <ele>206.69399999999999</ele>
        <time>2013-04-07T08:59:24Z</time>
      </trkpt>
      <trkpt lat="45.991627005860209" lon="8.372149989008904">
        <ele>206.19399999999999</ele>
        <time>2013-04-07T08:59:31Z</time>
      </trkpt>
      <trkpt lat="45.991567997261882" lon="8.372148983180523">
        <ele>206.22499999999999</ele>
        <time>2013-04-07T08:59:32Z</time>
      </trkpt>
      <trkpt lat="45.991304973140359" lon="8.371998025104404">
        <ele>206.65700000000001</ele>
        <time>2013-04-07T08:59:37Z</time>
      </trkpt>
      <trkpt lat="45.991171030327678" lon="8.371748998761177">
        <ele>206.48400000000001</ele>
        <time>2013-04-07T08:59:41Z</time>
      </trkpt>
      <trkpt lat="45.99115401506424" lon="8.371673980727792">
        <ele>206.511</ele>
        <time>2013-04-07T08:59:42Z</time>
      </trkpt>
      <trkpt lat="45.991114033386111" lon="8.371361000463367">
        <ele>206.90199999999999</ele>
        <time>2013-04-07T08:59:46Z</time>
      </trkpt>
      <trkpt lat="45.991103975102305" lon="8.370969984680414">
        <ele>207.23500000000001</ele>
        <time>2013-04-07T08:59:51Z</time>
      </trkpt>
      <trkpt lat="45.991214029490948" lon="8.370462041348219">
        <ele>207.52699999999999</ele>
        <time>2013-04-07T08:59:58Z</time>
      </trkpt>
      <trkpt lat="45.991373034194112" lon="8.369977986440063">
        <ele>207.351</ele>
        <time>2013-04-07T09:00:05Z</time>
      </trkpt>
      <trkpt lat="45.991411004215479" lon="8.369833985343576">
        <ele>207.29900000000001</ele>
        <time>2013-04-07T09:00:07Z</time>
      </trkpt>
      <trkpt lat="45.991461966186762" lon="8.36958697065711">
        <ele>206.89500000000001</ele>
        <time>2013-04-07T09:00:12Z</time>
      </trkpt>
      <trkpt lat="45.991511000320315" lon="8.369302991777659">
        <ele>206.99799999999999</ele>
        <time>2013-04-07T09:00:18Z</time>
      </trkpt>
      <trkpt lat="45.991591969504952" lon="8.369054971262813">
        <ele>207.06</ele>
        <time>2013-04-07T09:00:23Z</time>
      </trkpt>
      <trkpt lat="45.991652989760041" lon="8.368830000981689">
        <ele>207.29599999999999</ele>
        <time>2013-04-07T09:00:27Z</time>
      </trkpt>
      <trkpt lat="45.991672016680241" lon="8.368348041549325">
        <ele>207.53700000000001</ele>
        <time>2013-04-07T09:00:34Z</time>
      </trkpt>
      <trkpt lat="45.991681991145015" lon="8.368198005482554">
        <ele>207.655</ele>
        <time>2013-04-07T09:00:36Z</time>
      </trkpt>
      <trkpt lat="45.991771006956697" lon="8.367594005540013">
        <ele>207.37899999999999</ele>
        <time>2013-04-07T09:00:44Z</time>
      </trkpt>
      <trkpt lat="45.991844013333321" lon="8.367248000577092">
        <ele>207.41999999999999</ele>
        <time>2013-04-07T09:00:49Z</time>
      </trkpt>
      <trkpt lat="45.991902016103268" lon="8.366766963154078">
        <ele>207.43600000000001</ele>
        <time>2013-04-07T09:00:56Z</time>
      </trkpt>
      <trkpt lat="45.991954989731312" lon="8.366281986236572">
        <ele>207.661</ele>
        <time>2013-04-07T09:01:03Z</time>
      </trkpt>
      <trkpt lat="45.99199203774333" lon="8.365792986005545">
        <ele>207.91999999999999</ele>
        <time>2013-04-07T09:01:10Z</time>
      </trkpt>
      <trkpt lat="45.992081975564361" lon="8.365244977176189">
        <ele>207.887</ele>
        <time>2013-04-07T09:01:18Z</time>
      </trkpt>
      <trkpt lat="45.992128998041153" lon="8.364758994430304">
        <ele>208.197</ele>
        <time>2013-04-07T09:01:25Z</time>
      </trkpt>
      <trkpt lat="45.992197981104255" lon="8.364164968952537">
        <ele>208.179</ele>
        <time>2013-04-07T09:01:33Z</time>
      </trkpt>
      <trkpt lat="45.992269981652498" lon="8.36361100897193">
        <ele>208.16800000000001</ele>
        <time>2013-04-07T09:01:40Z</time>
      </trkpt>
      <trkpt lat="45.992305018007755" lon="8.363424008712173">
        <ele>208.40600000000001</ele>
        <time>2013-04-07T09:01:43Z</time>
      </trkpt>
      <trkpt lat="45.992236034944654" lon="8.363342033699155">
        <ele>208.09</ele>
        <time>2013-04-07T09:01:47Z</time>
      </trkpt>
      <trkpt lat="45.9921870008111" lon="8.363358965143561">
        <ele>208.12799999999999</ele>
        <time>2013-04-07T09:01:52Z</time>
      </trkpt>
      <trkpt lat="45.992137966677547" lon="8.363362988457084">
        <ele>208.084</ele>
        <time>2013-04-07T09:01:58Z</time>
      </trkpt>
      <trkpt lat="45.991966975852847" lon="8.363367011770606">
        <ele>207.95599999999999</ele>
        <time>2013-04-07T09:02:05Z</time>
      </trkpt>
      <trkpt lat="45.991695988923311" lon="8.363374974578619">
        <ele>208.49000000000001</ele>
        <time>2013-04-07T09:02:13Z</time>
      </trkpt>
      <trkpt lat="45.991372028365731" lon="8.363362988457084">
        <ele>208.68799999999999</ele>
        <time>2013-04-07T09:02:21Z</time>
      </trkpt>
      <trkpt lat="45.990973971784115" lon="8.363348990678787">
        <ele>208.55500000000001</ele>
        <time>2013-04-07T09:02:31Z</time>
      </trkpt>
      <trkpt lat="45.990634001791477" lon="8.363343961536884">
        <ele>208.63999999999999</ele>
        <time>2013-04-07T09:02:40Z</time>
      </trkpt>
      <trkpt lat="45.990551020950079" lon="8.363296017050743">
        <ele>208.74299999999999</ele>
        <time>2013-04-07T09:02:45Z</time>
      </trkpt>
      <trkpt lat="45.990587985143065" lon="8.363143969327211">
        <ele>209.02799999999999</ele>
        <time>2013-04-07T09:02:50Z</time>
      </trkpt>
      <trkpt lat="45.990711031481624" lon="8.362781032919884">
        <ele>209.16200000000001</ele>
        <time>2013-04-07T09:02:58Z</time>
      </trkpt>
      <trkpt lat="45.990866012871265" lon="8.362397979944944">
        <ele>209.316</ele>
        <time>2013-04-07T09:03:05Z</time>
      </trkpt>
      <trkpt lat="45.991002973169088" lon="8.361792974174023">
        <ele>209.416</ele>
        <time>2013-04-07T09:03:14Z</time>
      </trkpt>
      <trkpt lat="45.991178993135691" lon="8.361192997545004">
        <ele>209.904</ele>
        <time>2013-04-07T09:03:23Z</time>
      </trkpt>
      <trkpt lat="45.991351995617151" lon="8.360654041171074">
        <ele>209.98099999999999</ele>
        <time>2013-04-07T09:03:31Z</time>
      </trkpt>
      <trkpt lat="45.991541007533669" lon="8.360047023743391">
        <ele>209.86099999999999</ele>
        <time>2013-04-07T09:03:39Z</time>
      </trkpt>
      <trkpt lat="45.991840995848179" lon="8.359118979424238">
        <ele>209.495</ele>
        <time>2013-04-07T09:03:51Z</time>
      </trkpt>
      <trkpt lat="45.992077030241489" lon="8.358382964506745">
        <ele>209.36799999999999</ele>
        <time>2013-04-07T09:04:00Z</time>
      </trkpt>
      <trkpt lat="45.99229303188622" lon="8.35772498510778">
        <ele>209.054</ele>
        <time>2013-04-07T09:04:08Z</time>
      </trkpt>
      <trkpt lat="45.992579022422433" lon="8.356861984357238">
        <ele>209.52699999999999</ele>
        <time>2013-04-07T09:04:18Z</time>
      </trkpt>
      <trkpt lat="45.992798041552305" lon="8.356245998293161">
        <ele>209.65299999999999</ele>
        <time>2013-04-07T09:04:25Z</time>
      </trkpt>
      <trkpt lat="45.993001973256469" lon="8.355741994455457">
        <ele>209.636</ele>
        <time>2013-04-07T09:04:31Z</time>
      </trkpt>
      <trkpt lat="45.993071040138602" lon="8.355487016960979">
        <ele>209.489</ele>
        <time>2013-04-07T09:04:34Z</time>
      </trkpt>
      <trkpt lat="45.993247982114553" lon="8.354940013960004">
        <ele>209.798</ele>
        <time>2013-04-07T09:04:41Z</time>
      </trkpt>
      <trkpt lat="45.993341021239758" lon="8.354628961533308">
        <ele>209.74700000000001</ele>
        <time>2013-04-07T09:04:45Z</time>
      </trkpt>
      <trkpt lat="45.993458032608032" lon="8.354430980980396">
        <ele>209.834</ele>
        <time>2013-04-07T09:04:48Z</time>
      </trkpt>
      <trkpt lat="45.993555011227727" lon="8.354211961850524">
        <ele>209.83500000000001</ele>
        <time>2013-04-07T09:04:51Z</time>
      </trkpt>
      <trkpt lat="45.993600022047758" lon="8.354058992117643">
        <ele>209.88800000000001</ele>
        <time>2013-04-07T09:04:53Z</time>
      </trkpt>
      <trkpt lat="45.993868997320533" lon="8.353454992175102">
        <ele>209.923</ele>
        <time>2013-04-07T09:05:02Z</time>
      </trkpt>
      <trkpt lat="45.994222965091467" lon="8.352845041081309">
        <ele>209.63800000000001</ele>
        <time>2013-04-07T09:05:11Z</time>
      </trkpt>
      <trkpt lat="45.99448699504137" lon="8.352471962571144">
        <ele>209.697</ele>
        <time>2013-04-07T09:05:17Z</time>
      </trkpt>
      <trkpt lat="45.994534017518163" lon="8.352412031963468">
        <ele>209.577</ele>
        <time>2013-04-07T09:05:18Z</time>
      </trkpt>
      <trkpt lat="45.994794024154544" lon="8.352254033088684">
        <ele>209.982</ele>
        <time>2013-04-07T09:05:23Z</time>
      </trkpt>
      <trkpt lat="45.995074985548854" lon="8.352193012833595">
        <ele>210.547</ele>
        <time>2013-04-07T09:05:29Z</time>
      </trkpt>
      <trkpt lat="45.995319988578558" lon="8.352143978700042">
        <ele>210.69300000000001</ele>
        <time>2013-04-07T09:05:36Z</time>
      </trkpt>
      <trkpt lat="45.99553900770843" lon="8.352156970649958">
        <ele>210.733</ele>
        <time>2013-04-07T09:05:42Z</time>
      </trkpt>
      <trkpt lat="45.995849976316094" lon="8.352085975930095">
        <ele>211.14599999999999</ele>
        <time>2013-04-07T09:05:50Z</time>
      </trkpt>
      <trkpt lat="45.995984002947807" lon="8.351971982046962">
        <ele>211.488</ele>
        <time>2013-04-07T09:05:55Z</time>
      </trkpt>
      <trkpt lat="45.996004035696387" lon="8.351916996762157">
        <ele>211.477</ele>
        <time>2013-04-07T09:05:59Z</time>
      </trkpt>
      <trkpt lat="45.996021972969174" lon="8.3518819604069">
        <ele>211.49799999999999</ele>
        <time>2013-04-07T09:06:27Z</time>
      </trkpt>
      <trkpt lat="45.996037982404232" lon="8.351898975670338">
        <ele>211.28999999999999</ele>
        <time>2013-04-07T09:06:34Z</time>
      </trkpt>
      <trkpt lat="45.995976040139794" lon="8.351762015372515">
        <ele>211.40199999999999</ele>
        <time>2013-04-07T09:08:16Z</time>
      </trkpt>
      <trkpt lat="45.996094979345798" lon="8.351604016497731">
        <ele>209.86500000000001</ele>
        <time>2013-04-07T09:08:21Z</time>
      </trkpt>
      <trkpt lat="45.996114006265998" lon="8.351431014016271">
        <ele>206.88399999999999</ele>
        <time>2013-04-07T09:08:25Z</time>
      </trkpt>
      <trkpt lat="45.996040999889374" lon="8.351390026509762">
        <ele>206.08600000000001</ele>
        <time>2013-04-07T09:08:29Z</time>
      </trkpt>
      <trkpt lat="45.995977967977524" lon="8.351382985711098">
        <ele>205.89500000000001</ele>
        <time>2013-04-07T09:08:32Z</time>
      </trkpt>
      <trkpt lat="45.995932035148144" lon="8.351307967677712">
        <ele>206.065</ele>
        <time>2013-04-07T09:08:37Z</time>
      </trkpt>
      <trkpt lat="45.995914014056325" lon="8.351211994886398">
        <ele>205.78899999999999</ele>
        <time>2013-04-07T09:08:43Z</time>
      </trkpt>
      <trkpt lat="45.99590202793479" lon="8.351139994338155">
        <ele>208.04900000000001</ele>
        <time>2013-04-07T09:08:51Z</time>
      </trkpt>
      <trkpt lat="45.995900016278028" lon="8.351088026538491">
        <ele>208.934</ele>
        <time>2013-04-07T09:08:57Z</time>
      </trkpt>
      <trkpt lat="45.995909990742803" lon="8.350891973823309">
        <ele>208.87799999999999</ele>
        <time>2013-04-07T09:09:03Z</time>
      </trkpt>
      <trkpt lat="45.995912002399564" lon="8.350903959944844">
        <ele>209.77799999999999</ele>
        <time>2013-04-07T09:09:06Z</time>
      </trkpt>
      <trkpt lat="45.995907979086041" lon="8.350856015458703">
        <ele>210.75</ele>
        <time>2013-04-07T09:09:11Z</time>
      </trkpt>
      <trkpt lat="45.995899010449648" lon="8.35076398216188">
        <ele>211.547</ele>
        <time>2013-04-07T09:09:18Z</time>
      </trkpt>
      <trkpt lat="45.995888030156493" lon="8.350710002705455">
        <ele>211.59800000000001</ele>
        <time>2013-04-07T09:09:22Z</time>
      </trkpt>
      <trkpt lat="45.995852993801236" lon="8.350558038800955">
        <ele>211.53399999999999</ele>
        <time>2013-04-07T09:09:28Z</time>
      </trkpt>
      <trkpt lat="45.995832961052656" lon="8.350328961387277">
        <ele>211.374</ele>
        <time>2013-04-07T09:09:34Z</time>
      </trkpt>
      <trkpt lat="45.995812006294727" lon="8.35018202662468">
        <ele>211.18700000000001</ele>
        <time>2013-04-07T09:09:40Z</time>
      </trkpt>
      <trkpt lat="45.995787028223276" lon="8.349993014708161">
        <ele>210.96899999999999</ele>
        <time>2013-04-07T09:09:48Z</time>
      </trkpt>
      <trkpt lat="45.995826004073024" lon="8.349691014736891">
        <ele>210.68700000000001</ele>
        <time>2013-04-07T09:09:57Z</time>
      </trkpt>
      <trkpt lat="45.995889035984874" lon="8.349323971197009">
        <ele>210.57499999999999</ele>
        <time>2013-04-07T09:10:06Z</time>
      </trkpt>
      <trkpt lat="45.995906973257661" lon="8.348982995375991">
        <ele>210.589</ele>
        <time>2013-04-07T09:10:14Z</time>
      </trkpt>
      <trkpt lat="45.995852993801236" lon="8.348899008706212">
        <ele>210.81800000000001</ele>
        <time>2013-04-07T09:10:17Z</time>
      </trkpt>
      <trkpt lat="45.995877971872687" lon="8.348856009542942">
        <ele>210.84299999999999</ele>
        <time>2013-04-07T09:10:21Z</time>
      </trkpt>
      <trkpt lat="45.995904039591551" lon="8.348950976505876">
        <ele>211.41</ele>
        <time>2013-04-07T09:10:26Z</time>
      </trkpt>
      <trkpt lat="45.995923988521099" lon="8.348988024517894">
        <ele>211.00899999999999</ele>
        <time>2013-04-07T09:12:29Z</time>
      </trkpt>
      <trkpt lat="45.995863974094391" lon="8.34893899038434">
        <ele>211.07400000000001</ele>
        <time>2013-04-07T09:12:33Z</time>
      </trkpt>
      <trkpt lat="45.995803037658334" lon="8.348882999271154">
        <ele>211.11799999999999</ele>
        <time>2013-04-07T09:12:35Z</time>
      </trkpt>
      <trkpt lat="45.995530039072037" lon="8.3487010281533">
        <ele>210.952</ele>
        <time>2013-04-07T09:12:43Z</time>
      </trkpt>
      <trkpt lat="45.995241031050682" lon="8.348539005964994">
        <ele>211.149</ele>
        <time>2013-04-07T09:12:52Z</time>
      </trkpt>
      <trkpt lat="45.995189985260367" lon="8.348497012630105">
        <ele>211.06700000000001</ele>
        <time>2013-04-07T09:12:54Z</time>
      </trkpt>
      <trkpt lat="45.995177999138832" lon="8.34833700209856">
        <ele>210.97</ele>
        <time>2013-04-07T09:12:58Z</time>
      </trkpt>
      <trkpt lat="45.995277995243669" lon="8.347836015745997">
        <ele>210.94999999999999</ele>
        <time>2013-04-07T09:13:08Z</time>
      </trkpt>
      <trkpt lat="45.995288975536823" lon="8.347409041598439">
        <ele>211.077</ele>
        <time>2013-04-07T09:13:16Z</time>
      </trkpt>
      <trkpt lat="45.995369022712111" lon="8.347059013321996">
        <ele>210.941</ele>
        <time>2013-04-07T09:13:23Z</time>
      </trkpt>
      <trkpt lat="45.995585024356842" lon="8.346618041396141">
        <ele>210.48699999999999</ele>
        <time>2013-04-07T09:13:32Z</time>
      </trkpt>
      <trkpt lat="45.995768001303077" lon="8.346147984266281">
        <ele>210.47900000000001</ele>
        <time>2013-04-07T09:13:41Z</time>
      </trkpt>
      <trkpt lat="45.995981991291046" lon="8.345817988738418">
        <ele>210.59299999999999</ele>
        <time>2013-04-07T09:13:48Z</time>
      </trkpt>
      <trkpt lat="45.996266975998878" lon="8.345400989055634">
        <ele>210.91399999999999</ele>
        <time>2013-04-07T09:13:56Z</time>
      </trkpt>
      <trkpt lat="45.996405025944114" lon="8.345196973532438">
        <ele>211.148</ele>
        <time>2013-04-07T09:14:00Z</time>
      </trkpt>
      <trkpt lat="45.996477026492357" lon="8.34511399269104">
        <ele>211.239</ele>
        <time>2013-04-07T09:14:02Z</time>
      </trkpt>
      <trkpt lat="45.9966129809618" lon="8.344926992431283">
        <ele>211.411</ele>
        <time>2013-04-07T09:14:06Z</time>
      </trkpt>
      <trkpt lat="45.996874999254942" lon="8.344733035191894">
        <ele>211.22300000000001</ele>
        <time>2013-04-07T09:14:12Z</time>
      </trkpt>
      <trkpt lat="45.997041966766119" lon="8.344526002183557">
        <ele>211.197</ele>
        <time>2013-04-07T09:14:18Z</time>
      </trkpt>
      <trkpt lat="45.997053030878305" lon="8.344515021890402">
        <ele>211.30199999999999</ele>
        <time>2013-04-07T09:14:19Z</time>
      </trkpt>
      <trkpt lat="45.997151015326381" lon="8.344420976936817">
        <ele>211.083</ele>
        <time>2013-04-07T09:14:24Z</time>
      </trkpt>
      <trkpt lat="45.997180016711354" lon="8.344422988593578">
        <ele>211.04499999999999</ele>
        <time>2013-04-07T09:14:25Z</time>
      </trkpt>
      <trkpt lat="45.99738696590066" lon="8.34431896917522">
        <ele>211.28299999999999</ele>
        <time>2013-04-07T09:14:31Z</time>
      </trkpt>
      <trkpt lat="45.997448991984129" lon="8.344244034960866">
        <ele>211.41499999999999</ele>
        <time>2013-04-07T09:14:33Z</time>
      </trkpt>
      <trkpt lat="45.997705981135368" lon="8.34408201277256">
        <ele>211.34100000000001</ele>
        <time>2013-04-07T09:14:39Z</time>
      </trkpt>
      <trkpt lat="45.997802037745714" lon="8.344047982245684">
        <ele>211.39400000000001</ele>
        <time>2013-04-07T09:14:41Z</time>
      </trkpt>
      <trkpt lat="45.997941009700298" lon="8.343943962827325">
        <ele>211.328</ele>
        <time>2013-04-07T09:14:44Z</time>
      </trkpt>
      <trkpt lat="45.998146031051874" lon="8.343826029449701">
        <ele>211.30600000000001</ele>
        <time>2013-04-07T09:14:48Z</time>
      </trkpt>
      <trkpt lat="45.998308975249529" lon="8.34382401779294">
        <ele>211.50999999999999</ele>
        <time>2013-04-07T09:14:51Z</time>
      </trkpt>
      <trkpt lat="45.998531011864543" lon="8.343775989487767">
        <ele>211.44</ele>
        <time>2013-04-07T09:14:55Z</time>
      </trkpt>
      <trkpt lat="45.998728992417455" lon="8.343672975897789">
        <ele>211.10599999999999</ele>
        <time>2013-04-07T09:14:59Z</time>
      </trkpt>
      <trkpt lat="45.998951029032469" lon="8.34352201782167">
        <ele>210.989</ele>
        <time>2013-04-07T09:15:04Z</time>
      </trkpt>
      <trkpt lat="45.999214975163341" lon="8.343337029218674">
        <ele>210.79599999999999</ele>
        <time>2013-04-07T09:15:10Z</time>
      </trkpt>
      <trkpt lat="45.999322012066841" lon="8.343057995662093">
        <ele>210.65000000000001</ele>
        <time>2013-04-07T09:15:14Z</time>
      </trkpt>
      <trkpt lat="45.999422008171678" lon="8.34262004122138">
        <ele>210.619</ele>
        <time>2013-04-07T09:15:19Z</time>
      </trkpt>
      <trkpt lat="45.99953499622643" lon="8.34195502102375">
        <ele>210.90600000000001</ele>
        <time>2013-04-07T09:15:26Z</time>
      </trkpt>
      <trkpt lat="45.999493002891541" lon="8.341725021600723">
        <ele>210.65100000000001</ele>
        <time>2013-04-07T09:15:30Z</time>
      </trkpt>
      <trkpt lat="45.999330980703235" lon="8.341625025495887">
        <ele>210.774</ele>
        <time>2013-04-07T09:15:34Z</time>
      </trkpt>
      <trkpt lat="45.999199971556664" lon="8.341527041047812">
        <ele>210.76400000000001</ele>
        <time>2013-04-07T09:15:37Z</time>
      </trkpt>
      <trkpt lat="45.998963015154004" lon="8.341264016926289">
        <ele>211.05000000000001</ele>
        <time>2013-04-07T09:15:43Z</time>
      </trkpt>
      <trkpt lat="45.998870981857181" lon="8.341082967817783">
        <ele>211.09899999999999</ele>
        <time>2013-04-07T09:15:46Z</time>
      </trkpt>
      <trkpt lat="45.998737039044499" lon="8.340857997536659">
        <ele>211.232</ele>
        <time>2013-04-07T09:15:50Z</time>
      </trkpt>
      <trkpt lat="45.998448031023145" lon="8.340503023937345">
        <ele>211.649</ele>
        <time>2013-04-07T09:15:57Z</time>
      </trkpt>
      <trkpt lat="45.998184001073241" lon="8.340091975405812">
        <ele>211.63399999999999</ele>
        <time>2013-04-07T09:16:04Z</time>
      </trkpt>
      <trkpt lat="45.997905973345041" lon="8.339686039835215">
        <ele>211.453</ele>
        <time>2013-04-07T09:16:11Z</time>
      </trkpt>
      <trkpt lat="45.997630041092634" lon="8.339273985475302">
        <ele>211.59100000000001</ele>
        <time>2013-04-07T09:16:18Z</time>
      </trkpt>
      <trkpt lat="45.997289987280965" lon="8.338783979415894">
        <ele>211.292</ele>
        <time>2013-04-07T09:16:26Z</time>
      </trkpt>
      <trkpt lat="45.997245982289314" lon="8.338722959160805">
        <ele>211.262</ele>
        <time>2013-04-07T09:16:27Z</time>
      </trkpt>
      <trkpt lat="45.997059987857938" lon="8.338376032188535">
        <ele>211.15799999999999</ele>
        <time>2013-04-07T09:16:32Z</time>
      </trkpt>
      <trkpt lat="45.996823031455278" lon="8.337647980079055">
        <ele>211.37200000000001</ele>
        <time>2013-04-07T09:16:41Z</time>
      </trkpt>
      <trkpt lat="45.996637037023902" lon="8.337086979299784">
        <ele>211.35300000000001</ele>
        <time>2013-04-07T09:16:48Z</time>
      </trkpt>
      <trkpt lat="45.996424974873662" lon="8.336423970758915">
        <ele>211.565</ele>
        <time>2013-04-07T09:16:56Z</time>
      </trkpt>
      <trkpt lat="45.996229005977511" lon="8.33583296276629">
        <ele>211.55799999999999</ele>
        <time>2013-04-07T09:17:03Z</time>
      </trkpt>
      <trkpt lat="45.995950978249311" lon="8.334969040006399">
        <ele>211.64699999999999</ele>
        <time>2013-04-07T09:17:13Z</time>
      </trkpt>
      <trkpt lat="45.995729025453329" lon="8.334274012595415">
        <ele>211.66999999999999</ele>
        <time>2013-04-07T09:17:21Z</time>
      </trkpt>
      <trkpt lat="45.995676973834634" lon="8.334092041477561">
        <ele>211.37799999999999</ele>
        <time>2013-04-07T09:17:23Z</time>
      </trkpt>
      <trkpt lat="45.995469018816948" lon="8.333485024049878">
        <ele>211.94900000000001</ele>
        <time>2013-04-07T09:17:30Z</time>
      </trkpt>
      <trkpt lat="45.995231978595257" lon="8.332741968333721">
        <ele>211.709</ele>
        <time>2013-04-07T09:17:39Z</time>
      </trkpt>
      <trkpt lat="45.995213035494089" lon="8.332660999149084">
        <ele>211.69499999999999</ele>
        <time>2013-04-07T09:17:40Z</time>
      </trkpt>
      <trkpt lat="45.995032992213964" lon="8.332477016374469">
        <ele>211.69499999999999</ele>
        <time>2013-04-07T09:17:44Z</time>
      </trkpt>
      <trkpt lat="45.994910029694438" lon="8.33245899528265">
        <ele>211.49000000000001</ele>
        <time>2013-04-07T09:17:46Z</time>
      </trkpt>
      <trkpt lat="45.994642982259393" lon="8.332334021106362">
        <ele>210.917</ele>
        <time>2013-04-07T09:17:52Z</time>
      </trkpt>
      <trkpt lat="45.994640970602632" lon="8.332332009449601">
        <ele>211.00399999999999</ele>
        <time>2013-04-07T09:17:56Z</time>
      </trkpt>
      <trkpt lat="45.994599983096123" lon="8.332351036369801">
        <ele>211.196</ele>
        <time>2013-04-07T09:18:15Z</time>
      </trkpt>
      <trkpt lat="45.994581039994955" lon="8.332162024453282">
        <ele>211.517</ele>
        <time>2013-04-07T09:18:20Z</time>
      </trkpt>
      <trkpt lat="45.994565030559897" lon="8.331951973959804">
        <ele>211.767</ele>
        <time>2013-04-07T09:18:23Z</time>
      </trkpt>
      <trkpt lat="45.994612975046039" lon="8.331612003967166">
        <ele>212.39099999999999</ele>
        <time>2013-04-07T09:18:27Z</time>
      </trkpt>
      <trkpt lat="45.994740966707468" lon="8.330844976007938">
        <ele>213.03899999999999</ele>
        <time>2013-04-07T09:18:35Z</time>
      </trkpt>
      <trkpt lat="45.994883961975574" lon="8.330324040725827">
        <ele>212.70500000000001</ele>
        <time>2013-04-07T09:18:41Z</time>
      </trkpt>
      <trkpt lat="45.994988987222314" lon="8.330067973583937">
        <ele>212.48599999999999</ele>
        <time>2013-04-07T09:18:44Z</time>
      </trkpt>
      <trkpt lat="45.995073979720473" lon="8.329491969197989">
        <ele>212.35599999999999</ele>
        <time>2013-04-07T09:18:50Z</time>
      </trkpt>
      <trkpt lat="45.995062999427319" lon="8.329399013891816">
        <ele>212.37</ele>
        <time>2013-04-07T09:18:51Z</time>
      </trkpt>
      <trkpt lat="45.995129970833659" lon="8.328941026702523">
        <ele>212.703</ele>
        <time>2013-04-07T09:18:56Z</time>
      </trkpt>
      <trkpt lat="45.995290987193584" lon="8.328494019806385">
        <ele>212.34800000000001</ele>
        <time>2013-04-07T09:19:01Z</time>
      </trkpt>
      <trkpt lat="45.995255028828979" lon="8.328069979324937">
        <ele>212.56399999999999</ele>
        <time>2013-04-07T09:19:05Z</time>
      </trkpt>
      <trkpt lat="45.995171964168549" lon="8.327760016545653">
        <ele>212.74000000000001</ele>
        <time>2013-04-07T09:19:08Z</time>
      </trkpt>
      <trkpt lat="45.995207000523806" lon="8.327378975227475">
        <ele>213.03700000000001</ele>
        <time>2013-04-07T09:19:12Z</time>
      </trkpt>
      <trkpt lat="45.995262991636992" lon="8.327322984114289">
        <ele>213.18799999999999</ele>
        <time>2013-04-07T09:19:13Z</time>
      </trkpt>
      <trkpt lat="45.995386959984899" lon="8.327224999666214">
        <ele>213.73599999999999</ele>
        <time>2013-04-07T09:19:15Z</time>
      </trkpt>
      <trkpt lat="45.995586030185223" lon="8.326910007745028">
        <ele>213.41399999999999</ele>
        <time>2013-04-07T09:19:19Z</time>
      </trkpt>
      <trkpt lat="45.995614025741816" lon="8.326803976669908">
        <ele>213.113</ele>
        <time>2013-04-07T09:19:20Z</time>
      </trkpt>
      <trkpt lat="45.995714021846652" lon="8.326361998915672">
        <ele>212.68199999999999</ele>
        <time>2013-04-07T09:19:24Z</time>
      </trkpt>
      <trkpt lat="45.995741011574864" lon="8.326032003387809">
        <ele>212.666</ele>
        <time>2013-04-07T09:19:27Z</time>
      </trkpt>
      <trkpt lat="45.995805971324444" lon="8.325781971216202">
        <ele>212.93799999999999</ele>
        <time>2013-04-07T09:19:30Z</time>
      </trkpt>
      <trkpt lat="45.99592600017786" lon="8.325725980103016">
        <ele>213.08699999999999</ele>
        <time>2013-04-07T09:19:32Z</time>
      </trkpt>
      <trkpt lat="45.996583979576826" lon="8.325612992048264">
        <ele>213.53</ele>
        <time>2013-04-07T09:19:41Z</time>
      </trkpt>
      <trkpt lat="45.99710600450635" lon="8.325592037290335">
        <ele>213.17500000000001</ele>
        <time>2013-04-07T09:19:48Z</time>
      </trkpt>
      <trkpt lat="45.997250005602837" lon="8.325601005926728">
        <ele>212.81200000000001</ele>
        <time>2013-04-07T09:19:50Z</time>
      </trkpt>
      <trkpt lat="45.997414961457253" lon="8.325519030913711">
        <ele>212.357</ele>
        <time>2013-04-07T09:19:53Z</time>
      </trkpt>
      <trkpt lat="45.997418984770775" lon="8.325363965705037">
        <ele>211.98099999999999</ele>
        <time>2013-04-07T09:19:55Z</time>
      </trkpt>
      <trkpt lat="45.997328963130713" lon="8.324841018766165">
        <ele>211.72399999999999</ele>
        <time>2013-04-07T09:20:01Z</time>
      </trkpt>
      <trkpt lat="45.997285963967443" lon="8.324456959962845">
        <ele>211.511</ele>
        <time>2013-04-07T09:20:05Z</time>
      </trkpt>
      <trkpt lat="45.997326029464602" lon="8.323953039944172">
        <ele>211.58199999999999</ele>
        <time>2013-04-07T09:20:10Z</time>
      </trkpt>
      <trkpt lat="45.997297028079629" lon="8.323684986680746">
        <ele>211.78299999999999</ele>
        <time>2013-04-07T09:20:13Z</time>
      </trkpt>
      <trkpt lat="45.997182028368115" lon="8.323611980304122">
        <ele>211.874</ele>
        <time>2013-04-07T09:20:15Z</time>
      </trkpt>
      <trkpt lat="45.997045990079641" lon="8.323630001395941">
        <ele>212.262</ele>
        <time>2013-04-07T09:20:17Z</time>
      </trkpt>
      <trkpt lat="45.996781038120389" lon="8.32373796030879">
        <ele>212.90299999999999</ele>
        <time>2013-04-07T09:20:21Z</time>
      </trkpt>
      <trkpt lat="45.996551038697362" lon="8.323643999174237">
        <ele>212.434</ele>
        <time>2013-04-07T09:20:25Z</time>
      </trkpt>
      <trkpt lat="45.99648498930037" lon="8.323465967550874">
        <ele>212.14699999999999</ele>
        <time>2013-04-07T09:20:27Z</time>
      </trkpt>
      <trkpt lat="45.996267981827259" lon="8.322645965963602">
        <ele>212.50200000000001</ele>
        <time>2013-04-07T09:20:35Z</time>
      </trkpt>
      <trkpt lat="45.996123980730772" lon="8.322061998769641">
        <ele>212.23699999999999</ele>
        <time>2013-04-07T09:20:41Z</time>
      </trkpt>
      <trkpt lat="45.996100008487701" lon="8.321968959644437">
        <ele>212.20500000000001</ele>
        <time>2013-04-07T09:20:42Z</time>
      </trkpt>
      <trkpt lat="45.995910996571183" lon="8.321539973840118">
        <ele>212.267</ele>
        <time>2013-04-07T09:20:47Z</time>
      </trkpt>
      <trkpt lat="45.995826004073024" lon="8.321281978860498">
        <ele>212.31</ele>
        <time>2013-04-07T09:20:50Z</time>
      </trkpt>
      <trkpt lat="45.995703963562846" lon="8.320898003876209">
        <ele>212.55199999999999</ele>
        <time>2013-04-07T09:20:55Z</time>
      </trkpt>
      <trkpt lat="45.99564403295517" lon="8.320666998624802">
        <ele>212.79300000000001</ele>
        <time>2013-04-07T09:20:58Z</time>
      </trkpt>
      <trkpt lat="45.99568996578455" lon="8.320407997816801">
        <ele>212.96000000000001</ele>
        <time>2013-04-07T09:21:01Z</time>
      </trkpt>
      <trkpt lat="45.995803959667683" lon="8.320079008117318">
        <ele>213.297</ele>
        <time>2013-04-07T09:21:05Z</time>
      </trkpt>
      <trkpt lat="45.996014010161161" lon="8.319825036451221">
        <ele>213.834</ele>
        <time>2013-04-07T09:21:09Z</time>
      </trkpt>
      <trkpt lat="45.996079975739121" lon="8.319808021187782">
        <ele>213.93100000000001</ele>
        <time>2013-04-07T09:21:10Z</time>
      </trkpt>
      <trkpt lat="45.996211990714073" lon="8.319759992882609">
        <ele>214.08699999999999</ele>
        <time>2013-04-07T09:21:12Z</time>
      </trkpt>
      <trkpt lat="45.996422041207552" lon="8.319514989852905">
        <ele>213.69999999999999</ele>
        <time>2013-04-07T09:21:16Z</time>
      </trkpt>
      <trkpt lat="45.996495969593525" lon="8.319192035123706">
        <ele>213.595</ele>
        <time>2013-04-07T09:21:19Z</time>
      </trkpt>
      <trkpt lat="45.996506027877331" lon="8.319072006270289">
        <ele>213.643</ele>
        <time>2013-04-07T09:21:20Z</time>
      </trkpt>
      <trkpt lat="45.996553972363472" lon="8.318221997469664">
        <ele>214.56299999999999</ele>
        <time>2013-04-07T09:21:27Z</time>
      </trkpt>
      <trkpt lat="45.9964419901371" lon="8.31787196919322">
        <ele>214.18799999999999</ele>
        <time>2013-04-07T09:21:31Z</time>
      </trkpt>
      <trkpt lat="45.99624602124095" lon="8.317513978108764">
        <ele>213.76300000000001</ele>
        <time>2013-04-07T09:21:36Z</time>
      </trkpt>
      <trkpt lat="45.996166979894042" lon="8.316960018128157">
        <ele>213.61699999999999</ele>
        <time>2013-04-07T09:21:42Z</time>
      </trkpt>
      <trkpt lat="45.996080981567502" lon="8.316746028140187">
        <ele>213.69499999999999</ele>
        <time>2013-04-07T09:21:45Z</time>
      </trkpt>
      <trkpt lat="45.995938992127776" lon="8.316684002056718">
        <ele>213.74299999999999</ele>
        <time>2013-04-07T09:21:48Z</time>
      </trkpt>
      <trkpt lat="45.995894987136126" lon="8.31668701954186">
        <ele>213.72</ele>
        <time>2013-04-07T09:21:49Z</time>
      </trkpt>
      <trkpt lat="45.99562500603497" lon="8.316689031198621">
        <ele>213.59899999999999</ele>
        <time>2013-04-07T09:21:56Z</time>
      </trkpt>
      <trkpt lat="45.995440017431974" lon="8.316606972366571">
        <ele>213.02000000000001</ele>
        <time>2013-04-07T09:22:02Z</time>
      </trkpt>
      <trkpt lat="45.995277995243669" lon="8.316504964604974">
        <ele>212.92099999999999</ele>
        <time>2013-04-07T09:22:07Z</time>
      </trkpt>
      <trkpt lat="45.995057970285416" lon="8.316443022340536">
        <ele>212.952</ele>
        <time>2013-04-07T09:22:13Z</time>
      </trkpt>
      <trkpt lat="45.994986975565553" lon="8.316426007077098">
        <ele>213.029</ele>
        <time>2013-04-07T09:22:15Z</time>
      </trkpt>
      <trkpt lat="45.994910029694438" lon="8.316378984600306">
        <ele>213.167</ele>
        <time>2013-04-07T09:22:17Z</time>
      </trkpt>
      <trkpt lat="45.994780026376247" lon="8.31619500182569">
        <ele>213.38900000000001</ele>
        <time>2013-04-07T09:22:21Z</time>
      </trkpt>
      <trkpt lat="45.994607023894787" lon="8.315997021272779">
        <ele>213.666</ele>
        <time>2013-04-07T09:22:25Z</time>
      </trkpt>
      <trkpt lat="45.994398985058069" lon="8.315844973549247">
        <ele>214.119</ele>
        <time>2013-04-07T09:22:29Z</time>
      </trkpt>
      <trkpt lat="45.994245009496808" lon="8.315616985782981">
        <ele>214.33600000000001</ele>
        <time>2013-04-07T09:22:33Z</time>
      </trkpt>
      <trkpt lat="45.994155993685126" lon="8.315512966364622">
        <ele>214.37799999999999</ele>
        <time>2013-04-07T09:22:35Z</time>
      </trkpt>
      <trkpt lat="45.994015010073781" lon="8.315396038815379">
        <ele>214.346</ele>
        <time>2013-04-07T09:22:38Z</time>
      </trkpt>
      <trkpt lat="45.993766989558935" lon="8.31531397998333">
        <ele>214.16200000000001</ele>
        <time>2013-04-07T09:22:44Z</time>
      </trkpt>
      <trkpt lat="45.993658024817705" lon="8.315152963623405">
        <ele>214.107</ele>
        <time>2013-04-07T09:22:48Z</time>
      </trkpt>
      <trkpt lat="45.993612008169293" lon="8.314936039969325">
        <ele>214.23099999999999</ele>
        <time>2013-04-07T09:22:52Z</time>
      </trkpt>
      <trkpt lat="45.993617037311196" lon="8.314876025542617">
        <ele>214.21799999999999</ele>
        <time>2013-04-07T09:22:53Z</time>
      </trkpt>
      <trkpt lat="45.993623994290829" lon="8.314746022224426">
        <ele>214.16900000000001</ele>
        <time>2013-04-07T09:22:55Z</time>
      </trkpt>
      <trkpt lat="45.993593987077475" lon="8.314467994496226">
        <ele>214.10599999999999</ele>
        <time>2013-04-07T09:23:00Z</time>
      </trkpt>
      <trkpt lat="45.993593987077475" lon="8.314417032524943">
        <ele>214.10499999999999</ele>
        <time>2013-04-07T09:23:01Z</time>
      </trkpt>
      <trkpt lat="45.993602033704519" lon="8.313968013972044">
        <ele>214.268</ele>
        <time>2013-04-07T09:23:09Z</time>
      </trkpt>
      <trkpt lat="45.99367001093924" lon="8.313351022079587">
        <ele>214.55500000000001</ele>
        <time>2013-04-07T09:23:19Z</time>
      </trkpt>
      <trkpt lat="45.993697000667453" lon="8.313153963536024">
        <ele>214.541</ele>
        <time>2013-04-07T09:23:22Z</time>
      </trkpt>
      <trkpt lat="45.993824992328882" lon="8.312767976894975">
        <ele>214.52000000000001</ele>
        <time>2013-04-07T09:23:29Z</time>
      </trkpt>
      <trkpt lat="45.9939069673419" lon="8.312563961371779">
        <ele>214.477</ele>
        <time>2013-04-07T09:23:33Z</time>
      </trkpt>
      <trkpt lat="45.99394703283906" lon="8.312230026349425">
        <ele>214.44200000000001</ele>
        <time>2013-04-07T09:23:39Z</time>
      </trkpt>
      <trkpt lat="45.993954995647073" lon="8.311929032206535">
        <ele>214.43600000000001</ele>
        <time>2013-04-07T09:23:45Z</time>
      </trkpt>
      <trkpt lat="45.994021967053413" lon="8.311801040545106">
        <ele>214.45699999999999</ele>
        <time>2013-04-07T09:23:48Z</time>
      </trkpt>
      <trkpt lat="45.994062032550573" lon="8.311699032783508">
        <ele>214.43600000000001</ele>
        <time>2013-04-07T09:23:50Z</time>
      </trkpt>
      <trkpt lat="45.994144007563591" lon="8.311545979231596">
        <ele>214.51300000000001</ele>
        <time>2013-04-07T09:23:53Z</time>
      </trkpt>
      <trkpt lat="45.994260013103485" lon="8.311369959264994">
        <ele>214.715</ele>
        <time>2013-04-07T09:23:57Z</time>
      </trkpt>
      <trkpt lat="45.994471991434693" lon="8.311255965381861">
        <ele>214.762</ele>
        <time>2013-04-07T09:24:03Z</time>
      </trkpt>
      <trkpt lat="45.994481965899467" lon="8.311246996745467">
        <ele>214.81299999999999</ele>
        <time>2013-04-07T09:24:06Z</time>
      </trkpt>
      <trkpt lat="45.994489006698132" lon="8.311257977038622">
        <ele>214.86699999999999</ele>
        <time>2013-04-07T09:24:24Z</time>
      </trkpt>
      <trkpt lat="45.994580034166574" lon="8.311096960678697">
        <ele>214.72300000000001</ele>
        <time>2013-04-07T09:24:29Z</time>
      </trkpt>
      <trkpt lat="45.994709031656384" lon="8.31082102842629">
        <ele>214.70599999999999</ele>
        <time>2013-04-07T09:24:33Z</time>
      </trkpt>
      <trkpt lat="45.994921009987593" lon="8.310593962669373">
        <ele>215.21799999999999</ele>
        <time>2013-04-07T09:24:37Z</time>
      </trkpt>
      <trkpt lat="45.995256034657359" lon="8.31030897796154">
        <ele>215.88800000000001</ele>
        <time>2013-04-07T09:24:43Z</time>
      </trkpt>
      <trkpt lat="45.995416967198253" lon="8.310166988521814">
        <ele>215.941</ele>
        <time>2013-04-07T09:24:46Z</time>
      </trkpt>
      <trkpt lat="45.995462983846664" lon="8.310103034600616">
        <ele>215.93100000000001</ele>
        <time>2013-04-07T09:24:47Z</time>
      </trkpt>
      <trkpt lat="45.99555803462863" lon="8.30996498465538">
        <ele>215.89599999999999</ele>
        <time>2013-04-07T09:24:49Z</time>
      </trkpt>
      <trkpt lat="45.995755009353161" lon="8.309719981625676">
        <ele>216.06700000000001</ele>
        <time>2013-04-07T09:24:53Z</time>
      </trkpt>
      <trkpt lat="45.995957013219595" lon="8.309494005516172">
        <ele>215.88900000000001</ele>
        <time>2013-04-07T09:24:57Z</time>
      </trkpt>
      <trkpt lat="45.996146025136113" lon="8.30923299305141">
        <ele>215.94499999999999</ele>
        <time>2013-04-07T09:25:01Z</time>
      </trkpt>
      <trkpt lat="45.996406031772494" lon="8.308961000293493">
        <ele>216.01400000000001</ele>
        <time>2013-04-07T09:25:06Z</time>
      </trkpt>
      <trkpt lat="45.996654974296689" lon="8.30873703584075">
        <ele>215.941</ele>
        <time>2013-04-07T09:25:11Z</time>
      </trkpt>
      <trkpt lat="45.996853038668633" lon="8.308450961485505">
        <ele>215.68100000000001</ele>
        <time>2013-04-07T09:25:16Z</time>
      </trkpt>
      <trkpt lat="45.99702101200819" lon="8.308272007852793">
        <ele>215.62799999999999</ele>
        <time>2013-04-07T09:25:20Z</time>
      </trkpt>
      <trkpt lat="45.997159983962774" lon="8.308167988434434">
        <ele>215.43299999999999</ele>
        <time>2013-04-07T09:25:23Z</time>
      </trkpt>
      <trkpt lat="45.997287975624204" lon="8.307948969304562">
        <ele>215.03299999999999</ele>
        <time>2013-04-07T09:25:27Z</time>
      </trkpt>
      <trkpt lat="45.997441029176116" lon="8.307689968496561">
        <ele>215.399</ele>
        <time>2013-04-07T09:25:32Z</time>
      </trkpt>
      <trkpt lat="45.997542031109333" lon="8.307493999600411">
        <ele>215.43299999999999</ele>
        <time>2013-04-07T09:25:36Z</time>
      </trkpt>
      <trkpt lat="45.99768603220582" lon="8.307218989357352">
        <ele>215.69200000000001</ele>
        <time>2013-04-07T09:25:41Z</time>
      </trkpt>
      <trkpt lat="45.997786028310657" lon="8.306989995762706">
        <ele>215.67400000000001</ele>
        <time>2013-04-07T09:25:45Z</time>
      </trkpt>
      <trkpt lat="45.99786096252501" lon="8.306819004938006">
        <ele>215.78</ele>
        <time>2013-04-07T09:25:48Z</time>
      </trkpt>
      <trkpt lat="45.998032037168741" lon="8.306566961109638">
        <ele>216.048</ele>
        <time>2013-04-07T09:25:53Z</time>
      </trkpt>
      <trkpt lat="45.998281985521317" lon="8.306349031627178">
        <ele>216.23099999999999</ele>
        <time>2013-04-07T09:25:59Z</time>
      </trkpt>
      <trkpt lat="45.998415006324649" lon="8.306150967255235">
        <ele>215.797</ele>
        <time>2013-04-07T09:26:03Z</time>
      </trkpt>
      <trkpt lat="45.998516008257866" lon="8.306025993078947">
        <ele>215.76900000000001</ele>
        <time>2013-04-07T09:26:06Z</time>
      </trkpt>
      <trkpt lat="45.998587002977729" lon="8.305930020287633">
        <ele>215.74000000000001</ele>
        <time>2013-04-07T09:26:08Z</time>
      </trkpt>
      <trkpt lat="45.99865498021245" lon="8.305852990597487">
        <ele>215.63399999999999</ele>
        <time>2013-04-07T09:26:10Z</time>
      </trkpt>
      <trkpt lat="45.998811973258853" lon="8.305527018383145">
        <ele>215.601</ele>
        <time>2013-04-07T09:26:16Z</time>
      </trkpt>
      <trkpt lat="45.998865030705929" lon="8.305331971496344">
        <ele>215.65299999999999</ele>
        <time>2013-04-07T09:26:19Z</time>
      </trkpt>
      <trkpt lat="45.998887997120619" lon="8.305202974006534">
        <ele>215.63300000000001</ele>
        <time>2013-04-07T09:26:21Z</time>
      </trkpt>
      <trkpt lat="45.998899983242154" lon="8.304792009294033">
        <ele>215.61099999999999</ele>
        <time>2013-04-07T09:26:27Z</time>
      </trkpt>
      <trkpt lat="45.998916998505592" lon="8.304653959348798">
        <ele>215.62799999999999</ele>
        <time>2013-04-07T09:26:29Z</time>
      </trkpt>
      <trkpt lat="45.998918004333973" lon="8.304515993222594">
        <ele>215.738</ele>
        <time>2013-04-07T09:26:31Z</time>
      </trkpt>
      <trkpt lat="45.998927978798747" lon="8.304366962984204">
        <ele>215.696</ele>
        <time>2013-04-07T09:26:33Z</time>
      </trkpt>
      <trkpt lat="45.998957986012101" lon="8.304004026576877">
        <ele>215.55699999999999</ele>
        <time>2013-04-07T09:26:38Z</time>
      </trkpt>
      <trkpt lat="45.998975001275539" lon="8.303794981911779">
        <ele>215.495</ele>
        <time>2013-04-07T09:26:41Z</time>
      </trkpt>
      <trkpt lat="45.999117996543646" lon="8.303229035809636">
        <ele>215.636</ele>
        <time>2013-04-07T09:26:49Z</time>
      </trkpt>
      <trkpt lat="45.999227967113256" lon="8.302970035001636">
        <ele>215.52799999999999</ele>
        <time>2013-04-07T09:26:53Z</time>
      </trkpt>
      <trkpt lat="45.999253029003739" lon="8.302773982286453">
        <ele>215.56999999999999</ele>
        <time>2013-04-07T09:26:56Z</time>
      </trkpt>
      <trkpt lat="45.999310025945306" lon="8.302542977035046">
        <ele>215.62299999999999</ele>
        <time>2013-04-07T09:27:00Z</time>
      </trkpt>
      <trkpt lat="45.999410022050142" lon="8.302126983180642">
        <ele>215.26300000000001</ele>
        <time>2013-04-07T09:27:07Z</time>
      </trkpt>
      <trkpt lat="45.999465007334948" lon="8.301844010129571">
        <ele>214.49000000000001</ele>
        <time>2013-04-07T09:27:12Z</time>
      </trkpt>
      <trkpt lat="45.999477999284863" lon="8.301785001531243">
        <ele>214.636</ele>
        <time>2013-04-07T09:27:13Z</time>
      </trkpt>
      <trkpt lat="45.999507000669837" lon="8.3014349732548">
        <ele>214.60400000000001</ele>
        <time>2013-04-07T09:27:18Z</time>
      </trkpt>
      <trkpt lat="45.999423014000058" lon="8.301087040454149">
        <ele>215.18199999999999</ele>
        <time>2013-04-07T09:27:23Z</time>
      </trkpt>
      <trkpt lat="45.999393006786704" lon="8.300884030759335">
        <ele>215.471</ele>
        <time>2013-04-07T09:27:26Z</time>
      </trkpt>
      <trkpt lat="45.999401975423098" lon="8.300742963328958">
        <ele>215.334</ele>
        <time>2013-04-07T09:27:28Z</time>
      </trkpt>
      <trkpt lat="45.9994260314852" lon="8.300367034971714">
        <ele>215.37200000000001</ele>
        <time>2013-04-07T09:27:33Z</time>
      </trkpt>
      <trkpt lat="45.999403987079859" lon="8.300127983093262">
        <ele>215.46199999999999</ele>
        <time>2013-04-07T09:27:36Z</time>
      </trkpt>
      <trkpt lat="45.999396024271846" lon="8.29980100505054">
        <ele>215.42699999999999</ele>
        <time>2013-04-07T09:27:40Z</time>
      </trkpt>
      <trkpt lat="45.999431982636452" lon="8.299528006464243">
        <ele>215.417</ele>
        <time>2013-04-07T09:27:44Z</time>
      </trkpt>
      <trkpt lat="45.999460984021425" lon="8.299356009811163">
        <ele>215.41999999999999</ele>
        <time>2013-04-07T09:27:47Z</time>
      </trkpt>
      <trkpt lat="45.999454027041793" lon="8.299235980957747">
        <ele>215.494</ele>
        <time>2013-04-07T09:27:49Z</time>
      </trkpt>
      <trkpt lat="45.999495014548302" lon="8.298881007358432">
        <ele>215.43799999999999</ele>
        <time>2013-04-07T09:27:55Z</time>
      </trkpt>
      <trkpt lat="45.999524015933275" lon="8.29855696298182">
        <ele>215.68199999999999</ele>
        <time>2013-04-07T09:28:00Z</time>
      </trkpt>
      <trkpt lat="45.999551005661488" lon="8.298158990219235">
        <ele>215.42400000000001</ele>
        <time>2013-04-07T09:28:06Z</time>
      </trkpt>
      <trkpt lat="45.999610014259815" lon="8.297898983582854">
        <ele>215.55000000000001</ele>
        <time>2013-04-07T09:28:10Z</time>
      </trkpt>
      <trkpt lat="45.99964203312993" lon="8.297771997749806">
        <ele>215.62100000000001</ele>
        <time>2013-04-07T09:28:12Z</time>
      </trkpt>
      <trkpt lat="45.99977295845747" lon="8.297255001962185">
        <ele>215.97</ele>
        <time>2013-04-07T09:28:20Z</time>
      </trkpt>
      <trkpt lat="45.999822998419404" lon="8.297070013359189">
        <ele>216.03899999999999</ele>
        <time>2013-04-07T09:28:23Z</time>
      </trkpt>
      <trkpt lat="45.999956019222736" lon="8.296637004241347">
        <ele>215.75399999999999</ele>
        <time>2013-04-07T09:28:30Z</time>
      </trkpt>
      <trkpt lat="46.000089040026069" lon="8.296157978475094">
        <ele>216.06999999999999</ele>
        <time>2013-04-07T09:28:38Z</time>
      </trkpt>
      <trkpt lat="46.000116029754281" lon="8.296010037884116">
        <ele>215.81399999999999</ele>
        <time>2013-04-07T09:28:43Z</time>
      </trkpt>
      <trkpt lat="46.000123992562294" lon="8.295935019850731">
        <ele>215.803</ele>
        <time>2013-04-07T09:28:48Z</time>
      </trkpt>
      <trkpt lat="46.000148970633745" lon="8.295983970165253">
        <ele>215.19900000000001</ele>
        <time>2013-04-07T09:30:18Z</time>
      </trkpt>
      <trkpt lat="46.000146036967635" lon="8.295918004587293">
        <ele>215.42400000000001</ele>
        <time>2013-04-07T09:31:08Z</time>
      </trkpt>
      <trkpt lat="46.000176966190338" lon="8.29569797962904">
        <ele>215.46600000000001</ele>
        <time>2013-04-07T09:31:15Z</time>
      </trkpt>
      <trkpt lat="46.000176966190338" lon="8.295685993507505">
        <ele>215.52699999999999</ele>
        <time>2013-04-07T09:31:20Z</time>
      </trkpt>
      <trkpt lat="46.000189036130905" lon="8.29561298713088">
        <ele>215.577</ele>
        <time>2013-04-07T09:31:25Z</time>
      </trkpt>
      <trkpt lat="46.000217031687498" lon="8.295435961335897">
        <ele>215.34800000000001</ele>
        <time>2013-04-07T09:31:32Z</time>
      </trkpt>
      <trkpt lat="46.00022398866713" lon="8.295361027121544">
        <ele>215.261</ele>
        <time>2013-04-07T09:31:35Z</time>
      </trkpt>
      <trkpt lat="46.000251984223723" lon="8.295233035460115">
        <ele>215.482</ele>
        <time>2013-04-07T09:31:43Z</time>
      </trkpt>
      <trkpt lat="46.000261958688498" lon="8.295128010213375">
        <ele>215.70500000000001</ele>
        <time>2013-04-07T09:31:50Z</time>
      </trkpt>
      <trkpt lat="46.00026598200202" lon="8.29509599134326">
        <ele>215.666</ele>
        <time>2013-04-07T09:31:55Z</time>
      </trkpt>
      <trkpt lat="46.000281991437078" lon="8.29505399800837">
        <ele>215.70500000000001</ele>
        <time>2013-04-07T09:32:01Z</time>
      </trkpt>
      <trkpt lat="46.000290960073471" lon="8.295042011886835">
        <ele>215.83699999999999</ele>
        <time>2013-04-07T09:32:09Z</time>
      </trkpt>
      <trkpt lat="46.000273022800684" lon="8.295018039643765">
        <ele>217.53399999999999</ele>
        <time>2013-04-07T09:39:35Z</time>
      </trkpt>
      <trkpt lat="46.000263970345259" lon="8.295013010501862">
        <ele>217.40199999999999</ele>
        <time>2013-04-07T09:39:42Z</time>
      </trkpt>
      <trkpt lat="46.000268999487162" lon="8.294840008020401">
        <ele>217.19200000000001</ele>
        <time>2013-04-07T09:39:47Z</time>
      </trkpt>
      <trkpt lat="46.000305963680148" lon="8.294445974752307">
        <ele>217.072</ele>
        <time>2013-04-07T09:39:55Z</time>
      </trkpt>
      <trkpt lat="46.000349968671799" lon="8.294313959777355">
        <ele>216.94499999999999</ele>
        <time>2013-04-07T09:39:59Z</time>
      </trkpt>
      <trkpt lat="46.000345023348927" lon="8.294282024726272">
        <ele>217.126</ele>
        <time>2013-04-07T09:40:03Z</time>
      </trkpt>
      <trkpt lat="46.000338988378644" lon="8.29427900724113">
        <ele>216.57499999999999</ele>
        <time>2013-04-07T09:40:08Z</time>
      </trkpt>
      <trkpt lat="46.000360026955605" lon="8.294316977262497">
        <ele>218.047</ele>
        <time>2013-04-07T09:50:12Z</time>
      </trkpt>
      <trkpt lat="46.000361032783985" lon="8.294302979484201">
        <ele>218.07499999999999</ele>
        <time>2013-04-07T09:50:27Z</time>
      </trkpt>
      <trkpt lat="46.000451976433396" lon="8.294328041374683">
        <ele>217.97800000000001</ele>
        <time>2013-04-07T09:50:33Z</time>
      </trkpt>
      <trkpt lat="46.00056798197329" lon="8.294305996969342">
        <ele>218.07900000000001</ele>
        <time>2013-04-07T09:50:37Z</time>
      </trkpt>
      <trkpt lat="46.000697985291481" lon="8.294132994487882">
        <ele>218.11000000000001</ele>
        <time>2013-04-07T09:50:41Z</time>
      </trkpt>
      <trkpt lat="46.000762023031712" lon="8.293980024755001">
        <ele>217.636</ele>
        <time>2013-04-07T09:50:43Z</time>
      </trkpt>
      <trkpt lat="46.001064023002982" lon="8.293482977896929">
        <ele>217.00299999999999</ele>
        <time>2013-04-07T09:50:50Z</time>
      </trkpt>
      <trkpt lat="46.001214981079102" lon="8.293207967653871">
        <ele>217.303</ele>
        <time>2013-04-07T09:50:55Z</time>
      </trkpt>
      <trkpt lat="46.001368034631014" lon="8.292899010702968">
        <ele>217.81299999999999</ele>
        <time>2013-04-07T09:51:01Z</time>
      </trkpt>
      <trkpt lat="46.001412039622664" lon="8.292770013213158">
        <ele>217.476</ele>
        <time>2013-04-07T09:51:03Z</time>
      </trkpt>
      <trkpt lat="46.001498959958553" lon="8.292588964104652">
        <ele>217.285</ele>
        <time>2013-04-07T09:51:06Z</time>
      </trkpt>
      <trkpt lat="46.001611026003957" lon="8.292294004932046">
        <ele>216.126</ele>
        <time>2013-04-07T09:51:10Z</time>
      </trkpt>
      <trkpt lat="46.001694006845355" lon="8.292111027985811">
        <ele>215.767</ele>
        <time>2013-04-07T09:51:14Z</time>
      </trkpt>
      <trkpt lat="46.001777993515134" lon="8.292031986638904">
        <ele>216.19</ele>
        <time>2013-04-07T09:51:19Z</time>
      </trkpt>
      <trkpt lat="46.001881007105112" lon="8.291964009404182">
        <ele>216.417</ele>
        <time>2013-04-07T09:51:24Z</time>
      </trkpt>
      <trkpt lat="46.002020984888077" lon="8.291897960007191">
        <ele>216.54400000000001</ele>
        <time>2013-04-07T09:51:29Z</time>
      </trkpt>
      <trkpt lat="46.002192981541157" lon="8.291856972500682">
        <ele>217.18299999999999</ele>
        <time>2013-04-07T09:51:35Z</time>
      </trkpt>
      <trkpt lat="46.002474026754498" lon="8.291866024956107">
        <ele>217.26900000000001</ele>
        <time>2013-04-07T09:51:43Z</time>
      </trkpt>
      <trkpt lat="46.002596989274025" lon="8.291870970278978">
        <ele>217.22200000000001</ele>
        <time>2013-04-07T09:51:46Z</time>
      </trkpt>
      <trkpt lat="46.002805028110743" lon="8.29189301468432">
        <ele>217.34</ele>
        <time>2013-04-07T09:51:51Z</time>
      </trkpt>
      <trkpt lat="46.00288599729538" lon="8.2918940205127">
        <ele>217.38999999999999</ele>
        <time>2013-04-07T09:51:53Z</time>
      </trkpt>
      <trkpt lat="46.002994040027261" lon="8.291750019416213">
        <ele>217.87</ele>
        <time>2013-04-07T09:51:57Z</time>
      </trkpt>
      <trkpt lat="46.00299596786499" lon="8.291704002767801">
        <ele>218.23400000000001</ele>
        <time>2013-04-07T09:51:58Z</time>
      </trkpt>
      <trkpt lat="46.003011977300048" lon="8.291340982541442">
        <ele>220.14500000000001</ele>
        <time>2013-04-07T09:52:06Z</time>
      </trkpt>
      <trkpt lat="46.003046007826924" lon="8.290856005623937">
        <ele>221.01499999999999</ele>
        <time>2013-04-07T09:52:14Z</time>
      </trkpt>
      <trkpt lat="46.003099987283349" lon="8.29034898430109">
        <ele>221.101</ele>
        <time>2013-04-07T09:52:22Z</time>
      </trkpt>
      <trkpt lat="46.003153966739774" lon="8.289858978241682">
        <ele>221.28200000000001</ele>
        <time>2013-04-07T09:52:29Z</time>
      </trkpt>
      <trkpt lat="46.003275001421571" lon="8.289311975240707">
        <ele>221.19800000000001</ele>
        <time>2013-04-07T09:52:37Z</time>
      </trkpt>
      <trkpt lat="46.003437023609877" lon="8.288635974749923">
        <ele>221.23099999999999</ele>
        <time>2013-04-07T09:52:47Z</time>
      </trkpt>
      <trkpt lat="46.003601979464293" lon="8.287944970652461">
        <ele>221.268</ele>
        <time>2013-04-07T09:52:57Z</time>
      </trkpt>
      <trkpt lat="46.003747992217541" lon="8.287488995119929">
        <ele>221.43100000000001</ele>
        <time>2013-04-07T09:53:04Z</time>
      </trkpt>
      <trkpt lat="46.003967011347413" lon="8.287067972123623">
        <ele>221.79599999999999</ele>
        <time>2013-04-07T09:53:11Z</time>
      </trkpt>
      <trkpt lat="46.004244033247232" lon="8.286617025732994">
        <ele>221.982</ele>
        <time>2013-04-07T09:53:19Z</time>
      </trkpt>
      <trkpt lat="46.004580985754728" lon="8.286095000803471">
        <ele>221.68100000000001</ele>
        <time>2013-04-07T09:53:28Z</time>
      </trkpt>
      <trkpt lat="46.004977030679584" lon="8.285503992810845">
        <ele>221.81100000000001</ele>
        <time>2013-04-07T09:53:38Z</time>
      </trkpt>
      <trkpt lat="46.005411967635155" lon="8.284952966496348">
        <ele>221.584</ele>
        <time>2013-04-07T09:53:48Z</time>
      </trkpt>
      <trkpt lat="46.005839025601745" lon="8.28452599234879">
        <ele>221.36600000000001</ele>
        <time>2013-04-07T09:53:57Z</time>
      </trkpt>
      <trkpt lat="46.006254013627768" lon="8.28428803011775">
        <ele>221.58099999999999</ele>
        <time>2013-04-07T09:54:05Z</time>
      </trkpt>
      <trkpt lat="46.006727004423738" lon="8.284098012372851">
        <ele>221.62899999999999</ele>
        <time>2013-04-07T09:54:14Z</time>
      </trkpt>
      <trkpt lat="46.007080972194672" lon="8.283954011276364">
        <ele>221.86000000000001</ele>
        <time>2013-04-07T09:54:21Z</time>
      </trkpt>
      <trkpt lat="46.00759201683104" lon="8.283821996301413">
        <ele>222.042</ele>
        <time>2013-04-07T09:54:30Z</time>
      </trkpt>
      <trkpt lat="46.007731994614005" lon="8.283746978268027">
        <ele>221.75299999999999</ele>
        <time>2013-04-07T09:54:34Z</time>
      </trkpt>
      <trkpt lat="46.007778011262417" lon="8.283672966063023">
        <ele>221.18199999999999</ele>
        <time>2013-04-07T09:54:37Z</time>
      </trkpt>
      <trkpt lat="46.007971968501806" lon="8.283518990501761">
        <ele>219.626</ele>
        <time>2013-04-07T09:54:41Z</time>
      </trkpt>
      <trkpt lat="46.00840900093317" lon="8.283400973305106">
        <ele>219.416</ele>
        <time>2013-04-07T09:54:49Z</time>
      </trkpt>
      <trkpt lat="46.008921973407269" lon="8.283260995522142">
        <ele>219.727</ele>
        <time>2013-04-07T09:54:58Z</time>
      </trkpt>
      <trkpt lat="46.009350037202239" lon="8.283207016065717">
        <ele>219.58199999999999</ele>
        <time>2013-04-07T09:55:06Z</time>
      </trkpt>
      <trkpt lat="46.009554974734783" lon="8.28321497887373">
        <ele>219.809</ele>
        <time>2013-04-07T09:55:11Z</time>
      </trkpt>
      <trkpt lat="46.00984700024128" lon="8.283264013007283">
        <ele>219.923</ele>
        <time>2013-04-07T09:55:18Z</time>
      </trkpt>
      <trkpt lat="46.009893016889691" lon="8.28330198302865">
        <ele>219.99199999999999</ele>
        <time>2013-04-07T09:55:19Z</time>
      </trkpt>
      <trkpt lat="46.010098960250616" lon="8.283483032137156">
        <ele>221.852</ele>
        <time>2013-04-07T09:55:25Z</time>
      </trkpt>
      <trkpt lat="46.010182024911046" lon="8.283568024635315">
        <ele>221.375</ele>
        <time>2013-04-07T09:55:29Z</time>
      </trkpt>
      <trkpt lat="46.010251007974148" lon="8.283691992983222">
        <ele>220.399</ele>
        <time>2013-04-07T09:55:33Z</time>
      </trkpt>
      <trkpt lat="46.010430967435241" lon="8.28368897549808">
        <ele>220.113</ele>
        <time>2013-04-07T09:55:39Z</time>
      </trkpt>
      <trkpt lat="46.010656021535397" lon="8.283704984933138">
        <ele>220.363</ele>
        <time>2013-04-07T09:55:45Z</time>
      </trkpt>
      <trkpt lat="46.010887026786804" lon="8.283812021836639">
        <ele>220.53</ele>
        <time>2013-04-07T09:55:51Z</time>
      </trkpt>
      <trkpt lat="46.011003032326698" lon="8.283867007121444">
        <ele>220.31399999999999</ele>
        <time>2013-04-07T09:55:56Z</time>
      </trkpt>
      <trkpt lat="46.011164970695972" lon="8.283884022384882">
        <ele>220.65100000000001</ele>
        <time>2013-04-07T09:56:01Z</time>
      </trkpt>
      <trkpt lat="46.011464037001133" lon="8.283873964101076">
        <ele>220.73099999999999</ele>
        <time>2013-04-07T09:56:08Z</time>
      </trkpt>
      <trkpt lat="46.01180300116539" lon="8.283868012949824">
        <ele>221.12100000000001</ele>
        <time>2013-04-07T09:56:17Z</time>
      </trkpt>
      <trkpt lat="46.012046998366714" lon="8.283904977142811">
        <ele>220.79499999999999</ele>
        <time>2013-04-07T09:56:24Z</time>
      </trkpt>
      <trkpt lat="46.012199968099594" lon="8.283957028761506">
        <ele>220.459</ele>
        <time>2013-04-07T09:56:28Z</time>
      </trkpt>
      <trkpt lat="46.012317985296249" lon="8.284036992117763">
        <ele>220.482</ele>
        <time>2013-04-07T09:56:31Z</time>
      </trkpt>
      <trkpt lat="46.012717969715595" lon="8.284452985972166">
        <ele>219.96299999999999</ele>
        <time>2013-04-07T09:56:41Z</time>
      </trkpt>
      <trkpt lat="46.012871023267508" lon="8.284663958474994">
        <ele>220.048</ele>
        <time>2013-04-07T09:56:46Z</time>
      </trkpt>
      <trkpt lat="46.013011001050472" lon="8.284968975931406">
        <ele>220.46100000000001</ele>
        <time>2013-04-07T09:56:53Z</time>
      </trkpt>
      <trkpt lat="46.013186015188694" lon="8.285352028906345">
        <ele>220.56</ele>
        <time>2013-04-07T09:57:01Z</time>
      </trkpt>
      <trkpt lat="46.013238988816738" lon="8.285450013354421">
        <ele>220.44999999999999</ele>
        <time>2013-04-07T09:57:05Z</time>
      </trkpt>
      <trkpt lat="46.013281987980008" lon="8.285498963668943">
        <ele>220.32900000000001</ele>
        <time>2013-04-07T09:57:10Z</time>
      </trkpt>
      <trkpt lat="46.013376032933593" lon="8.285439033061266">
        <ele>220.35599999999999</ele>
        <time>2013-04-07T09:57:16Z</time>
      </trkpt>
      <trkpt lat="46.013575019314885" lon="8.285305006429553">
        <ele>220.285</ele>
        <time>2013-04-07T09:57:22Z</time>
      </trkpt>
      <trkpt lat="46.013917000964284" lon="8.285113982856274">
        <ele>220.36600000000001</ele>
        <time>2013-04-07T09:57:31Z</time>
      </trkpt>
      <trkpt lat="46.014225035905838" lon="8.284957995638251">
        <ele>220.49000000000001</ele>
        <time>2013-04-07T09:57:40Z</time>
      </trkpt>
      <trkpt lat="46.014302987605333" lon="8.284945003688335">
        <ele>220.52199999999999</ele>
        <time>2013-04-07T09:57:45Z</time>
      </trkpt>
      <trkpt lat="46.014298964291811" lon="8.284947015345097">
        <ele>220.56899999999999</ele>
        <time>2013-04-07T09:57:56Z</time>
      </trkpt>
      <trkpt lat="46.014315979555249" lon="8.284949027001858">
        <ele>220.535</ele>
        <time>2013-04-07T09:58:00Z</time>
      </trkpt>
      <trkpt lat="46.014314973726869" lon="8.284934023395181">
        <ele>220.38200000000001</ele>
        <time>2013-04-07T09:58:16Z</time>
      </trkpt>
      <trkpt lat="46.014341963455081" lon="8.284916002303362">
        <ele>220.43299999999999</ele>
        <time>2013-04-07T09:58:22Z</time>
      </trkpt>
      <trkpt lat="46.014376999810338" lon="8.284885995090008">
        <ele>220.71600000000001</ele>
        <time>2013-04-07T09:58:43Z</time>
      </trkpt>
      <trkpt lat="46.014460986480117" lon="8.284875014796853">
        <ele>220.803</ele>
        <time>2013-04-07T09:58:53Z</time>
      </trkpt>
      <trkpt lat="46.01461797952652" lon="8.284835033118725">
        <ele>220.91900000000001</ele>
        <time>2013-04-07T09:58:58Z</time>
      </trkpt>
      <trkpt lat="46.014815038070083" lon="8.284795973449945">
        <ele>221.495</ele>
        <time>2013-04-07T09:59:04Z</time>
      </trkpt>
      <trkpt lat="46.01496297866106" lon="8.284770995378494">
        <ele>222.035</ele>
        <time>2013-04-07T09:59:09Z</time>
      </trkpt>
      <trkpt lat="46.014999020844698" lon="8.284767977893353">
        <ele>222.22399999999999</ele>
        <time>2013-04-07T09:59:11Z</time>
      </trkpt>
      <trkpt lat="46.015041014179587" lon="8.284863028675318">
        <ele>222.49700000000001</ele>
        <time>2013-04-07T09:59:15Z</time>
      </trkpt>
      <trkpt lat="46.015089964494109" lon="8.285052962601185">
        <ele>223.024</ele>
        <time>2013-04-07T09:59:20Z</time>
      </trkpt>
      <trkpt lat="46.015178980305791" lon="8.285241974517703">
        <ele>224.11500000000001</ele>
        <time>2013-04-07T09:59:25Z</time>
      </trkpt>
      <trkpt lat="46.01521703414619" lon="8.285291008651257">
        <ele>224.828</ele>
        <time>2013-04-07T09:59:27Z</time>
      </trkpt>
      <trkpt lat="46.015294985845685" lon="8.285265024751425">
        <ele>225.83099999999999</ele>
        <time>2013-04-07T09:59:32Z</time>
      </trkpt>
      <trkpt lat="46.015342008322477" lon="8.285224959254265">
        <ele>225.99700000000001</ele>
        <time>2013-04-07T09:59:38Z</time>
      </trkpt>
      <trkpt lat="46.015408979728818" lon="8.285226970911026">
        <ele>225.75999999999999</ele>
        <time>2013-04-07T09:59:47Z</time>
      </trkpt>
      <trkpt lat="46.015553986653686" lon="8.285167962312698">
        <ele>226.05600000000001</ele>
        <time>2013-04-07T09:59:51Z</time>
      </trkpt>
      <trkpt lat="46.015886999666691" lon="8.285055980086327">
        <ele>227.214</ele>
        <time>2013-04-07T09:59:58Z</time>
      </trkpt>
      <trkpt lat="46.016268962994218" lon="8.285021027550101">
        <ele>228.74299999999999</ele>
        <time>2013-04-07T10:00:05Z</time>
      </trkpt>
      <trkpt lat="46.016503991559148" lon="8.285029996186495">
        <ele>228.721</ele>
        <time>2013-04-07T10:00:09Z</time>
      </trkpt>
      <trkpt lat="46.016628965735435" lon="8.285026978701353">
        <ele>228.078</ele>
        <time>2013-04-07T10:00:11Z</time>
      </trkpt>
      <trkpt lat="46.01697999984026" lon="8.285087998956442">
        <ele>227.31299999999999</ele>
        <time>2013-04-07T10:00:16Z</time>
      </trkpt>
      <trkpt lat="46.017114026471972" lon="8.28501801006496">
        <ele>226.81800000000001</ele>
        <time>2013-04-07T10:00:19Z</time>
      </trkpt>
      <trkpt lat="46.017026016488671" lon="8.284620037302375">
        <ele>225.363</ele>
        <time>2013-04-07T10:00:23Z</time>
      </trkpt>
      <trkpt lat="46.016837004572153" lon="8.284495985135436">
        <ele>224.19200000000001</ele>
        <time>2013-04-07T10:00:26Z</time>
      </trkpt>
      <trkpt lat="46.016687974333763" lon="8.284371010959148">
        <ele>223.86000000000001</ele>
        <time>2013-04-07T10:00:29Z</time>
      </trkpt>
      <trkpt lat="46.016511032357812" lon="8.284308984875679">
        <ele>223.79300000000001</ele>
        <time>2013-04-07T10:00:34Z</time>
      </trkpt>
      <trkpt lat="46.016391003504395" lon="8.28429096378386">
        <ele>223.714</ele>
        <time>2013-04-07T10:00:40Z</time>
      </trkpt>
      <trkpt lat="46.016327971592546" lon="8.284321976825595">
        <ele>223.59899999999999</ele>
        <time>2013-04-07T10:00:45Z</time>
      </trkpt>
      <trkpt lat="46.016297964379191" lon="8.284370005130768">
        <ele>222.91</ele>
        <time>2013-04-07T10:00:51Z</time>
      </trkpt>
      <trkpt lat="46.016268962994218" lon="8.284425996243954">
        <ele>222.596</ele>
        <time>2013-04-07T10:01:11Z</time>
      </trkpt>
      <trkpt lat="46.016236022114754" lon="8.284454997628927">
        <ele>221.661</ele>
        <time>2013-04-07T10:01:14Z</time>
      </trkpt>
      <trkpt lat="46.016208026558161" lon="8.284452985972166">
        <ele>220.12100000000001</ele>
        <time>2013-04-07T10:01:21Z</time>
      </trkpt>
      <trkpt lat="46.016221018508077" lon="8.284334968775511">
        <ele>219.94200000000001</ele>
        <time>2013-04-07T10:01:26Z</time>
      </trkpt>
      <trkpt lat="46.016237027943134" lon="8.284189961850643">
        <ele>219.72399999999999</ele>
        <time>2013-04-07T10:01:29Z</time>
      </trkpt>
      <trkpt lat="46.01624901406467" lon="8.283933978527784">
        <ele>219.04900000000001</ele>
        <time>2013-04-07T10:01:35Z</time>
      </trkpt>
      <trkpt lat="46.016301987692714" lon="8.28387999907136">
        <ele>217.99799999999999</ele>
        <time>2013-04-07T10:01:39Z</time>
      </trkpt>
      <trkpt lat="46.016448000445962" lon="8.28390003181994">
        <ele>218.01300000000001</ele>
        <time>2013-04-07T10:01:44Z</time>
      </trkpt>
      <trkpt lat="46.016480019316077" lon="8.283914029598236">
        <ele>218.203</ele>
        <time>2013-04-07T10:01:45Z</time>
      </trkpt>
      <trkpt lat="46.01657398045063" lon="8.283931966871023">
        <ele>218.572</ele>
        <time>2013-04-07T10:01:48Z</time>
      </trkpt>
      <trkpt lat="46.016639024019241" lon="8.283856026828289">
        <ele>219.048</ele>
        <time>2013-04-07T10:01:53Z</time>
      </trkpt>
      <trkpt lat="46.016662996262312" lon="8.283854015171528">
        <ele>219.11500000000001</ele>
        <time>2013-04-07T10:01:54Z</time>
      </trkpt>
      <trkpt lat="46.01680800318718" lon="8.283829037100077">
        <ele>219.35599999999999</ele>
        <time>2013-04-07T10:02:01Z</time>
      </trkpt>
      <trkpt lat="46.016838010400534" lon="8.283829037100077">
        <ele>219.38499999999999</ele>
        <time>2013-04-07T10:02:03Z</time>
      </trkpt>
      <trkpt lat="46.016962984576821" lon="8.283912017941475">
        <ele>219.61000000000001</ele>
        <time>2013-04-07T10:02:10Z</time>
      </trkpt>
      <trkpt lat="46.017059041187167" lon="8.28398703597486">
        <ele>219.37899999999999</ele>
        <time>2013-04-07T10:02:15Z</time>
      </trkpt>
      <trkpt lat="46.017204970121384" lon="8.28398996964097">
        <ele>219.477</ele>
        <time>2013-04-07T10:02:20Z</time>
      </trkpt>
      <trkpt lat="46.017316030338407" lon="8.283914029598236">
        <ele>219.31800000000001</ele>
        <time>2013-04-07T10:02:24Z</time>
      </trkpt>
      <trkpt lat="46.017361041158438" lon="8.283862983807921">
        <ele>219.25700000000001</ele>
        <time>2013-04-07T10:02:26Z</time>
      </trkpt>
      <trkpt lat="46.017489032819867" lon="8.28381696715951">
        <ele>219.16800000000001</ele>
        <time>2013-04-07T10:02:31Z</time>
      </trkpt>
      <trkpt lat="46.017614006996155" lon="8.28377497382462">
        <ele>218.851</ele>
        <time>2013-04-07T10:02:35Z</time>
      </trkpt>
      <trkpt lat="46.017673015594482" lon="8.283762987703085">
        <ele>218.54900000000001</ele>
        <time>2013-04-07T10:02:39Z</time>
      </trkpt>
      <trkpt lat="46.017674021422863" lon="8.283770028501749">
        <ele>218.27799999999999</ele>
        <time>2013-04-07T10:02:41Z</time>
      </trkpt>
      <trkpt lat="46.017705034464598" lon="8.283786037936807">
        <ele>218.09299999999999</ele>
        <time>2013-04-07T10:02:44Z</time>
      </trkpt>
      <trkpt lat="46.017755996435881" lon="8.28377204015851">
        <ele>218.02199999999999</ele>
        <time>2013-04-07T10:02:47Z</time>
      </trkpt>
      <trkpt lat="46.017838977277279" lon="8.283788971602917">
        <ele>217.86099999999999</ele>
        <time>2013-04-07T10:02:53Z</time>
      </trkpt>
      <trkpt lat="46.017844006419182" lon="8.283807998523116">
        <ele>217.96100000000001</ele>
        <time>2013-04-07T10:03:02Z</time>
      </trkpt>
      <trkpt lat="46.017868984490633" lon="8.283802969381213">
        <ele>217.63499999999999</ele>
        <time>2013-04-07T10:03:30Z</time>
      </trkpt>
      <trkpt lat="46.017905026674271" lon="8.283745972439647">
        <ele>217.43000000000001</ele>
        <time>2013-04-07T10:03:37Z</time>
      </trkpt>
      <trkpt lat="46.017907038331032" lon="8.283740021288395">
        <ele>217.49199999999999</ele>
        <time>2013-04-07T10:03:38Z</time>
      </trkpt>
      <trkpt lat="46.017918018624187" lon="8.283670032396913">
        <ele>217.703</ele>
        <time>2013-04-07T10:03:44Z</time>
      </trkpt>
      <trkpt lat="46.017937967553735" lon="8.283639019355178">
        <ele>218.66200000000001</ele>
        <time>2013-04-07T10:03:52Z</time>
      </trkpt>
      <trkpt lat="46.017938973382115" lon="8.283637007698417">
        <ele>218.58099999999999</ele>
        <time>2013-04-07T10:04:08Z</time>
      </trkpt>
      <trkpt lat="46.017941990867257" lon="8.283612029626966">
        <ele>218.56899999999999</ele>
        <time>2013-04-07T10:04:10Z</time>
      </trkpt>
      <trkpt lat="46.017995970323682" lon="8.283575987443328">
        <ele>218.821</ele>
        <time>2013-04-07T10:04:17Z</time>
      </trkpt>
      <trkpt lat="46.018063025549054" lon="8.283594008535147">
        <ele>218.518</ele>
        <time>2013-04-07T10:04:24Z</time>
      </trkpt>
      <trkpt lat="46.018100995570421" lon="8.283609012141824">
        <ele>218.37799999999999</ele>
        <time>2013-04-07T10:04:29Z</time>
      </trkpt>
      <trkpt lat="46.018137959763408" lon="8.283594008535147">
        <ele>218.792</ele>
        <time>2013-04-07T10:04:33Z</time>
      </trkpt>
      <trkpt lat="46.018191017210484" lon="8.283591996878386">
        <ele>219.04300000000001</ele>
        <time>2013-04-07T10:04:40Z</time>
      </trkpt>
      <trkpt lat="46.018199985846877" lon="8.28359903767705">
        <ele>218.64599999999999</ele>
        <time>2013-04-07T10:05:15Z</time>
      </trkpt>
      <trkpt lat="46.018292019143701" lon="8.283581016585231">
        <ele>218.518</ele>
        <time>2013-04-07T10:05:20Z</time>
      </trkpt>
      <trkpt lat="46.018466027453542" lon="8.283556960523129">
        <ele>219.03800000000001</ele>
        <time>2013-04-07T10:05:26Z</time>
      </trkpt>
      <trkpt lat="46.018649004399776" lon="8.283510021865368">
        <ele>219.56800000000001</ele>
        <time>2013-04-07T10:05:34Z</time>
      </trkpt>
      <trkpt lat="46.018753023818135" lon="8.283486971631646">
        <ele>219.68199999999999</ele>
        <time>2013-04-07T10:05:40Z</time>
      </trkpt>
      <trkpt lat="46.018824018537998" lon="8.283457970246673">
        <ele>219.565</ele>
        <time>2013-04-07T10:05:44Z</time>
      </trkpt>
      <trkpt lat="46.018881015479565" lon="8.283551009371877">
        <ele>219.40199999999999</ele>
        <time>2013-04-07T10:05:50Z</time>
      </trkpt>
      <trkpt lat="46.018937006592751" lon="8.283717976883054">
        <ele>218.99199999999999</ele>
        <time>2013-04-07T10:05:58Z</time>
      </trkpt>
      <trkpt lat="46.018938012421131" lon="8.28373096883297">
        <ele>219.30600000000001</ele>
        <time>2013-04-07T10:06:02Z</time>
      </trkpt>
      <trkpt lat="46.018939018249512" lon="8.283798024058342">
        <ele>218.81</ele>
        <time>2013-04-07T10:06:06Z</time>
      </trkpt>
      <trkpt lat="46.018963996320963" lon="8.283835994079709">
        <ele>218.40899999999999</ele>
        <time>2013-04-07T10:06:11Z</time>
      </trkpt>
      <trkpt lat="46.018988974392414" lon="8.283833982422948">
        <ele>218.21100000000001</ele>
        <time>2013-04-07T10:06:16Z</time>
      </trkpt>
      <trkpt lat="46.018986962735653" lon="8.283830964937806">
        <ele>218.18100000000001</ele>
        <time>2013-04-07T10:06:41Z</time>
      </trkpt>
      <trkpt lat="46.019069021567702" lon="8.283789977431297">
        <ele>218.143</ele>
        <time>2013-04-07T10:06:49Z</time>
      </trkpt>
      <trkpt lat="46.019144039601088" lon="8.283782014623284">
        <ele>217.881</ele>
        <time>2013-04-07T10:06:55Z</time>
      </trkpt>
      <trkpt lat="46.019199024885893" lon="8.283775979653001">
        <ele>217.983</ele>
        <time>2013-04-07T10:07:00Z</time>
      </trkpt>
      <trkpt lat="46.01927999407053" lon="8.283825013786554">
        <ele>217.863</ele>
        <time>2013-04-07T10:07:07Z</time>
      </trkpt>
      <trkpt lat="46.01934302598238" lon="8.283843034878373">
        <ele>217.92599999999999</ele>
        <time>2013-04-07T10:07:13Z</time>
      </trkpt>
      <trkpt lat="46.019374961033463" lon="8.283847980201244">
        <ele>218.08000000000001</ele>
        <time>2013-04-07T10:07:16Z</time>
      </trkpt>
      <trkpt lat="46.019421983510256" lon="8.283858960494399">
        <ele>218.78399999999999</ele>
        <time>2013-04-07T10:07:22Z</time>
      </trkpt>
      <trkpt lat="46.019518962129951" lon="8.283867007121444">
        <ele>218.46700000000001</ele>
        <time>2013-04-07T10:07:26Z</time>
      </trkpt>
      <trkpt lat="46.019604038447142" lon="8.28390103764832">
        <ele>218.791</ele>
        <time>2013-04-07T10:07:31Z</time>
      </trkpt>
      <trkpt lat="46.019608983770013" lon="8.283907994627953">
        <ele>218.91399999999999</ele>
        <time>2013-04-07T10:07:32Z</time>
      </trkpt>
      <trkpt lat="46.019652988761663" lon="8.283974966034293">
        <ele>221.119</ele>
        <time>2013-04-07T10:07:39Z</time>
      </trkpt>
      <trkpt lat="46.019658017903566" lon="8.283971026539803">
        <ele>221.197</ele>
        <time>2013-04-07T10:07:48Z</time>
      </trkpt>
      <trkpt lat="46.019665980711579" lon="8.283978989347816">
        <ele>221.661</ele>
        <time>2013-04-07T10:08:02Z</time>
      </trkpt>
      <trkpt lat="46.019684001803398" lon="8.284021988511086">
        <ele>222.90799999999999</ele>
        <time>2013-04-07T10:08:08Z</time>
      </trkpt>
      <trkpt lat="46.01968802511692" lon="8.284040009602904">
        <ele>223.74799999999999</ele>
        <time>2013-04-07T10:08:12Z</time>
      </trkpt>
      <trkpt lat="46.019713003188372" lon="8.284042021259666">
        <ele>224.614</ele>
        <time>2013-04-07T10:08:15Z</time>
      </trkpt>
      <trkpt lat="46.019781986251473" lon="8.28400899656117">
        <ele>224.73099999999999</ele>
        <time>2013-04-07T10:08:21Z</time>
      </trkpt>
      <trkpt lat="46.019864967092872" lon="8.2839659973979">
        <ele>224.40600000000001</ele>
        <time>2013-04-07T10:08:28Z</time>
      </trkpt>
      <trkpt lat="46.019949037581682" lon="8.283938001841307">
        <ele>224.941</ele>
        <time>2013-04-07T10:08:33Z</time>
      </trkpt>
      <trkpt lat="46.020042998716235" lon="8.28392299823463">
        <ele>225.12799999999999</ele>
        <time>2013-04-07T10:08:36Z</time>
      </trkpt>
      <trkpt lat="46.020190017297864" lon="8.283844040706754">
        <ele>225.29499999999999</ele>
        <time>2013-04-07T10:08:41Z</time>
      </trkpt>
      <trkpt lat="46.020475002005696" lon="8.283726023510099">
        <ele>225.256</ele>
        <time>2013-04-07T10:08:50Z</time>
      </trkpt>
      <trkpt lat="46.020507020875812" lon="8.283713031560183">
        <ele>225.374</ele>
        <time>2013-04-07T10:08:54Z</time>
      </trkpt>
      <trkpt lat="46.0205680411309" lon="8.28368503600359">
        <ele>225.22800000000001</ele>
        <time>2013-04-07T10:10:58Z</time>
      </trkpt>
      <trkpt lat="46.02078303694725" lon="8.283555032685399">
        <ele>225.685</ele>
        <time>2013-04-07T10:11:06Z</time>
      </trkpt>
      <trkpt lat="46.021053018048406" lon="8.283340958878398">
        <ele>225.62100000000001</ele>
        <time>2013-04-07T10:11:15Z</time>
      </trkpt>
      <trkpt lat="46.021356023848057" lon="8.283066032454372">
        <ele>226.15700000000001</ele>
        <time>2013-04-07T10:11:24Z</time>
      </trkpt>
      <trkpt lat="46.021583005785942" lon="8.282900992780924">
        <ele>226.05799999999999</ele>
        <time>2013-04-07T10:11:31Z</time>
      </trkpt>
      <trkpt lat="46.021629022434354" lon="8.282884983345866">
        <ele>225.94300000000001</ele>
        <time>2013-04-07T10:11:35Z</time>
      </trkpt>
      <trkpt lat="46.021667998284101" lon="8.282889006659389">
        <ele>225.733</ele>
        <time>2013-04-07T10:11:53Z</time>
      </trkpt>
      <trkpt lat="46.021681996062398" lon="8.28289101831615">
        <ele>225.97999999999999</ele>
        <time>2013-04-07T10:11:58Z</time>
      </trkpt>
      <trkpt lat="46.021691970527172" lon="8.282890012487769">
        <ele>226.16399999999999</ele>
        <time>2013-04-07T10:12:09Z</time>
      </trkpt>
      <trkpt lat="46.021722983568907" lon="8.282886995002627">
        <ele>226.06100000000001</ele>
        <time>2013-04-07T10:12:18Z</time>
      </trkpt>
      <trkpt lat="46.021777968853712" lon="8.282868973910809">
        <ele>226.18199999999999</ele>
        <time>2013-04-07T10:12:26Z</time>
      </trkpt>
      <trkpt lat="46.021859021857381" lon="8.282846007496119">
        <ele>226.40000000000001</ele>
        <time>2013-04-07T10:12:32Z</time>
      </trkpt>
      <trkpt lat="46.022054990753531" lon="8.28280501998961">
        <ele>226.059</ele>
        <time>2013-04-07T10:12:40Z</time>
      </trkpt>
      <trkpt lat="46.022082986310124" lon="8.282799990847707">
        <ele>226.40799999999999</ele>
        <time>2013-04-07T10:12:43Z</time>
      </trkpt>
      <trkpt lat="46.022135959938169" lon="8.282803008332849">
        <ele>227.15899999999999</ele>
        <time>2013-04-07T10:12:49Z</time>
      </trkpt>
      <trkpt lat="46.022164961323142" lon="8.282832009717822">
        <ele>228.267</ele>
        <time>2013-04-07T10:12:55Z</time>
      </trkpt>
      <trkpt lat="46.022194968536496" lon="8.282886995002627">
        <ele>227.84999999999999</ele>
        <time>2013-04-07T10:13:01Z</time>
      </trkpt>
      <trkpt lat="46.02222497574985" lon="8.282903004437685">
        <ele>227.82400000000001</ele>
        <time>2013-04-07T10:13:07Z</time>
      </trkpt>
      <trkpt lat="46.022228999063373" lon="8.282888000831008">
        <ele>227.59999999999999</ele>
        <time>2013-04-07T10:13:10Z</time>
      </trkpt>
      <trkpt lat="46.02226696908474" lon="8.282724972814322">
        <ele>227.77600000000001</ele>
        <time>2013-04-07T10:13:15Z</time>
      </trkpt>
      <trkpt lat="46.022281972691417" lon="8.282598992809653">
        <ele>227.96299999999999</ele>
        <time>2013-04-07T10:13:17Z</time>
      </trkpt>
      <trkpt lat="46.022268980741501" lon="8.281963979825378">
        <ele>230.18700000000001</ele>
        <time>2013-04-07T10:13:27Z</time>
      </trkpt>
      <trkpt lat="46.022260012105107" lon="8.281469028443098">
        <ele>230.08600000000001</ele>
        <time>2013-04-07T10:13:35Z</time>
      </trkpt>
      <trkpt lat="46.02224400267005" lon="8.280844995751977">
        <ele>227.31</ele>
        <time>2013-04-07T10:13:44Z</time>
      </trkpt>
      <trkpt lat="46.022240985184908" lon="8.280554981902242">
        <ele>226.48699999999999</ele>
        <time>2013-04-07T10:13:49Z</time>
      </trkpt>
      <trkpt lat="46.022239979356527" lon="8.280512988567352">
        <ele>226.56</ele>
        <time>2013-04-07T10:13:53Z</time>
      </trkpt>
      <trkpt lat="46.022235034033656" lon="8.280534027144313">
        <ele>226.63300000000001</ele>
        <time>2013-04-07T10:14:12Z</time>
      </trkpt>
      <trkpt lat="46.022236961871386" lon="8.280612984672189">
        <ele>227.05799999999999</ele>
        <time>2013-04-07T10:14:17Z</time>
      </trkpt>
      <trkpt lat="46.022253977134824" lon="8.280629999935627">
        <ele>226.87700000000001</ele>
        <time>2013-04-07T10:14:20Z</time>
      </trkpt>
      <trkpt lat="46.02224500849843" lon="8.280542995780706">
        <ele>226.61500000000001</ele>
        <time>2013-04-07T10:14:23Z</time>
      </trkpt>
      <trkpt lat="46.02224400267005" lon="8.280452974140644">
        <ele>226.51499999999999</ele>
        <time>2013-04-07T10:14:25Z</time>
      </trkpt>
      <trkpt lat="46.022246014326811" lon="8.280277037993074">
        <ele>226.47900000000001</ele>
        <time>2013-04-07T10:14:28Z</time>
      </trkpt>
      <trkpt lat="46.022339975461364" lon="8.279783008620143">
        <ele>226.084</ele>
        <time>2013-04-07T10:14:36Z</time>
      </trkpt>
      <trkpt lat="46.02254499681294" lon="8.279371038079262">
        <ele>225.52500000000001</ele>
        <time>2013-04-07T10:14:44Z</time>
      </trkpt>
      <trkpt lat="46.022785976529121" lon="8.279092004522681">
        <ele>225.62100000000001</ele>
        <time>2013-04-07T10:14:51Z</time>
      </trkpt>
      <trkpt lat="46.022978005930781" lon="8.278881032019854">
        <ele>225.392</ele>
        <time>2013-04-07T10:14:57Z</time>
      </trkpt>
      <trkpt lat="46.023102980107069" lon="8.278942974284291">
        <ele>224.81100000000001</ele>
        <time>2013-04-07T10:15:01Z</time>
      </trkpt>
      <trkpt lat="46.023133993148804" lon="8.278996031731367">
        <ele>224.69300000000001</ele>
        <time>2013-04-07T10:15:02Z</time>
      </trkpt>
      <trkpt lat="46.023203982040286" lon="8.279125029221177">
        <ele>224.59</ele>
        <time>2013-04-07T10:15:04Z</time>
      </trkpt>
      <trkpt lat="46.02349198423326" lon="8.279474973678589">
        <ele>225.131</ele>
        <time>2013-04-07T10:15:10Z</time>
      </trkpt>
      <trkpt lat="46.023860033601522" lon="8.279872024431825">
        <ele>225.24299999999999</ele>
        <time>2013-04-07T10:15:18Z</time>
      </trkpt>
      <trkpt lat="46.024239985272288" lon="8.280243007466197">
        <ele>225.38399999999999</ele>
        <time>2013-04-07T10:15:27Z</time>
      </trkpt>
      <trkpt lat="46.024421034380794" lon="8.280364964157343">
        <ele>225.40899999999999</ele>
        <time>2013-04-07T10:15:31Z</time>
      </trkpt>
      <trkpt lat="46.024886984378099" lon="8.280619019642472">
        <ele>225.04900000000001</ele>
        <time>2013-04-07T10:15:41Z</time>
      </trkpt>
      <trkpt lat="46.025024028494954" lon="8.280694037675858">
        <ele>224.995</ele>
        <time>2013-04-07T10:15:44Z</time>
      </trkpt>
      <trkpt lat="46.025171969085932" lon="8.280781963840127">
        <ele>225.285</ele>
        <time>2013-04-07T10:15:49Z</time>
      </trkpt>
      <trkpt lat="46.025142967700958" lon="8.280828986316919">
        <ele>225.53100000000001</ele>
        <time>2013-04-07T10:16:01Z</time>
      </trkpt>
      <trkpt lat="46.025126958265901" lon="8.280841978266835">
        <ele>225.65600000000001</ele>
        <time>2013-04-07T10:16:07Z</time>
      </trkpt>
      <trkpt lat="46.025055041536689" lon="8.280877014622092">
        <ele>226.30500000000001</ele>
        <time>2013-04-07T10:16:37Z</time>
      </trkpt>
      <trkpt lat="46.025131987407804" lon="8.280881037935615">
        <ele>225.92699999999999</ele>
        <time>2013-04-07T10:16:41Z</time>
      </trkpt>
      <trkpt lat="46.025422001257539" lon="8.280905010178685">
        <ele>225.755</ele>
        <time>2013-04-07T10:16:48Z</time>
      </trkpt>
      <trkpt lat="46.025773035362363" lon="8.280950020998716">
        <ele>226.30799999999999</ele>
        <time>2013-04-07T10:16:55Z</time>
      </trkpt>
      <trkpt lat="46.026204032823443" lon="8.280991008505225">
        <ele>226.64699999999999</ele>
        <time>2013-04-07T10:17:03Z</time>
      </trkpt>
      <trkpt lat="46.026432020589709" lon="8.280999977141619">
        <ele>226.18299999999999</ele>
        <time>2013-04-07T10:17:07Z</time>
      </trkpt>
      <trkpt lat="46.026621032506227" lon="8.281025039032102">
        <ele>225.80500000000001</ele>
        <time>2013-04-07T10:17:11Z</time>
      </trkpt>
      <trkpt lat="46.027095029130578" lon="8.281110031530261">
        <ele>225.92699999999999</ele>
        <time>2013-04-07T10:17:20Z</time>
      </trkpt>
      <trkpt lat="46.027430975809693" lon="8.281229976564646">
        <ele>225.83000000000001</ele>
        <time>2013-04-07T10:17:26Z</time>
      </trkpt>
      <trkpt lat="46.02781000547111" lon="8.281368026509881">
        <ele>225.65899999999999</ele>
        <time>2013-04-07T10:17:33Z</time>
      </trkpt>
      <trkpt lat="46.027905978262424" lon="8.281412031501532">
        <ele>225.435</ele>
        <time>2013-04-07T10:17:35Z</time>
      </trkpt>
      <trkpt lat="46.028375029563904" lon="8.281578999012709">
        <ele>225.03200000000001</ele>
        <time>2013-04-07T10:17:44Z</time>
      </trkpt>
      <trkpt lat="46.028770990669727" lon="8.281723000109196">
        <ele>225.56299999999999</ele>
        <time>2013-04-07T10:17:52Z</time>
      </trkpt>
      <trkpt lat="46.029037032276392" lon="8.281849985942245">
        <ele>225.56399999999999</ele>
        <time>2013-04-07T10:17:58Z</time>
      </trkpt>
      <trkpt lat="46.029215985909104" lon="8.281958028674126">
        <ele>225.726</ele>
        <time>2013-04-07T10:18:02Z</time>
      </trkpt>
      <trkpt lat="46.029341965913773" lon="8.282057018950582">
        <ele>225.73500000000001</ele>
        <time>2013-04-07T10:18:05Z</time>
      </trkpt>
      <trkpt lat="46.029626028612256" lon="8.282176963984966">
        <ele>226.77000000000001</ele>
        <time>2013-04-07T10:18:11Z</time>
      </trkpt>
      <trkpt lat="46.02989399805665" lon="8.282101023942232">
        <ele>226.73500000000001</ele>
        <time>2013-04-07T10:18:16Z</time>
      </trkpt>
      <trkpt lat="46.029944038018584" lon="8.282065987586975">
        <ele>226.64500000000001</ele>
        <time>2013-04-07T10:18:17Z</time>
      </trkpt>
      <trkpt lat="46.030182000249624" lon="8.281744960695505">
        <ele>226.55000000000001</ele>
        <time>2013-04-07T10:18:23Z</time>
      </trkpt>
      <trkpt lat="46.030289037153125" lon="8.281284039840102">
        <ele>226.661</ele>
        <time>2013-04-07T10:18:29Z</time>
      </trkpt>
      <trkpt lat="46.030363971367478" lon="8.280881037935615">
        <ele>226.584</ele>
        <time>2013-04-07T10:18:34Z</time>
      </trkpt>
      <trkpt lat="46.030539991334081" lon="8.280548024922609">
        <ele>226.36099999999999</ele>
        <time>2013-04-07T10:18:39Z</time>
      </trkpt>
      <trkpt lat="46.030836040154099" lon="8.280292041599751">
        <ele>226.083</ele>
        <time>2013-04-07T10:18:45Z</time>
      </trkpt>
      <trkpt lat="46.030980963259935" lon="8.280063970014453">
        <ele>226.27000000000001</ele>
        <time>2013-04-07T10:18:49Z</time>
      </trkpt>
      <trkpt lat="46.0312470048666" lon="8.279735986143351">
        <ele>226.21199999999999</ele>
        <time>2013-04-07T10:18:55Z</time>
      </trkpt>
      <trkpt lat="46.031351024284959" lon="8.279662979766727">
        <ele>226.21199999999999</ele>
        <time>2013-04-07T10:18:57Z</time>
      </trkpt>
      <trkpt lat="46.031564008444548" lon="8.279641019180417">
        <ele>226.209</ele>
        <time>2013-04-07T10:19:01Z</time>
      </trkpt>
      <trkpt lat="46.031775986775756" lon="8.279504980891943">
        <ele>226.60400000000001</ele>
        <time>2013-04-07T10:19:05Z</time>
      </trkpt>
      <trkpt lat="46.032093996182084" lon="8.279100973159075">
        <ele>226.74000000000001</ele>
        <time>2013-04-07T10:19:12Z</time>
      </trkpt>
      <trkpt lat="46.032548965886235" lon="8.278418015688658">
        <ele>226.67599999999999</ele>
        <time>2013-04-07T10:19:23Z</time>
      </trkpt>
      <trkpt lat="46.032911986112595" lon="8.277877969667316">
        <ele>226.673</ele>
        <time>2013-04-07T10:19:32Z</time>
      </trkpt>
      <trkpt lat="46.033079959452152" lon="8.27747798524797">
        <ele>226.459</ele>
        <time>2013-04-07T10:19:38Z</time>
      </trkpt>
      <trkpt lat="46.033321022987366" lon="8.276895023882389">
        <ele>226.72300000000001</ele>
        <time>2013-04-07T10:19:47Z</time>
      </trkpt>
      <trkpt lat="46.033522021025419" lon="8.276279037818313">
        <ele>227.29300000000001</ele>
        <time>2013-04-07T10:19:56Z</time>
      </trkpt>
      <trkpt lat="46.033544987440109" lon="8.276213994249702">
        <ele>227.304</ele>
        <time>2013-04-07T10:19:57Z</time>
      </trkpt>
      <trkpt lat="46.03365303017199" lon="8.275966979563236">
        <ele>227.43600000000001</ele>
        <time>2013-04-07T10:20:01Z</time>
      </trkpt>
      <trkpt lat="46.03387095965445" lon="8.275542017072439">
        <ele>227.55199999999999</ele>
        <time>2013-04-07T10:20:08Z</time>
      </trkpt>
      <trkpt lat="46.034145969897509" lon="8.275003982707858">
        <ele>227.46199999999999</ele>
        <time>2013-04-07T10:20:17Z</time>
      </trkpt>
      <trkpt lat="46.034428020939231" lon="8.274515988305211">
        <ele>227.50899999999999</ele>
        <time>2013-04-07T10:20:25Z</time>
      </trkpt>
      <trkpt lat="46.034692972898483" lon="8.274128995835781">
        <ele>227.13499999999999</ele>
        <time>2013-04-07T10:20:32Z</time>
      </trkpt>
      <trkpt lat="46.034980975091457" lon="8.273695986717939">
        <ele>226.90799999999999</ele>
        <time>2013-04-07T10:20:40Z</time>
      </trkpt>
      <trkpt lat="46.035250034183264" lon="8.273298013955355">
        <ele>226.94399999999999</ele>
        <time>2013-04-07T10:20:47Z</time>
      </trkpt>
      <trkpt lat="46.03556402027607" lon="8.272850001230836">
        <ele>225.81100000000001</ele>
        <time>2013-04-07T10:20:55Z</time>
      </trkpt>
      <trkpt lat="46.035754960030317" lon="8.272583037614822">
        <ele>225.47300000000001</ele>
        <time>2013-04-07T10:21:00Z</time>
      </trkpt>
      <trkpt lat="46.035826960578561" lon="8.272435013204813">
        <ele>225.358</ele>
        <time>2013-04-07T10:21:03Z</time>
      </trkpt>
      <trkpt lat="46.035957969725132" lon="8.272294029593468">
        <ele>225.083</ele>
        <time>2013-04-07T10:21:08Z</time>
      </trkpt>
      <trkpt lat="46.035979008302093" lon="8.272266034036875">
        <ele>225.05600000000001</ele>
        <time>2013-04-07T10:21:09Z</time>
      </trkpt>
      <trkpt lat="46.036100964993238" lon="8.272220017388463">
        <ele>225.041</ele>
        <time>2013-04-07T10:21:15Z</time>
      </trkpt>
      <trkpt lat="46.036140024662018" lon="8.272199984639883">
        <ele>225.041</ele>
        <time>2013-04-07T10:21:20Z</time>
      </trkpt>
      <trkpt lat="46.036158967763186" lon="8.272228986024857">
        <ele>224.83600000000001</ele>
        <time>2013-04-07T10:21:44Z</time>
      </trkpt>
      <trkpt lat="46.036175983026624" lon="8.272216999903321">
        <ele>224.751</ele>
        <time>2013-04-07T10:21:51Z</time>
      </trkpt>
      <trkpt lat="46.036177994683385" lon="8.27219202183187">
        <ele>224.65000000000001</ele>
        <time>2013-04-07T10:22:22Z</time>
      </trkpt>
      <trkpt lat="46.036200039088726" lon="8.272131001576781">
        <ele>224.57300000000001</ele>
        <time>2013-04-07T10:22:29Z</time>
      </trkpt>
      <trkpt lat="46.036202972754836" lon="8.272109962999821">
        <ele>224.67699999999999</ele>
        <time>2013-04-07T10:22:32Z</time>
      </trkpt>
      <trkpt lat="46.036230968311429" lon="8.272021031007171">
        <ele>224.57900000000001</ele>
        <time>2013-04-07T10:22:42Z</time>
      </trkpt>
      <trkpt lat="46.036235997453332" lon="8.272008961066604">
        <ele>224.48500000000001</ele>
        <time>2013-04-07T10:22:44Z</time>
      </trkpt>
      <trkpt lat="46.036237003281713" lon="8.271959004923701">
        <ele>223.56899999999999</ele>
        <time>2013-04-07T10:22:50Z</time>
      </trkpt>
      <trkpt lat="46.036216970533133" lon="8.271920029073954">
        <ele>224.49000000000001</ele>
        <time>2013-04-07T10:22:57Z</time>
      </trkpt>
      <trkpt lat="46.036183023825288" lon="8.27189396135509">
        <ele>224.13999999999999</ele>
        <time>2013-04-07T10:24:10Z</time>
      </trkpt>
      <trkpt lat="46.036221999675035" lon="8.271878035739064">
        <ele>224.18000000000001</ele>
        <time>2013-04-07T10:27:16Z</time>
      </trkpt>
      <trkpt lat="46.036226022988558" lon="8.271844005212188">
        <ele>225.11600000000001</ele>
        <time>2013-04-07T10:27:21Z</time>
      </trkpt>
      <trkpt lat="46.036215964704752" lon="8.27178499661386">
        <ele>225.976</ele>
        <time>2013-04-07T10:27:28Z</time>
      </trkpt>
      <trkpt lat="46.036235997453332" lon="8.271731017157435">
        <ele>225.85400000000001</ele>
        <time>2013-04-07T10:27:36Z</time>
      </trkpt>
      <trkpt lat="46.036249995231628" lon="8.271706961095333">
        <ele>225.51400000000001</ele>
        <time>2013-04-07T10:27:45Z</time>
      </trkpt>
      <trkpt lat="46.036271033808589" lon="8.271701009944081">
        <ele>226.02500000000001</ele>
        <time>2013-04-07T10:27:51Z</time>
      </trkpt>
      <trkpt lat="46.036340016871691" lon="8.271626997739077">
        <ele>225.994</ele>
        <time>2013-04-07T10:28:29Z</time>
      </trkpt>
      <trkpt lat="46.036349991336465" lon="8.271595984697342">
        <ele>226.09299999999999</ele>
        <time>2013-04-07T10:28:35Z</time>
      </trkpt>
      <trkpt lat="46.036352002993226" lon="8.27159196138382">
        <ele>226.214</ele>
        <time>2013-04-07T10:28:54Z</time>
      </trkpt>
      <trkpt lat="46.036390978842974" lon="8.271517027169466">
        <ele>226.292</ele>
        <time>2013-04-07T10:29:01Z</time>
      </trkpt>
      <trkpt lat="46.036410005763173" lon="8.271401021629572">
        <ele>226.268</ele>
        <time>2013-04-07T10:29:09Z</time>
      </trkpt>
      <trkpt lat="46.036416040733457" lon="8.271364979445934">
        <ele>225.96600000000001</ele>
        <time>2013-04-07T10:29:12Z</time>
      </trkpt>
      <trkpt lat="46.036429032683372" lon="8.271274035796523">
        <ele>225.61500000000001</ele>
        <time>2013-04-07T10:29:19Z</time>
      </trkpt>
      <trkpt lat="46.036470020189881" lon="8.271157024428248">
        <ele>225.24100000000001</ele>
        <time>2013-04-07T10:29:26Z</time>
      </trkpt>
      <trkpt lat="46.036484017968178" lon="8.271091980859637">
        <ele>225.172</ele>
        <time>2013-04-07T10:29:28Z</time>
      </trkpt>
      <trkpt lat="46.036502039059997" lon="8.27094404026866">
        <ele>225.06100000000001</ele>
        <time>2013-04-07T10:29:34Z</time>
      </trkpt>
      <trkpt lat="46.036534979939461" lon="8.270734995603561">
        <ele>225.113</ele>
        <time>2013-04-07T10:29:40Z</time>
      </trkpt>
      <trkpt lat="46.036566998809576" lon="8.270607003942132">
        <ele>225.18899999999999</ele>
        <time>2013-04-07T10:29:43Z</time>
      </trkpt>
      <trkpt lat="46.036588037386537" lon="8.270487980917096">
        <ele>225.392</ele>
        <time>2013-04-07T10:29:49Z</time>
      </trkpt>
      <trkpt lat="46.036600023508072" lon="8.270428972318769">
        <ele>225.13300000000001</ele>
        <time>2013-04-07T10:29:55Z</time>
      </trkpt>
      <trkpt lat="46.03661997243762" lon="8.27040902338922">
        <ele>225.09899999999999</ele>
        <time>2013-04-07T10:29:58Z</time>
      </trkpt>
      <trkpt lat="46.036645034328103" lon="8.270332999527454">
        <ele>225.02799999999999</ele>
        <time>2013-04-07T10:30:06Z</time>
      </trkpt>
      <trkpt lat="46.03666297160089" lon="8.270272985100746">
        <ele>225.059</ele>
        <time>2013-04-07T10:30:19Z</time>
      </trkpt>
      <trkpt lat="46.036649979650974" lon="8.270199978724122">
        <ele>226.00800000000001</ele>
        <time>2013-04-07T10:30:26Z</time>
      </trkpt>
      <trkpt lat="46.036644028499722" lon="8.27017298899591">
        <ele>227.09</ele>
        <time>2013-04-07T10:30:32Z</time>
      </trkpt>
      <trkpt lat="46.036631958559155" lon="8.270167959854007">
        <ele>227.08799999999999</ele>
        <time>2013-04-07T10:30:42Z</time>
      </trkpt>
      <trkpt lat="46.03661997243762" lon="8.270152034237981">
        <ele>227.10400000000001</ele>
        <time>2013-04-07T10:30:56Z</time>
      </trkpt>
      <trkpt lat="46.036631958559155" lon="8.270141975954175">
        <ele>227.15899999999999</ele>
        <time>2013-04-07T10:31:02Z</time>
      </trkpt>
      <trkpt lat="46.03657596744597" lon="8.270128984004259">
        <ele>226.458</ele>
        <time>2013-04-07T10:32:30Z</time>
      </trkpt>
      <trkpt lat="46.036561969667673" lon="8.270099982619286">
        <ele>226.49199999999999</ele>
        <time>2013-04-07T10:32:39Z</time>
      </trkpt>
      <trkpt lat="46.036557024344802" lon="8.270093025639653">
        <ele>226.40100000000001</ele>
        <time>2013-04-07T10:32:40Z</time>
      </trkpt>
      <trkpt lat="46.036508996039629" lon="8.269966039806604">
        <ele>226.315</ele>
        <time>2013-04-07T10:32:50Z</time>
      </trkpt>
      <trkpt lat="46.036497009918094" lon="8.269920023158193">
        <ele>226.60599999999999</ele>
        <time>2013-04-07T10:32:53Z</time>
      </trkpt>
      <trkpt lat="46.036523999646306" lon="8.269751965999603">
        <ele>226.52699999999999</ele>
        <time>2013-04-07T10:32:59Z</time>
      </trkpt>
      <trkpt lat="46.036539003252983" lon="8.269477039575577">
        <ele>226.34999999999999</ele>
        <time>2013-04-07T10:33:05Z</time>
      </trkpt>
      <trkpt lat="46.036471026018262" lon="8.269217032939196">
        <ele>225.91200000000001</ele>
        <time>2013-04-07T10:33:11Z</time>
      </trkpt>
      <trkpt lat="46.0365329682827" lon="8.268990973010659">
        <ele>225.50700000000001</ele>
        <time>2013-04-07T10:33:16Z</time>
      </trkpt>
      <trkpt lat="46.036584014073014" lon="8.268818976357579">
        <ele>225.21299999999999</ele>
        <time>2013-04-07T10:33:20Z</time>
      </trkpt>
      <trkpt lat="46.036646962165833" lon="8.268441036343575">
        <ele>224.755</ele>
        <time>2013-04-07T10:33:26Z</time>
      </trkpt>
      <trkpt lat="46.036664983257651" lon="8.268251018598676">
        <ele>224.75</ele>
        <time>2013-04-07T10:33:29Z</time>
      </trkpt>
      <trkpt lat="46.036656014621258" lon="8.267909958958626">
        <ele>224.65700000000001</ele>
        <time>2013-04-07T10:33:35Z</time>
      </trkpt>
      <trkpt lat="46.036742012947798" lon="8.267505029216409">
        <ele>224.48400000000001</ele>
        <time>2013-04-07T10:33:42Z</time>
      </trkpt>
      <trkpt lat="46.036891965195537" lon="8.266944028437138">
        <ele>225.05000000000001</ele>
        <time>2013-04-07T10:33:51Z</time>
      </trkpt>
      <trkpt lat="46.037031020969152" lon="8.26632896438241">
        <ele>225.19</ele>
        <time>2013-04-07T10:34:00Z</time>
      </trkpt>
      <trkpt lat="46.037188014015555" lon="8.265798976644874">
        <ele>224.59299999999999</ele>
        <time>2013-04-07T10:34:08Z</time>
      </trkpt>
      <trkpt lat="46.037338972091675" lon="8.265336966142058">
        <ele>224.392</ele>
        <time>2013-04-07T10:34:15Z</time>
      </trkpt>
      <trkpt lat="46.037379037588835" lon="8.265203023329377">
        <ele>224.28299999999999</ele>
        <time>2013-04-07T10:34:17Z</time>
      </trkpt>
      <trkpt lat="46.037609959021211" lon="8.264679992571473">
        <ele>223.97800000000001</ele>
        <time>2013-04-07T10:34:25Z</time>
      </trkpt>
      <trkpt lat="46.037811962887645" lon="8.264352008700371">
        <ele>225.03999999999999</ele>
        <time>2013-04-07T10:34:31Z</time>
      </trkpt>
      <trkpt lat="46.037988988682628" lon="8.264140030369163">
        <ele>225.32499999999999</ele>
        <time>2013-04-07T10:34:36Z</time>
      </trkpt>
      <trkpt lat="46.038063000887632" lon="8.264061994850636">
        <ele>224.91499999999999</ele>
        <time>2013-04-07T10:34:39Z</time>
      </trkpt>
      <trkpt lat="46.038047997280955" lon="8.26392101123929">
        <ele>224.81800000000001</ele>
        <time>2013-04-07T10:34:45Z</time>
      </trkpt>
      <trkpt lat="46.038041040301323" lon="8.263897961005569">
        <ele>224.70400000000001</ele>
        <time>2013-04-07T10:34:46Z</time>
      </trkpt>
      <trkpt lat="46.037968033924699" lon="8.263696962967515">
        <ele>224.98599999999999</ele>
        <time>2013-04-07T10:34:53Z</time>
      </trkpt>
      <trkpt lat="46.037883963435888" lon="8.2633610162884">
        <ele>225.59</ele>
        <time>2013-04-07T10:35:00Z</time>
      </trkpt>
      <trkpt lat="46.037799976766109" lon="8.263057004660368">
        <ele>225.495</ele>
        <time>2013-04-07T10:35:06Z</time>
      </trkpt>
      <trkpt lat="46.037725964561105" lon="8.262794986367226">
        <ele>224.44999999999999</ele>
        <time>2013-04-07T10:35:12Z</time>
      </trkpt>
      <trkpt lat="46.037724958732724" lon="8.262764979153872">
        <ele>224.37</ele>
        <time>2013-04-07T10:35:16Z</time>
      </trkpt>
      <trkpt lat="46.037718001753092" lon="8.262668000534177">
        <ele>224.13499999999999</ele>
        <time>2013-04-07T10:35:39Z</time>
      </trkpt>
      <trkpt lat="46.037768041715026" lon="8.262488041073084">
        <ele>223.97499999999999</ele>
        <time>2013-04-07T10:35:43Z</time>
      </trkpt>
      <trkpt lat="46.037945989519358" lon="8.262260975316167">
        <ele>223.93199999999999</ele>
        <time>2013-04-07T10:35:48Z</time>
      </trkpt>
      <trkpt lat="46.038301968947053" lon="8.261868031695485">
        <ele>223.87100000000001</ele>
        <time>2013-04-07T10:35:55Z</time>
      </trkpt>
      <trkpt lat="46.038771020248532" lon="8.261346006765962">
        <ele>224.91399999999999</ele>
        <time>2013-04-07T10:36:03Z</time>
      </trkpt>
      <trkpt lat="46.039200006052852" lon="8.260860024020076">
        <ele>225.53399999999999</ele>
        <time>2013-04-07T10:36:10Z</time>
      </trkpt>
      <trkpt lat="46.039351969957352" lon="8.260601023212075">
        <ele>225.81399999999999</ele>
        <time>2013-04-07T10:36:13Z</time>
      </trkpt>
      <trkpt lat="46.039602002128959" lon="8.260321989655495">
        <ele>225.72399999999999</ele>
        <time>2013-04-07T10:36:17Z</time>
      </trkpt>
      <trkpt lat="46.039853962138295" lon="8.260254012420774">
        <ele>225.28100000000001</ele>
        <time>2013-04-07T10:36:20Z</time>
      </trkpt>
      <trkpt lat="46.040724003687501" lon="8.260301034897566">
        <ele>224.16300000000001</ele>
        <time>2013-04-07T10:36:30Z</time>
      </trkpt>
      <trkpt lat="46.041362034156919" lon="8.260336993262172">
        <ele>224.30000000000001</ele>
        <time>2013-04-07T10:36:38Z</time>
      </trkpt>
      <trkpt lat="46.042010961100459" lon="8.260391978546977">
        <ele>224.845</ele>
        <time>2013-04-07T10:36:46Z</time>
      </trkpt>
      <trkpt lat="46.042864993214607" lon="8.260446963831782">
        <ele>224.68100000000001</ele>
        <time>2013-04-07T10:36:56Z</time>
      </trkpt>
      <trkpt lat="46.043634032830596" lon="8.260502032935619">
        <ele>225.279</ele>
        <time>2013-04-07T10:37:05Z</time>
      </trkpt>
      <trkpt lat="46.043824972584844" lon="8.260518964380026">
        <ele>224.84</ele>
        <time>2013-04-07T10:37:09Z</time>
      </trkpt>
      <trkpt lat="46.043936032801867" lon="8.260530028492212">
        <ele>224.661</ele>
        <time>2013-04-07T10:37:13Z</time>
      </trkpt>
      <trkpt lat="46.043971991166472" lon="8.260529022663832">
        <ele>224.625</ele>
        <time>2013-04-07T10:37:14Z</time>
      </trkpt>
      <trkpt lat="46.044161003082991" lon="8.260542014613748">
        <ele>224.45500000000001</ele>
        <time>2013-04-07T10:37:18Z</time>
      </trkpt>
      <trkpt lat="46.044581020250916" lon="8.260552994906902">
        <ele>224.52099999999999</ele>
        <time>2013-04-07T10:37:24Z</time>
      </trkpt>
      <trkpt lat="46.045157024636865" lon="8.260588031262159">
        <ele>224.852</ele>
        <time>2013-04-07T10:37:31Z</time>
      </trkpt>
      <trkpt lat="46.045950036495924" lon="8.260638993233442">
        <ele>224.64500000000001</ele>
        <time>2013-04-07T10:37:40Z</time>
      </trkpt>
      <trkpt lat="46.046783030033112" lon="8.260691966861486">
        <ele>224.63</ele>
        <time>2013-04-07T10:37:50Z</time>
      </trkpt>
      <trkpt lat="46.047387029975653" lon="8.260730020701885">
        <ele>224.76499999999999</ele>
        <time>2013-04-07T10:37:57Z</time>
      </trkpt>
      <trkpt lat="46.048237038776278" lon="8.26078400015831">
        <ele>224.839</ele>
        <time>2013-04-07T10:38:07Z</time>
      </trkpt>
      <trkpt lat="46.048964001238346" lon="8.260830016806722">
        <ele>225.107</ele>
        <time>2013-04-07T10:38:15Z</time>
      </trkpt>
      <trkpt lat="46.049901014193892" lon="8.260886007919908">
        <ele>225.42099999999999</ele>
        <time>2013-04-07T10:38:25Z</time>
      </trkpt>
      <trkpt lat="46.050864011049271" lon="8.260945016518235">
        <ele>225.75</ele>
        <time>2013-04-07T10:38:35Z</time>
      </trkpt>
      <trkpt lat="46.051688035950065" lon="8.260992038995028">
        <ele>226.809</ele>
        <time>2013-04-07T10:38:44Z</time>
      </trkpt>
      <trkpt lat="46.052301004528999" lon="8.261027997359633">
        <ele>226.49100000000001</ele>
        <time>2013-04-07T10:38:52Z</time>
      </trkpt>
      <trkpt lat="46.05279897339642" lon="8.26106202788651">
        <ele>226.685</ele>
        <time>2013-04-07T10:39:00Z</time>
      </trkpt>
      <trkpt lat="46.053459970280528" lon="8.261103015393019">
        <ele>227.11000000000001</ele>
        <time>2013-04-07T10:39:11Z</time>
      </trkpt>
      <trkpt lat="46.054038992151618" lon="8.261136040091515">
        <ele>227.79599999999999</ele>
        <time>2013-04-07T10:39:21Z</time>
      </trkpt>
      <trkpt lat="46.054527992382646" lon="8.261165041476488">
        <ele>228.411</ele>
        <time>2013-04-07T10:39:30Z</time>
      </trkpt>
      <trkpt lat="46.05488296598196" lon="8.261187002062798">
        <ele>228.75999999999999</ele>
        <time>2013-04-07T10:39:38Z</time>
      </trkpt>
      <trkpt lat="46.055240035057068" lon="8.261200999841094">
        <ele>229.34100000000001</ele>
        <time>2013-04-07T10:39:47Z</time>
      </trkpt>
      <trkpt lat="46.05550398118794" lon="8.261220026761293">
        <ele>229.678</ele>
        <time>2013-04-07T10:39:54Z</time>
      </trkpt>
      <trkpt lat="46.055760970339179" lon="8.261236036196351">
        <ele>230.16</ele>
        <time>2013-04-07T10:40:00Z</time>
      </trkpt>
      <trkpt lat="46.056090965867043" lon="8.261259002611041">
        <ele>230.63200000000001</ele>
        <time>2013-04-07T10:40:07Z</time>
      </trkpt>
      <trkpt lat="46.05644702911377" lon="8.261281969025731">
        <ele>231.31800000000001</ele>
        <time>2013-04-07T10:40:14Z</time>
      </trkpt>
      <trkpt lat="46.056743999943137" lon="8.261294038966298">
        <ele>231.977</ele>
        <time>2013-04-07T10:40:20Z</time>
      </trkpt>
      <trkpt lat="46.057227971032262" lon="8.261323040351272">
        <ele>232.268</ele>
        <time>2013-04-07T10:40:30Z</time>
      </trkpt>
      <trkpt lat="46.057620998471975" lon="8.261336032301188">
        <ele>233.37899999999999</ele>
        <time>2013-04-07T10:40:38Z</time>
      </trkpt>
      <trkpt lat="46.058076974004507" lon="8.261360004544258">
        <ele>234.38200000000001</ele>
        <time>2013-04-07T10:40:48Z</time>
      </trkpt>
      <trkpt lat="46.058520041406155" lon="8.261392023414373">
        <ele>234.89099999999999</ele>
        <time>2013-04-07T10:40:57Z</time>
      </trkpt>
      <trkpt lat="46.059206016361713" lon="8.261437034234405">
        <ele>236.12899999999999</ele>
        <time>2013-04-07T10:41:10Z</time>
      </trkpt>
      <trkpt lat="46.059837006032467" lon="8.261460000649095">
        <ele>237.82300000000001</ele>
        <time>2013-04-07T10:41:21Z</time>
      </trkpt>
      <trkpt lat="46.060392977669835" lon="8.261484978720546">
        <ele>238.94499999999999</ele>
        <time>2013-04-07T10:41:31Z</time>
      </trkpt>
      <trkpt lat="46.060889018699527" lon="8.261512974277139">
        <ele>240.16900000000001</ele>
        <time>2013-04-07T10:41:41Z</time>
      </trkpt>
      <trkpt lat="46.061474997550249" lon="8.261561002582312">
        <ele>241.75299999999999</ele>
        <time>2013-04-07T10:41:52Z</time>
      </trkpt>
      <trkpt lat="46.062009008601308" lon="8.261593021452427">
        <ele>242.84100000000001</ele>
        <time>2013-04-07T10:42:02Z</time>
      </trkpt>
      <trkpt lat="46.062392983585596" lon="8.261625040322542">
        <ele>244.107</ele>
        <time>2013-04-07T10:42:09Z</time>
      </trkpt>
      <trkpt lat="46.062801014631987" lon="8.261596960946918">
        <ele>246.18899999999999</ele>
        <time>2013-04-07T10:42:17Z</time>
      </trkpt>
      <trkpt lat="46.063362015411258" lon="8.261582963168621">
        <ele>247.56100000000001</ele>
        <time>2013-04-07T10:42:26Z</time>
      </trkpt>
      <trkpt lat="46.063927039504051" lon="8.26166502200067">
        <ele>249.565</ele>
        <time>2013-04-07T10:42:36Z</time>
      </trkpt>
      <trkpt lat="46.064501032233238" lon="8.261728975921869">
        <ele>251.19999999999999</ele>
        <time>2013-04-07T10:42:46Z</time>
      </trkpt>
      <trkpt lat="46.064896993339062" lon="8.261741967871785">
        <ele>252.82499999999999</ele>
        <time>2013-04-07T10:42:54Z</time>
      </trkpt>
      <trkpt lat="46.065121041610837" lon="8.261698968708515">
        <ele>254.06700000000001</ele>
        <time>2013-04-07T10:43:00Z</time>
      </trkpt>
      <trkpt lat="46.065357998013496" lon="8.261668961495161">
        <ele>255.441</ele>
        <time>2013-04-07T10:43:08Z</time>
      </trkpt>
      <trkpt lat="46.0656030010432" lon="8.261727970093489">
        <ele>254.958</ele>
        <time>2013-04-07T10:43:16Z</time>
      </trkpt>
      <trkpt lat="46.065850015729666" lon="8.261860990896821">
        <ele>254.81700000000001</ele>
        <time>2013-04-07T10:43:23Z</time>
      </trkpt>
      <trkpt lat="46.066021006554365" lon="8.262024018913508">
        <ele>255.00899999999999</ele>
        <time>2013-04-07T10:43:28Z</time>
      </trkpt>
      <trkpt lat="46.066177999600768" lon="8.262182017788291">
        <ele>255.43299999999999</ele>
        <time>2013-04-07T10:43:33Z</time>
      </trkpt>
      <trkpt lat="46.066449992358685" lon="8.262444958090782">
        <ele>254.566</ele>
        <time>2013-04-07T10:43:40Z</time>
      </trkpt>
      <trkpt lat="46.066491985693574" lon="8.262485023587942">
        <ele>254.321</ele>
        <time>2013-04-07T10:43:41Z</time>
      </trkpt>
      <trkpt lat="46.066758027300239" lon="8.26271996833384">
        <ele>253.60599999999999</ele>
        <time>2013-04-07T10:43:47Z</time>
      </trkpt>
      <trkpt lat="46.067142002284527" lon="8.262962037697434">
        <ele>254.10300000000001</ele>
        <time>2013-04-07T10:43:54Z</time>
      </trkpt>
      <trkpt lat="46.06753402389586" lon="8.263047030195594">
        <ele>254.286</ele>
        <time>2013-04-07T10:44:01Z</time>
      </trkpt>
      <trkpt lat="46.068127965554595" lon="8.263005958870053">
        <ele>254.11600000000001</ele>
        <time>2013-04-07T10:44:11Z</time>
      </trkpt>
      <trkpt lat="46.068776976317167" lon="8.262939993292093">
        <ele>254.60599999999999</ele>
        <time>2013-04-07T10:44:22Z</time>
      </trkpt>
      <trkpt lat="46.069348035380244" lon="8.262877967208624">
        <ele>255.07900000000001</ele>
        <time>2013-04-07T10:44:32Z</time>
      </trkpt>
      <trkpt lat="46.069839969277382" lon="8.262828011065722">
        <ele>255.64500000000001</ele>
        <time>2013-04-07T10:44:41Z</time>
      </trkpt>
      <trkpt lat="46.070218998938799" lon="8.262796998023987">
        <ele>255.80699999999999</ele>
        <time>2013-04-07T10:44:49Z</time>
      </trkpt>
      <trkpt lat="46.070605991408229" lon="8.262775959447026">
        <ele>255.52799999999999</ele>
        <time>2013-04-07T10:44:56Z</time>
      </trkpt>
      <trkpt lat="46.070944033563137" lon="8.262829016894102">
        <ele>254.22200000000001</ele>
        <time>2013-04-07T10:45:01Z</time>
      </trkpt>
      <trkpt lat="46.071448959410191" lon="8.263085000216961">
        <ele>252.63200000000001</ele>
        <time>2013-04-07T10:45:08Z</time>
      </trkpt>
      <trkpt lat="46.071781972423196" lon="8.263422958552837">
        <ele>251.53700000000001</ele>
        <time>2013-04-07T10:45:13Z</time>
      </trkpt>
      <trkpt lat="46.072369962930679" lon="8.264098959043622">
        <ele>250.10900000000001</ele>
        <time>2013-04-07T10:45:23Z</time>
      </trkpt>
      <trkpt lat="46.072903973981738" lon="8.26467496342957">
        <ele>248.94300000000001</ele>
        <time>2013-04-07T10:45:32Z</time>
      </trkpt>
      <trkpt lat="46.073303958401084" lon="8.265109984204173">
        <ele>247.03700000000001</ele>
        <time>2013-04-07T10:45:38Z</time>
      </trkpt>
      <trkpt lat="46.073849033564329" lon="8.265674002468586">
        <ele>244</ele>
        <time>2013-04-07T10:45:45Z</time>
      </trkpt>
      <trkpt lat="46.074442975223064" lon="8.266336005181074">
        <ele>241.03200000000001</ele>
        <time>2013-04-07T10:45:52Z</time>
      </trkpt>
      <trkpt lat="46.074511958286166" lon="8.266428038477898">
        <ele>240.76900000000001</ele>
        <time>2013-04-07T10:45:53Z</time>
      </trkpt>
      <trkpt lat="46.07481898739934" lon="8.266783012077212">
        <ele>240.10300000000001</ele>
        <time>2013-04-07T10:45:57Z</time>
      </trkpt>
      <trkpt lat="46.075010010972619" lon="8.266985015943646">
        <ele>241.185</ele>
        <time>2013-04-07T10:46:00Z</time>
      </trkpt>
      <trkpt lat="46.07512098737061" lon="8.267288021743298">
        <ele>241.97200000000001</ele>
        <time>2013-04-07T10:46:04Z</time>
      </trkpt>
      <trkpt lat="46.075117969885468" lon="8.267450965940952">
        <ele>241.88800000000001</ele>
        <time>2013-04-07T10:46:06Z</time>
      </trkpt>
      <trkpt lat="46.075203968212008" lon="8.267650036141276">
        <ele>242.33199999999999</ele>
        <time>2013-04-07T10:46:09Z</time>
      </trkpt>
      <trkpt lat="46.075383005663753" lon="8.267639977857471">
        <ele>242.41900000000001</ele>
        <time>2013-04-07T10:46:12Z</time>
      </trkpt>
      <trkpt lat="46.075561037287116" lon="8.267626985907555">
        <ele>242.261</ele>
        <time>2013-04-07T10:46:15Z</time>
      </trkpt>
      <trkpt lat="46.075663967058063" lon="8.267714995890856">
        <ele>242.16999999999999</ele>
        <time>2013-04-07T10:46:17Z</time>
      </trkpt>
      <trkpt lat="46.076018018648028" lon="8.26810902915895">
        <ele>241.286</ele>
        <time>2013-04-07T10:46:25Z</time>
      </trkpt>
      <trkpt lat="46.076491009443998" lon="8.268635999411345">
        <ele>239.94800000000001</ele>
        <time>2013-04-07T10:46:35Z</time>
      </trkpt>
      <trkpt lat="46.076896023005247" lon="8.269075965508819">
        <ele>239.46700000000001</ele>
        <time>2013-04-07T10:46:43Z</time>
      </trkpt>
      <trkpt lat="46.077344035729766" lon="8.269569994881749">
        <ele>238.34800000000001</ele>
        <time>2013-04-07T10:46:52Z</time>
      </trkpt>
      <trkpt lat="46.077797999605536" lon="8.270077016204596">
        <ele>237.18600000000001</ele>
        <time>2013-04-07T10:47:01Z</time>
      </trkpt>
      <trkpt lat="46.078065969049931" lon="8.270368035882711">
        <ele>237.21799999999999</ele>
        <time>2013-04-07T10:47:07Z</time>
      </trkpt>
      <trkpt lat="46.078087007626891" lon="8.270396031439304">
        <ele>237.18000000000001</ele>
        <time>2013-04-07T10:47:08Z</time>
      </trkpt>
      <trkpt lat="46.078089019283652" lon="8.270424026995897">
        <ele>236.99799999999999</ele>
        <time>2013-04-07T10:47:13Z</time>
      </trkpt>
      <trkpt lat="46.078074015676975" lon="8.270424026995897">
        <ele>236.70400000000001</ele>
        <time>2013-04-07T10:48:36Z</time>
      </trkpt>
      <trkpt lat="46.078094970434904" lon="8.270435007289052">
        <ele>236.31100000000001</ele>
        <time>2013-04-07T10:48:43Z</time>
      </trkpt>
      <trkpt lat="46.078132018446922" lon="8.270483035594225">
        <ele>236.26400000000001</ele>
        <time>2013-04-07T10:48:47Z</time>
      </trkpt>
      <trkpt lat="46.078253975138068" lon="8.27060398645699">
        <ele>236.41900000000001</ele>
        <time>2013-04-07T10:48:52Z</time>
      </trkpt>
      <trkpt lat="46.078498978167772" lon="8.270862987264991">
        <ele>236.78700000000001</ele>
        <time>2013-04-07T10:48:59Z</time>
      </trkpt>
      <trkpt lat="46.078874990344048" lon="8.271278981119394">
        <ele>236.55000000000001</ele>
        <time>2013-04-07T10:49:08Z</time>
      </trkpt>
      <trkpt lat="46.079208003357053" lon="8.271639989688993">
        <ele>235.77699999999999</ele>
        <time>2013-04-07T10:49:15Z</time>
      </trkpt>
      <trkpt lat="46.079545961692929" lon="8.272003009915352">
        <ele>235.30500000000001</ele>
        <time>2013-04-07T10:49:21Z</time>
      </trkpt>
      <trkpt lat="46.080091036856174" lon="8.272604998201132">
        <ele>236.727</ele>
        <time>2013-04-07T10:49:30Z</time>
      </trkpt>
      <trkpt lat="46.080654971301556" lon="8.273198017850518">
        <ele>235.173</ele>
        <time>2013-04-07T10:49:39Z</time>
      </trkpt>
      <trkpt lat="46.081170961260796" lon="8.273766981437802">
        <ele>235.137</ele>
        <time>2013-04-07T10:49:48Z</time>
      </trkpt>
      <trkpt lat="46.081626014783978" lon="8.274267967790365">
        <ele>234.81</ele>
        <time>2013-04-07T10:49:56Z</time>
      </trkpt>
      <trkpt lat="46.082150973379612" lon="8.274830980226398">
        <ele>234.65700000000001</ele>
        <time>2013-04-07T10:50:05Z</time>
      </trkpt>
      <trkpt lat="46.082318024709821" lon="8.275114959105849">
        <ele>234.83099999999999</ele>
        <time>2013-04-07T10:50:09Z</time>
      </trkpt>
      <trkpt lat="46.082370998337865" lon="8.275155024603009">
        <ele>234.86699999999999</ele>
        <time>2013-04-07T10:50:10Z</time>
      </trkpt>
      <trkpt lat="46.082482980564237" lon="8.275215039029717">
        <ele>234.756</ele>
        <time>2013-04-07T10:50:12Z</time>
      </trkpt>
      <trkpt lat="46.082712979987264" lon="8.275454007089138">
        <ele>234.774</ele>
        <time>2013-04-07T10:50:17Z</time>
      </trkpt>
      <trkpt lat="46.083165016025305" lon="8.275950970128179">
        <ele>234.96799999999999</ele>
        <time>2013-04-07T10:50:26Z</time>
      </trkpt>
      <trkpt lat="46.083668014034629" lon="8.27650903724134">
        <ele>234.96600000000001</ele>
        <time>2013-04-07T10:50:35Z</time>
      </trkpt>
      <trkpt lat="46.084425989538431" lon="8.277334989979863">
        <ele>235.73099999999999</ele>
        <time>2013-04-07T10:50:48Z</time>
      </trkpt>
      <trkpt lat="46.084736958146095" lon="8.277684012427926">
        <ele>235.76300000000001</ele>
        <time>2013-04-07T10:50:54Z</time>
      </trkpt>
      <trkpt lat="46.085127973929048" lon="8.278112998232245">
        <ele>236.261</ele>
        <time>2013-04-07T10:51:02Z</time>
      </trkpt>
      <trkpt lat="46.085594007745385" lon="8.278629994019866">
        <ele>236.15899999999999</ele>
        <time>2013-04-07T10:51:11Z</time>
      </trkpt>
      <trkpt lat="46.086307978257537" lon="8.279412025585771">
        <ele>237.042</ele>
        <time>2013-04-07T10:51:24Z</time>
      </trkpt>
      <trkpt lat="46.086779963225126" lon="8.279932038858533">
        <ele>237.63300000000001</ele>
        <time>2013-04-07T10:51:33Z</time>
      </trkpt>
      <trkpt lat="46.087255971506238" lon="8.280466971918941">
        <ele>237.01599999999999</ele>
        <time>2013-04-07T10:51:42Z</time>
      </trkpt>
      <trkpt lat="46.087637012824416" lon="8.280892018228769">
        <ele>237.53399999999999</ele>
        <time>2013-04-07T10:51:50Z</time>
      </trkpt>
      <trkpt lat="46.087958961725235" lon="8.281253026798368">
        <ele>237.703</ele>
        <time>2013-04-07T10:51:57Z</time>
      </trkpt>
      <trkpt lat="46.088324999436736" lon="8.281644964590669">
        <ele>237.44999999999999</ele>
        <time>2013-04-07T10:52:05Z</time>
      </trkpt>
      <trkpt lat="46.088787009939551" lon="8.282156009227037">
        <ele>237.708</ele>
        <time>2013-04-07T10:52:14Z</time>
      </trkpt>
      <trkpt lat="46.089195040985942" lon="8.282599998638034">
        <ele>237.792</ele>
        <time>2013-04-07T10:52:22Z</time>
      </trkpt>
      <trkpt lat="46.089697033166885" lon="8.28314901329577">
        <ele>238.06299999999999</ele>
        <time>2013-04-07T10:52:32Z</time>
      </trkpt>
      <trkpt lat="46.090343026444316" lon="8.28385996632278">
        <ele>238.88800000000001</ele>
        <time>2013-04-07T10:52:44Z</time>
      </trkpt>
      <trkpt lat="46.090770000591874" lon="8.284318037331104">
        <ele>238.898</ele>
        <time>2013-04-07T10:52:52Z</time>
      </trkpt>
      <trkpt lat="46.091128997504711" lon="8.284731013700366">
        <ele>239.20500000000001</ele>
        <time>2013-04-07T10:53:00Z</time>
      </trkpt>
      <trkpt lat="46.091709025204182" lon="8.285370972007513">
        <ele>239.45099999999999</ele>
        <time>2013-04-07T10:53:12Z</time>
      </trkpt>
      <trkpt lat="46.092363987118006" lon="8.286087960004807">
        <ele>239.744</ele>
        <time>2013-04-07T10:53:25Z</time>
      </trkpt>
      <trkpt lat="46.092658024281263" lon="8.286414016038179">
        <ele>240.233</ele>
        <time>2013-04-07T10:53:32Z</time>
      </trkpt>
      <trkpt lat="46.093035964295268" lon="8.286835039034486">
        <ele>239.80199999999999</ele>
        <time>2013-04-07T10:53:41Z</time>
      </trkpt>
      <trkpt lat="46.09350903891027" lon="8.287354968488216">
        <ele>240.06800000000001</ele>
        <time>2013-04-07T10:53:51Z</time>
      </trkpt>
      <trkpt lat="46.093839034438133" lon="8.287714971229434">
        <ele>240.53299999999999</ele>
        <time>2013-04-07T10:53:58Z</time>
      </trkpt>
      <trkpt lat="46.094424007460475" lon="8.288362976163626">
        <ele>240.94399999999999</ele>
        <time>2013-04-07T10:54:10Z</time>
      </trkpt>
      <trkpt lat="46.095096990466118" lon="8.289093039929867">
        <ele>241.05600000000001</ele>
        <time>2013-04-07T10:54:23Z</time>
      </trkpt>
      <trkpt lat="46.095414999872446" lon="8.289453964680433">
        <ele>241.488</ele>
        <time>2013-04-07T10:54:30Z</time>
      </trkpt>
      <trkpt lat="46.095726974308491" lon="8.289795024320483">
        <ele>241.75299999999999</ele>
        <time>2013-04-07T10:54:38Z</time>
      </trkpt>
      <trkpt lat="46.096051018685102" lon="8.290157960727811">
        <ele>241.90000000000001</ele>
        <time>2013-04-07T10:54:46Z</time>
      </trkpt>
      <trkpt lat="46.096480004489422" lon="8.290630029514432">
        <ele>242.37</ele>
        <time>2013-04-07T10:54:55Z</time>
      </trkpt>
      <trkpt lat="46.097041005268693" lon="8.29125096090138">
        <ele>242.87700000000001</ele>
        <time>2013-04-07T10:55:06Z</time>
      </trkpt>
      <trkpt lat="46.097680041566491" lon="8.291955962777138">
        <ele>243.48699999999999</ele>
        <time>2013-04-07T10:55:18Z</time>
      </trkpt>
      <trkpt lat="46.09834598377347" lon="8.292694995179772">
        <ele>244.40199999999999</ele>
        <time>2013-04-07T10:55:30Z</time>
      </trkpt>
      <trkpt lat="46.09896800480783" lon="8.293380970135331">
        <ele>245.39599999999999</ele>
        <time>2013-04-07T10:55:41Z</time>
      </trkpt>
      <trkpt lat="46.099718017503619" lon="8.294199965894222">
        <ele>245.96600000000001</ele>
        <time>2013-04-07T10:55:54Z</time>
      </trkpt>
      <trkpt lat="46.100436011329293" lon="8.294986020773649">
        <ele>246.703</ele>
        <time>2013-04-07T10:56:06Z</time>
      </trkpt>
      <trkpt lat="46.100955018773675" lon="8.295592032372952">
        <ele>247.95699999999999</ele>
        <time>2013-04-07T10:56:15Z</time>
      </trkpt>
      <trkpt lat="46.10107496380806" lon="8.295829994603992">
        <ele>248.16</ele>
        <time>2013-04-07T10:56:18Z</time>
      </trkpt>
      <trkpt lat="46.101250983774662" lon="8.296154960989952">
        <ele>248.50999999999999</ele>
        <time>2013-04-07T10:56:21Z</time>
      </trkpt>
      <trkpt lat="46.101323990151286" lon="8.296274989843369">
        <ele>248.84899999999999</ele>
        <time>2013-04-07T10:56:23Z</time>
      </trkpt>
      <trkpt lat="46.101823970675468" lon="8.296726020053029">
        <ele>249.02500000000001</ele>
        <time>2013-04-07T10:56:31Z</time>
      </trkpt>
      <trkpt lat="46.102203000336885" lon="8.297060960903764">
        <ele>249.16499999999999</ele>
        <time>2013-04-07T10:56:38Z</time>
      </trkpt>
      <trkpt lat="46.102497037500143" lon="8.297346029430628">
        <ele>248.971</ele>
        <time>2013-04-07T10:56:45Z</time>
      </trkpt>
      <trkpt lat="46.102614970877767" lon="8.297460023313761">
        <ele>249.16900000000001</ele>
        <time>2013-04-07T10:56:49Z</time>
      </trkpt>
      <trkpt lat="46.102629974484444" lon="8.297488018870354">
        <ele>249.16499999999999</ele>
        <time>2013-04-07T10:56:54Z</time>
      </trkpt>
      <trkpt lat="46.102569038048387" lon="8.297471003606916">
        <ele>250.31999999999999</ele>
        <time>2013-04-07T11:03:56Z</time>
      </trkpt>
      <trkpt lat="46.102563003078103" lon="8.297460023313761">
        <ele>250.38999999999999</ele>
        <time>2013-04-07T11:03:58Z</time>
      </trkpt>
      <trkpt lat="46.102522015571594" lon="8.297434039413929">
        <ele>250.351</ele>
        <time>2013-04-07T11:04:05Z</time>
      </trkpt>
      <trkpt lat="46.102531990036368" lon="8.297426998615265">
        <ele>250.59</ele>
        <time>2013-04-07T11:04:41Z</time>
      </trkpt>
      <trkpt lat="46.10249100252986" lon="8.297380981966853">
        <ele>250.71100000000001</ele>
        <time>2013-04-07T11:04:45Z</time>
      </trkpt>
      <trkpt lat="46.102434005588293" lon="8.297233041375876">
        <ele>250.87700000000001</ele>
        <time>2013-04-07T11:04:51Z</time>
      </trkpt>
      <trkpt lat="46.102304002270103" lon="8.297041011974216">
        <ele>251.262</ele>
        <time>2013-04-07T11:04:56Z</time>
      </trkpt>
      <trkpt lat="46.101995967328548" lon="8.296759966760874">
        <ele>251.03200000000001</ele>
        <time>2013-04-07T11:05:03Z</time>
      </trkpt>
      <trkpt lat="46.101574022322893" lon="8.296410022303462">
        <ele>250.47999999999999</ele>
        <time>2013-04-07T11:05:11Z</time>
      </trkpt>
      <trkpt lat="46.101186024025083" lon="8.296025963500142">
        <ele>250.34399999999999</ele>
        <time>2013-04-07T11:05:18Z</time>
      </trkpt>
      <trkpt lat="46.101083010435104" lon="8.295908030122519">
        <ele>250.304</ele>
        <time>2013-04-07T11:05:20Z</time>
      </trkpt>
      <trkpt lat="46.100887963548303" lon="8.29548298381269">
        <ele>250.501</ele>
        <time>2013-04-07T11:05:25Z</time>
      </trkpt>
      <trkpt lat="46.100786039605737" lon="8.29533495940268">
        <ele>250.55199999999999</ele>
        <time>2013-04-07T11:05:27Z</time>
      </trkpt>
      <trkpt lat="46.100152032449841" lon="8.294606991112232">
        <ele>248.655</ele>
        <time>2013-04-07T11:05:38Z</time>
      </trkpt>
      <trkpt lat="46.099540991708636" lon="8.293922021985054">
        <ele>248.31399999999999</ele>
        <time>2013-04-07T11:05:49Z</time>
      </trkpt>
      <trkpt lat="46.098998012021184" lon="8.293317016214132">
        <ele>249.03100000000001</ele>
        <time>2013-04-07T11:05:59Z</time>
      </trkpt>
      <trkpt lat="46.098441034555435" lon="8.292697006836534">
        <ele>247.733</ele>
        <time>2013-04-07T11:06:09Z</time>
      </trkpt>
      <trkpt lat="46.097646011039615" lon="8.291825037449598">
        <ele>247.285</ele>
        <time>2013-04-07T11:06:23Z</time>
      </trkpt>
      <trkpt lat="46.097000017762184" lon="8.291111988946796">
        <ele>247.70699999999999</ele>
        <time>2013-04-07T11:06:35Z</time>
      </trkpt>
      <trkpt lat="46.096428036689758" lon="8.290483010932803">
        <ele>245.88399999999999</ele>
        <time>2013-04-07T11:06:46Z</time>
      </trkpt>
      <trkpt lat="46.095888996496797" lon="8.289888985455036">
        <ele>245.608</ele>
        <time>2013-04-07T11:06:56Z</time>
      </trkpt>
      <trkpt lat="46.095293965190649" lon="8.289232011884451">
        <ele>244.86600000000001</ele>
        <time>2013-04-07T11:07:07Z</time>
      </trkpt>
      <trkpt lat="46.094653001055121" lon="8.288529021665454">
        <ele>244.17099999999999</ele>
        <time>2013-04-07T11:07:19Z</time>
      </trkpt>
      <trkpt lat="46.093950010836124" lon="8.287756964564323">
        <ele>243.57599999999999</ele>
        <time>2013-04-07T11:07:32Z</time>
      </trkpt>
      <trkpt lat="46.093341987580061" lon="8.287089010700584">
        <ele>242.96299999999999</ele>
        <time>2013-04-07T11:07:43Z</time>
      </trkpt>
      <trkpt lat="46.092685014009476" lon="8.286359030753374">
        <ele>242.67400000000001</ele>
        <time>2013-04-07T11:07:55Z</time>
      </trkpt>
      <trkpt lat="46.092112027108669" lon="8.285731980577111">
        <ele>242.45699999999999</ele>
        <time>2013-04-07T11:08:06Z</time>
      </trkpt>
      <trkpt lat="46.091541973873973" lon="8.285101996734738">
        <ele>241.5</ele>
        <time>2013-04-07T11:08:17Z</time>
      </trkpt>
      <trkpt lat="46.090949960052967" lon="8.284448040649295">
        <ele>241.14099999999999</ele>
        <time>2013-04-07T11:08:28Z</time>
      </trkpt>
      <trkpt lat="46.09039600007236" lon="8.283833982422948">
        <ele>240.74100000000001</ele>
        <time>2013-04-07T11:08:38Z</time>
      </trkpt>
      <trkpt lat="46.089559989050031" lon="8.282907027751207">
        <ele>240.41900000000001</ele>
        <time>2013-04-07T11:08:53Z</time>
      </trkpt>
      <trkpt lat="46.089013991877437" lon="8.282261034473777">
        <ele>239.65100000000001</ele>
        <time>2013-04-07T11:09:03Z</time>
      </trkpt>
      <trkpt lat="46.088614007458091" lon="8.281802041456103">
        <ele>238.84</ele>
        <time>2013-04-07T11:09:11Z</time>
      </trkpt>
      <trkpt lat="46.088202958926558" lon="8.281346987932921">
        <ele>237.791</ele>
        <time>2013-04-07T11:09:20Z</time>
      </trkpt>
      <trkpt lat="46.087691998109221" lon="8.280791016295552">
        <ele>237.52000000000001</ele>
        <time>2013-04-07T11:09:31Z</time>
      </trkpt>
      <trkpt lat="46.087312968447804" lon="8.280418021604419">
        <ele>237.71600000000001</ele>
        <time>2013-04-07T11:09:39Z</time>
      </trkpt>
      <trkpt lat="46.086989007890224" lon="8.280063970014453">
        <ele>236.93799999999999</ele>
        <time>2013-04-07T11:09:46Z</time>
      </trkpt>
      <trkpt lat="46.086580976843834" lon="8.279610006138682">
        <ele>236.899</ele>
        <time>2013-04-07T11:09:55Z</time>
      </trkpt>
      <trkpt lat="46.086111003533006" lon="8.279094016179442">
        <ele>237.316</ele>
        <time>2013-04-07T11:10:05Z</time>
      </trkpt>
      <trkpt lat="46.08577799052" lon="8.27872303314507">
        <ele>236.80799999999999</ele>
        <time>2013-04-07T11:10:12Z</time>
      </trkpt>
      <trkpt lat="46.085403990000486" lon="8.278308967128396">
        <ele>236.816</ele>
        <time>2013-04-07T11:10:20Z</time>
      </trkpt>
      <trkpt lat="46.085010040551424" lon="8.277877969667316">
        <ele>236.40299999999999</ele>
        <time>2013-04-07T11:10:29Z</time>
      </trkpt>
      <trkpt lat="46.08459597453475" lon="8.277425011619926">
        <ele>235.94200000000001</ele>
        <time>2013-04-07T11:10:38Z</time>
      </trkpt>
      <trkpt lat="46.084285005927086" lon="8.277080012485385">
        <ele>235.892</ele>
        <time>2013-04-07T11:10:45Z</time>
      </trkpt>
      <trkpt lat="46.083904970437288" lon="8.276665024459362">
        <ele>235.81800000000001</ele>
        <time>2013-04-07T11:10:53Z</time>
      </trkpt>
      <trkpt lat="46.083480007946491" lon="8.276196978986263">
        <ele>235.74700000000001</ele>
        <time>2013-04-07T11:11:02Z</time>
      </trkpt>
      <trkpt lat="46.08304800465703" lon="8.275725999847055">
        <ele>235.68899999999999</ele>
        <time>2013-04-07T11:11:11Z</time>
      </trkpt>
      <trkpt lat="46.082527991384268" lon="8.275151001289487">
        <ele>236.34</ele>
        <time>2013-04-07T11:11:22Z</time>
      </trkpt>
      <trkpt lat="46.082163965329528" lon="8.274746993556619">
        <ele>235.50899999999999</ele>
        <time>2013-04-07T11:11:30Z</time>
      </trkpt>
      <trkpt lat="46.081762975081801" lon="8.274311972782016">
        <ele>235.709</ele>
        <time>2013-04-07T11:11:38Z</time>
      </trkpt>
      <trkpt lat="46.081188982352614" lon="8.273681988939643">
        <ele>235.36199999999999</ele>
        <time>2013-04-07T11:11:49Z</time>
      </trkpt>
      <trkpt lat="46.08070501126349" lon="8.273152001202107">
        <ele>235.24799999999999</ele>
        <time>2013-04-07T11:11:59Z</time>
      </trkpt>
      <trkpt lat="46.080223973840475" lon="8.272615978494287">
        <ele>235.303</ele>
        <time>2013-04-07T11:12:09Z</time>
      </trkpt>
      <trkpt lat="46.079798005521297" lon="8.272150028496981">
        <ele>235.76900000000001</ele>
        <time>2013-04-07T11:12:18Z</time>
      </trkpt>
      <trkpt lat="46.079419981688261" lon="8.271743003278971">
        <ele>235.02000000000001</ele>
        <time>2013-04-07T11:12:27Z</time>
      </trkpt>
      <trkpt lat="46.079120999202132" lon="8.271413007751107">
        <ele>236.11199999999999</ele>
        <time>2013-04-07T11:12:35Z</time>
      </trkpt>
      <trkpt lat="46.078851018100977" lon="8.271120982244611">
        <ele>236.53800000000001</ele>
        <time>2013-04-07T11:12:43Z</time>
      </trkpt>
      <trkpt lat="46.078737024217844" lon="8.2710300385952">
        <ele>236.64599999999999</ele>
        <time>2013-04-07T11:12:46Z</time>
      </trkpt>
      <trkpt lat="46.078569972887635" lon="8.270915038883686">
        <ele>236.84</ele>
        <time>2013-04-07T11:12:50Z</time>
      </trkpt>
      <trkpt lat="46.078176023438573" lon="8.270496027544141">
        <ele>237.03399999999999</ele>
        <time>2013-04-07T11:13:01Z</time>
      </trkpt>
      <trkpt lat="46.078077033162117" lon="8.27038899064064">
        <ele>236.602</ele>
        <time>2013-04-07T11:13:06Z</time>
      </trkpt>
      <trkpt lat="46.078086001798511" lon="8.270397959277034">
        <ele>236.29300000000001</ele>
        <time>2013-04-07T11:13:48Z</time>
      </trkpt>
      <trkpt lat="46.078079966828227" lon="8.270395025610924">
        <ele>236.18000000000001</ele>
        <time>2013-04-07T11:13:55Z</time>
      </trkpt>
      <trkpt lat="46.078093964606524" lon="8.270405000075698">
        <ele>236.52600000000001</ele>
        <time>2013-04-07T11:14:15Z</time>
      </trkpt>
      <trkpt lat="46.078082984313369" lon="8.270413968712091">
        <ele>236.446</ele>
        <time>2013-04-07T11:14:24Z</time>
      </trkpt>
      <trkpt lat="46.078065969049931" lon="8.270428972318769">
        <ele>236.45500000000001</ele>
        <time>2013-04-07T11:14:31Z</time>
      </trkpt>
      <trkpt lat="46.078040990978479" lon="8.270401982590556">
        <ele>236.56100000000001</ele>
        <time>2013-04-07T11:14:45Z</time>
      </trkpt>
      <trkpt lat="46.078029004856944" lon="8.270379016175866">
        <ele>236.441</ele>
        <time>2013-04-07T11:14:50Z</time>
      </trkpt>
      <trkpt lat="46.078038979321718" lon="8.270423021167517">
        <ele>236.03</ele>
        <time>2013-04-07T11:15:01Z</time>
      </trkpt>
      <trkpt lat="46.078063035383821" lon="8.270435007289052">
        <ele>236.583</ele>
        <time>2013-04-07T11:15:07Z</time>
      </trkpt>
      <trkpt lat="46.078090025112033" lon="8.270332999527454">
        <ele>235.50200000000001</ele>
        <time>2013-04-07T11:15:14Z</time>
      </trkpt>
      <trkpt lat="46.078077033162117" lon="8.270338028669357">
        <ele>236.03399999999999</ele>
        <time>2013-04-07T11:15:23Z</time>
      </trkpt>
      <trkpt lat="46.078098993748426" lon="8.270363006740809">
        <ele>236.12700000000001</ele>
        <time>2013-04-07T11:15:29Z</time>
      </trkpt>
      <trkpt lat="46.078098993748426" lon="8.270371975377202">
        <ele>236.08600000000001</ele>
        <time>2013-04-07T11:15:34Z</time>
      </trkpt>
      <trkpt lat="46.078092036768794" lon="8.270397037267685">
        <ele>236.029</ele>
        <time>2013-04-07T11:15:38Z</time>
      </trkpt>
      <trkpt lat="46.078065969049931" lon="8.270371975377202">
        <ele>236.01300000000001</ele>
        <time>2013-04-07T11:15:45Z</time>
      </trkpt>
      <trkpt lat="46.078098993748426" lon="8.270444981753826">
        <ele>236.63200000000001</ele>
        <time>2013-04-07T11:15:53Z</time>
      </trkpt>
      <trkpt lat="46.078063035383821" lon="8.270480018109083">
        <ele>236.511</ele>
        <time>2013-04-07T11:15:59Z</time>
      </trkpt>
      <trkpt lat="46.078023975715041" lon="8.270477000623941">
        <ele>236.39599999999999</ele>
        <time>2013-04-07T11:16:01Z</time>
      </trkpt>
      <trkpt lat="46.07795599848032" lon="8.270465014502406">
        <ele>236.08500000000001</ele>
        <time>2013-04-07T11:16:07Z</time>
      </trkpt>
      <trkpt lat="46.077972007915378" lon="8.270479012280703">
        <ele>235.91900000000001</ele>
        <time>2013-04-07T11:16:09Z</time>
      </trkpt>
      <trkpt lat="46.077987011522055" lon="8.270586971193552">
        <ele>236.14400000000001</ele>
        <time>2013-04-07T11:16:16Z</time>
      </trkpt>
      <trkpt lat="46.077950969338417" lon="8.270634999498725">
        <ele>235.33799999999999</ele>
        <time>2013-04-07T11:16:22Z</time>
      </trkpt>
      <trkpt lat="46.077949041500688" lon="8.270685039460659">
        <ele>235.495</ele>
        <time>2013-04-07T11:16:30Z</time>
      </trkpt>
      <trkpt lat="46.077934959903359" lon="8.270699037238956">
        <ele>234.965</ele>
        <time>2013-04-07T11:16:49Z</time>
      </trkpt>
      <trkpt lat="46.077832030132413" lon="8.270743964239955">
        <ele>234.958</ele>
        <time>2013-04-07T11:16:58Z</time>
      </trkpt>
      <trkpt lat="46.077831024304032" lon="8.270733989775181">
        <ele>234.78299999999999</ele>
        <time>2013-04-07T11:17:06Z</time>
      </trkpt>
      <trkpt lat="46.077862037345767" lon="8.270702976733446">
        <ele>234.71899999999999</ele>
        <time>2013-04-07T11:17:12Z</time>
      </trkpt>
      <trkpt lat="46.077878968790174" lon="8.270687973126769">
        <ele>234.81100000000001</ele>
        <time>2013-04-07T11:17:18Z</time>
      </trkpt>
      <trkpt lat="46.077707977965474" lon="8.27088100835681">
        <ele>234.81100000000001</ele>
        <time>2013-04-07T11:17:32Z</time>
      </trkpt>
      <trkpt lat="46.077738991007209" lon="8.270851001143456">
        <ele>234.61199999999999</ele>
        <time>2013-04-07T11:17:53Z</time>
      </trkpt>
      <trkpt lat="46.077901013195515" lon="8.270765002816916">
        <ele>235.08199999999999</ele>
        <time>2013-04-07T11:18:19Z</time>
      </trkpt>
      <trkpt lat="46.077951975166798" lon="8.270705994218588">
        <ele>234.316</ele>
        <time>2013-04-07T11:19:21Z</time>
      </trkpt>
      <trkpt lat="46.077861031517386" lon="8.270739018917084">
        <ele>234.53</ele>
        <time>2013-04-07T11:19:56Z</time>
      </trkpt>
      <trkpt lat="46.077851979061961" lon="8.270744970068336">
        <ele>234.37200000000001</ele>
        <time>2013-04-07T11:19:57Z</time>
      </trkpt>
      <trkpt lat="46.077867988497019" lon="8.270734995603561">
        <ele>234.25399999999999</ele>
        <time>2013-04-07T11:20:04Z</time>
      </trkpt>
      <trkpt lat="46.077831024304032" lon="8.270769026130438">
        <ele>234.26300000000001</ele>
        <time>2013-04-07T11:20:13Z</time>
      </trkpt>
      <trkpt lat="46.077799005433917" lon="8.270809007808566">
        <ele>234.209</ele>
        <time>2013-04-07T11:20:21Z</time>
      </trkpt>
      <trkpt lat="46.077928002923727" lon="8.270717980340123">
        <ele>233.80099999999999</ele>
        <time>2013-04-07T11:20:39Z</time>
      </trkpt>
      <trkpt lat="46.078003020957112" lon="8.270659977570176">
        <ele>233.76400000000001</ele>
        <time>2013-04-07T11:20:47Z</time>
      </trkpt>
      <trkpt lat="46.077957004308701" lon="8.270698031410575">
        <ele>233.86699999999999</ele>
        <time>2013-04-07T11:21:01Z</time>
      </trkpt>
      <trkpt lat="46.077876035124063" lon="8.270752010867">
        <ele>233.602</ele>
        <time>2013-04-07T11:21:13Z</time>
      </trkpt>
      <trkpt lat="46.077791964635253" lon="8.270803978666663">
        <ele>233.465</ele>
        <time>2013-04-07T11:21:21Z</time>
      </trkpt>
      <trkpt lat="46.077845022082329" lon="8.270805990323424">
        <ele>233.35300000000001</ele>
        <time>2013-04-07T11:21:40Z</time>
      </trkpt>
      <trkpt lat="46.07787000015378" lon="8.270789980888367">
        <ele>233.315</ele>
        <time>2013-04-07T11:21:44Z</time>
      </trkpt>
      <trkpt lat="46.077895984053612" lon="8.270768020302057">
        <ele>233.35400000000001</ele>
        <time>2013-04-07T11:21:52Z</time>
      </trkpt>
      <trkpt lat="46.078118020668626" lon="8.270556963980198">
        <ele>233.405</ele>
        <time>2013-04-07T11:22:14Z</time>
      </trkpt>
      <trkpt lat="46.078146016225219" lon="8.270532991737127">
        <ele>233.19300000000001</ele>
        <time>2013-04-07T11:22:18Z</time>
      </trkpt>
      <trkpt lat="46.077896989881992" lon="8.270742036402226">
        <ele>232.92400000000001</ele>
        <time>2013-04-07T11:22:46Z</time>
      </trkpt>
      <trkpt lat="46.077853990718722" lon="8.270773971453309">
        <ele>232.999</ele>
        <time>2013-04-07T11:22:51Z</time>
      </trkpt>
      <trkpt lat="46.077760029584169" lon="8.270844966173172">
        <ele>232.61699999999999</ele>
        <time>2013-04-07T11:22:58Z</time>
      </trkpt>
      <trkpt lat="46.07772096991539" lon="8.27083800919354">
        <ele>232.43600000000001</ele>
        <time>2013-04-07T11:23:12Z</time>
      </trkpt>
      <trkpt lat="46.077765980735421" lon="8.270823005586863">
        <ele>232.62899999999999</ele>
        <time>2013-04-07T11:23:22Z</time>
      </trkpt>
      <trkpt lat="46.077852984890342" lon="8.270786963403225">
        <ele>232.75899999999999</ele>
        <time>2013-04-07T11:23:28Z</time>
      </trkpt>
      <trkpt lat="46.077910987660289" lon="8.270757040008903">
        <ele>232.721</ele>
        <time>2013-04-07T11:23:32Z</time>
      </trkpt>
      <trkpt lat="46.077975025400519" lon="8.270711023360491">
        <ele>232.90100000000001</ele>
        <time>2013-04-07T11:23:36Z</time>
      </trkpt>
      <trkpt lat="46.077971002086997" lon="8.270713035017252">
        <ele>232.25899999999999</ele>
        <time>2013-04-07T11:23:42Z</time>
      </trkpt>
      <trkpt lat="46.077946024015546" lon="8.270729966461659">
        <ele>232.27699999999999</ele>
        <time>2013-04-07T11:23:43Z</time>
      </trkpt>
      <trkpt lat="46.077900007367134" lon="8.270756034180522">
        <ele>232.339</ele>
        <time>2013-04-07T11:23:47Z</time>
      </trkpt>
      <trkpt lat="46.07791299931705" lon="8.270730972290039">
        <ele>232.09100000000001</ele>
        <time>2013-04-07T11:23:53Z</time>
      </trkpt>
      <trkpt lat="46.077963961288333" lon="8.270659977570176">
        <ele>232.06899999999999</ele>
        <time>2013-04-07T11:23:59Z</time>
      </trkpt>
      <trkpt lat="46.077974019572139" lon="8.270687973126769">
        <ele>231.65000000000001</ele>
        <time>2013-04-07T11:24:27Z</time>
      </trkpt>
      <trkpt lat="46.077986005693674" lon="8.270659977570176">
        <ele>231.202</ele>
        <time>2013-04-07T11:24:42Z</time>
      </trkpt>
      <trkpt lat="46.077954992651939" lon="8.270687973126769">
        <ele>231.15799999999999</ele>
        <time>2013-04-07T11:24:46Z</time>
      </trkpt>
      <trkpt lat="46.077866982668638" lon="8.270761985331774">
        <ele>231.31700000000001</ele>
        <time>2013-04-07T11:24:52Z</time>
      </trkpt>
      <trkpt lat="46.077770004048944" lon="8.270844966173172">
        <ele>231.34100000000001</ele>
        <time>2013-04-07T11:24:59Z</time>
      </trkpt>
      <trkpt lat="46.077756006270647" lon="8.270857036113739">
        <ele>231.47399999999999</ele>
        <time>2013-04-07T11:25:06Z</time>
      </trkpt>
      <trkpt lat="46.077766986563802" lon="8.270853012800217">
        <ele>231.47499999999999</ele>
        <time>2013-04-07T11:25:16Z</time>
      </trkpt>
      <trkpt lat="46.077859019860625" lon="8.270781012251973">
        <ele>231.41</ele>
        <time>2013-04-07T11:25:23Z</time>
      </trkpt>
      <trkpt lat="46.077918028458953" lon="8.270741030573845">
        <ele>231.631</ele>
        <time>2013-04-07T11:25:29Z</time>
      </trkpt>
      <trkpt lat="46.077959015965462" lon="8.270704988390207">
        <ele>231.28399999999999</ele>
        <time>2013-04-07T11:26:02Z</time>
      </trkpt>
      <trkpt lat="46.077992962673306" lon="8.270687973126769">
        <ele>231.18799999999999</ele>
        <time>2013-04-07T11:26:08Z</time>
      </trkpt>
      <trkpt lat="46.078096982091665" lon="8.270627036690712">
        <ele>230.63</ele>
        <time>2013-04-07T11:26:58Z</time>
      </trkpt>
      <trkpt lat="46.078142998740077" lon="8.270626030862331">
        <ele>230.584</ele>
        <time>2013-04-07T11:27:21Z</time>
      </trkpt>
      <trkpt lat="46.078087007626891" lon="8.270619995892048">
        <ele>230.08099999999999</ele>
        <time>2013-04-07T11:28:05Z</time>
      </trkpt>
      <trkpt lat="46.078061023727059" lon="8.270633993670344">
        <ele>229.90000000000001</ele>
        <time>2013-04-07T11:28:21Z</time>
      </trkpt>
      <trkpt lat="46.0781279951334" lon="8.270579008385539">
        <ele>229.72</ele>
        <time>2013-04-07T11:28:32Z</time>
      </trkpt>
      <trkpt lat="46.078051971271634" lon="8.270656038075686">
        <ele>229.11099999999999</ele>
        <time>2013-04-07T11:30:08Z</time>
      </trkpt>
      <trkpt lat="46.078036967664957" lon="8.270655032247305">
        <ele>228.751</ele>
        <time>2013-04-07T11:30:27Z</time>
      </trkpt>
      <trkpt lat="46.077979970723391" lon="8.270684033632278">
        <ele>228.93799999999999</ele>
        <time>2013-04-07T11:32:55Z</time>
      </trkpt>
      <trkpt lat="46.077953986823559" lon="8.270704988390207">
        <ele>228.715</ele>
        <time>2013-04-07T11:33:01Z</time>
      </trkpt>
      <trkpt lat="46.077951975166798" lon="8.270708005875349">
        <ele>229.16</ele>
        <time>2013-04-07T11:33:11Z</time>
      </trkpt>
      <trkpt lat="46.077977959066629" lon="8.27064597979188">
        <ele>228.80799999999999</ele>
        <time>2013-04-07T11:34:02Z</time>
      </trkpt>
      <trkpt lat="46.078031016513705" lon="8.270587977021933">
        <ele>229.398</ele>
        <time>2013-04-07T11:34:45Z</time>
      </trkpt>
      <trkpt lat="46.078027999028563" lon="8.270613960921764">
        <ele>228.75700000000001</ele>
        <time>2013-04-07T11:34:56Z</time>
      </trkpt>
      <trkpt lat="46.078011989593506" lon="8.270627958700061">
        <ele>228.869</ele>
        <time>2013-04-07T11:34:59Z</time>
      </trkpt>
      <trkpt lat="46.077953986823559" lon="8.270676992833614">
        <ele>228.81299999999999</ele>
        <time>2013-04-07T11:35:07Z</time>
      </trkpt>
      <trkpt lat="46.077920040115714" lon="8.270685039460659">
        <ele>228.91399999999999</ele>
        <time>2013-04-07T11:35:17Z</time>
      </trkpt>
      <trkpt lat="46.077962033450603" lon="8.270680010318756">
        <ele>228.75899999999999</ele>
        <time>2013-04-07T11:35:23Z</time>
      </trkpt>
      <trkpt lat="46.077958010137081" lon="8.270699037238956">
        <ele>228.09999999999999</ele>
        <time>2013-04-07T11:35:29Z</time>
      </trkpt>
      <trkpt lat="46.077878968790174" lon="8.270820993930101">
        <ele>228.64599999999999</ele>
        <time>2013-04-07T11:36:53Z</time>
      </trkpt>
      <trkpt lat="46.077834041789174" lon="8.270878996700048">
        <ele>228.262</ele>
        <time>2013-04-07T11:37:04Z</time>
      </trkpt>
      <trkpt lat="46.077900007367134" lon="8.270790986716747">
        <ele>228.80799999999999</ele>
        <time>2013-04-07T11:37:45Z</time>
      </trkpt>
      <trkpt lat="46.077921967953444" lon="8.270728038623929">
        <ele>228.51599999999999</ele>
        <time>2013-04-07T11:37:53Z</time>
      </trkpt>
      <trkpt lat="46.077940994873643" lon="8.270712029188871">
        <ele>228.66399999999999</ele>
        <time>2013-04-07T11:38:00Z</time>
      </trkpt>
      <trkpt lat="46.077932026237249" lon="8.270674981176853">
        <ele>228.53</ele>
        <time>2013-04-07T11:38:07Z</time>
      </trkpt>
      <trkpt lat="46.077910987660289" lon="8.270683027803898">
        <ele>228.511</ele>
        <time>2013-04-07T11:38:14Z</time>
      </trkpt>
      <trkpt lat="46.07793596573174" lon="8.270681016147137">
        <ele>228.67500000000001</ele>
        <time>2013-04-07T11:38:21Z</time>
      </trkpt>
      <trkpt lat="46.077943006530404" lon="8.270683027803898">
        <ele>228.64599999999999</ele>
        <time>2013-04-07T11:38:27Z</time>
      </trkpt>
      <trkpt lat="46.077953986823559" lon="8.270653020590544">
        <ele>228.571</ele>
        <time>2013-04-07T11:38:33Z</time>
      </trkpt>
      <trkpt lat="46.077961027622223" lon="8.270691996440291">
        <ele>228.34100000000001</ele>
        <time>2013-04-07T11:38:40Z</time>
      </trkpt>
      <trkpt lat="46.077953986823559" lon="8.270741030573845">
        <ele>228.40600000000001</ele>
        <time>2013-04-07T11:38:46Z</time>
      </trkpt>
      <trkpt lat="46.07793596573174" lon="8.270771037787199">
        <ele>228.41399999999999</ele>
        <time>2013-04-07T11:38:53Z</time>
      </trkpt>
      <trkpt lat="46.077937977388501" lon="8.270784029737115">
        <ele>228.34100000000001</ele>
        <time>2013-04-07T11:38:55Z</time>
      </trkpt>
      <trkpt lat="46.077920962125063" lon="8.270812025293708">
        <ele>228.46100000000001</ele>
        <time>2013-04-07T11:39:02Z</time>
      </trkpt>
      <trkpt lat="46.077885003760457" lon="8.270829962566495">
        <ele>228.03299999999999</ele>
        <time>2013-04-07T11:39:15Z</time>
      </trkpt>
      <trkpt lat="46.077948035672307" lon="8.270777994766831">
        <ele>228.536</ele>
        <time>2013-04-07T11:39:28Z</time>
      </trkpt>
      <trkpt lat="46.077977037057281" lon="8.270728960633278">
        <ele>228.62899999999999</ele>
        <time>2013-04-07T11:39:33Z</time>
      </trkpt>
      <trkpt lat="46.077990029007196" lon="8.270719991996884">
        <ele>228.20699999999999</ele>
        <time>2013-04-07T11:39:39Z</time>
      </trkpt>
      <trkpt lat="46.078001009300351" lon="8.270738013088703">
        <ele>228.40299999999999</ele>
        <time>2013-04-07T11:39:47Z</time>
      </trkpt>
      <trkpt lat="46.077991034835577" lon="8.270702976733446">
        <ele>228.61699999999999</ele>
        <time>2013-04-07T11:39:54Z</time>
      </trkpt>
      <trkpt lat="46.077926997095346" lon="8.27079501003027">
        <ele>228.541</ele>
        <time>2013-04-07T11:40:03Z</time>
      </trkpt>
      <trkpt lat="46.077914005145431" lon="8.270848989486694">
        <ele>228.51499999999999</ele>
        <time>2013-04-07T11:40:11Z</time>
      </trkpt>
      <trkpt lat="46.077883997932076" lon="8.270869022235274">
        <ele>228.38</ele>
        <time>2013-04-07T11:40:17Z</time>
      </trkpt>
      <trkpt lat="46.077879974618554" lon="8.270877990871668">
        <ele>228.40899999999999</ele>
        <time>2013-04-07T11:40:18Z</time>
      </trkpt>
      <trkpt lat="46.077896989881992" lon="8.270916966721416">
        <ele>228.399</ele>
        <time>2013-04-07T11:40:22Z</time>
      </trkpt>
      <trkpt lat="46.077877962961793" lon="8.270953008905053">
        <ele>228.37700000000001</ele>
        <time>2013-04-07T11:40:27Z</time>
      </trkpt>
      <trkpt lat="46.077875029295683" lon="8.270943034440279">
        <ele>228.768</ele>
        <time>2013-04-07T11:40:33Z</time>
      </trkpt>
      <trkpt lat="46.077904030680656" lon="8.270888971164823">
        <ele>228.90799999999999</ele>
        <time>2013-04-07T11:40:41Z</time>
      </trkpt>
      <trkpt lat="46.077938983216882" lon="8.27086198143661">
        <ele>228.87899999999999</ele>
        <time>2013-04-07T11:40:46Z</time>
      </trkpt>
      <trkpt lat="46.077905036509037" lon="8.270905986428261">
        <ele>228.75700000000001</ele>
        <time>2013-04-07T11:40:49Z</time>
      </trkpt>
      <trkpt lat="46.077877040952444" lon="8.270997013896704">
        <ele>228.96299999999999</ele>
        <time>2013-04-07T11:40:56Z</time>
      </trkpt>
      <trkpt lat="46.077872011810541" lon="8.271064991131425">
        <ele>229.11500000000001</ele>
        <time>2013-04-07T11:41:06Z</time>
      </trkpt>
      <trkpt lat="46.077866982668638" lon="8.271030960604549">
        <ele>229.08099999999999</ele>
        <time>2013-04-07T11:41:13Z</time>
      </trkpt>
      <trkpt lat="46.077875029295683" lon="8.271015034988523">
        <ele>229.292</ele>
        <time>2013-04-07T11:41:28Z</time>
      </trkpt>
      <trkpt lat="46.07793596573174" lon="8.270971029996872">
        <ele>229.16200000000001</ele>
        <time>2013-04-07T11:41:48Z</time>
      </trkpt>
      <trkpt lat="46.077910987660289" lon="8.270886959508061">
        <ele>229.428</ele>
        <time>2013-04-07T11:41:55Z</time>
      </trkpt>
      <trkpt lat="46.077992962673306" lon="8.270820993930101">
        <ele>229.512</ele>
        <time>2013-04-07T11:42:07Z</time>
      </trkpt>
      <trkpt lat="46.07808499597013" lon="8.27077598311007">
        <ele>229.624</ele>
        <time>2013-04-07T11:42:18Z</time>
      </trkpt>
      <trkpt lat="46.078103017061949" lon="8.270740024745464">
        <ele>229.53899999999999</ele>
        <time>2013-04-07T11:42:27Z</time>
      </trkpt>
      <trkpt lat="46.078146016225219" lon="8.270648997277021">
        <ele>229.41</ele>
        <time>2013-04-07T11:42:37Z</time>
      </trkpt>
      <trkpt lat="46.078190021216869" lon="8.270594011992216">
        <ele>229.28399999999999</ele>
        <time>2013-04-07T11:42:41Z</time>
      </trkpt>
      <trkpt lat="46.078189015388489" lon="8.270544977858663">
        <ele>229.09399999999999</ele>
        <time>2013-04-07T11:42:47Z</time>
      </trkpt>
      <trkpt lat="46.078223967924714" lon="8.270442970097065">
        <ele>228.845</ele>
        <time>2013-04-07T11:42:58Z</time>
      </trkpt>
      <trkpt lat="46.078083990141749" lon="8.27066701836884">
        <ele>228.363</ele>
        <time>2013-04-07T11:43:24Z</time>
      </trkpt>
      <trkpt lat="46.078006038442254" lon="8.270748993381858">
        <ele>228.386</ele>
        <time>2013-04-07T11:43:32Z</time>
      </trkpt>
      <trkpt lat="46.078047025948763" lon="8.270698031410575">
        <ele>228.30500000000001</ele>
        <time>2013-04-07T11:43:39Z</time>
      </trkpt>
      <trkpt lat="46.078130006790161" lon="8.270593006163836">
        <ele>228.19200000000001</ele>
        <time>2013-04-07T11:44:20Z</time>
      </trkpt>
      <trkpt lat="46.078116009011865" lon="8.270613038912416">
        <ele>227.87</ele>
        <time>2013-04-07T11:44:28Z</time>
      </trkpt>
      <trkpt lat="46.07802196405828" lon="8.270632987841964">
        <ele>228.083</ele>
        <time>2013-04-07T11:45:57Z</time>
      </trkpt>
      <trkpt lat="46.077969996258616" lon="8.270671041682363">
        <ele>228.00399999999999</ele>
        <time>2013-04-07T11:46:04Z</time>
      </trkpt>
      <trkpt lat="46.077920962125063" lon="8.270757962018251">
        <ele>227.65600000000001</ele>
        <time>2013-04-07T11:46:16Z</time>
      </trkpt>
      <trkpt lat="46.077949041500688" lon="8.270771037787199">
        <ele>227.55199999999999</ele>
        <time>2013-04-07T11:46:33Z</time>
      </trkpt>
      <trkpt lat="46.077981982380152" lon="8.270715968683362">
        <ele>227.655</ele>
        <time>2013-04-07T11:46:41Z</time>
      </trkpt>
      <trkpt lat="46.077943006530404" lon="8.270737007260323">
        <ele>227.709</ele>
        <time>2013-04-07T11:47:10Z</time>
      </trkpt>
      <trkpt lat="46.077929008752108" lon="8.270718986168504">
        <ele>227.79499999999999</ele>
        <time>2013-04-07T11:47:18Z</time>
      </trkpt>
      <trkpt lat="46.077842004597187" lon="8.270876985043287">
        <ele>227.34299999999999</ele>
        <time>2013-04-07T11:48:13Z</time>
      </trkpt>
      <trkpt lat="46.077787019312382" lon="8.270953008905053">
        <ele>227.63200000000001</ele>
        <time>2013-04-07T11:48:20Z</time>
      </trkpt>
      <trkpt lat="46.077862959355116" lon="8.270911015570164">
        <ele>227.92599999999999</ele>
        <time>2013-04-07T11:48:38Z</time>
      </trkpt>
      <trkpt lat="46.077886009588838" lon="8.270905986428261">
        <ele>227.84999999999999</ele>
        <time>2013-04-07T11:48:43Z</time>
      </trkpt>
      <trkpt lat="46.077866982668638" lon="8.270889976993203">
        <ele>227.69</ele>
        <time>2013-04-07T11:48:50Z</time>
      </trkpt>
      <trkpt lat="46.07789296656847" lon="8.270787969231606">
        <ele>227.99600000000001</ele>
        <time>2013-04-07T11:49:06Z</time>
      </trkpt>
      <trkpt lat="46.077901013195515" lon="8.270777994766831">
        <ele>228.00899999999999</ele>
        <time>2013-04-07T11:49:07Z</time>
      </trkpt>
      <trkpt lat="46.07791299931705" lon="8.270806996151805">
        <ele>227.83099999999999</ele>
        <time>2013-04-07T11:49:13Z</time>
      </trkpt>
      <trkpt lat="46.077931020408869" lon="8.27083800919354">
        <ele>228.14599999999999</ele>
        <time>2013-04-07T11:49:28Z</time>
      </trkpt>
      <trkpt lat="46.077910987660289" lon="8.270830968394876">
        <ele>228.14699999999999</ele>
        <time>2013-04-07T11:49:37Z</time>
      </trkpt>
      <trkpt lat="46.078006960451603" lon="8.270768020302057">
        <ele>227.98099999999999</ele>
        <time>2013-04-07T11:49:56Z</time>
      </trkpt>
      <trkpt lat="46.078038979321718" lon="8.270733989775181">
        <ele>228.19200000000001</ele>
        <time>2013-04-07T11:50:02Z</time>
      </trkpt>
      <trkpt lat="46.07806496322155" lon="8.270713035017252">
        <ele>227.749</ele>
        <time>2013-04-07T11:50:10Z</time>
      </trkpt>
      <trkpt lat="46.078054988756776" lon="8.270715968683362">
        <ele>227.67400000000001</ele>
        <time>2013-04-07T11:50:12Z</time>
      </trkpt>
      <trkpt lat="46.078058006241918" lon="8.270696019753814">
        <ele>227.70599999999999</ele>
        <time>2013-04-07T11:50:14Z</time>
      </trkpt>
      <trkpt lat="46.078063035383821" lon="8.27064698562026">
        <ele>227.63800000000001</ele>
        <time>2013-04-07T11:50:18Z</time>
      </trkpt>
      <trkpt lat="46.078000003471971" lon="8.270638016983867">
        <ele>227.66900000000001</ele>
        <time>2013-04-07T11:50:24Z</time>
      </trkpt>
      <trkpt lat="46.078067980706692" lon="8.270569033920765">
        <ele>227.57900000000001</ele>
        <time>2013-04-07T11:50:32Z</time>
      </trkpt>
      <trkpt lat="46.078103017061949" lon="8.270550007000566">
        <ele>227.553</ele>
        <time>2013-04-07T11:50:43Z</time>
      </trkpt>
      <trkpt lat="46.078133024275303" lon="8.270531985908747">
        <ele>227.49799999999999</ele>
        <time>2013-04-07T11:50:45Z</time>
      </trkpt>
      <trkpt lat="46.078095976263285" lon="8.27058001421392">
        <ele>227.51599999999999</ele>
        <time>2013-04-07T11:50:51Z</time>
      </trkpt>
      <trkpt lat="46.078016012907028" lon="8.270699959248304">
        <ele>227.48599999999999</ele>
        <time>2013-04-07T11:51:06Z</time>
      </trkpt>
      <trkpt lat="46.077992040663958" lon="8.270759973675013">
        <ele>227.583</ele>
        <time>2013-04-07T11:51:09Z</time>
      </trkpt>
      <trkpt lat="46.077992040663958" lon="8.270846977829933">
        <ele>227.702</ele>
        <time>2013-04-07T11:51:16Z</time>
      </trkpt>
      <trkpt lat="46.078012995421886" lon="8.270815964788199">
        <ele>227.84899999999999</ele>
        <time>2013-04-07T11:51:23Z</time>
      </trkpt>
      <trkpt lat="46.078012995421886" lon="8.270857958123088">
        <ele>227.83099999999999</ele>
        <time>2013-04-07T11:51:25Z</time>
      </trkpt>
      <trkpt lat="46.077979970723391" lon="8.270824011415243">
        <ele>227.761</ele>
        <time>2013-04-07T11:51:32Z</time>
      </trkpt>
      <trkpt lat="46.077977959066629" lon="8.270766008645296">
        <ele>227.85599999999999</ele>
        <time>2013-04-07T11:53:44Z</time>
      </trkpt>
      <trkpt lat="46.07799899764359" lon="8.270757962018251">
        <ele>227.87200000000001</ele>
        <time>2013-04-07T11:53:49Z</time>
      </trkpt>
      <trkpt lat="46.077928002923727" lon="8.270779000595212">
        <ele>227.12200000000001</ele>
        <time>2013-04-07T11:56:26Z</time>
      </trkpt>
      <trkpt lat="46.078027999028563" lon="8.270831974223256">
        <ele>227.196</ele>
        <time>2013-04-07T11:56:33Z</time>
      </trkpt>
      <trkpt lat="46.077987011522055" lon="8.270907998085022">
        <ele>225.06200000000001</ele>
        <time>2013-04-07T11:59:46Z</time>
      </trkpt>
      <trkpt lat="46.077990029007196" lon="8.27083800919354">
        <ele>224.459</ele>
        <time>2013-04-07T12:00:33Z</time>
      </trkpt>
      <trkpt lat="46.077983994036913" lon="8.270847983658314">
        <ele>224.36000000000001</ele>
        <time>2013-04-07T12:01:01Z</time>
      </trkpt>
      <trkpt lat="46.077906964346766" lon="8.27083800919354">
        <ele>224.46700000000001</ele>
        <time>2013-04-07T12:01:23Z</time>
      </trkpt>
      <trkpt lat="46.077925991266966" lon="8.270801967009902">
        <ele>224.631</ele>
        <time>2013-04-07T12:01:30Z</time>
      </trkpt>
      <trkpt lat="46.077962033450603" lon="8.270841026678681">
        <ele>224.625</ele>
        <time>2013-04-07T12:01:47Z</time>
      </trkpt>
      <trkpt lat="46.0779760312289" lon="8.270802972838283">
        <ele>224.70699999999999</ele>
        <time>2013-04-07T12:01:54Z</time>
      </trkpt>
      <trkpt lat="46.078003020957112" lon="8.270816970616579">
        <ele>224.54499999999999</ele>
        <time>2013-04-07T12:02:01Z</time>
      </trkpt>
      <trkpt lat="46.078023975715041" lon="8.270811019465327">
        <ele>224.30500000000001</ele>
        <time>2013-04-07T12:02:06Z</time>
      </trkpt>
      <trkpt lat="46.078045014292002" lon="8.270802972838283">
        <ele>224.40199999999999</ele>
        <time>2013-04-07T12:02:11Z</time>
      </trkpt>
      <trkpt lat="46.078035961836576" lon="8.270842032507062">
        <ele>224.50800000000001</ele>
        <time>2013-04-07T12:02:14Z</time>
      </trkpt>
      <trkpt lat="46.077948035672307" lon="8.270883020013571">
        <ele>224.53100000000001</ele>
        <time>2013-04-07T12:02:21Z</time>
      </trkpt>
      <trkpt lat="46.077920962125063" lon="8.270936999469996">
        <ele>224.298</ele>
        <time>2013-04-07T12:02:40Z</time>
      </trkpt>
      <trkpt lat="46.077820966020226" lon="8.270955020561814">
        <ele>224.23099999999999</ele>
        <time>2013-04-07T12:02:44Z</time>
      </trkpt>
      <trkpt lat="46.077905958518386" lon="8.270938005298376">
        <ele>224.17699999999999</ele>
        <time>2013-04-07T12:02:50Z</time>
      </trkpt>
      <trkpt lat="46.077894978225231" lon="8.270929036661983">
        <ele>224.13800000000001</ele>
        <time>2013-04-07T12:02:54Z</time>
      </trkpt>
      <trkpt lat="46.077899001538754" lon="8.270854018628597">
        <ele>224.316</ele>
        <time>2013-04-07T12:02:58Z</time>
      </trkpt>
      <trkpt lat="46.07791299931705" lon="8.270814036950469">
        <ele>224.434</ele>
        <time>2013-04-07T12:03:01Z</time>
      </trkpt>
      <trkpt lat="46.077920040115714" lon="8.270849995315075">
        <ele>224.292</ele>
        <time>2013-04-07T12:03:05Z</time>
      </trkpt>
      <trkpt lat="46.077963961288333" lon="8.270841026678681">
        <ele>224.24199999999999</ele>
        <time>2013-04-07T12:03:14Z</time>
      </trkpt>
      <trkpt lat="46.077991034835577" lon="8.270887965336442">
        <ele>224.512</ele>
        <time>2013-04-07T12:03:21Z</time>
      </trkpt>
      <trkpt lat="46.077992040663958" lon="8.270854018628597">
        <ele>224.666</ele>
        <time>2013-04-07T12:03:30Z</time>
      </trkpt>
      <trkpt lat="46.077975025400519" lon="8.270777994766831">
        <ele>224.76300000000001</ele>
        <time>2013-04-07T12:03:34Z</time>
      </trkpt>
      <trkpt lat="46.077960021793842" lon="8.270769026130438">
        <ele>224.89099999999999</ele>
        <time>2013-04-07T12:03:39Z</time>
      </trkpt>
      <trkpt lat="46.077952980995178" lon="8.270755028352141">
        <ele>224.87299999999999</ele>
        <time>2013-04-07T12:03:41Z</time>
      </trkpt>
      <trkpt lat="46.077965972945094" lon="8.27055998146534">
        <ele>224.68000000000001</ele>
        <time>2013-04-07T12:03:49Z</time>
      </trkpt>
      <trkpt lat="46.077975025400519" lon="8.270503990352154">
        <ele>224.774</ele>
        <time>2013-04-07T12:03:53Z</time>
      </trkpt>
      <trkpt lat="46.077957004308701" lon="8.270515976473689">
        <ele>224.53200000000001</ele>
        <time>2013-04-07T12:04:04Z</time>
      </trkpt>
      <trkpt lat="46.077966978773475" lon="8.270546989515424">
        <ele>224.44499999999999</ele>
        <time>2013-04-07T12:04:06Z</time>
      </trkpt>
      <trkpt lat="46.078069992363453" lon="8.270829040557146">
        <ele>224.52500000000001</ele>
        <time>2013-04-07T12:04:21Z</time>
      </trkpt>
      <trkpt lat="46.078005032613873" lon="8.270883020013571">
        <ele>224.53299999999999</ele>
        <time>2013-04-07T12:04:27Z</time>
      </trkpt>
      <trkpt lat="46.077968990430236" lon="8.270834991708398">
        <ele>224.357</ele>
        <time>2013-04-07T12:04:38Z</time>
      </trkpt>
      <trkpt lat="46.077944012358785" lon="8.270970024168491">
        <ele>224.37899999999999</ele>
        <time>2013-04-07T12:04:59Z</time>
      </trkpt>
      <trkpt lat="46.077957004308701" lon="8.271012017503381">
        <ele>224.45099999999999</ele>
        <time>2013-04-07T12:05:03Z</time>
      </trkpt>
      <trkpt lat="46.077983994036913" lon="8.270824011415243">
        <ele>224.38300000000001</ele>
        <time>2013-04-07T12:05:46Z</time>
      </trkpt>
      <trkpt lat="46.077963961288333" lon="8.270716974511743">
        <ele>224.37200000000001</ele>
        <time>2013-04-07T12:05:53Z</time>
      </trkpt>
      <trkpt lat="46.078008972108364" lon="8.27062401920557">
        <ele>224.321</ele>
        <time>2013-04-07T12:06:09Z</time>
      </trkpt>
      <trkpt lat="46.078104022890329" lon="8.270803978666663">
        <ele>224.494</ele>
        <time>2013-04-07T12:06:24Z</time>
      </trkpt>
      <trkpt lat="46.07817099429667" lon="8.270843038335443">
        <ele>224.27500000000001</ele>
        <time>2013-04-07T12:06:30Z</time>
      </trkpt>
      <trkpt lat="46.078172000125051" lon="8.270837003365159">
        <ele>224.24600000000001</ele>
        <time>2013-04-07T12:06:33Z</time>
      </trkpt>
      <trkpt lat="46.078121960163116" lon="8.270864998921752">
        <ele>224.245</ele>
        <time>2013-04-07T12:06:40Z</time>
      </trkpt>
      <trkpt lat="46.078052977100015" lon="8.270878996700048">
        <ele>224.13999999999999</ele>
        <time>2013-04-07T12:06:47Z</time>
      </trkpt>
      <trkpt lat="46.078032022342086" lon="8.270844966173172">
        <ele>224.13399999999999</ele>
        <time>2013-04-07T12:06:49Z</time>
      </trkpt>
      <trkpt lat="46.078039985150099" lon="8.270770031958818">
        <ele>224.137</ele>
        <time>2013-04-07T12:06:55Z</time>
      </trkpt>
      <trkpt lat="46.078022969886661" lon="8.270665006712079">
        <ele>224.08099999999999</ele>
        <time>2013-04-07T12:07:22Z</time>
      </trkpt>
      <trkpt lat="46.0779760312289" lon="8.27071001753211">
        <ele>223.87700000000001</ele>
        <time>2013-04-07T12:07:35Z</time>
      </trkpt>
      <trkpt lat="46.077969996258616" lon="8.270790986716747">
        <ele>223.833</ele>
        <time>2013-04-07T12:07:38Z</time>
      </trkpt>
      <trkpt lat="46.077910987660289" lon="8.270797021687031">
        <ele>223.84399999999999</ele>
        <time>2013-04-07T12:07:43Z</time>
      </trkpt>
      <trkpt lat="46.077936971560121" lon="8.270821999758482">
        <ele>223.87700000000001</ele>
        <time>2013-04-07T12:07:47Z</time>
      </trkpt>
      <trkpt lat="46.077980976551771" lon="8.270888971164823">
        <ele>223.791</ele>
        <time>2013-04-07T12:07:54Z</time>
      </trkpt>
      <trkpt lat="46.078009977936745" lon="8.270837003365159">
        <ele>223.91200000000001</ele>
        <time>2013-04-07T12:08:14Z</time>
      </trkpt>
      <trkpt lat="46.077997991815209" lon="8.270931970328093">
        <ele>223.96299999999999</ele>
        <time>2013-04-07T12:08:17Z</time>
      </trkpt>
      <trkpt lat="46.077994974330068" lon="8.271056022495031">
        <ele>223.91</ele>
        <time>2013-04-07T12:08:25Z</time>
      </trkpt>
      <trkpt lat="46.077966978773475" lon="8.271091980859637">
        <ele>223.84899999999999</ele>
        <time>2013-04-07T12:08:30Z</time>
      </trkpt>
      <trkpt lat="46.077994974330068" lon="8.27105300500989">
        <ele>224.101</ele>
        <time>2013-04-07T12:08:33Z</time>
      </trkpt>
      <trkpt lat="46.077959015965462" lon="8.270943034440279">
        <ele>223.999</ele>
        <time>2013-04-07T12:08:40Z</time>
      </trkpt>
      <trkpt lat="46.077906964346766" lon="8.270814958959818">
        <ele>224.28800000000001</ele>
        <time>2013-04-07T12:08:57Z</time>
      </trkpt>
      <trkpt lat="46.077922973781824" lon="8.270814958959818">
        <ele>224.25399999999999</ele>
        <time>2013-04-07T12:09:00Z</time>
      </trkpt>
      <trkpt lat="46.077878968790174" lon="8.270794004201889">
        <ele>224.72900000000001</ele>
        <time>2013-04-07T12:09:08Z</time>
      </trkpt>
      <trkpt lat="46.077822977676988" lon="8.270724015310407">
        <ele>224.68700000000001</ele>
        <time>2013-04-07T12:09:14Z</time>
      </trkpt>
      <trkpt lat="46.077779978513718" lon="8.270705994218588">
        <ele>224.89500000000001</ele>
        <time>2013-04-07T12:09:23Z</time>
      </trkpt>
      <trkpt lat="46.077828006818891" lon="8.27075301669538">
        <ele>225.41200000000001</ele>
        <time>2013-04-07T12:09:44Z</time>
      </trkpt>
      <trkpt lat="46.077868994325399" lon="8.270741030573845">
        <ele>225.5</ele>
        <time>2013-04-07T12:09:53Z</time>
      </trkpt>
      <trkpt lat="46.077813003212214" lon="8.270742958411574">
        <ele>225.584</ele>
        <time>2013-04-07T12:10:00Z</time>
      </trkpt>
      <trkpt lat="46.077805962413549" lon="8.270742036402226">
        <ele>225.41999999999999</ele>
        <time>2013-04-07T12:10:03Z</time>
      </trkpt>
      <trkpt lat="46.077850973233581" lon="8.270699037238956">
        <ele>225.62100000000001</ele>
        <time>2013-04-07T12:10:09Z</time>
      </trkpt>
      <trkpt lat="46.077945018187165" lon="8.270321013405919">
        <ele>225.685</ele>
        <time>2013-04-07T12:10:35Z</time>
      </trkpt>
      <trkpt lat="46.07784703373909" lon="8.270637011155486">
        <ele>225.86099999999999</ele>
        <time>2013-04-07T12:10:42Z</time>
      </trkpt>
      <trkpt lat="46.07784703373909" lon="8.270556963980198">
        <ele>226.10300000000001</ele>
        <time>2013-04-07T12:10:48Z</time>
      </trkpt>
      <trkpt lat="46.077875029295683" lon="8.270707000046969">
        <ele>226.42699999999999</ele>
        <time>2013-04-07T12:11:05Z</time>
      </trkpt>
      <trkpt lat="46.077886009588838" lon="8.270733989775181">
        <ele>226.542</ele>
        <time>2013-04-07T12:11:10Z</time>
      </trkpt>
      <trkpt lat="46.077893972396851" lon="8.270745975896716">
        <ele>226.79300000000001</ele>
        <time>2013-04-07T12:11:16Z</time>
      </trkpt>
      <trkpt lat="46.077877962961793" lon="8.270746981725097">
        <ele>226.852</ele>
        <time>2013-04-07T12:11:21Z</time>
      </trkpt>
      <trkpt lat="46.07784703373909" lon="8.270809007808566">
        <ele>227.006</ele>
        <time>2013-04-07T12:11:30Z</time>
      </trkpt>
      <trkpt lat="46.077873017638922" lon="8.270877990871668">
        <ele>227.24799999999999</ele>
        <time>2013-04-07T12:11:39Z</time>
      </trkpt>
      <trkpt lat="46.077896989881992" lon="8.270884025841951">
        <ele>227.61799999999999</ele>
        <time>2013-04-07T12:11:48Z</time>
      </trkpt>
      <trkpt lat="46.077931020408869" lon="8.270815964788199">
        <ele>228.06800000000001</ele>
        <time>2013-04-07T12:11:54Z</time>
      </trkpt>
      <trkpt lat="46.077957004308701" lon="8.270810013636947">
        <ele>228.012</ele>
        <time>2013-04-07T12:11:57Z</time>
      </trkpt>
      <trkpt lat="46.077995980158448" lon="8.270776988938451">
        <ele>228.15299999999999</ele>
        <time>2013-04-07T12:12:04Z</time>
      </trkpt>
      <trkpt lat="46.077952980995178" lon="8.270788975059986">
        <ele>228.31999999999999</ele>
        <time>2013-04-07T12:12:18Z</time>
      </trkpt>
      <trkpt lat="46.077958010137081" lon="8.270927025005221">
        <ele>228.69499999999999</ele>
        <time>2013-04-07T12:12:25Z</time>
      </trkpt>
      <trkpt lat="46.077964967116714" lon="8.270920990034938">
        <ele>228.67599999999999</ele>
        <time>2013-04-07T12:12:31Z</time>
      </trkpt>
      <trkpt lat="46.077979970723391" lon="8.270889976993203">
        <ele>228.613</ele>
        <time>2013-04-07T12:12:32Z</time>
      </trkpt>
      <trkpt lat="46.078012995421886" lon="8.270887965336442">
        <ele>228.596</ele>
        <time>2013-04-07T12:12:37Z</time>
      </trkpt>
      <trkpt lat="46.07791299931705" lon="8.270887965336442">
        <ele>228.958</ele>
        <time>2013-04-07T12:12:58Z</time>
      </trkpt>
      <trkpt lat="46.077905036509037" lon="8.270866004750133">
        <ele>229.08099999999999</ele>
        <time>2013-04-07T12:13:05Z</time>
      </trkpt>
      <trkpt lat="46.077891038730741" lon="8.270858963951469">
        <ele>229.32599999999999</ele>
        <time>2013-04-07T12:13:12Z</time>
      </trkpt>
      <trkpt lat="46.077899001538754" lon="8.270760979503393">
        <ele>229.54499999999999</ele>
        <time>2013-04-07T12:13:18Z</time>
      </trkpt>
      <trkpt lat="46.077965972945094" lon="8.270528968423605">
        <ele>229.62200000000001</ele>
        <time>2013-04-07T12:13:24Z</time>
      </trkpt>
      <trkpt lat="46.077969996258616" lon="8.270507007837296">
        <ele>229.63300000000001</ele>
        <time>2013-04-07T12:13:35Z</time>
      </trkpt>
      <trkpt lat="46.077966978773475" lon="8.270650003105402">
        <ele>230.078</ele>
        <time>2013-04-07T12:14:06Z</time>
      </trkpt>
      <trkpt lat="46.077971002086997" lon="8.270690990611911">
        <ele>230.04499999999999</ele>
        <time>2013-04-07T12:14:12Z</time>
      </trkpt>
      <trkpt lat="46.077940994873643" lon="8.270801967009902">
        <ele>230.441</ele>
        <time>2013-04-07T12:14:29Z</time>
      </trkpt>
      <trkpt lat="46.077942000702024" lon="8.270759973675013">
        <ele>230.435</ele>
        <time>2013-04-07T12:14:36Z</time>
      </trkpt>
      <trkpt lat="46.077934959903359" lon="8.270812025293708">
        <ele>230.434</ele>
        <time>2013-04-07T12:14:44Z</time>
      </trkpt>
      <trkpt lat="46.077954992651939" lon="8.270874973386526">
        <ele>230.44</ele>
        <time>2013-04-07T12:14:51Z</time>
      </trkpt>
      <trkpt lat="46.077947029843926" lon="8.270851001143456">
        <ele>231.28200000000001</ele>
        <time>2013-04-07T12:15:01Z</time>
      </trkpt>
      <trkpt lat="46.077982988208532" lon="8.270749999210239">
        <ele>231.453</ele>
        <time>2013-04-07T12:16:09Z</time>
      </trkpt>
      <trkpt lat="46.077919034287333" lon="8.270699959248304">
        <ele>231.471</ele>
        <time>2013-04-07T12:16:15Z</time>
      </trkpt>
      <trkpt lat="46.077944012358785" lon="8.270627036690712">
        <ele>231.35499999999999</ele>
        <time>2013-04-07T12:16:20Z</time>
      </trkpt>
      <trkpt lat="46.077921967953444" lon="8.270601974800229">
        <ele>231.70400000000001</ele>
        <time>2013-04-07T12:16:25Z</time>
      </trkpt>
      <trkpt lat="46.077966978773475" lon="8.270614966750145">
        <ele>231.81100000000001</ele>
        <time>2013-04-07T12:16:33Z</time>
      </trkpt>
      <trkpt lat="46.07799899764359" lon="8.270590994507074">
        <ele>232.02699999999999</ele>
        <time>2013-04-07T12:16:37Z</time>
      </trkpt>
      <trkpt lat="46.078052977100015" lon="8.270463002845645">
        <ele>231.608</ele>
        <time>2013-04-07T12:17:45Z</time>
      </trkpt>
      <trkpt lat="46.07804199680686" lon="8.27053802087903">
        <ele>232.346</ele>
        <time>2013-04-07T12:17:52Z</time>
      </trkpt>
      <trkpt lat="46.077991034835577" lon="8.270385973155499">
        <ele>231.93799999999999</ele>
        <time>2013-04-07T12:18:36Z</time>
      </trkpt>
      <trkpt lat="46.07799899764359" lon="8.270403994247317">
        <ele>232.203</ele>
        <time>2013-04-07T12:18:57Z</time>
      </trkpt>
      <trkpt lat="46.07801903039217" lon="8.27040801756084">
        <ele>232.22300000000001</ele>
        <time>2013-04-07T12:19:07Z</time>
      </trkpt>
      <trkpt lat="46.078035039827228" lon="8.270418997853994">
        <ele>232.78899999999999</ele>
        <time>2013-04-07T12:19:12Z</time>
      </trkpt>
      <trkpt lat="46.078076027333736" lon="8.270424026995897">
        <ele>232.68000000000001</ele>
        <time>2013-04-07T12:19:18Z</time>
      </trkpt>
      <trkpt lat="46.078119026497006" lon="8.270472977310419">
        <ele>232.36199999999999</ele>
        <time>2013-04-07T12:19:56Z</time>
      </trkpt>
      <trkpt lat="46.078187003731728" lon="8.270551012828946">
        <ele>232.28800000000001</ele>
        <time>2013-04-07T12:20:02Z</time>
      </trkpt>
      <trkpt lat="46.078284988179803" lon="8.270670035853982">
        <ele>232.012</ele>
        <time>2013-04-07T12:20:09Z</time>
      </trkpt>
      <trkpt lat="46.078382972627878" lon="8.270771959796548">
        <ele>232.28100000000001</ele>
        <time>2013-04-07T12:20:14Z</time>
      </trkpt>
      <trkpt lat="46.078534014523029" lon="8.270935993641615">
        <ele>232.506</ele>
        <time>2013-04-07T12:20:19Z</time>
      </trkpt>
      <trkpt lat="46.078831991180778" lon="8.271264983341098">
        <ele>231.471</ele>
        <time>2013-04-07T12:20:29Z</time>
      </trkpt>
      <trkpt lat="46.07905201613903" lon="8.27150696888566">
        <ele>230.78800000000001</ele>
        <time>2013-04-07T12:20:35Z</time>
      </trkpt>
      <trkpt lat="46.079497011378407" lon="8.27199898660183">
        <ele>231.20500000000001</ele>
        <time>2013-04-07T12:20:45Z</time>
      </trkpt>
      <trkpt lat="46.079880986362696" lon="8.272427972406149">
        <ele>231.649</ele>
        <time>2013-04-07T12:20:54Z</time>
      </trkpt>
      <trkpt lat="46.080225985497236" lon="8.272807002067566">
        <ele>231.18199999999999</ele>
        <time>2013-04-07T12:21:02Z</time>
      </trkpt>
      <trkpt lat="46.080758990719914" lon="8.273387029767036">
        <ele>230.482</ele>
        <time>2013-04-07T12:21:14Z</time>
      </trkpt>
      <trkpt lat="46.081234999001026" lon="8.273910982534289">
        <ele>230.31</ele>
        <time>2013-04-07T12:21:25Z</time>
      </trkpt>
      <trkpt lat="46.081686029210687" lon="8.274397971108556">
        <ele>230.52099999999999</ele>
        <time>2013-04-07T12:21:35Z</time>
      </trkpt>
      <trkpt lat="46.082129012793303" lon="8.274880014359951">
        <ele>230.89500000000001</ele>
        <time>2013-04-07T12:21:45Z</time>
      </trkpt>
      <trkpt lat="46.082214005291462" lon="8.275161981582642">
        <ele>231</ele>
        <time>2013-04-07T12:21:49Z</time>
      </trkpt>
      <trkpt lat="46.08214401639998" lon="8.275383012369275">
        <ele>231.25299999999999</ele>
        <time>2013-04-07T12:21:52Z</time>
      </trkpt>
      <trkpt lat="46.081940000876784" lon="8.275748966261745">
        <ele>231.37700000000001</ele>
        <time>2013-04-07T12:21:59Z</time>
      </trkpt>
      <trkpt lat="46.081784013658762" lon="8.276019031181932">
        <ele>232.77099999999999</ele>
        <time>2013-04-07T12:22:05Z</time>
      </trkpt>
      <trkpt lat="46.081558037549257" lon="8.276453968137503">
        <ele>232.92599999999999</ele>
        <time>2013-04-07T12:22:13Z</time>
      </trkpt>
      <trkpt lat="46.081414958462119" lon="8.276759991422296">
        <ele>232.04599999999999</ele>
        <time>2013-04-07T12:22:18Z</time>
      </trkpt>
      <trkpt lat="46.081357961520553" lon="8.276923019438982">
        <ele>231.20400000000001</ele>
        <time>2013-04-07T12:22:21Z</time>
      </trkpt>
      <trkpt lat="46.08122200705111" lon="8.276998959481716">
        <ele>230.745</ele>
        <time>2013-04-07T12:22:25Z</time>
      </trkpt>
      <trkpt lat="46.080874996259809" lon="8.277086969465017">
        <ele>230.678</ele>
        <time>2013-04-07T12:22:33Z</time>
      </trkpt>
      <trkpt lat="46.08051298186183" lon="8.277162993326783">
        <ele>231.36199999999999</ele>
        <time>2013-04-07T12:22:41Z</time>
      </trkpt>
      <trkpt lat="46.080178041011095" lon="8.27720096334815">
        <ele>231.095</ele>
        <time>2013-04-07T12:22:48Z</time>
      </trkpt>
      <trkpt lat="46.080081984400749" lon="8.27721999026835">
        <ele>231.14599999999999</ele>
        <time>2013-04-07T12:22:50Z</time>
      </trkpt>
      <trkpt lat="46.079851984977722" lon="8.277358040213585">
        <ele>230.696</ele>
        <time>2013-04-07T12:22:55Z</time>
      </trkpt>
      <trkpt lat="46.079516038298607" lon="8.277740003541112">
        <ele>230.541</ele>
        <time>2013-04-07T12:23:03Z</time>
      </trkpt>
      <trkpt lat="46.079173972830176" lon="8.277985006570816">
        <ele>230.19200000000001</ele>
        <time>2013-04-07T12:23:10Z</time>
      </trkpt>
      <trkpt lat="46.079038018360734" lon="8.278116015717387">
        <ele>229.91800000000001</ele>
        <time>2013-04-07T12:23:13Z</time>
      </trkpt>
      <trkpt lat="46.078835008665919" lon="8.278162032365799">
        <ele>229.864</ele>
        <time>2013-04-07T12:23:17Z</time>
      </trkpt>
      <trkpt lat="46.078649014234543" lon="8.277976959943771">
        <ele>230.548</ele>
        <time>2013-04-07T12:23:21Z</time>
      </trkpt>
      <trkpt lat="46.078580031171441" lon="8.277851985767484">
        <ele>231.37899999999999</ele>
        <time>2013-04-07T12:23:23Z</time>
      </trkpt>
      <trkpt lat="46.078286999836564" lon="8.277315041050315">
        <ele>231.36699999999999</ele>
        <time>2013-04-07T12:23:32Z</time>
      </trkpt>
      <trkpt lat="46.078097987920046" lon="8.276986973360181">
        <ele>230.529</ele>
        <time>2013-04-07T12:23:38Z</time>
      </trkpt>
      <trkpt lat="46.078068986535072" lon="8.276937017217279">
        <ele>230.35900000000001</ele>
        <time>2013-04-07T12:23:39Z</time>
      </trkpt>
      <trkpt lat="46.077873017638922" lon="8.276751022785902">
        <ele>230.09299999999999</ele>
        <time>2013-04-07T12:23:44Z</time>
      </trkpt>
      <trkpt lat="46.077606976032257" lon="8.276608027517796">
        <ele>230.78800000000001</ele>
        <time>2013-04-07T12:23:50Z</time>
      </trkpt>
      <trkpt lat="46.077388962730765" lon="8.276349026709795">
        <ele>230.749</ele>
        <time>2013-04-07T12:23:56Z</time>
      </trkpt>
      <trkpt lat="46.077224006876349" lon="8.276073010638356">
        <ele>230.01900000000001</ele>
        <time>2013-04-07T12:24:01Z</time>
      </trkpt>
      <trkpt lat="46.077133985236287" lon="8.275794982910156">
        <ele>229.55000000000001</ele>
        <time>2013-04-07T12:24:05Z</time>
      </trkpt>
      <trkpt lat="46.077110012993217" lon="8.275644024834037">
        <ele>229.46199999999999</ele>
        <time>2013-04-07T12:24:07Z</time>
      </trkpt>
      <trkpt lat="46.07696701772511" lon="8.27545995824039">
        <ele>229.952</ele>
        <time>2013-04-07T12:24:11Z</time>
      </trkpt>
      <trkpt lat="46.076778005808592" lon="8.275429029017687">
        <ele>231.16</ele>
        <time>2013-04-07T12:24:15Z</time>
      </trkpt>
      <trkpt lat="46.076659988611937" lon="8.27522199600935">
        <ele>230.833</ele>
        <time>2013-04-07T12:24:19Z</time>
      </trkpt>
      <trkpt lat="46.076654959470034" lon="8.275149995461106">
        <ele>230.74000000000001</ele>
        <time>2013-04-07T12:24:20Z</time>
      </trkpt>
      <trkpt lat="46.07662302441895" lon="8.274665018543601">
        <ele>230.73599999999999</ele>
        <time>2013-04-07T12:24:27Z</time>
      </trkpt>
      <trkpt lat="46.07653995975852" lon="8.274441976100206">
        <ele>231.76400000000001</ele>
        <time>2013-04-07T12:24:32Z</time>
      </trkpt>
      <trkpt lat="46.076501989737153" lon="8.274369975551963">
        <ele>232.04599999999999</ele>
        <time>2013-04-07T12:24:34Z</time>
      </trkpt>
      <trkpt lat="46.076390007510781" lon="8.274355977773666">
        <ele>231.935</ele>
        <time>2013-04-07T12:24:38Z</time>
      </trkpt>
      <trkpt lat="46.076361006125808" lon="8.274377016350627">
        <ele>231.679</ele>
        <time>2013-04-07T12:24:39Z</time>
      </trkpt>
      <trkpt lat="46.07617300003767" lon="8.274598969146609">
        <ele>231.02699999999999</ele>
        <time>2013-04-07T12:24:47Z</time>
      </trkpt>
      <trkpt lat="46.0759780369699" lon="8.274837015196681">
        <ele>231.20500000000001</ele>
        <time>2013-04-07T12:24:53Z</time>
      </trkpt>
      <trkpt lat="46.075529018417001" lon="8.275293996557593">
        <ele>231.26499999999999</ele>
        <time>2013-04-07T12:25:04Z</time>
      </trkpt>
      <trkpt lat="46.075132973492146" lon="8.275647964328528">
        <ele>230.68299999999999</ele>
        <time>2013-04-07T12:25:13Z</time>
      </trkpt>
      <trkpt lat="46.075042029842734" lon="8.275732034817338">
        <ele>230.398</ele>
        <time>2013-04-07T12:25:15Z</time>
      </trkpt>
      <trkpt lat="46.074781017377973" lon="8.275833958759904">
        <ele>230.60499999999999</ele>
        <time>2013-04-07T12:25:20Z</time>
      </trkpt>
      <trkpt lat="46.074352031573653" lon="8.275943007320166">
        <ele>230.86600000000001</ele>
        <time>2013-04-07T12:25:28Z</time>
      </trkpt>
      <trkpt lat="46.074299979954958" lon="8.275951975956559">
        <ele>231.184</ele>
        <time>2013-04-07T12:25:31Z</time>
      </trkpt>
      <trkpt lat="46.07434700243175" lon="8.275938984006643">
        <ele>230.90199999999999</ele>
        <time>2013-04-07T12:25:53Z</time>
      </trkpt>
      <trkpt lat="46.074451021850109" lon="8.275913000106812">
        <ele>230.32599999999999</ele>
        <time>2013-04-07T12:25:58Z</time>
      </trkpt>
      <trkpt lat="46.074717985466123" lon="8.275839993730187">
        <ele>230.12100000000001</ele>
        <time>2013-04-07T12:26:04Z</time>
      </trkpt>
      <trkpt lat="46.07496902346611" lon="8.275763969868422">
        <ele>230.083</ele>
        <time>2013-04-07T12:26:09Z</time>
      </trkpt>
      <trkpt lat="46.075143031775951" lon="8.275647964328528">
        <ele>230.054</ele>
        <time>2013-04-07T12:26:13Z</time>
      </trkpt>
      <trkpt lat="46.075547961518168" lon="8.275305982679129">
        <ele>229.53299999999999</ele>
        <time>2013-04-07T12:26:22Z</time>
      </trkpt>
      <trkpt lat="46.076002009212971" lon="8.274852018803358">
        <ele>229.74799999999999</ele>
        <time>2013-04-07T12:26:32Z</time>
      </trkpt>
      <trkpt lat="46.076306020841002" lon="8.274483969435096">
        <ele>230.14099999999999</ele>
        <time>2013-04-07T12:26:39Z</time>
      </trkpt>
      <trkpt lat="46.076543983072042" lon="8.274354971945286">
        <ele>229.88900000000001</ele>
        <time>2013-04-07T12:26:44Z</time>
      </trkpt>
      <trkpt lat="46.076597040519118" lon="8.274434013292193">
        <ele>230.583</ele>
        <time>2013-04-07T12:26:46Z</time>
      </trkpt>
      <trkpt lat="46.076639033854008" lon="8.274531997740269">
        <ele>231.196</ele>
        <time>2013-04-07T12:26:48Z</time>
      </trkpt>
      <trkpt lat="46.076704999431968" lon="8.274912033230066">
        <ele>231.06399999999999</ele>
        <time>2013-04-07T12:26:53Z</time>
      </trkpt>
      <trkpt lat="46.076707011088729" lon="8.275096016004682">
        <ele>230.44900000000001</ele>
        <time>2013-04-07T12:26:55Z</time>
      </trkpt>
      <trkpt lat="46.076764008030295" lon="8.275370020419359">
        <ele>229.828</ele>
        <time>2013-04-07T12:26:59Z</time>
      </trkpt>
      <trkpt lat="46.076933993026614" lon="8.275465993210673">
        <ele>229.762</ele>
        <time>2013-04-07T12:27:03Z</time>
      </trkpt>
      <trkpt lat="46.07711898162961" lon="8.27552399598062">
        <ele>229.857</ele>
        <time>2013-04-07T12:27:07Z</time>
      </trkpt>
      <trkpt lat="46.077166004106402" lon="8.275664979591966">
        <ele>229.679</ele>
        <time>2013-04-07T12:27:09Z</time>
      </trkpt>
      <trkpt lat="46.077187964692712" lon="8.275833036750555">
        <ele>229.364</ele>
        <time>2013-04-07T12:27:11Z</time>
      </trkpt>
      <trkpt lat="46.077326014637947" lon="8.276183987036347">
        <ele>229.18899999999999</ele>
        <time>2013-04-07T12:27:16Z</time>
      </trkpt>
      <trkpt lat="46.077522989362478" lon="8.276503002271056">
        <ele>229.715</ele>
        <time>2013-04-07T12:27:22Z</time>
      </trkpt>
      <trkpt lat="46.077770004048944" lon="8.276697965338826">
        <ele>229.601</ele>
        <time>2013-04-07T12:27:27Z</time>
      </trkpt>
      <trkpt lat="46.078004026785493" lon="8.276829980313778">
        <ele>229.43199999999999</ele>
        <time>2013-04-07T12:27:31Z</time>
      </trkpt>
      <trkpt lat="46.078226985409856" lon="8.277142038568854">
        <ele>229.636</ele>
        <time>2013-04-07T12:27:36Z</time>
      </trkpt>
      <trkpt lat="46.078494032844901" lon="8.277588961645961">
        <ele>229.571</ele>
        <time>2013-04-07T12:27:43Z</time>
      </trkpt>
      <trkpt lat="46.078637028113008" lon="8.277889033779502">
        <ele>229.28899999999999</ele>
        <time>2013-04-07T12:27:47Z</time>
      </trkpt>
      <trkpt lat="46.078878007829189" lon="8.278154991567135">
        <ele>228.85900000000001</ele>
        <time>2013-04-07T12:27:52Z</time>
      </trkpt>
      <trkpt lat="46.079038018360734" lon="8.278146022930741">
        <ele>229.23400000000001</ele>
        <time>2013-04-07T12:27:55Z</time>
      </trkpt>
      <trkpt lat="46.079132985323668" lon="8.278066981583834">
        <ele>229.447</ele>
        <time>2013-04-07T12:27:57Z</time>
      </trkpt>
      <trkpt lat="46.079226024448872" lon="8.277974026277661">
        <ele>229.65199999999999</ele>
        <time>2013-04-07T12:27:59Z</time>
      </trkpt>
      <trkpt lat="46.079475972801447" lon="8.277797000482678">
        <ele>229.74799999999999</ele>
        <time>2013-04-07T12:28:04Z</time>
      </trkpt>
      <trkpt lat="46.079898001626134" lon="8.277328033000231">
        <ele>229.72</ele>
        <time>2013-04-07T12:28:13Z</time>
      </trkpt>
      <trkpt lat="46.080062035471201" lon="8.277210015803576">
        <ele>229.72200000000001</ele>
        <time>2013-04-07T12:28:16Z</time>
      </trkpt>
      <trkpt lat="46.080486997961998" lon="8.277137009426951">
        <ele>229.82900000000001</ele>
        <time>2013-04-07T12:28:23Z</time>
      </trkpt>
      <trkpt lat="46.08102997764945" lon="8.277015974745154">
        <ele>229.733</ele>
        <time>2013-04-07T12:28:32Z</time>
      </trkpt>
      <trkpt lat="46.081256959587336" lon="8.276955038309097">
        <ele>229.524</ele>
        <time>2013-04-07T12:28:36Z</time>
      </trkpt>
      <trkpt lat="46.081382017582655" lon="8.277021003887057">
        <ele>229.708</ele>
        <time>2013-04-07T12:28:39Z</time>
      </trkpt>
      <trkpt lat="46.08139400370419" lon="8.277086969465017">
        <ele>229.81299999999999</ele>
        <time>2013-04-07T12:28:40Z</time>
      </trkpt>
      <trkpt lat="46.081496011465788" lon="8.277732040733099">
        <ele>230.631</ele>
        <time>2013-04-07T12:28:48Z</time>
      </trkpt>
      <trkpt lat="46.081573963165283" lon="8.278095982968807">
        <ele>230.887</ele>
        <time>2013-04-07T12:28:53Z</time>
      </trkpt>
      <trkpt lat="46.08150296844542" lon="8.278159014880657">
        <ele>230.97399999999999</ele>
        <time>2013-04-07T12:28:56Z</time>
      </trkpt>
      <trkpt lat="46.081303982064128" lon="8.278116015717387">
        <ele>230.51599999999999</ele>
        <time>2013-04-07T12:29:00Z</time>
      </trkpt>
      <trkpt lat="46.081183031201363" lon="8.278092965483666">
        <ele>231.09100000000001</ele>
        <time>2013-04-07T12:29:02Z</time>
      </trkpt>
      <trkpt lat="46.08081397600472" lon="8.278152979910374">
        <ele>231.858</ele>
        <time>2013-04-07T12:29:08Z</time>
      </trkpt>
      <trkpt lat="46.080639967694879" lon="8.278153985738754">
        <ele>231.624</ele>
        <time>2013-04-07T12:29:11Z</time>
      </trkpt>
      <trkpt lat="46.080420026555657" lon="8.278192039579153">
        <ele>231.756</ele>
        <time>2013-04-07T12:29:15Z</time>
      </trkpt>
      <trkpt lat="46.080223973840475" lon="8.27837903983891">
        <ele>230.69900000000001</ele>
        <time>2013-04-07T12:29:19Z</time>
      </trkpt>
      <trkpt lat="46.080206958577037" lon="8.278585989028215">
        <ele>229.386</ele>
        <time>2013-04-07T12:29:21Z</time>
      </trkpt>
      <trkpt lat="46.0802330262959" lon="8.27868296764791">
        <ele>229.12700000000001</ele>
        <time>2013-04-07T12:29:22Z</time>
      </trkpt>
      <trkpt lat="46.08036101795733" lon="8.27900399453938">
        <ele>228.88900000000001</ele>
        <time>2013-04-07T12:29:26Z</time>
      </trkpt>
      <trkpt lat="46.08057701960206" lon="8.27930498868227">
        <ele>229.12799999999999</ele>
        <time>2013-04-07T12:29:31Z</time>
      </trkpt>
      <trkpt lat="46.080736024305224" lon="8.279671026393771">
        <ele>229.31</ele>
        <time>2013-04-07T12:29:36Z</time>
      </trkpt>
      <trkpt lat="46.080922018736601" lon="8.28025097027421">
        <ele>229.423</ele>
        <time>2013-04-07T12:29:43Z</time>
      </trkpt>
      <trkpt lat="46.080979015678167" lon="8.280527992174029">
        <ele>228.68799999999999</ele>
        <time>2013-04-07T12:29:48Z</time>
      </trkpt>
      <trkpt lat="46.08098697848618" lon="8.280574008822441">
        <ele>228.65199999999999</ele>
        <time>2013-04-07T12:29:52Z</time>
      </trkpt>
      <trkpt lat="46.080987984314561" lon="8.280565962195396">
        <ele>228.67699999999999</ele>
        <time>2013-04-07T12:29:53Z</time>
      </trkpt>
      <trkpt lat="46.081094015389681" lon="8.281008023768663">
        <ele>229.09399999999999</ele>
        <time>2013-04-07T12:30:01Z</time>
      </trkpt>
      <trkpt lat="46.081098960712552" lon="8.28104498796165">
        <ele>229.45099999999999</ele>
        <time>2013-04-07T12:30:02Z</time>
      </trkpt>
      <trkpt lat="46.081171967089176" lon="8.281352017074823">
        <ele>231.965</ele>
        <time>2013-04-07T12:30:09Z</time>
      </trkpt>
      <trkpt lat="46.081185964867473" lon="8.281473973765969">
        <ele>233.31999999999999</ele>
        <time>2013-04-07T12:30:12Z</time>
      </trkpt>
      <trkpt lat="46.08106903731823" lon="8.28169098123908">
        <ele>234.58500000000001</ele>
        <time>2013-04-07T12:30:18Z</time>
      </trkpt>
      <trkpt lat="46.080972980707884" lon="8.281860966235399">
        <ele>233.46199999999999</ele>
        <time>2013-04-07T12:30:21Z</time>
      </trkpt>
      <trkpt lat="46.080807019025087" lon="8.28198904171586">
        <ele>230.94900000000001</ele>
        <time>2013-04-07T12:30:25Z</time>
      </trkpt>
      <trkpt lat="46.080682966858149" lon="8.281892985105515">
        <ele>230.26499999999999</ele>
        <time>2013-04-07T12:30:28Z</time>
      </trkpt>
      <trkpt lat="46.08034199103713" lon="8.281466010957956">
        <ele>230.608</ele>
        <time>2013-04-07T12:30:37Z</time>
      </trkpt>
      <trkpt lat="46.080064969137311" lon="8.281081030145288">
        <ele>230.22999999999999</ele>
        <time>2013-04-07T12:30:44Z</time>
      </trkpt>
      <trkpt lat="46.079736985266209" lon="8.280725972726941">
        <ele>229.78200000000001</ele>
        <time>2013-04-07T12:30:51Z</time>
      </trkpt>
      <trkpt lat="46.079415958374739" lon="8.280423972755671">
        <ele>229.93199999999999</ele>
        <time>2013-04-07T12:30:58Z</time>
      </trkpt>
      <trkpt lat="46.078941039741039" lon="8.280022982507944">
        <ele>228.66</ele>
        <time>2013-04-07T12:31:08Z</time>
      </trkpt>
      <trkpt lat="46.078550023958087" lon="8.279705978929997">
        <ele>228.59800000000001</ele>
        <time>2013-04-07T12:31:16Z</time>
      </trkpt>
      <trkpt lat="46.078290017321706" lon="8.279545968398452">
        <ele>228.38</ele>
        <time>2013-04-07T12:31:22Z</time>
      </trkpt>
      <trkpt lat="46.078207958489656" lon="8.279515961185098">
        <ele>227.61699999999999</ele>
        <time>2013-04-07T12:31:26Z</time>
      </trkpt>
      <trkpt lat="46.078211981803179" lon="8.279515961185098">
        <ele>226.84100000000001</ele>
        <time>2013-04-07T12:31:31Z</time>
      </trkpt>
      <trkpt lat="46.078142998740077" lon="8.279464999213815">
        <ele>226.69999999999999</ele>
        <time>2013-04-07T12:31:37Z</time>
      </trkpt>
      <trkpt lat="46.078089019283652" lon="8.279422000050545">
        <ele>226.68000000000001</ele>
        <time>2013-04-07T12:31:56Z</time>
      </trkpt>
      <trkpt lat="46.078044008463621" lon="8.279410013929009">
        <ele>226.39099999999999</ele>
        <time>2013-04-07T12:31:57Z</time>
      </trkpt>
      <trkpt lat="46.077882992103696" lon="8.279338013380766">
        <ele>224.79400000000001</ele>
        <time>2013-04-07T12:32:02Z</time>
      </trkpt>
      <trkpt lat="46.077756006270647" lon="8.279314963147044">
        <ele>225.679</ele>
        <time>2013-04-07T12:32:07Z</time>
      </trkpt>
      <trkpt lat="46.077606976032257" lon="8.279233993962407">
        <ele>226.87200000000001</ele>
        <time>2013-04-07T12:32:12Z</time>
      </trkpt>
      <trkpt lat="46.077398015186191" lon="8.279228964820504">
        <ele>227.85499999999999</ele>
        <time>2013-04-07T12:32:16Z</time>
      </trkpt>
      <trkpt lat="46.077159969136119" lon="8.279222007840872">
        <ele>228.15799999999999</ele>
        <time>2013-04-07T12:32:20Z</time>
      </trkpt>
      <trkpt lat="46.076669041067362" lon="8.27923902310431">
        <ele>228.249</ele>
        <time>2013-04-07T12:32:28Z</time>
      </trkpt>
      <trkpt lat="46.076357988640666" lon="8.279258972033858">
        <ele>228.458</ele>
        <time>2013-04-07T12:32:33Z</time>
      </trkpt>
      <trkpt lat="46.075992034748197" lon="8.27932502143085">
        <ele>228.18799999999999</ele>
        <time>2013-04-07T12:32:39Z</time>
      </trkpt>
      <trkpt lat="46.075686011463404" lon="8.279357962310314">
        <ele>227.803</ele>
        <time>2013-04-07T12:32:45Z</time>
      </trkpt>
      <trkpt lat="46.075432039797306" lon="8.279408002272248">
        <ele>227.703</ele>
        <time>2013-04-07T12:32:51Z</time>
      </trkpt>
      <trkpt lat="46.075233975425363" lon="8.279429962858558">
        <ele>227.08099999999999</ele>
        <time>2013-04-07T12:32:56Z</time>
      </trkpt>
      <trkpt lat="46.074919989332557" lon="8.279506992548704">
        <ele>226.74100000000001</ele>
        <time>2013-04-07T12:33:04Z</time>
      </trkpt>
      <trkpt lat="46.074726032093167" lon="8.27947698533535">
        <ele>226.512</ele>
        <time>2013-04-07T12:33:10Z</time>
      </trkpt>
      <trkpt lat="46.074742041528225" lon="8.279318986460567">
        <ele>226.27099999999999</ele>
        <time>2013-04-07T12:33:15Z</time>
      </trkpt>
      <trkpt lat="46.07486299239099" lon="8.279094016179442">
        <ele>227.16399999999999</ele>
        <time>2013-04-07T12:33:22Z</time>
      </trkpt>
      <trkpt lat="46.07490498572588" lon="8.278907015919685">
        <ele>227.703</ele>
        <time>2013-04-07T12:33:27Z</time>
      </trkpt>
      <trkpt lat="46.074898028746247" lon="8.278870973736048">
        <ele>227.77799999999999</ele>
        <time>2013-04-07T12:33:28Z</time>
      </trkpt>
      <trkpt lat="46.074783029034734" lon="8.278804002329707">
        <ele>228.36799999999999</ele>
        <time>2013-04-07T12:33:33Z</time>
      </trkpt>
      <trkpt lat="46.074746986851096" lon="8.278796039521694">
        <ele>228.233</ele>
        <time>2013-04-07T12:33:34Z</time>
      </trkpt>
      <trkpt lat="46.074573984369636" lon="8.27876896597445">
        <ele>228.41300000000001</ele>
        <time>2013-04-07T12:33:39Z</time>
      </trkpt>
      <trkpt lat="46.074301991611719" lon="8.278840966522694">
        <ele>229.07300000000001</ele>
        <time>2013-04-07T12:33:47Z</time>
      </trkpt>
      <trkpt lat="46.074036033824086" lon="8.278923025354743">
        <ele>228.69499999999999</ele>
        <time>2013-04-07T12:33:55Z</time>
      </trkpt>
      <trkpt lat="46.07378700748086" lon="8.278971975669265">
        <ele>228.09800000000001</ele>
        <time>2013-04-07T12:34:02Z</time>
      </trkpt>
      <trkpt lat="46.073566982522607" lon="8.278997037559748">
        <ele>227.58099999999999</ele>
        <time>2013-04-07T12:34:07Z</time>
      </trkpt>
      <trkpt lat="46.073338994756341" lon="8.279073983430862">
        <ele>228.03</ele>
        <time>2013-04-07T12:34:13Z</time>
      </trkpt>
      <trkpt lat="46.073007993400097" lon="8.279184959828854">
        <ele>228.12899999999999</ele>
        <time>2013-04-07T12:34:21Z</time>
      </trkpt>
      <trkpt lat="46.07266902923584" lon="8.279205998405814">
        <ele>229.102</ele>
        <time>2013-04-07T12:34:29Z</time>
      </trkpt>
      <trkpt lat="46.072489991784096" lon="8.27917498536408">
        <ele>228.363</ele>
        <time>2013-04-07T12:34:35Z</time>
      </trkpt>
      <trkpt lat="46.07245797291398" lon="8.279165010899305">
        <ele>228.49299999999999</ele>
        <time>2013-04-07T12:34:37Z</time>
      </trkpt>
      <trkpt lat="46.072475994005799" lon="8.279216978698969">
        <ele>227.471</ele>
        <time>2013-04-07T12:34:41Z</time>
      </trkpt>
      <trkpt lat="46.072498960420489" lon="8.279212033376098">
        <ele>227.22399999999999</ele>
        <time>2013-04-07T12:34:42Z</time>
      </trkpt>
      <trkpt lat="46.072630975395441" lon="8.279178002849221">
        <ele>227.072</ele>
        <time>2013-04-07T12:34:46Z</time>
      </trkpt>
      <trkpt lat="46.072644973173738" lon="8.279029978439212">
        <ele>228.09</ele>
        <time>2013-04-07T12:34:50Z</time>
      </trkpt>
      <trkpt lat="46.072613960132003" lon="8.279011035338044">
        <ele>228.32900000000001</ele>
        <time>2013-04-07T12:34:51Z</time>
      </trkpt>
      <trkpt lat="46.07239100150764" lon="8.27895998954773">
        <ele>228.59299999999999</ele>
        <time>2013-04-07T12:34:58Z</time>
      </trkpt>
      <trkpt lat="46.072226967662573" lon="8.27893802896142">
        <ele>228.60400000000001</ele>
        <time>2013-04-07T12:35:04Z</time>
      </trkpt>
      <trkpt lat="46.071950029581785" lon="8.278796961531043">
        <ele>228.36600000000001</ele>
        <time>2013-04-07T12:35:11Z</time>
      </trkpt>
      <trkpt lat="46.071744002401829" lon="8.278495967388153">
        <ele>228.74600000000001</ele>
        <time>2013-04-07T12:35:17Z</time>
      </trkpt>
      <trkpt lat="46.071654986590147" lon="8.278332017362118">
        <ele>228.66200000000001</ele>
        <time>2013-04-07T12:35:20Z</time>
      </trkpt>
      <trkpt lat="46.071475027129054" lon="8.278126996010542">
        <ele>230.29900000000001</ele>
        <time>2013-04-07T12:35:26Z</time>
      </trkpt>
      <trkpt lat="46.071401014924049" lon="8.278099000453949">
        <ele>230.81700000000001</ele>
        <time>2013-04-07T12:35:28Z</time>
      </trkpt>
      <trkpt lat="46.071118041872978" lon="8.278020964935422">
        <ele>231.88</ele>
        <time>2013-04-07T12:35:35Z</time>
      </trkpt>
      <trkpt lat="46.070968005806208" lon="8.27799498103559">
        <ele>233.697</ele>
        <time>2013-04-07T12:35:40Z</time>
      </trkpt>
      <trkpt lat="46.070926012471318" lon="8.27801400795579">
        <ele>234.55500000000001</ele>
        <time>2013-04-07T12:35:44Z</time>
      </trkpt>
      <trkpt lat="46.070907991379499" lon="8.278005039319396">
        <ele>234.249</ele>
        <time>2013-04-07T12:35:58Z</time>
      </trkpt>
      <trkpt lat="46.070852000266314" lon="8.277915017679334">
        <ele>234.774</ele>
        <time>2013-04-07T12:36:02Z</time>
      </trkpt>
      <trkpt lat="46.070836996659636" lon="8.277742015197873">
        <ele>235.161</ele>
        <time>2013-04-07T12:36:07Z</time>
      </trkpt>
      <trkpt lat="46.070844037458301" lon="8.277793982997537">
        <ele>234.654</ele>
        <time>2013-04-07T12:36:11Z</time>
      </trkpt>
      <trkpt lat="46.070839008316398" lon="8.278004033491015">
        <ele>234.208</ele>
        <time>2013-04-07T12:36:17Z</time>
      </trkpt>
      <trkpt lat="46.070864992216229" lon="8.278321959078312">
        <ele>234.54599999999999</ele>
        <time>2013-04-07T12:36:24Z</time>
      </trkpt>
      <trkpt lat="46.070872033014894" lon="8.278597975149751">
        <ele>234.96199999999999</ele>
        <time>2013-04-07T12:36:30Z</time>
      </trkpt>
      <trkpt lat="46.070879995822906" lon="8.278893018141389">
        <ele>235.35900000000001</ele>
        <time>2013-04-07T12:36:37Z</time>
      </trkpt>
      <trkpt lat="46.070887036621571" lon="8.279102984815836">
        <ele>235.875</ele>
        <time>2013-04-07T12:36:46Z</time>
      </trkpt>
      <trkpt lat="46.070905979722738" lon="8.279438009485602">
        <ele>235.17599999999999</ele>
        <time>2013-04-07T12:36:54Z</time>
      </trkpt>
      <trkpt lat="46.070921989157796" lon="8.279869006946683">
        <ele>234.72399999999999</ele>
        <time>2013-04-07T12:37:00Z</time>
      </trkpt>
      <trkpt lat="46.070953002199531" lon="8.280386002734304">
        <ele>234.959</ele>
        <time>2013-04-07T12:37:06Z</time>
      </trkpt>
      <trkpt lat="46.070996001362801" lon="8.281331984326243">
        <ele>235.102</ele>
        <time>2013-04-07T12:37:16Z</time>
      </trkpt>
      <trkpt lat="46.071047969162464" lon="8.282295987010002">
        <ele>235.27600000000001</ele>
        <time>2013-04-07T12:37:26Z</time>
      </trkpt>
      <trkpt lat="46.071151988580823" lon="8.282955978065729">
        <ele>235.154</ele>
        <time>2013-04-07T12:37:33Z</time>
      </trkpt>
      <trkpt lat="46.071345023810863" lon="8.283557966351509">
        <ele>234.845</ele>
        <time>2013-04-07T12:37:40Z</time>
      </trkpt>
      <trkpt lat="46.071612993255258" lon="8.284084014594555">
        <ele>234.77099999999999</ele>
        <time>2013-04-07T12:37:47Z</time>
      </trkpt>
      <trkpt lat="46.071933014318347" lon="8.284516017884016">
        <ele>234.304</ele>
        <time>2013-04-07T12:37:54Z</time>
      </trkpt>
      <trkpt lat="46.072015995159745" lon="8.284836960956454">
        <ele>234.51400000000001</ele>
        <time>2013-04-07T12:37:58Z</time>
      </trkpt>
      <trkpt lat="46.071912981569767" lon="8.285052040591836">
        <ele>234.69399999999999</ele>
        <time>2013-04-07T12:38:01Z</time>
      </trkpt>
      <trkpt lat="46.071740984916687" lon="8.285099985077977">
        <ele>235.07499999999999</ele>
        <time>2013-04-07T12:38:04Z</time>
      </trkpt>
      <trkpt lat="46.071630008518696" lon="8.28506100922823">
        <ele>234.976</ele>
        <time>2013-04-07T12:38:06Z</time>
      </trkpt>
      <trkpt lat="46.07114695943892" lon="8.284839978441596">
        <ele>233.703</ele>
        <time>2013-04-07T12:38:14Z</time>
      </trkpt>
      <trkpt lat="46.070586964488029" lon="8.284583995118737">
        <ele>232.898</ele>
        <time>2013-04-07T12:38:22Z</time>
      </trkpt>
      <trkpt lat="46.070392001420259" lon="8.284499002620578">
        <ele>232.541</ele>
        <time>2013-04-07T12:38:25Z</time>
      </trkpt>
      <trkpt lat="46.069821026176214" lon="8.284233966842294">
        <ele>230.94300000000001</ele>
        <time>2013-04-07T12:38:34Z</time>
      </trkpt>
      <trkpt lat="46.069017034024" lon="8.283870024606586">
        <ele>231.208</ele>
        <time>2013-04-07T12:38:46Z</time>
      </trkpt>
      <trkpt lat="46.068204995244741" lon="8.283505998551846">
        <ele>231.03399999999999</ele>
        <time>2013-04-07T12:38:58Z</time>
      </trkpt>
      <trkpt lat="46.067536035552621" lon="8.283206010237336">
        <ele>230.68899999999999</ele>
        <time>2013-04-07T12:39:08Z</time>
      </trkpt>
      <trkpt lat="46.067046029493213" lon="8.282982967793942">
        <ele>231.47900000000001</ele>
        <time>2013-04-07T12:39:16Z</time>
      </trkpt>
      <trkpt lat="46.066509000957012" lon="8.28274299390614">
        <ele>231.41800000000001</ele>
        <time>2013-04-07T12:39:25Z</time>
      </trkpt>
      <trkpt lat="46.066007008776069" lon="8.282495979219675">
        <ele>231.517</ele>
        <time>2013-04-07T12:39:33Z</time>
      </trkpt>
      <trkpt lat="46.065206034108996" lon="8.282062970101833">
        <ele>231.489</ele>
        <time>2013-04-07T12:39:46Z</time>
      </trkpt>
      <trkpt lat="46.064416039735079" lon="8.281634990125895">
        <ele>230.959</ele>
        <time>2013-04-07T12:39:59Z</time>
      </trkpt>
      <trkpt lat="46.063649011775851" lon="8.281218996271491">
        <ele>230.98099999999999</ele>
        <time>2013-04-07T12:40:11Z</time>
      </trkpt>
      <trkpt lat="46.063081976026297" lon="8.280911967158318">
        <ele>231.01499999999999</ele>
        <time>2013-04-07T12:40:20Z</time>
      </trkpt>
      <trkpt lat="46.062503959983587" lon="8.280596975237131">
        <ele>231.03800000000001</ele>
        <time>2013-04-07T12:40:29Z</time>
      </trkpt>
      <trkpt lat="46.061790995299816" lon="8.28020797111094">
        <ele>230.65299999999999</ele>
        <time>2013-04-07T12:40:40Z</time>
      </trkpt>
      <trkpt lat="46.060988008975983" lon="8.279782002791762">
        <ele>230.303</ele>
        <time>2013-04-07T12:40:52Z</time>
      </trkpt>
      <trkpt lat="46.060562962666154" lon="8.279662979766727">
        <ele>230.233</ele>
        <time>2013-04-07T12:40:58Z</time>
      </trkpt>
      <trkpt lat="46.060125008225441" lon="8.279683012515307">
        <ele>230.06800000000001</ele>
        <time>2013-04-07T12:41:04Z</time>
      </trkpt>
      <trkpt lat="46.059230994433165" lon="8.279856014996767">
        <ele>229.77500000000001</ele>
        <time>2013-04-07T12:41:16Z</time>
      </trkpt>
      <trkpt lat="46.058784993365407" lon="8.279837993904948">
        <ele>229.77199999999999</ele>
        <time>2013-04-07T12:41:22Z</time>
      </trkpt>
      <trkpt lat="46.058365982025862" lon="8.279710002243519">
        <ele>229.767</ele>
        <time>2013-04-07T12:41:28Z</time>
      </trkpt>
      <trkpt lat="46.058092983439565" lon="8.279566001147032">
        <ele>230.64599999999999</ele>
        <time>2013-04-07T12:41:33Z</time>
      </trkpt>
      <trkpt lat="46.057769022881985" lon="8.279386041685939">
        <ele>232.715</ele>
        <time>2013-04-07T12:41:41Z</time>
      </trkpt>
      <trkpt lat="46.057513961568475" lon="8.279247991740704">
        <ele>235.036</ele>
        <time>2013-04-07T12:41:48Z</time>
      </trkpt>
      <trkpt lat="46.057225959375501" lon="8.27908999286592">
        <ele>237.37899999999999</ele>
        <time>2013-04-07T12:41:56Z</time>
      </trkpt>
      <trkpt lat="46.056955978274345" lon="8.27894096262753">
        <ele>239.40000000000001</ele>
        <time>2013-04-07T12:42:03Z</time>
      </trkpt>
      <trkpt lat="46.056681973859668" lon="8.278860999271274">
        <ele>240.06200000000001</ele>
        <time>2013-04-07T12:42:09Z</time>
      </trkpt>
      <trkpt lat="46.056632017716765" lon="8.278858987614512">
        <ele>240.05799999999999</ele>
        <time>2013-04-07T12:42:10Z</time>
      </trkpt>
      <trkpt lat="46.056289030238986" lon="8.278978010639548">
        <ele>240.09</ele>
        <time>2013-04-07T12:42:17Z</time>
      </trkpt>
      <trkpt lat="46.055900026112795" lon="8.279216978698969">
        <ele>241.07300000000001</ele>
        <time>2013-04-07T12:42:25Z</time>
      </trkpt>
      <trkpt lat="46.055616969242692" lon="8.279375983402133">
        <ele>240.25999999999999</ele>
        <time>2013-04-07T12:42:32Z</time>
      </trkpt>
      <trkpt lat="46.055399039760232" lon="8.279505986720324">
        <ele>240.45699999999999</ele>
        <time>2013-04-07T12:42:37Z</time>
      </trkpt>
      <trkpt lat="46.055056974291801" lon="8.279719976708293">
        <ele>239.15299999999999</ele>
        <time>2013-04-07T12:42:44Z</time>
      </trkpt>
      <trkpt lat="46.054649027064443" lon="8.279952993616462">
        <ele>236.90600000000001</ele>
        <time>2013-04-07T12:42:50Z</time>
      </trkpt>
      <trkpt lat="46.054361024871469" lon="8.280119961127639">
        <ele>234.12200000000001</ele>
        <time>2013-04-07T12:42:54Z</time>
      </trkpt>
      <trkpt lat="46.054196991026402" lon="8.280116021633148">
        <ele>232.16</ele>
        <time>2013-04-07T12:42:57Z</time>
      </trkpt>
      <trkpt lat="46.054118033498526" lon="8.280039997771382">
        <ele>232.18899999999999</ele>
        <time>2013-04-07T12:42:59Z</time>
      </trkpt>
      <trkpt lat="46.05382801964879" lon="8.279674965888262">
        <ele>232.89400000000001</ele>
        <time>2013-04-07T12:43:08Z</time>
      </trkpt>
      <trkpt lat="46.053524008020759" lon="8.279288979247212">
        <ele>231.941</ele>
        <time>2013-04-07T12:43:17Z</time>
      </trkpt>
      <trkpt lat="46.053412025794387" lon="8.279147995635867">
        <ele>231.55500000000001</ele>
        <time>2013-04-07T12:43:20Z</time>
      </trkpt>
      <trkpt lat="46.053141038864851" lon="8.27883099205792">
        <ele>229.94399999999999</ele>
        <time>2013-04-07T12:43:27Z</time>
      </trkpt>
      <trkpt lat="46.053020004183054" lon="8.278710963204503">
        <ele>229.715</ele>
        <time>2013-04-07T12:43:30Z</time>
      </trkpt>
      <trkpt lat="46.052701994776726" lon="8.278585989028215">
        <ele>229.47</ele>
        <time>2013-04-07T12:43:37Z</time>
      </trkpt>
      <trkpt lat="46.052560005337" lon="8.278580959886313">
        <ele>229.28999999999999</ele>
        <time>2013-04-07T12:43:40Z</time>
      </trkpt>
      <trkpt lat="46.052141999825835" lon="8.278696965426207">
        <ele>227.93899999999999</ele>
        <time>2013-04-07T12:43:48Z</time>
      </trkpt>
      <trkpt lat="46.051770010963082" lon="8.278826968744397">
        <ele>227.93100000000001</ele>
        <time>2013-04-07T12:43:55Z</time>
      </trkpt>
      <trkpt lat="46.051202975213528" lon="8.278998965397477">
        <ele>226.22999999999999</ele>
        <time>2013-04-07T12:44:05Z</time>
      </trkpt>
      <trkpt lat="46.050841966643929" lon="8.279140032827854">
        <ele>225.857</ele>
        <time>2013-04-07T12:44:11Z</time>
      </trkpt>
      <trkpt lat="46.050298986956477" lon="8.279302977025509">
        <ele>225.36199999999999</ele>
        <time>2013-04-07T12:44:19Z</time>
      </trkpt>
      <trkpt lat="46.049714013934135" lon="8.279402973130345">
        <ele>224.429</ele>
        <time>2013-04-07T12:44:27Z</time>
      </trkpt>
      <trkpt lat="46.04918503202498" lon="8.279434992000461">
        <ele>223.589</ele>
        <time>2013-04-07T12:44:34Z</time>
      </trkpt>
      <trkpt lat="46.048749005421996" lon="8.279328038915992">
        <ele>223.244</ele>
        <time>2013-04-07T12:44:40Z</time>
      </trkpt>
      <trkpt lat="46.048181969672441" lon="8.279135003685951">
        <ele>223.50200000000001</ele>
        <time>2013-04-07T12:44:48Z</time>
      </trkpt>
      <trkpt lat="46.047619041055441" lon="8.279030984267592">
        <ele>223.58600000000001</ele>
        <time>2013-04-07T12:44:56Z</time>
      </trkpt>
      <trkpt lat="46.047242023050785" lon="8.279069038107991">
        <ele>222.75800000000001</ele>
        <time>2013-04-07T12:45:02Z</time>
      </trkpt>
      <trkpt lat="46.04678001254797" lon="8.279104996472597">
        <ele>222.92599999999999</ele>
        <time>2013-04-07T12:45:10Z</time>
      </trkpt>
      <trkpt lat="46.046150028705597" lon="8.279180014505982">
        <ele>223.16800000000001</ele>
        <time>2013-04-07T12:45:20Z</time>
      </trkpt>
      <trkpt lat="46.04549297131598" lon="8.279255032539368">
        <ele>223.10499999999999</ele>
        <time>2013-04-07T12:45:30Z</time>
      </trkpt>
      <trkpt lat="46.044691996648908" lon="8.279344970360398">
        <ele>222.827</ele>
        <time>2013-04-07T12:45:42Z</time>
      </trkpt>
      <trkpt lat="46.04409595951438" lon="8.279328038915992">
        <ele>222.791</ele>
        <time>2013-04-07T12:45:51Z</time>
      </trkpt>
      <trkpt lat="46.043231030926108" lon="8.27919602394104">
        <ele>222.971</ele>
        <time>2013-04-07T12:46:04Z</time>
      </trkpt>
      <trkpt lat="46.042565004900098" lon="8.279098961502314">
        <ele>223.17599999999999</ele>
        <time>2013-04-07T12:46:14Z</time>
      </trkpt>
      <trkpt lat="46.041954969987273" lon="8.279038025066257">
        <ele>224.98699999999999</ele>
        <time>2013-04-07T12:46:24Z</time>
      </trkpt>
      <trkpt lat="46.041451971977949" lon="8.279081024229527">
        <ele>225.345</ele>
        <time>2013-04-07T12:46:33Z</time>
      </trkpt>
      <trkpt lat="46.040869010612369" lon="8.279146989807487">
        <ele>227.16300000000001</ele>
        <time>2013-04-07T12:46:44Z</time>
      </trkpt>
      <trkpt lat="46.04024900123477" lon="8.279224019497633">
        <ele>229.71899999999999</ele>
        <time>2013-04-07T12:46:56Z</time>
      </trkpt>
      <trkpt lat="46.039766035974026" lon="8.279290990903974">
        <ele>231.50899999999999</ele>
        <time>2013-04-07T12:47:06Z</time>
      </trkpt>
      <trkpt lat="46.03936898522079" lon="8.279415965080261">
        <ele>230.91300000000001</ele>
        <time>2013-04-07T12:47:14Z</time>
      </trkpt>
      <trkpt lat="46.038872022181749" lon="8.279664991423488">
        <ele>230.11799999999999</ele>
        <time>2013-04-07T12:47:23Z</time>
      </trkpt>
      <trkpt lat="46.038417974486947" lon="8.279886022210121">
        <ele>228.142</ele>
        <time>2013-04-07T12:47:31Z</time>
      </trkpt>
      <trkpt lat="46.037878012284636" lon="8.280158014968038">
        <ele>226.82499999999999</ele>
        <time>2013-04-07T12:47:40Z</time>
      </trkpt>
      <trkpt lat="46.037256997078657" lon="8.280451968312264">
        <ele>224.583</ele>
        <time>2013-04-07T12:47:50Z</time>
      </trkpt>
      <trkpt lat="46.036934964358807" lon="8.280602004379034">
        <ele>223.76300000000001</ele>
        <time>2013-04-07T12:47:55Z</time>
      </trkpt>
      <trkpt lat="46.036664983257651" lon="8.280589012429118">
        <ele>223.321</ele>
        <time>2013-04-07T12:47:59Z</time>
      </trkpt>
      <trkpt lat="46.036376981064677" lon="8.280425984412432">
        <ele>223.369</ele>
        <time>2013-04-07T12:48:04Z</time>
      </trkpt>
      <trkpt lat="46.036214036867023" lon="8.280418021604419">
        <ele>223.511</ele>
        <time>2013-04-07T12:48:07Z</time>
      </trkpt>
      <trkpt lat="46.035871971398592" lon="8.280604016035795">
        <ele>223.22900000000001</ele>
        <time>2013-04-07T12:48:14Z</time>
      </trkpt>
      <trkpt lat="46.035652030259371" lon="8.280847007408738">
        <ele>222.90700000000001</ele>
        <time>2013-04-07T12:48:20Z</time>
      </trkpt>
      <trkpt lat="46.035405015572906" lon="8.281132997944951">
        <ele>222.24100000000001</ele>
        <time>2013-04-07T12:48:28Z</time>
      </trkpt>
      <trkpt lat="46.035216003656387" lon="8.281343970447779">
        <ele>222.45500000000001</ele>
        <time>2013-04-07T12:48:34Z</time>
      </trkpt>
      <trkpt lat="46.034872010350227" lon="8.281793994829059">
        <ele>222.40799999999999</ele>
        <time>2013-04-07T12:48:44Z</time>
      </trkpt>
      <trkpt lat="46.03466397151351" lon="8.282210994511843">
        <ele>222.01300000000001</ele>
        <time>2013-04-07T12:48:51Z</time>
      </trkpt>
      <trkpt lat="46.034455010667443" lon="8.282536966726184">
        <ele>222.214</ele>
        <time>2013-04-07T12:48:57Z</time>
      </trkpt>
      <trkpt lat="46.034192992374301" lon="8.282732013612986">
        <ele>222.488</ele>
        <time>2013-04-07T12:49:03Z</time>
      </trkpt>
      <trkpt lat="46.033968022093177" lon="8.282748023048043">
        <ele>222.077</ele>
        <time>2013-04-07T12:49:07Z</time>
      </trkpt>
      <trkpt lat="46.033773981034756" lon="8.282708963379264">
        <ele>221.93600000000001</ele>
        <time>2013-04-07T12:49:10Z</time>
      </trkpt>
      <trkpt lat="46.033512968569994" lon="8.282625982537866">
        <ele>222.34700000000001</ele>
        <time>2013-04-07T12:49:15Z</time>
      </trkpt>
      <trkpt lat="46.033321022987366" lon="8.282773001119494">
        <ele>222.64400000000001</ele>
        <time>2013-04-07T12:49:19Z</time>
      </trkpt>
      <trkpt lat="46.033247010782361" lon="8.282890012487769">
        <ele>222.79499999999999</ele>
        <time>2013-04-07T12:49:21Z</time>
      </trkpt>
      <trkpt lat="46.032958002761006" lon="8.283375995233655">
        <ele>223.65100000000001</ele>
        <time>2013-04-07T12:49:29Z</time>
      </trkpt>
      <trkpt lat="46.032714005559683" lon="8.283597026020289">
        <ele>224.02600000000001</ele>
        <time>2013-04-07T12:49:34Z</time>
      </trkpt>
      <trkpt lat="46.032368000596762" lon="8.283747984096408">
        <ele>224.40600000000001</ele>
        <time>2013-04-07T12:49:40Z</time>
      </trkpt>
      <trkpt lat="46.03174002841115" lon="8.283959962427616">
        <ele>225.345</ele>
        <time>2013-04-07T12:49:51Z</time>
      </trkpt>
      <trkpt lat="46.031403997913003" lon="8.28426699154079">
        <ele>225.89500000000001</ele>
        <time>2013-04-07T12:49:58Z</time>
      </trkpt>
      <trkpt lat="46.031215991824865" lon="8.284442005679011">
        <ele>225.63</ele>
        <time>2013-04-07T12:50:02Z</time>
      </trkpt>
      <trkpt lat="46.030873004347086" lon="8.284557005390525">
        <ele>224.49799999999999</ele>
        <time>2013-04-07T12:50:08Z</time>
      </trkpt>
      <trkpt lat="46.030376041308045" lon="8.284647027030587">
        <ele>225.23599999999999</ele>
        <time>2013-04-07T12:50:17Z</time>
      </trkpt>
      <trkpt lat="46.02980699390173" lon="8.284701006487012">
        <ele>226.59800000000001</ele>
        <time>2013-04-07T12:50:28Z</time>
      </trkpt>
      <trkpt lat="46.029321011155844" lon="8.284737970679998">
        <ele>227.09</ele>
        <time>2013-04-07T12:50:37Z</time>
      </trkpt>
      <trkpt lat="46.028778031468391" lon="8.284741993993521">
        <ele>227.667</ele>
        <time>2013-04-07T12:50:46Z</time>
      </trkpt>
      <trkpt lat="46.028210995718837" lon="8.284667981788516">
        <ele>226.55500000000001</ele>
        <time>2013-04-07T12:50:55Z</time>
      </trkpt>
      <trkpt lat="46.027511022984982" lon="8.284537978470326">
        <ele>225.27000000000001</ele>
        <time>2013-04-07T12:51:05Z</time>
      </trkpt>
      <trkpt lat="46.026866035535932" lon="8.284295992925763">
        <ele>225.042</ele>
        <time>2013-04-07T12:51:14Z</time>
      </trkpt>
      <trkpt lat="46.026321966201067" lon="8.2840730343014">
        <ele>224.529</ele>
        <time>2013-04-07T12:51:22Z</time>
      </trkpt>
      <trkpt lat="46.025729030370712" lon="8.283832976594567">
        <ele>223.13999999999999</ele>
        <time>2013-04-07T12:51:31Z</time>
      </trkpt>
      <trkpt lat="46.025192001834512" lon="8.283608006313443">
        <ele>223.511</ele>
        <time>2013-04-07T12:51:40Z</time>
      </trkpt>
      <trkpt lat="46.024582972750068" lon="8.283431986346841">
        <ele>223.804</ele>
        <time>2013-04-07T12:51:50Z</time>
      </trkpt>
      <trkpt lat="46.023957012221217" lon="8.28332100994885">
        <ele>223.38999999999999</ele>
        <time>2013-04-07T12:52:00Z</time>
      </trkpt>
      <trkpt lat="46.023757020011544" lon="8.283272981643677">
        <ele>224.096</ele>
        <time>2013-04-07T12:52:03Z</time>
      </trkpt>
      <trkpt lat="46.023329040035605" lon="8.28299998305738">
        <ele>225.119</ele>
        <time>2013-04-07T12:52:10Z</time>
      </trkpt>
      <trkpt lat="46.023102980107069" lon="8.2828279864043">
        <ele>225.554</ele>
        <time>2013-04-07T12:52:14Z</time>
      </trkpt>
      <trkpt lat="46.022795028984547" lon="8.28280602581799">
        <ele>226.596</ele>
        <time>2013-04-07T12:52:19Z</time>
      </trkpt>
      <trkpt lat="46.022152975201607" lon="8.283144989982247">
        <ele>223.48699999999999</ele>
        <time>2013-04-07T12:52:31Z</time>
      </trkpt>
      <trkpt lat="46.021757014095783" lon="8.283395022153854">
        <ele>221.256</ele>
        <time>2013-04-07T12:52:38Z</time>
      </trkpt>
      <trkpt lat="46.021225014701486" lon="8.283653017133474">
        <ele>220.24799999999999</ele>
        <time>2013-04-07T12:52:47Z</time>
      </trkpt>
      <trkpt lat="46.020809020847082" lon="8.283820990473032">
        <ele>218.91800000000001</ele>
        <time>2013-04-07T12:52:54Z</time>
      </trkpt>
      <trkpt lat="46.020553037524223" lon="8.284063981845975">
        <ele>219.155</ele>
        <time>2013-04-07T12:52:59Z</time>
      </trkpt>
      <trkpt lat="46.020479025319219" lon="8.28420395962894">
        <ele>219.15299999999999</ele>
        <time>2013-04-07T12:53:01Z</time>
      </trkpt>
      <trkpt lat="46.020350027829409" lon="8.284542001783848">
        <ele>218.72999999999999</ele>
        <time>2013-04-07T12:53:05Z</time>
      </trkpt>
      <trkpt lat="46.020165961235762" lon="8.284647027030587">
        <ele>218.44</ele>
        <time>2013-04-07T12:53:08Z</time>
      </trkpt>
      <trkpt lat="46.019532037898898" lon="8.284801002591848">
        <ele>219.523</ele>
        <time>2013-04-07T12:53:18Z</time>
      </trkpt>
      <trkpt lat="46.019049994647503" lon="8.2849330175668">
        <ele>220.88900000000001</ele>
        <time>2013-04-07T12:53:26Z</time>
      </trkpt>
      <trkpt lat="46.018803985789418" lon="8.284988002851605">
        <ele>219.387</ele>
        <time>2013-04-07T12:53:31Z</time>
      </trkpt>
      <trkpt lat="46.018413975834846" lon="8.28512697480619">
        <ele>218.13499999999999</ele>
        <time>2013-04-07T12:53:40Z</time>
      </trkpt>
      <trkpt lat="46.018238039687276" lon="8.285201992839575">
        <ele>217.36000000000001</ele>
        <time>2013-04-07T12:53:44Z</time>
      </trkpt>
      <trkpt lat="46.018061013892293" lon="8.285198975354433">
        <ele>217.696</ele>
        <time>2013-04-07T12:53:48Z</time>
      </trkpt>
      <trkpt lat="46.017795978114009" lon="8.285168968141079">
        <ele>218.48699999999999</ele>
        <time>2013-04-07T12:53:55Z</time>
      </trkpt>
      <trkpt lat="46.017720960080624" lon="8.285216996446252">
        <ele>218.202</ele>
        <time>2013-04-07T12:53:57Z</time>
      </trkpt>
      <trkpt lat="46.017461037263274" lon="8.285228982567787">
        <ele>218.392</ele>
        <time>2013-04-07T12:54:04Z</time>
      </trkpt>
      <trkpt lat="46.017121989279985" lon="8.285079030320048">
        <ele>219.13399999999999</ele>
        <time>2013-04-07T12:54:13Z</time>
      </trkpt>
      <trkpt lat="46.016728039830923" lon="8.284967970103025">
        <ele>220.84899999999999</ele>
        <time>2013-04-07T12:54:23Z</time>
      </trkpt>
      <trkpt lat="46.016381029039621" lon="8.284922959282994">
        <ele>221.727</ele>
        <time>2013-04-07T12:54:32Z</time>
      </trkpt>
      <trkpt lat="46.015937961637974" lon="8.284923965111375">
        <ele>221.06899999999999</ele>
        <time>2013-04-07T12:54:43Z</time>
      </trkpt>
      <trkpt lat="46.015631016343832" lon="8.285006023943424">
        <ele>220.02600000000001</ele>
        <time>2013-04-07T12:54:50Z</time>
      </trkpt>
      <trkpt lat="46.015490032732487" lon="8.285067966207862">
        <ele>219.72399999999999</ele>
        <time>2013-04-07T12:54:53Z</time>
      </trkpt>
      <trkpt lat="46.015044031664729" lon="8.285398967564106">
        <ele>217.66999999999999</ele>
        <time>2013-04-07T12:55:03Z</time>
      </trkpt>
      <trkpt lat="46.014684028923512" lon="8.285716976970434">
        <ele>218.05000000000001</ele>
        <time>2013-04-07T12:55:12Z</time>
      </trkpt>
      <trkpt lat="46.014328971505165" lon="8.286005984991789">
        <ele>215.94999999999999</ele>
        <time>2013-04-07T12:55:20Z</time>
      </trkpt>
      <trkpt lat="46.013943990692496" lon="8.286326006054878">
        <ele>214.87200000000001</ele>
        <time>2013-04-07T12:55:27Z</time>
      </trkpt>
      <trkpt lat="46.013611983507872" lon="8.286658013239503">
        <ele>214.14400000000001</ele>
        <time>2013-04-07T12:55:33Z</time>
      </trkpt>
      <trkpt lat="46.013065986335278" lon="8.287292020395398">
        <ele>212.292</ele>
        <time>2013-04-07T12:55:44Z</time>
      </trkpt>
      <trkpt lat="46.012546978890896" lon="8.287870036438108">
        <ele>213.16300000000001</ele>
        <time>2013-04-07T12:55:55Z</time>
      </trkpt>
      <trkpt lat="46.012023026123643" lon="8.288460038602352">
        <ele>212.04900000000001</ele>
        <time>2013-04-07T12:56:07Z</time>
      </trkpt>
      <trkpt lat="46.011607032269239" lon="8.289005029946566">
        <ele>211.69800000000001</ele>
        <time>2013-04-07T12:56:17Z</time>
      </trkpt>
      <trkpt lat="46.011152984574437" lon="8.289705002680421">
        <ele>210.81100000000001</ele>
        <time>2013-04-07T12:56:29Z</time>
      </trkpt>
      <trkpt lat="46.010778984054923" lon="8.290292993187904">
        <ele>210.43000000000001</ele>
        <time>2013-04-07T12:56:39Z</time>
      </trkpt>
      <trkpt lat="46.010432979092002" lon="8.290942003950477">
        <ele>210.078</ele>
        <time>2013-04-07T12:56:49Z</time>
      </trkpt>
      <trkpt lat="46.010078005492687" lon="8.291255990043283">
        <ele>210.34299999999999</ele>
        <time>2013-04-07T12:56:56Z</time>
      </trkpt>
      <trkpt lat="46.009732000529766" lon="8.291492024436593">
        <ele>209.84200000000001</ele>
        <time>2013-04-07T12:57:03Z</time>
      </trkpt>
      <trkpt lat="46.009328998625278" lon="8.291752031072974">
        <ele>210.11099999999999</ele>
        <time>2013-04-07T12:57:11Z</time>
      </trkpt>
      <trkpt lat="46.008693985641003" lon="8.292164001613855">
        <ele>210.923</ele>
        <time>2013-04-07T12:57:23Z</time>
      </trkpt>
      <trkpt lat="46.008318979293108" lon="8.29243197105825">
        <ele>212.52199999999999</ele>
        <time>2013-04-07T12:57:31Z</time>
      </trkpt>
      <trkpt lat="46.007945984601974" lon="8.292673034593463">
        <ele>213.37299999999999</ele>
        <time>2013-04-07T12:57:40Z</time>
      </trkpt>
      <trkpt lat="46.007650019600987" lon="8.292944021522999">
        <ele>212.386</ele>
        <time>2013-04-07T12:57:47Z</time>
      </trkpt>
      <trkpt lat="46.007437035441399" lon="8.293291032314301">
        <ele>212.399</ele>
        <time>2013-04-07T12:57:53Z</time>
      </trkpt>
      <trkpt lat="46.00712195970118" lon="8.293998967856169">
        <ele>210.30699999999999</ele>
        <time>2013-04-07T12:58:03Z</time>
      </trkpt>
      <trkpt lat="46.006928002461791" lon="8.294283030554652">
        <ele>209.256</ele>
        <time>2013-04-07T12:58:08Z</time>
      </trkpt>
      <trkpt lat="46.006767991930246" lon="8.294573966413736">
        <ele>208.82499999999999</ele>
        <time>2013-04-07T12:58:13Z</time>
      </trkpt>
      <trkpt lat="46.00662499666214" lon="8.294850988313556">
        <ele>208.577</ele>
        <time>2013-04-07T12:58:18Z</time>
      </trkpt>
      <trkpt lat="46.006348980590701" lon="8.295352980494499">
        <ele>208.66999999999999</ele>
        <time>2013-04-07T12:58:26Z</time>
      </trkpt>
      <trkpt lat="46.006067013368011" lon="8.295924039557576">
        <ele>208.81200000000001</ele>
        <time>2013-04-07T12:58:35Z</time>
      </trkpt>
      <trkpt lat="46.0058309789747" lon="8.29634296707809">
        <ele>207.31200000000001</ele>
        <time>2013-04-07T12:58:42Z</time>
      </trkpt>
      <trkpt lat="46.005554962903261" lon="8.296853005886078">
        <ele>208.21199999999999</ele>
        <time>2013-04-07T12:58:51Z</time>
      </trkpt>
      <trkpt lat="46.005294034257531" lon="8.297343011945486">
        <ele>207.53399999999999</ele>
        <time>2013-04-07T12:59:00Z</time>
      </trkpt>
      <trkpt lat="46.004959009587765" lon="8.29797500744462">
        <ele>208.08699999999999</ele>
        <time>2013-04-07T12:59:12Z</time>
      </trkpt>
      <trkpt lat="46.004629014059901" lon="8.298584036529064">
        <ele>207.72300000000001</ele>
        <time>2013-04-07T12:59:24Z</time>
      </trkpt>
      <trkpt lat="46.004405971616507" lon="8.299003969877958">
        <ele>206.87200000000001</ele>
        <time>2013-04-07T12:59:32Z</time>
      </trkpt>
      <trkpt lat="46.004201034083962" lon="8.299468997865915">
        <ele>207.34</ele>
        <time>2013-04-07T12:59:40Z</time>
      </trkpt>
      <trkpt lat="46.004159962758422" lon="8.299870993942022">
        <ele>207.04499999999999</ele>
        <time>2013-04-07T12:59:46Z</time>
      </trkpt>
      <trkpt lat="46.004159040749073" lon="8.30001600086689">
        <ele>206.768</ele>
        <time>2013-04-07T12:59:48Z</time>
      </trkpt>
      <trkpt lat="46.00415300577879" lon="8.300760984420776">
        <ele>206.46100000000001</ele>
        <time>2013-04-07T12:59:58Z</time>
      </trkpt>
      <trkpt lat="46.00413297303021" lon="8.301643012091517">
        <ele>207.10499999999999</ele>
        <time>2013-04-07T13:00:09Z</time>
      </trkpt>
      <trkpt lat="46.004120986908674" lon="8.302349019795656">
        <ele>207.69900000000001</ele>
        <time>2013-04-07T13:00:18Z</time>
      </trkpt>
      <trkpt lat="46.004102965816855" lon="8.303092997521162">
        <ele>208.227</ele>
        <time>2013-04-07T13:00:28Z</time>
      </trkpt>
      <trkpt lat="46.004083016887307" lon="8.303808979690075">
        <ele>207.42099999999999</ele>
        <time>2013-04-07T13:00:38Z</time>
      </trkpt>
      <trkpt lat="46.004059966653585" lon="8.304698970168829">
        <ele>206.15899999999999</ele>
        <time>2013-04-07T13:00:50Z</time>
      </trkpt>
      <trkpt lat="46.004049992188811" lon="8.305524000898004">
        <ele>206.34299999999999</ele>
        <time>2013-04-07T13:01:01Z</time>
      </trkpt>
      <trkpt lat="46.004027025774121" lon="8.306337967514992">
        <ele>207.06899999999999</ele>
        <time>2013-04-07T13:01:12Z</time>
      </trkpt>
      <trkpt lat="46.004009004682302" lon="8.307110024616122">
        <ele>206.232</ele>
        <time>2013-04-07T13:01:23Z</time>
      </trkpt>
      <trkpt lat="46.003991989418864" lon="8.30790001899004">
        <ele>205.78100000000001</ele>
        <time>2013-04-07T13:01:34Z</time>
      </trkpt>
      <trkpt lat="46.003971034660935" lon="8.308597980067134">
        <ele>205.58000000000001</ele>
        <time>2013-04-07T13:01:44Z</time>
      </trkpt>
      <trkpt lat="46.003947984427214" lon="8.309399038553238">
        <ele>205.02799999999999</ele>
        <time>2013-04-07T13:01:55Z</time>
      </trkpt>
      <trkpt lat="46.003930969163775" lon="8.310023993253708">
        <ele>205.61199999999999</ele>
        <time>2013-04-07T13:02:04Z</time>
      </trkpt>
      <trkpt lat="46.003910014405847" lon="8.310726983472705">
        <ele>205.333</ele>
        <time>2013-04-07T13:02:14Z</time>
      </trkpt>
      <trkpt lat="46.003891993314028" lon="8.311568023636937">
        <ele>204.70400000000001</ele>
        <time>2013-04-07T13:02:26Z</time>
      </trkpt>
      <trkpt lat="46.003869026899338" lon="8.312333039939404">
        <ele>205.209</ele>
        <time>2013-04-07T13:02:37Z</time>
      </trkpt>
      <trkpt lat="46.0038520116359" lon="8.312871996313334">
        <ele>204.22999999999999</ele>
        <time>2013-04-07T13:02:45Z</time>
      </trkpt>
      <trkpt lat="46.003834996372461" lon="8.313643969595432">
        <ele>204.571</ele>
        <time>2013-04-07T13:02:56Z</time>
      </trkpt>
      <trkpt lat="46.003813035786152" lon="8.314482998102903">
        <ele>204.458</ele>
        <time>2013-04-07T13:03:08Z</time>
      </trkpt>
      <trkpt lat="46.003795014694333" lon="8.315269974991679">
        <ele>204.13499999999999</ele>
        <time>2013-04-07T13:03:19Z</time>
      </trkpt>
      <trkpt lat="46.003780011087656" lon="8.31567901186645">
        <ele>204.22</ele>
        <time>2013-04-07T13:03:25Z</time>
      </trkpt>
      <trkpt lat="46.003764001652598" lon="8.316142028197646">
        <ele>204.08799999999999</ele>
        <time>2013-04-07T13:03:32Z</time>
      </trkpt>
      <trkpt lat="46.003742963075638" lon="8.316834960132837">
        <ele>203.44499999999999</ele>
        <time>2013-04-07T13:03:42Z</time>
      </trkpt>
      <trkpt lat="46.003726031631231" lon="8.317552031949163">
        <ele>203.977</ele>
        <time>2013-04-07T13:03:52Z</time>
      </trkpt>
      <trkpt lat="46.00370398722589" lon="8.318330040201545">
        <ele>203.565</ele>
        <time>2013-04-07T13:04:03Z</time>
      </trkpt>
      <trkpt lat="46.003696024417877" lon="8.318607984110713">
        <ele>203.36199999999999</ele>
        <time>2013-04-07T13:04:07Z</time>
      </trkpt>
      <trkpt lat="46.003671968355775" lon="8.319349028170109">
        <ele>203.322</ele>
        <time>2013-04-07T13:04:17Z</time>
      </trkpt>
      <trkpt lat="46.003658976405859" lon="8.319994015619159">
        <ele>203.501</ele>
        <time>2013-04-07T13:04:26Z</time>
      </trkpt>
      <trkpt lat="46.003642966970801" lon="8.320840001106262">
        <ele>203.911</ele>
        <time>2013-04-07T13:04:38Z</time>
      </trkpt>
      <trkpt lat="46.003621006384492" lon="8.321652039885521">
        <ele>203.95500000000001</ele>
        <time>2013-04-07T13:04:49Z</time>
      </trkpt>
      <trkpt lat="46.003604996949434" lon="8.322453014552593">
        <ele>204.74000000000001</ele>
        <time>2013-04-07T13:05:00Z</time>
      </trkpt>
      <trkpt lat="46.003586975857615" lon="8.323147958144546">
        <ele>206.20599999999999</ele>
        <time>2013-04-07T13:05:10Z</time>
      </trkpt>
      <trkpt lat="46.003570966422558" lon="8.323884978890419">
        <ele>206.673</ele>
        <time>2013-04-07T13:05:21Z</time>
      </trkpt>
      <trkpt lat="46.003546994179487" lon="8.324561985209584">
        <ele>207.197</ele>
        <time>2013-04-07T13:05:31Z</time>
      </trkpt>
      <trkpt lat="46.003517992794514" lon="8.325402019545436">
        <ele>207.91399999999999</ele>
        <time>2013-04-07T13:05:43Z</time>
      </trkpt>
      <trkpt lat="46.003495026379824" lon="8.326115990057588">
        <ele>208.554</ele>
        <time>2013-04-07T13:05:53Z</time>
      </trkpt>
      <trkpt lat="46.003482034429908" lon="8.326739016920328">
        <ele>209.35599999999999</ele>
        <time>2013-04-07T13:06:02Z</time>
      </trkpt>
      <trkpt lat="46.003455966711044" lon="8.327425997704268">
        <ele>209.74000000000001</ele>
        <time>2013-04-07T13:06:12Z</time>
      </trkpt>
      <trkpt lat="46.003390001133084" lon="8.327908962965012">
        <ele>210.31700000000001</ele>
        <time>2013-04-07T13:06:19Z</time>
      </trkpt>
      <trkpt lat="46.003262009471655" lon="8.32846300676465">
        <ele>211.58199999999999</ele>
        <time>2013-04-07T13:06:28Z</time>
      </trkpt>
      <trkpt lat="46.003171987831593" lon="8.328722007572651">
        <ele>212.03100000000001</ele>
        <time>2013-04-07T13:06:34Z</time>
      </trkpt>
      <trkpt lat="46.003127982839942" lon="8.32884999923408">
        <ele>211.47399999999999</ele>
        <time>2013-04-07T13:06:40Z</time>
      </trkpt>
      <trkpt lat="46.0031249653548" lon="8.328858967870474">
        <ele>211.36099999999999</ele>
        <time>2013-04-07T13:06:53Z</time>
      </trkpt>
      <trkpt lat="46.00312102586031" lon="8.328854022547603">
        <ele>211.34899999999999</ele>
        <time>2013-04-07T13:09:09Z</time>
      </trkpt>
      <trkpt lat="46.00318699143827" lon="8.328761989250779">
        <ele>211.35499999999999</ele>
        <time>2013-04-07T13:09:14Z</time>
      </trkpt>
      <trkpt lat="46.003224961459637" lon="8.328666016459465">
        <ele>211.654</ele>
        <time>2013-04-07T13:09:16Z</time>
      </trkpt>
      <trkpt lat="46.003368962556124" lon="8.328413972631097">
        <ele>212.03800000000001</ele>
        <time>2013-04-07T13:09:21Z</time>
      </trkpt>
      <trkpt lat="46.003456972539425" lon="8.32824700511992">
        <ele>210.98099999999999</ele>
        <time>2013-04-07T13:09:24Z</time>
      </trkpt>
      <trkpt lat="46.003467030823231" lon="8.328135022893548">
        <ele>209.923</ele>
        <time>2013-04-07T13:09:27Z</time>
      </trkpt>
      <trkpt lat="46.003470970317721" lon="8.328120019286871">
        <ele>209.88300000000001</ele>
        <time>2013-04-07T13:09:33Z</time>
      </trkpt>
      <trkpt lat="46.003449009731412" lon="8.328168969601393">
        <ele>209.95500000000001</ele>
        <time>2013-04-07T13:09:38Z</time>
      </trkpt>
      <trkpt lat="46.003446998074651" lon="8.328196965157986">
        <ele>209.90299999999999</ele>
        <time>2013-04-07T13:09:39Z</time>
      </trkpt>
      <trkpt lat="46.003431994467974" lon="8.328302996233106">
        <ele>209.96199999999999</ele>
        <time>2013-04-07T13:09:42Z</time>
      </trkpt>
      <trkpt lat="46.003334010019898" lon="8.328385977074504">
        <ele>210.45500000000001</ele>
        <time>2013-04-07T13:09:46Z</time>
      </trkpt>
      <trkpt lat="46.00325396284461" lon="8.328419001773">
        <ele>210.66200000000001</ele>
        <time>2013-04-07T13:09:50Z</time>
      </trkpt>
      <trkpt lat="46.003185985609889" lon="8.328607007861137">
        <ele>211.28700000000001</ele>
        <time>2013-04-07T13:09:54Z</time>
      </trkpt>
      <trkpt lat="46.003126977011561" lon="8.3288299664855">
        <ele>211.678</ele>
        <time>2013-04-07T13:09:59Z</time>
      </trkpt>
      <trkpt lat="46.003068974241614" lon="8.329072035849094">
        <ele>212.48699999999999</ele>
        <time>2013-04-07T13:10:05Z</time>
      </trkpt>
      <trkpt lat="46.002986999228597" lon="8.329422986134887">
        <ele>211.82499999999999</ele>
        <time>2013-04-07T13:10:11Z</time>
      </trkpt>
      <trkpt lat="46.002864958718419" lon="8.329906035214663">
        <ele>210.03200000000001</ele>
        <time>2013-04-07T13:10:17Z</time>
      </trkpt>
      <trkpt lat="46.002642000094056" lon="8.330783033743501">
        <ele>209.34800000000001</ele>
        <time>2013-04-07T13:10:26Z</time>
      </trkpt>
      <trkpt lat="46.002520965412259" lon="8.3312769792974">
        <ele>206.75700000000001</ele>
        <time>2013-04-07T13:10:31Z</time>
      </trkpt>
      <trkpt lat="46.002321979030967" lon="8.332086000591517">
        <ele>206.25200000000001</ele>
        <time>2013-04-07T13:10:39Z</time>
      </trkpt>
      <trkpt lat="46.002060966566205" lon="8.333142036572099">
        <ele>204.06100000000001</ele>
        <time>2013-04-07T13:10:50Z</time>
      </trkpt>
      <trkpt lat="46.001794002950191" lon="8.334197988733649">
        <ele>202.34200000000001</ele>
        <time>2013-04-07T13:11:01Z</time>
      </trkpt>
      <trkpt lat="46.001595016568899" lon="8.334982031956315">
        <ele>202.97800000000001</ele>
        <time>2013-04-07T13:11:10Z</time>
      </trkpt>
      <trkpt lat="46.001305002719164" lon="8.33613202907145">
        <ele>201.92400000000001</ele>
        <time>2013-04-07T13:11:24Z</time>
      </trkpt>
      <trkpt lat="46.001004008576274" lon="8.337324019521475">
        <ele>201.58500000000001</ele>
        <time>2013-04-07T13:11:38Z</time>
      </trkpt>
      <trkpt lat="46.000774009153247" lon="8.338220966979861">
        <ele>201.93000000000001</ele>
        <time>2013-04-07T13:11:49Z</time>
      </trkpt>
      <trkpt lat="46.000562030822039" lon="8.339061001315713">
        <ele>200.40700000000001</ele>
        <time>2013-04-07T13:12:00Z</time>
      </trkpt>
      <trkpt lat="46.000337982550263" lon="8.339946968480945">
        <ele>200.28700000000001</ele>
        <time>2013-04-07T13:12:12Z</time>
      </trkpt>
      <trkpt lat="46.000118963420391" lon="8.340833019465208">
        <ele>200.20400000000001</ele>
        <time>2013-04-07T13:12:24Z</time>
      </trkpt>
      <trkpt lat="45.999906985089183" lon="8.341704988852143">
        <ele>200.31999999999999</ele>
        <time>2013-04-07T13:12:36Z</time>
      </trkpt>
      <trkpt lat="45.999699030071497" lon="8.342510992661119">
        <ele>199.96199999999999</ele>
        <time>2013-04-07T13:12:47Z</time>
      </trkpt>
      <trkpt lat="45.999489985406399" lon="8.343332000076771">
        <ele>199.97300000000001</ele>
        <time>2013-04-07T13:12:58Z</time>
      </trkpt>
      <trkpt lat="45.999279012903571" lon="8.344154013320804">
        <ele>200.267</ele>
        <time>2013-04-07T13:13:09Z</time>
      </trkpt>
      <trkpt lat="45.999047001823783" lon="8.345064036548138">
        <ele>201.702</ele>
        <time>2013-04-07T13:13:21Z</time>
      </trkpt>
      <trkpt lat="45.998825971037149" lon="8.345942040905356">
        <ele>203.37200000000001</ele>
        <time>2013-04-07T13:13:33Z</time>
      </trkpt>
      <trkpt lat="45.998625978827477" lon="8.346741003915668">
        <ele>204.684</ele>
        <time>2013-04-07T13:13:44Z</time>
      </trkpt>
      <trkpt lat="45.998424980789423" lon="8.34754197858274">
        <ele>205.69499999999999</ele>
        <time>2013-04-07T13:13:55Z</time>
      </trkpt>
      <trkpt lat="45.998246027156711" lon="8.348266007378697">
        <ele>205.876</ele>
        <time>2013-04-07T13:14:04Z</time>
      </trkpt>
      <trkpt lat="45.998017033562064" lon="8.349178964272142">
        <ele>206.66</ele>
        <time>2013-04-07T13:14:15Z</time>
      </trkpt>
      <trkpt lat="45.997734982520342" lon="8.350315969437361">
        <ele>205.75399999999999</ele>
        <time>2013-04-07T13:14:29Z</time>
      </trkpt>
      <trkpt lat="45.997534990310669" lon="8.351114010438323">
        <ele>206.05099999999999</ele>
        <time>2013-04-07T13:14:39Z</time>
      </trkpt>
      <trkpt lat="45.997310020029545" lon="8.352044988423586">
        <ele>205.77000000000001</ele>
        <time>2013-04-07T13:14:51Z</time>
      </trkpt>
      <trkpt lat="45.997165013104677" lon="8.352701039984822">
        <ele>204.52099999999999</ele>
        <time>2013-04-07T13:14:58Z</time>
      </trkpt>
      <trkpt lat="45.996928978711367" lon="8.353693038225174">
        <ele>202.57900000000001</ele>
        <time>2013-04-07T13:15:08Z</time>
      </trkpt>
      <trkpt lat="45.996704008430243" lon="8.354602977633476">
        <ele>201.68299999999999</ele>
        <time>2013-04-07T13:15:18Z</time>
      </trkpt>
      <trkpt lat="45.996455987915397" lon="8.355612996965647">
        <ele>199.82400000000001</ele>
        <time>2013-04-07T13:15:30Z</time>
      </trkpt>
      <trkpt lat="45.996210984885693" lon="8.356571970507503">
        <ele>198.71299999999999</ele>
        <time>2013-04-07T13:15:42Z</time>
      </trkpt>
      <trkpt lat="45.995979979634285" lon="8.357489034533501">
        <ele>198.19900000000001</ele>
        <time>2013-04-07T13:15:54Z</time>
      </trkpt>
      <trkpt lat="45.995760960504413" lon="8.358343988656998">
        <ele>197.351</ele>
        <time>2013-04-07T13:16:05Z</time>
      </trkpt>
      <trkpt lat="45.995540013536811" lon="8.359201960265636">
        <ele>197.352</ele>
        <time>2013-04-07T13:16:16Z</time>
      </trkpt>
      <trkpt lat="45.995301967486739" lon="8.360119024291635">
        <ele>197.392</ele>
        <time>2013-04-07T13:16:28Z</time>
      </trkpt>
      <trkpt lat="45.995095018297434" lon="8.360924022272229">
        <ele>197.74000000000001</ele>
        <time>2013-04-07T13:16:39Z</time>
      </trkpt>
      <trkpt lat="45.99487298168242" lon="8.361817030236125">
        <ele>197.00899999999999</ele>
        <time>2013-04-07T13:16:51Z</time>
      </trkpt>
      <trkpt lat="45.994705008342862" lon="8.362596966326237">
        <ele>196.255</ele>
        <time>2013-04-07T13:17:01Z</time>
      </trkpt>
      <trkpt lat="45.994548015296459" lon="8.363389978185296">
        <ele>196.542</ele>
        <time>2013-04-07T13:17:11Z</time>
      </trkpt>
      <trkpt lat="45.994428992271423" lon="8.364297989755869">
        <ele>195.58500000000001</ele>
        <time>2013-04-07T13:17:22Z</time>
      </trkpt>
      <trkpt lat="45.994302006438375" lon="8.365355031564832">
        <ele>195.946</ele>
        <time>2013-04-07T13:17:35Z</time>
      </trkpt>
      <trkpt lat="45.994198992848396" lon="8.36623203009367">
        <ele>196.33699999999999</ele>
        <time>2013-04-07T13:17:46Z</time>
      </trkpt>
      <trkpt lat="45.99411902949214" lon="8.36692001670599">
        <ele>197.33199999999999</ele>
        <time>2013-04-07T13:17:55Z</time>
      </trkpt>
      <trkpt lat="45.994125986471772" lon="8.367482023313642">
        <ele>196.697</ele>
        <time>2013-04-07T13:18:02Z</time>
      </trkpt>
      <trkpt lat="45.99422900006175" lon="8.367870021611452">
        <ele>196.89099999999999</ele>
        <time>2013-04-07T13:18:07Z</time>
      </trkpt>
      <trkpt lat="45.994295971468091" lon="8.368013016879559">
        <ele>196.767</ele>
        <time>2013-04-07T13:18:09Z</time>
      </trkpt>
      <trkpt lat="45.994694028049707" lon="8.368550967425108">
        <ele>196.69900000000001</ele>
        <time>2013-04-07T13:18:18Z</time>
      </trkpt>
      <trkpt lat="45.994977001100779" lon="8.368905019015074">
        <ele>196.30600000000001</ele>
        <time>2013-04-07T13:18:24Z</time>
      </trkpt>
      <trkpt lat="45.995361981913447" lon="8.369484040886164">
        <ele>196.279</ele>
        <time>2013-04-07T13:18:33Z</time>
      </trkpt>
      <trkpt lat="45.995486034080386" lon="8.369981003925204">
        <ele>196.08799999999999</ele>
        <time>2013-04-07T13:18:39Z</time>
      </trkpt>
      <trkpt lat="45.995469018816948" lon="8.37042398750782">
        <ele>195.53100000000001</ele>
        <time>2013-04-07T13:18:44Z</time>
      </trkpt>
      <trkpt lat="45.995207000523806" lon="8.371531991288066">
        <ele>195.95699999999999</ele>
        <time>2013-04-07T13:18:57Z</time>
      </trkpt>
      <trkpt lat="45.99495998583734" lon="8.372539998963475">
        <ele>196.119</ele>
        <time>2013-04-07T13:19:09Z</time>
      </trkpt>
      <trkpt lat="45.994724035263062" lon="8.373530991375446">
        <ele>196.06399999999999</ele>
        <time>2013-04-07T13:19:21Z</time>
      </trkpt>
      <trkpt lat="45.994524965062737" lon="8.374363984912634">
        <ele>196.97800000000001</ele>
        <time>2013-04-07T13:19:31Z</time>
      </trkpt>
      <trkpt lat="45.994318015873432" lon="8.375247018411756">
        <ele>196.77199999999999</ele>
        <time>2013-04-07T13:19:42Z</time>
      </trkpt>
      <trkpt lat="45.994153982028365" lon="8.375990996137261">
        <ele>195.88300000000001</ele>
        <time>2013-04-07T13:19:51Z</time>
      </trkpt>
      <trkpt lat="45.994011992588639" lon="8.376564988866448">
        <ele>195.80500000000001</ele>
        <time>2013-04-07T13:19:58Z</time>
      </trkpt>
      <trkpt lat="45.993916019797325" lon="8.376968996599317">
        <ele>194.32599999999999</ele>
        <time>2013-04-07T13:20:03Z</time>
      </trkpt>
      <trkpt lat="45.993939992040396" lon="8.377045020461083">
        <ele>194.37</ele>
        <time>2013-04-07T13:20:04Z</time>
      </trkpt>
      <trkpt lat="45.993986008688807" lon="8.377417009323835">
        <ele>194.50200000000001</ele>
        <time>2013-04-07T13:20:10Z</time>
      </trkpt>
      <trkpt lat="45.993913002312183" lon="8.377607027068734">
        <ele>194.41900000000001</ele>
        <time>2013-04-07T13:20:16Z</time>
      </trkpt>
      <trkpt lat="45.993859022855759" lon="8.377678021788597">
        <ele>194.196</ele>
        <time>2013-04-07T13:20:22Z</time>
      </trkpt>
      <trkpt lat="45.99384200759232" lon="8.377702999860048">
        <ele>194.375</ele>
        <time>2013-04-07T13:20:29Z</time>
      </trkpt>
      <trkpt lat="45.993835972622037" lon="8.377676010131836">
        <ele>194.46700000000001</ele>
        <time>2013-04-07T13:21:34Z</time>
      </trkpt>
      <trkpt lat="45.993824992328882" lon="8.377848006784916">
        <ele>194.83000000000001</ele>
        <time>2013-04-07T13:21:40Z</time>
      </trkpt>
      <trkpt lat="45.993823986500502" lon="8.378161992877722">
        <ele>195.386</ele>
        <time>2013-04-07T13:21:45Z</time>
      </trkpt>
      <trkpt lat="45.99386497400701" lon="8.378790970891714">
        <ele>195.285</ele>
        <time>2013-04-07T13:21:54Z</time>
      </trkpt>
      <trkpt lat="45.993918031454086" lon="8.379312995821238">
        <ele>194.95400000000001</ele>
        <time>2013-04-07T13:22:02Z</time>
      </trkpt>
      <trkpt lat="45.993944015353918" lon="8.379756985232234">
        <ele>194.82300000000001</ele>
        <time>2013-04-07T13:22:08Z</time>
      </trkpt>
      <trkpt lat="45.994015010073781" lon="8.380613029003143">
        <ele>195.13499999999999</ele>
        <time>2013-04-07T13:22:18Z</time>
      </trkpt>
      <trkpt lat="45.99410000257194" lon="8.381637968122959">
        <ele>194.852</ele>
        <time>2013-04-07T13:22:29Z</time>
      </trkpt>
      <trkpt lat="45.99416202865541" lon="8.382372977212071">
        <ele>195.21000000000001</ele>
        <time>2013-04-07T13:22:37Z</time>
      </trkpt>
      <trkpt lat="45.994231011718512" lon="8.38325098156929">
        <ele>195.80600000000001</ele>
        <time>2013-04-07T13:22:47Z</time>
      </trkpt>
      <trkpt lat="45.994318015873432" lon="8.38427902199328">
        <ele>195.744</ele>
        <time>2013-04-07T13:22:59Z</time>
      </trkpt>
      <trkpt lat="45.994407031685114" lon="8.385330028831959">
        <ele>195.55600000000001</ele>
        <time>2013-04-07T13:23:11Z</time>
      </trkpt>
      <trkpt lat="45.994497975334525" lon="8.386417999863625">
        <ele>195.846</ele>
        <time>2013-04-07T13:23:23Z</time>
      </trkpt>
      <trkpt lat="45.994596965610981" lon="8.387605967000127">
        <ele>195.459</ele>
        <time>2013-04-07T13:23:36Z</time>
      </trkpt>
      <trkpt lat="45.994680030271411" lon="8.388658985495567">
        <ele>196.28299999999999</ele>
        <time>2013-04-07T13:23:47Z</time>
      </trkpt>
      <trkpt lat="45.99476401694119" lon="8.389679985120893">
        <ele>197.01400000000001</ele>
        <time>2013-04-07T13:23:58Z</time>
      </trkpt>
      <trkpt lat="45.994840040802956" lon="8.390638958662748">
        <ele>197.71199999999999</ele>
        <time>2013-04-07T13:24:09Z</time>
      </trkpt>
      <trkpt lat="45.994928972795606" lon="8.391731036826968">
        <ele>199.393</ele>
        <time>2013-04-07T13:24:22Z</time>
      </trkpt>
      <trkpt lat="45.995008014142513" lon="8.392724040895701">
        <ele>199.65700000000001</ele>
        <time>2013-04-07T13:24:34Z</time>
      </trkpt>
      <trkpt lat="45.995082026347518" lon="8.393634986132383">
        <ele>200.87899999999999</ele>
        <time>2013-04-07T13:24:45Z</time>
      </trkpt>
      <trkpt lat="45.995176993310452" lon="8.394848015159369">
        <ele>201.24199999999999</ele>
        <time>2013-04-07T13:24:59Z</time>
      </trkpt>
      <trkpt lat="45.995239019393921" lon="8.395645972341299">
        <ele>200.33500000000001</ele>
        <time>2013-04-07T13:25:08Z</time>
      </trkpt>
      <trkpt lat="45.995236001908779" lon="8.396307975053787">
        <ele>199.52099999999999</ele>
        <time>2013-04-07T13:25:15Z</time>
      </trkpt>
      <trkpt lat="45.995129970833659" lon="8.396885991096497">
        <ele>198.84</ele>
        <time>2013-04-07T13:25:21Z</time>
      </trkpt>
      <trkpt lat="45.994926039129496" lon="8.397459983825684">
        <ele>197.791</ele>
        <time>2013-04-07T13:25:27Z</time>
      </trkpt>
      <trkpt lat="45.994515996426344" lon="8.398451982066035">
        <ele>196.72</ele>
        <time>2013-04-07T13:25:37Z</time>
      </trkpt>
      <trkpt lat="45.994003023952246" lon="8.399682026356459">
        <ele>196.66499999999999</ele>
        <time>2013-04-07T13:25:49Z</time>
      </trkpt>
      <trkpt lat="45.993665987625718" lon="8.400496998801827">
        <ele>194.72200000000001</ele>
        <time>2013-04-07T13:25:58Z</time>
      </trkpt>
      <trkpt lat="45.993223004043102" lon="8.401559991762042">
        <ele>194.089</ele>
        <time>2013-04-07T13:26:11Z</time>
      </trkpt>
      <trkpt lat="45.993016976863146" lon="8.40204899199307">
        <ele>194.154</ele>
        <time>2013-04-07T13:26:18Z</time>
      </trkpt>
      <trkpt lat="45.99272302351892" lon="8.402764974161983">
        <ele>194.131</ele>
        <time>2013-04-07T13:26:29Z</time>
      </trkpt>
      <trkpt lat="45.992409037426114" lon="8.403527978807688">
        <ele>195.09999999999999</ele>
        <time>2013-04-07T13:26:41Z</time>
      </trkpt>
      <trkpt lat="45.992105025798082" lon="8.404257958754897">
        <ele>196.19399999999999</ele>
        <time>2013-04-07T13:26:52Z</time>
      </trkpt>
      <trkpt lat="45.991829009726644" lon="8.404918033629656">
        <ele>197.001</ele>
        <time>2013-04-07T13:27:02Z</time>
      </trkpt>
      <trkpt lat="45.991505971178412" lon="8.405704004690051">
        <ele>198.31899999999999</ele>
        <time>2013-04-07T13:27:14Z</time>
      </trkpt>
      <trkpt lat="45.991259040310979" lon="8.406342035159469">
        <ele>198.214</ele>
        <time>2013-04-07T13:27:23Z</time>
      </trkpt>
      <trkpt lat="45.99113398231566" lon="8.406904963776469">
        <ele>196.92500000000001</ele>
        <time>2013-04-07T13:27:29Z</time>
      </trkpt>
      <trkpt lat="45.991029962897301" lon="8.407438974827528">
        <ele>195.93000000000001</ele>
        <time>2013-04-07T13:27:34Z</time>
      </trkpt>
      <trkpt lat="45.990836005657911" lon="8.407796965911984">
        <ele>195.51599999999999</ele>
        <time>2013-04-07T13:27:38Z</time>
      </trkpt>
      <trkpt lat="45.990602988749743" lon="8.407928980886936">
        <ele>195.33199999999999</ele>
        <time>2013-04-07T13:27:41Z</time>
      </trkpt>
      <trkpt lat="45.990519002079964" lon="8.407939961180091">
        <ele>195.49799999999999</ele>
        <time>2013-04-07T13:27:42Z</time>
      </trkpt>
      <trkpt lat="45.990107031539083" lon="8.407967034727335">
        <ele>195.31</ele>
        <time>2013-04-07T13:27:47Z</time>
      </trkpt>
      <trkpt lat="45.989956995472312" lon="8.408023025840521">
        <ele>194.726</ele>
        <time>2013-04-07T13:27:49Z</time>
      </trkpt>
      <trkpt lat="45.989736970514059" lon="8.40812997892499">
        <ele>193.946</ele>
        <time>2013-04-07T13:27:52Z</time>
      </trkpt>
      <trkpt lat="45.989444022998214" lon="8.40838897973299">
        <ele>193.203</ele>
        <time>2013-04-07T13:27:57Z</time>
      </trkpt>
      <trkpt lat="45.989298010244966" lon="8.408711012452841">
        <ele>193.065</ele>
        <time>2013-04-07T13:28:01Z</time>
      </trkpt>
      <trkpt lat="45.989052001386881" lon="8.409605026245117">
        <ele>193.12200000000001</ele>
        <time>2013-04-07T13:28:11Z</time>
      </trkpt>
      <trkpt lat="45.988839017227292" lon="8.410094026476145">
        <ele>193.13499999999999</ele>
        <time>2013-04-07T13:28:17Z</time>
      </trkpt>
      <trkpt lat="45.988539028912783" lon="8.410504991188645">
        <ele>192.68700000000001</ele>
        <time>2013-04-07T13:28:23Z</time>
      </trkpt>
      <trkpt lat="45.988044999539852" lon="8.411028021946549">
        <ele>193.52000000000001</ele>
        <time>2013-04-07T13:28:32Z</time>
      </trkpt>
      <trkpt lat="45.98756798543036" lon="8.411532025784254">
        <ele>193.822</ele>
        <time>2013-04-07T13:28:41Z</time>
      </trkpt>
      <trkpt lat="45.987077979370952" lon="8.411974003538489">
        <ele>195.09399999999999</ele>
        <time>2013-04-07T13:28:50Z</time>
      </trkpt>
      <trkpt lat="45.986745972186327" lon="8.412368036806583">
        <ele>193.81</ele>
        <time>2013-04-07T13:28:57Z</time>
      </trkpt>
      <trkpt lat="45.986571963876486" lon="8.412827029824257">
        <ele>193.40799999999999</ele>
        <time>2013-04-07T13:29:03Z</time>
      </trkpt>
      <trkpt lat="45.986499963328242" lon="8.413134980946779">
        <ele>193.892</ele>
        <time>2013-04-07T13:29:07Z</time>
      </trkpt>
      <trkpt lat="45.986283961683512" lon="8.413462964817882">
        <ele>194.69499999999999</ele>
        <time>2013-04-07T13:29:13Z</time>
      </trkpt>
      <trkpt lat="45.985975004732609" lon="8.413782985880971">
        <ele>196.24600000000001</ele>
        <time>2013-04-07T13:29:21Z</time>
      </trkpt>
      <trkpt lat="45.985679039731622" lon="8.413933021947742">
        <ele>197.12100000000001</ele>
        <time>2013-04-07T13:29:28Z</time>
      </trkpt>
      <trkpt lat="45.985294980928302" lon="8.413980966433883">
        <ele>198.87799999999999</ele>
        <time>2013-04-07T13:29:36Z</time>
      </trkpt>
      <trkpt lat="45.984768010675907" lon="8.413976021111012">
        <ele>199.35900000000001</ele>
        <time>2013-04-07T13:29:47Z</time>
      </trkpt>
      <trkpt lat="45.984433991834521" lon="8.41406000778079">
        <ele>198.99199999999999</ele>
        <time>2013-04-07T13:29:53Z</time>
      </trkpt>
      <trkpt lat="45.983885983005166" lon="8.414336023852229">
        <ele>197.10400000000001</ele>
        <time>2013-04-07T13:30:02Z</time>
      </trkpt>
      <trkpt lat="45.983258010819554" lon="8.41466099023819">
        <ele>195.16399999999999</ele>
        <time>2013-04-07T13:30:11Z</time>
      </trkpt>
      <trkpt lat="45.98273104056716" lon="8.414963996037841">
        <ele>193.26499999999999</ele>
        <time>2013-04-07T13:30:18Z</time>
      </trkpt>
      <trkpt lat="45.982398027554154" lon="8.415249986574054">
        <ele>192.31700000000001</ele>
        <time>2013-04-07T13:30:23Z</time>
      </trkpt>
      <trkpt lat="45.981761002913117" lon="8.415895979851484">
        <ele>191.58000000000001</ele>
        <time>2013-04-07T13:30:34Z</time>
      </trkpt>
      <trkpt lat="45.981082990765572" lon="8.416582960635424">
        <ele>191.38999999999999</ele>
        <time>2013-04-07T13:30:46Z</time>
      </trkpt>
      <trkpt lat="45.980400033295155" lon="8.417278993874788">
        <ele>192.142</ele>
        <time>2013-04-07T13:30:58Z</time>
      </trkpt>
      <trkpt lat="45.979783963412046" lon="8.417905960232019">
        <ele>192.553</ele>
        <time>2013-04-07T13:31:09Z</time>
      </trkpt>
      <trkpt lat="45.979288006201386" lon="8.418400995433331">
        <ele>192.81</ele>
        <time>2013-04-07T13:31:18Z</time>
      </trkpt>
      <trkpt lat="45.978782996535301" lon="8.418910028412938">
        <ele>193.06700000000001</ele>
        <time>2013-04-07T13:31:27Z</time>
      </trkpt>
      <trkpt lat="45.978195006027818" lon="8.419507993385196">
        <ele>192.77500000000001</ele>
        <time>2013-04-07T13:31:38Z</time>
      </trkpt>
      <trkpt lat="45.977623024955392" lon="8.420090032741427">
        <ele>194.25200000000001</ele>
        <time>2013-04-07T13:31:49Z</time>
      </trkpt>
      <trkpt lat="45.977140981703997" lon="8.420632006600499">
        <ele>194.63900000000001</ele>
        <time>2013-04-07T13:31:59Z</time>
      </trkpt>
      <trkpt lat="45.976775027811527" lon="8.421216979622841">
        <ele>193.679</ele>
        <time>2013-04-07T13:32:08Z</time>
      </trkpt>
      <trkpt lat="45.97641502507031" lon="8.42183799482882">
        <ele>193.14599999999999</ele>
        <time>2013-04-07T13:32:17Z</time>
      </trkpt>
      <trkpt lat="45.97596600651741" lon="8.422581972554326">
        <ele>192.47499999999999</ele>
        <time>2013-04-07T13:32:28Z</time>
      </trkpt>
      <trkpt lat="45.97545001655817" lon="8.42344899661839">
        <ele>191.97200000000001</ele>
        <time>2013-04-07T13:32:40Z</time>
      </trkpt>
      <trkpt lat="45.975047014653683" lon="8.424117034301162">
        <ele>191.143</ele>
        <time>2013-04-07T13:32:49Z</time>
      </trkpt>
      <trkpt lat="45.974540999159217" lon="8.424963019788265">
        <ele>190.27500000000001</ele>
        <time>2013-04-07T13:33:00Z</time>
      </trkpt>
      <trkpt lat="45.974099021404982" lon="8.425695011392236">
        <ele>189.24600000000001</ele>
        <time>2013-04-07T13:33:10Z</time>
      </trkpt>
      <trkpt lat="45.973677998408675" lon="8.426351984962821">
        <ele>188.19300000000001</ele>
        <time>2013-04-07T13:33:19Z</time>
      </trkpt>
      <trkpt lat="45.973270973190665" lon="8.426766972988844">
        <ele>187.696</ele>
        <time>2013-04-07T13:33:26Z</time>
      </trkpt>
      <trkpt lat="45.972495982423425" lon="8.42740198597312">
        <ele>187.51300000000001</ele>
        <time>2013-04-07T13:33:39Z</time>
      </trkpt>
      <trkpt lat="45.971815036609769" lon="8.427959969267249">
        <ele>187.56</ele>
        <time>2013-04-07T13:33:51Z</time>
      </trkpt>
      <trkpt lat="45.971136018633842" lon="8.428518958389759">
        <ele>187.56200000000001</ele>
        <time>2013-04-07T13:34:03Z</time>
      </trkpt>
      <trkpt lat="45.970539981499314" lon="8.429011981934309">
        <ele>187.28299999999999</ele>
        <time>2013-04-07T13:34:13Z</time>
      </trkpt>
      <trkpt lat="45.969913015142083" lon="8.429525038227439">
        <ele>187.32400000000001</ele>
        <time>2013-04-07T13:34:23Z</time>
      </trkpt>
      <trkpt lat="45.969171971082687" lon="8.430132977664471">
        <ele>187.95599999999999</ele>
        <time>2013-04-07T13:34:35Z</time>
      </trkpt>
      <trkpt lat="45.968615999445319" lon="8.430589959025383">
        <ele>187.815</ele>
        <time>2013-04-07T13:34:44Z</time>
      </trkpt>
      <trkpt lat="45.968065978959203" lon="8.431039983406663">
        <ele>187.58600000000001</ele>
        <time>2013-04-07T13:34:53Z</time>
      </trkpt>
      <trkpt lat="45.967353014275432" lon="8.431630991399288">
        <ele>187.91800000000001</ele>
        <time>2013-04-07T13:35:05Z</time>
      </trkpt>
      <trkpt lat="45.966694029048085" lon="8.432187968865037">
        <ele>187.346</ele>
        <time>2013-04-07T13:35:16Z</time>
      </trkpt>
      <trkpt lat="45.966174015775323" lon="8.432734971866012">
        <ele>187.41800000000001</ele>
        <time>2013-04-07T13:35:25Z</time>
      </trkpt>
      <trkpt lat="45.965625001117587" lon="8.43335104174912">
        <ele>187.398</ele>
        <time>2013-04-07T13:35:35Z</time>
      </trkpt>
      <trkpt lat="45.965042961761355" lon="8.434002986177802">
        <ele>186.75999999999999</ele>
        <time>2013-04-07T13:35:45Z</time>
      </trkpt>
      <trkpt lat="45.964532000944018" lon="8.434602962806821">
        <ele>187.148</ele>
        <time>2013-04-07T13:35:54Z</time>
      </trkpt>
      <trkpt lat="45.964247016236186" lon="8.435097998008132">
        <ele>187.404</ele>
        <time>2013-04-07T13:36:00Z</time>
      </trkpt>
      <trkpt lat="45.964050041511655" lon="8.435661010444164">
        <ele>187.37100000000001</ele>
        <time>2013-04-07T13:36:06Z</time>
      </trkpt>
      <trkpt lat="45.963914003223181" lon="8.436393002048135">
        <ele>187.624</ele>
        <time>2013-04-07T13:36:13Z</time>
      </trkpt>
      <trkpt lat="45.963744018226862" lon="8.437419030815363">
        <ele>187.19999999999999</ele>
        <time>2013-04-07T13:36:23Z</time>
      </trkpt>
      <trkpt lat="45.963552994653583" lon="8.438394013792276">
        <ele>186.97800000000001</ele>
        <time>2013-04-07T13:36:33Z</time>
      </trkpt>
      <trkpt lat="45.96328997053206" lon="8.439308982342482">
        <ele>186.87100000000001</ele>
        <time>2013-04-07T13:36:43Z</time>
      </trkpt>
      <trkpt lat="45.963046979159117" lon="8.440130995586515">
        <ele>187.20099999999999</ele>
        <time>2013-04-07T13:36:52Z</time>
      </trkpt>
      <trkpt lat="45.962729975581169" lon="8.441183008253574">
        <ele>186.66300000000001</ele>
        <time>2013-04-07T13:37:04Z</time>
      </trkpt>
      <trkpt lat="45.96242998726666" lon="8.44222798012197">
        <ele>186.97499999999999</ele>
        <time>2013-04-07T13:37:16Z</time>
      </trkpt>
      <trkpt lat="45.962189007550478" lon="8.443071031942964">
        <ele>187.04599999999999</ele>
        <time>2013-04-07T13:37:26Z</time>
      </trkpt>
      <trkpt lat="45.961889019235969" lon="8.44407401047647">
        <ele>186.61199999999999</ele>
        <time>2013-04-07T13:37:38Z</time>
      </trkpt>
      <trkpt lat="45.961589030921459" lon="8.445053016766906">
        <ele>185.62200000000001</ele>
        <time>2013-04-07T13:37:49Z</time>
      </trkpt>
      <trkpt lat="45.961389960721135" lon="8.44572901725769">
        <ele>185.65100000000001</ele>
        <time>2013-04-07T13:37:57Z</time>
      </trkpt>
      <trkpt lat="45.961287030950189" lon="8.44613897614181">
        <ele>185.738</ele>
        <time>2013-04-07T13:38:03Z</time>
      </trkpt>
      <trkpt lat="45.961212012916803" lon="8.446572991088033">
        <ele>185.94300000000001</ele>
        <time>2013-04-07T13:38:10Z</time>
      </trkpt>
      <trkpt lat="45.961145041510463" lon="8.447093004360795">
        <ele>186.209</ele>
        <time>2013-04-07T13:38:17Z</time>
      </trkpt>
      <trkpt lat="45.960964998230338" lon="8.447588039562106">
        <ele>186.78299999999999</ele>
        <time>2013-04-07T13:38:24Z</time>
      </trkpt>
      <trkpt lat="45.960920993238688" lon="8.447732962667942">
        <ele>186.96100000000001</ele>
        <time>2013-04-07T13:38:26Z</time>
      </trkpt>
      <trkpt lat="45.960858967155218" lon="8.44794200733304">
        <ele>187.13399999999999</ele>
        <time>2013-04-07T13:38:29Z</time>
      </trkpt>
      <trkpt lat="45.960820997133851" lon="8.448079973459244">
        <ele>187.14400000000001</ele>
        <time>2013-04-07T13:38:31Z</time>
      </trkpt>
      <trkpt lat="45.96058102324605" lon="8.448580037802458">
        <ele>184.93799999999999</ele>
        <time>2013-04-07T13:38:38Z</time>
      </trkpt>
      <trkpt lat="45.960541963577271" lon="8.448660001158714">
        <ele>184.62700000000001</ele>
        <time>2013-04-07T13:38:39Z</time>
      </trkpt>
      <trkpt lat="45.96045495942235" lon="8.448797967284918">
        <ele>183.37799999999999</ele>
        <time>2013-04-07T13:38:41Z</time>
      </trkpt>
      <trkpt lat="45.960417995229363" lon="8.449049005284905">
        <ele>181.047</ele>
        <time>2013-04-07T13:38:44Z</time>
      </trkpt>
      <trkpt lat="45.960439033806324" lon="8.449137015268207">
        <ele>180.77600000000001</ele>
        <time>2013-04-07T13:38:45Z</time>
      </trkpt>
      <trkpt lat="45.960501981899142" lon="8.449300965294242">
        <ele>180.28800000000001</ele>
        <time>2013-04-07T13:38:47Z</time>
      </trkpt>
      <trkpt lat="45.960760982707143" lon="8.449879987165332">
        <ele>180.65100000000001</ele>
        <time>2013-04-07T13:38:55Z</time>
      </trkpt>
      <trkpt lat="45.961032975465059" lon="8.450418021529913">
        <ele>180.30199999999999</ele>
        <time>2013-04-07T13:39:03Z</time>
      </trkpt>
      <trkpt lat="45.961192985996604" lon="8.450955972075462">
        <ele>180.53299999999999</ele>
        <time>2013-04-07T13:39:10Z</time>
      </trkpt>
      <trkpt lat="45.961314020678401" lon="8.451596014201641">
        <ele>180.619</ele>
        <time>2013-04-07T13:39:18Z</time>
      </trkpt>
      <trkpt lat="45.961301028728485" lon="8.452095994725823">
        <ele>180.786</ele>
        <time>2013-04-07T13:39:24Z</time>
      </trkpt>
      <trkpt lat="45.961170019581914" lon="8.453063014894724">
        <ele>180.68199999999999</ele>
        <time>2013-04-07T13:39:35Z</time>
      </trkpt>
      <trkpt lat="45.961159039288759" lon="8.453153958544135">
        <ele>180.83600000000001</ele>
        <time>2013-04-07T13:39:36Z</time>
      </trkpt>
      <trkpt lat="45.961193991824985" lon="8.453801041468978">
        <ele>180.77000000000001</ele>
        <time>2013-04-07T13:39:43Z</time>
      </trkpt>
      <trkpt lat="45.96135500818491" lon="8.454853976145387">
        <ele>180.91900000000001</ele>
        <time>2013-04-07T13:39:54Z</time>
      </trkpt>
      <trkpt lat="45.961448969319463" lon="8.455565012991428">
        <ele>181.24600000000001</ele>
        <time>2013-04-07T13:40:01Z</time>
      </trkpt>
      <trkpt lat="45.961415022611618" lon="8.456481993198395">
        <ele>181.41800000000001</ele>
        <time>2013-04-07T13:40:10Z</time>
      </trkpt>
      <trkpt lat="45.961402030661702" lon="8.457683958113194">
        <ele>181.99600000000001</ele>
        <time>2013-04-07T13:40:22Z</time>
      </trkpt>
      <trkpt lat="45.961403958499432" lon="8.457782026380301">
        <ele>182.02099999999999</ele>
        <time>2013-04-07T13:40:23Z</time>
      </trkpt>
      <trkpt lat="45.961476964876056" lon="8.458153009414673">
        <ele>181.828</ele>
        <time>2013-04-07T13:40:27Z</time>
      </trkpt>
      <trkpt lat="45.961888013407588" lon="8.459167974069715">
        <ele>181.298</ele>
        <time>2013-04-07T13:40:39Z</time>
      </trkpt>
      <trkpt lat="45.9619150031358" lon="8.459261013194919">
        <ele>181.39599999999999</ele>
        <time>2013-04-07T13:40:40Z</time>
      </trkpt>
      <trkpt lat="45.961939981207252" lon="8.459763005375862">
        <ele>181.40799999999999</ele>
        <time>2013-04-07T13:40:45Z</time>
      </trkpt>
      <trkpt lat="45.961899999529123" lon="8.459962997585535">
        <ele>181.34700000000001</ele>
        <time>2013-04-07T13:40:47Z</time>
      </trkpt>
      <trkpt lat="45.96180897206068" lon="8.460349990054965">
        <ele>181.40700000000001</ele>
        <time>2013-04-07T13:40:51Z</time>
      </trkpt>
      <trkpt lat="45.961811989545822" lon="8.460851982235909">
        <ele>181.63</ele>
        <time>2013-04-07T13:40:56Z</time>
      </trkpt>
      <trkpt lat="45.961961019784212" lon="8.461521025747061">
        <ele>181.601</ele>
        <time>2013-04-07T13:41:03Z</time>
      </trkpt>
      <trkpt lat="45.961936041712761" lon="8.462027963250876">
        <ele>181.511</ele>
        <time>2013-04-07T13:41:08Z</time>
      </trkpt>
      <trkpt lat="45.961910979822278" lon="8.462124019861221">
        <ele>181.511</ele>
        <time>2013-04-07T13:41:09Z</time>
      </trkpt>
      <trkpt lat="45.961523987352848" lon="8.463353980332613">
        <ele>181.423</ele>
        <time>2013-04-07T13:41:22Z</time>
      </trkpt>
      <trkpt lat="45.961150992661715" lon="8.464515041559935">
        <ele>182.10599999999999</ele>
        <time>2013-04-07T13:41:34Z</time>
      </trkpt>
      <trkpt lat="45.960914036259055" lon="8.465283997356892">
        <ele>181.61799999999999</ele>
        <time>2013-04-07T13:41:42Z</time>
      </trkpt>
      <trkpt lat="45.960817979648709" lon="8.465890008956194">
        <ele>181.89099999999999</ele>
        <time>2013-04-07T13:41:48Z</time>
      </trkpt>
      <trkpt lat="45.96069099381566" lon="8.466572966426611">
        <ele>181.65199999999999</ele>
        <time>2013-04-07T13:41:55Z</time>
      </trkpt>
      <trkpt lat="45.960516985505819" lon="8.467009998857975">
        <ele>181.58600000000001</ele>
        <time>2013-04-07T13:42:00Z</time>
      </trkpt>
      <trkpt lat="45.960133010521531" lon="8.467840980738401">
        <ele>181.989</ele>
        <time>2013-04-07T13:42:10Z</time>
      </trkpt>
      <trkpt lat="45.95989303663373" lon="8.468340039253235">
        <ele>181.97900000000001</ele>
        <time>2013-04-07T13:42:16Z</time>
      </trkpt>
      <trkpt lat="45.959583995863795" lon="8.469007993116975">
        <ele>182.59200000000001</ele>
        <time>2013-04-07T13:42:24Z</time>
      </trkpt>
      <trkpt lat="45.959272021427751" lon="8.46964099444449">
        <ele>182.84</ele>
        <time>2013-04-07T13:42:32Z</time>
      </trkpt>
      <trkpt lat="45.958926016464829" lon="8.470179028809071">
        <ele>183.92500000000001</ele>
        <time>2013-04-07T13:42:40Z</time>
      </trkpt>
      <trkpt lat="45.95875502564013" lon="8.470453033223748">
        <ele>184.14699999999999</ele>
        <time>2013-04-07T13:42:44Z</time>
      </trkpt>
      <trkpt lat="45.958615969866514" lon="8.470871960744262">
        <ele>184.27000000000001</ele>
        <time>2013-04-07T13:42:49Z</time>
      </trkpt>
      <trkpt lat="45.958459982648492" lon="8.471632031723857">
        <ele>183.60599999999999</ele>
        <time>2013-04-07T13:42:57Z</time>
      </trkpt>
      <trkpt lat="45.958199976012111" lon="8.472110973671079">
        <ele>183.23099999999999</ele>
        <time>2013-04-07T13:43:03Z</time>
      </trkpt>
      <trkpt lat="45.95772597938776" lon="8.472711034119129">
        <ele>184.16</ele>
        <time>2013-04-07T13:43:12Z</time>
      </trkpt>
      <trkpt lat="45.957332029938698" lon="8.473113030195236">
        <ele>183.80000000000001</ele>
        <time>2013-04-07T13:43:19Z</time>
      </trkpt>
      <trkpt lat="45.956856021657586" lon="8.473558025434613">
        <ele>183.39099999999999</ele>
        <time>2013-04-07T13:43:27Z</time>
      </trkpt>
      <trkpt lat="45.956249004229903" lon="8.474382972344756">
        <ele>183.63300000000001</ele>
        <time>2013-04-07T13:43:39Z</time>
      </trkpt>
      <trkpt lat="45.955961002036929" lon="8.47482000477612">
        <ele>183.56299999999999</ele>
        <time>2013-04-07T13:43:45Z</time>
      </trkpt>
      <trkpt lat="45.95561801455915" lon="8.475134996697307">
        <ele>183.75399999999999</ele>
        <time>2013-04-07T13:43:51Z</time>
      </trkpt>
      <trkpt lat="45.955395977944136" lon="8.475321996957064">
        <ele>183.905</ele>
        <time>2013-04-07T13:43:55Z</time>
      </trkpt>
      <trkpt lat="45.955133037641644" lon="8.475757017731667">
        <ele>183.65000000000001</ele>
        <time>2013-04-07T13:44:01Z</time>
      </trkpt>
      <trkpt lat="45.955086015164852" lon="8.475942006334662">
        <ele>183.50200000000001</ele>
        <time>2013-04-07T13:44:03Z</time>
      </trkpt>
      <trkpt lat="45.954872025176883" lon="8.476563021540642">
        <ele>183.203</ele>
        <time>2013-04-07T13:44:10Z</time>
      </trkpt>
      <trkpt lat="45.954621993005276" lon="8.476899974048138">
        <ele>183.339</ele>
        <time>2013-04-07T13:44:15Z</time>
      </trkpt>
      <trkpt lat="45.954230977222323" lon="8.477117987349629">
        <ele>183.36099999999999</ele>
        <time>2013-04-07T13:44:21Z</time>
      </trkpt>
      <trkpt lat="45.953809032216668" lon="8.477448988705874">
        <ele>183.53200000000001</ele>
        <time>2013-04-07T13:44:28Z</time>
      </trkpt>
      <trkpt lat="45.953611973673105" lon="8.477843021973968">
        <ele>183.32599999999999</ele>
        <time>2013-04-07T13:44:33Z</time>
      </trkpt>
      <trkpt lat="45.953402006998658" lon="8.478254992514849">
        <ele>182.99799999999999</ele>
        <time>2013-04-07T13:44:38Z</time>
      </trkpt>
      <trkpt lat="45.952789960429072" lon="8.47911799326539">
        <ele>182.81999999999999</ele>
        <time>2013-04-07T13:44:50Z</time>
      </trkpt>
      <trkpt lat="45.952198030427098" lon="8.479956015944481">
        <ele>183.34899999999999</ele>
        <time>2013-04-07T13:45:02Z</time>
      </trkpt>
      <trkpt lat="45.951824029907584" lon="8.480511987581849">
        <ele>183.28399999999999</ele>
        <time>2013-04-07T13:45:10Z</time>
      </trkpt>
      <trkpt lat="45.951554970815778" lon="8.48107298836112">
        <ele>182.87700000000001</ele>
        <time>2013-04-07T13:45:17Z</time>
      </trkpt>
      <trkpt lat="45.951394960284233" lon="8.481604987755418">
        <ele>183.05600000000001</ele>
        <time>2013-04-07T13:45:23Z</time>
      </trkpt>
      <trkpt lat="45.951199997216463" lon="8.482416020706296">
        <ele>183.107</ele>
        <time>2013-04-07T13:45:32Z</time>
      </trkpt>
      <trkpt lat="45.950964968651533" lon="8.482877025380731">
        <ele>182.989</ele>
        <time>2013-04-07T13:45:38Z</time>
      </trkpt>
      <trkpt lat="45.950534977018833" lon="8.483469039201737">
        <ele>182.90600000000001</ele>
        <time>2013-04-07T13:45:47Z</time>
      </trkpt>
      <trkpt lat="45.949999960139394" lon="8.484202036634088">
        <ele>183.357</ele>
        <time>2013-04-07T13:45:58Z</time>
      </trkpt>
      <trkpt lat="45.94964699819684" lon="8.484758008271456">
        <ele>183.566</ele>
        <time>2013-04-07T13:46:06Z</time>
      </trkpt>
      <trkpt lat="45.949529986828566" lon="8.485204009339213">
        <ele>183.58000000000001</ele>
        <time>2013-04-07T13:46:11Z</time>
      </trkpt>
      <trkpt lat="45.949376011267304" lon="8.485744977369905">
        <ele>183.61600000000001</ele>
        <time>2013-04-07T13:46:17Z</time>
      </trkpt>
      <trkpt lat="45.949122039601207" lon="8.48620698787272">
        <ele>183.54400000000001</ele>
        <time>2013-04-07T13:46:23Z</time>
      </trkpt>
      <trkpt lat="45.948668997734785" lon="8.486934034153819">
        <ele>183.64699999999999</ele>
        <time>2013-04-07T13:46:33Z</time>
      </trkpt>
      <trkpt lat="45.948290973901749" lon="8.487502997741103">
        <ele>183.95400000000001</ele>
        <time>2013-04-07T13:46:42Z</time>
      </trkpt>
      <trkpt lat="45.947854025289416" lon="8.487999960780144">
        <ele>183.69800000000001</ele>
        <time>2013-04-07T13:46:51Z</time>
      </trkpt>
      <trkpt lat="45.947249019518495" lon="8.488649977371097">
        <ele>183.81899999999999</ele>
        <time>2013-04-07T13:47:03Z</time>
      </trkpt>
      <trkpt lat="45.946686007082462" lon="8.489263029769063">
        <ele>183.65600000000001</ele>
        <time>2013-04-07T13:47:15Z</time>
      </trkpt>
      <trkpt lat="45.946279987692833" lon="8.489696038886905">
        <ele>184.21700000000001</ele>
        <time>2013-04-07T13:47:24Z</time>
      </trkpt>
      <trkpt lat="45.946007994934916" lon="8.490000972524285">
        <ele>184.61799999999999</ele>
        <time>2013-04-07T13:47:31Z</time>
      </trkpt>
      <trkpt lat="45.945975976064801" lon="8.490032991394401">
        <ele>184.59800000000001</ele>
        <time>2013-04-07T13:47:32Z</time>
      </trkpt>
      <trkpt lat="45.945918979123235" lon="8.489967025816441">
        <ele>184.40700000000001</ele>
        <time>2013-04-07T13:47:36Z</time>
      </trkpt>
      <trkpt lat="45.945896012708545" lon="8.489918997511268">
        <ele>184.42599999999999</ele>
        <time>2013-04-07T13:47:38Z</time>
      </trkpt>
      <trkpt lat="45.945863993838429" lon="8.489615991711617">
        <ele>184.506</ele>
        <time>2013-04-07T13:47:44Z</time>
      </trkpt>
      <trkpt lat="45.945825017988682" lon="8.489292031154037">
        <ele>184.58799999999999</ele>
        <time>2013-04-07T13:47:49Z</time>
      </trkpt>
      <trkpt lat="45.945873968303204" lon="8.488990031182766">
        <ele>184.19900000000001</ele>
        <time>2013-04-07T13:47:53Z</time>
      </trkpt>
      <trkpt lat="45.945878997445107" lon="8.488655006513">
        <ele>183.96700000000001</ele>
        <time>2013-04-07T13:47:57Z</time>
      </trkpt>
      <trkpt lat="45.945723010227084" lon="8.488520979881287">
        <ele>184.13800000000001</ele>
        <time>2013-04-07T13:48:00Z</time>
      </trkpt>
      <trkpt lat="45.945551013574004" lon="8.488575965166092">
        <ele>184.32400000000001</ele>
        <time>2013-04-07T13:48:03Z</time>
      </trkpt>
      <trkpt lat="45.945443976670504" lon="8.488638997077942">
        <ele>184.375</ele>
        <time>2013-04-07T13:48:05Z</time>
      </trkpt>
      <trkpt lat="45.945222023874521" lon="8.488604966551065">
        <ele>184.04900000000001</ele>
        <time>2013-04-07T13:48:09Z</time>
      </trkpt>
      <trkpt lat="45.945170978084207" lon="8.488565990701318">
        <ele>183.982</ele>
        <time>2013-04-07T13:48:10Z</time>
      </trkpt>
      <trkpt lat="45.944466982036829" lon="8.487969031557441">
        <ele>184.34399999999999</ele>
        <time>2013-04-07T13:48:24Z</time>
      </trkpt>
      <trkpt lat="45.943842027336359" lon="8.487450024113059">
        <ele>184.833</ele>
        <time>2013-04-07T13:48:36Z</time>
      </trkpt>
      <trkpt lat="45.943185975775123" lon="8.486967980861664">
        <ele>185.06</ele>
        <time>2013-04-07T13:48:48Z</time>
      </trkpt>
      <trkpt lat="45.942451972514391" lon="8.486456014215946">
        <ele>185.125</ele>
        <time>2013-04-07T13:49:01Z</time>
      </trkpt>
      <trkpt lat="45.942008988931775" lon="8.486147979274392">
        <ele>186.81299999999999</ele>
        <time>2013-04-07T13:49:10Z</time>
      </trkpt>
      <trkpt lat="45.941436002030969" lon="8.485782025381923">
        <ele>188.40600000000001</ele>
        <time>2013-04-07T13:49:23Z</time>
      </trkpt>
      <trkpt lat="45.940875001251698" lon="8.485438032075763">
        <ele>189.16300000000001</ele>
        <time>2013-04-07T13:49:35Z</time>
      </trkpt>
      <trkpt lat="45.940272007137537" lon="8.48506897687912">
        <ele>189.506</ele>
        <time>2013-04-07T13:49:47Z</time>
      </trkpt>
      <trkpt lat="45.939658032730222" lon="8.484692964702845">
        <ele>189.47200000000001</ele>
        <time>2013-04-07T13:49:58Z</time>
      </trkpt>
      <trkpt lat="45.938995024189353" lon="8.484305972233415">
        <ele>188.88399999999999</ele>
        <time>2013-04-07T13:50:09Z</time>
      </trkpt>
      <trkpt lat="45.938306031748652" lon="8.483911016955972">
        <ele>187.429</ele>
        <time>2013-04-07T13:50:19Z</time>
      </trkpt>
      <trkpt lat="45.937596000730991" lon="8.483510026708245">
        <ele>185.99100000000001</ele>
        <time>2013-04-07T13:50:29Z</time>
      </trkpt>
      <trkpt lat="45.936965011060238" lon="8.483141977339983">
        <ele>185.90899999999999</ele>
        <time>2013-04-07T13:50:39Z</time>
      </trkpt>
      <trkpt lat="45.936427982524037" lon="8.482778035104275">
        <ele>184.75299999999999</ele>
        <time>2013-04-07T13:50:48Z</time>
      </trkpt>
      <trkpt lat="45.935762040317059" lon="8.482386013492942">
        <ele>185.38999999999999</ele>
        <time>2013-04-07T13:51:00Z</time>
      </trkpt>
      <trkpt lat="45.935141025111079" lon="8.482008995488286">
        <ele>185.75899999999999</ele>
        <time>2013-04-07T13:51:11Z</time>
      </trkpt>
      <trkpt lat="45.934452032670379" lon="8.481591995805502">
        <ele>186.154</ele>
        <time>2013-04-07T13:51:24Z</time>
      </trkpt>
      <trkpt lat="45.933979041874409" lon="8.481312040239573">
        <ele>185.66</ele>
        <time>2013-04-07T13:51:32Z</time>
      </trkpt>
      <trkpt lat="45.933464979752898" lon="8.480996964499354">
        <ele>185.46199999999999</ele>
        <time>2013-04-07T13:51:41Z</time>
      </trkpt>
      <trkpt lat="45.932841030880809" lon="8.480609972029924">
        <ele>185.31200000000001</ele>
        <time>2013-04-07T13:51:52Z</time>
      </trkpt>
      <trkpt lat="45.932186990976334" lon="8.480206970125437">
        <ele>185.161</ele>
        <time>2013-04-07T13:52:03Z</time>
      </trkpt>
      <trkpt lat="45.931552983820438" lon="8.479822995141149">
        <ele>185.851</ele>
        <time>2013-04-07T13:52:14Z</time>
      </trkpt>
      <trkpt lat="45.93106197193265" lon="8.479522000998259">
        <ele>188.09700000000001</ele>
        <time>2013-04-07T13:52:24Z</time>
      </trkpt>
      <trkpt lat="45.930926017463207" lon="8.479445977136493">
        <ele>188.47499999999999</ele>
        <time>2013-04-07T13:52:27Z</time>
      </trkpt>
      <trkpt lat="45.93065301887691" lon="8.479304993525147">
        <ele>189.38499999999999</ele>
        <time>2013-04-07T13:52:33Z</time>
      </trkpt>
      <trkpt lat="45.930255968123674" lon="8.479151017963886">
        <ele>190.72399999999999</ele>
        <time>2013-04-07T13:52:42Z</time>
      </trkpt>
      <trkpt lat="45.929865958169103" lon="8.479078011587262">
        <ele>191.84999999999999</ele>
        <time>2013-04-07T13:52:51Z</time>
      </trkpt>
      <trkpt lat="45.929824970662594" lon="8.479072982445359">
        <ele>191.881</ele>
        <time>2013-04-07T13:52:52Z</time>
      </trkpt>
      <trkpt lat="45.929589020088315" lon="8.479131991043687">
        <ele>191.875</ele>
        <time>2013-04-07T13:52:58Z</time>
      </trkpt>
      <trkpt lat="45.929559012874961" lon="8.479270040988922">
        <ele>192.00200000000001</ele>
        <time>2013-04-07T13:53:01Z</time>
      </trkpt>
      <trkpt lat="45.92962397262454" lon="8.479408007115126">
        <ele>192.33699999999999</ele>
        <time>2013-04-07T13:53:04Z</time>
      </trkpt>
      <trkpt lat="45.929712988436222" lon="8.479643035680056">
        <ele>193.07900000000001</ele>
        <time>2013-04-07T13:53:09Z</time>
      </trkpt>
      <trkpt lat="45.929652974009514" lon="8.479756023734808">
        <ele>193.43199999999999</ele>
        <time>2013-04-07T13:53:13Z</time>
      </trkpt>
      <trkpt lat="45.929598994553089" lon="8.479778990149498">
        <ele>193.34299999999999</ele>
        <time>2013-04-07T13:53:17Z</time>
      </trkpt>
      <trkpt lat="45.929607041180134" lon="8.479760969057679">
        <ele>193.261</ele>
        <time>2013-04-07T13:53:36Z</time>
      </trkpt>
    </trkseg>
  </trk>

</gpx>
